<?xml version="1.0" encoding="UTF-8" standalone="no" ?>
<gpx xmlns="http://www.topografix.com/GPX/1/1" xmlns:xsi="http://www.w3.org/2001/XMLSchema-instance" xsi:schemaLocation="http://www.topografix.com/GPX/1/1 http://www.topografix.com/GPX/1/1/gpx.xsd" version="1.1" creator="VisuGPX - https://www.visugpx.com">
  <metadata>
    <name>Pornichet 23/09/2021</name>
    <desc><![CDATA[Sortie VTT jeudi 23 septembre 2021]]></desc>
  </metadata>
  <trk>
    <name><![CDATA[Pornichet Cyclisme]]></name>
    <trkseg>
      <trkpt lat="47.26329" lon="-2.31568">
        <ele>6.8</ele>
        <time>2021-09-23T06:52:07.000Z</time>
      </trkpt>
      <trkpt lat="47.26333" lon="-2.31592">
        <ele>7</ele>
        <time>2021-09-23T06:52:11.000Z</time>
      </trkpt>
      <trkpt lat="47.26334" lon="-2.31598">
        <ele>0.20000000298023</ele>
        <time>2021-09-23T06:52:12.000Z</time>
      </trkpt>
      <trkpt lat="47.26339" lon="-2.31618">
        <ele>0.20000000298023</ele>
        <time>2021-09-23T06:52:15.000Z</time>
      </trkpt>
      <trkpt lat="47.26342" lon="-2.31643">
        <ele>0.20000000298023</ele>
        <time>2021-09-23T06:52:20.000Z</time>
      </trkpt>
      <trkpt lat="47.2634" lon="-2.31644">
        <ele>0.20000000298023</ele>
        <time>2021-09-23T06:52:21.000Z</time>
      </trkpt>
      <trkpt lat="47.26332" lon="-2.31651">
        <ele>0.20000000298023</ele>
        <time>2021-09-23T06:52:24.000Z</time>
      </trkpt>
      <trkpt lat="47.26329" lon="-2.31654">
        <ele>0.20000000298023</ele>
        <time>2021-09-23T06:52:25.000Z</time>
      </trkpt>
      <trkpt lat="47.26318" lon="-2.31662">
        <ele>0.20000000298023</ele>
        <time>2021-09-23T06:52:28.000Z</time>
      </trkpt>
      <trkpt lat="47.26307" lon="-2.31671">
        <ele>-0.40000000596046</ele>
        <time>2021-09-23T06:52:31.000Z</time>
      </trkpt>
      <trkpt lat="47.26303" lon="-2.31674">
        <ele>-0.80000001192093</ele>
        <time>2021-09-23T06:52:32.000Z</time>
      </trkpt>
      <trkpt lat="47.26299" lon="-2.31676">
        <ele>-1.2000000476837</ele>
        <time>2021-09-23T06:52:33.000Z</time>
      </trkpt>
      <trkpt lat="47.26294" lon="-2.31678">
        <ele>-1.6000000238419</ele>
        <time>2021-09-23T06:52:34.000Z</time>
      </trkpt>
      <trkpt lat="47.26289" lon="-2.31681">
        <ele>-2</ele>
        <time>2021-09-23T06:52:35.000Z</time>
      </trkpt>
      <trkpt lat="47.26275" lon="-2.3169">
        <ele>-2</ele>
        <time>2021-09-23T06:52:38.000Z</time>
      </trkpt>
      <trkpt lat="47.26249" lon="-2.31705">
        <ele>-2</ele>
        <time>2021-09-23T06:52:43.000Z</time>
      </trkpt>
      <trkpt lat="47.26246" lon="-2.31709">
        <ele>-2.7999999523163</ele>
        <time>2021-09-23T06:52:44.000Z</time>
      </trkpt>
      <trkpt lat="47.26245" lon="-2.31714">
        <ele>-3.2000000476837</ele>
        <time>2021-09-23T06:52:45.000Z</time>
      </trkpt>
      <trkpt lat="47.26245" lon="-2.3172">
        <ele>-3.5999999046326</ele>
        <time>2021-09-23T06:52:46.000Z</time>
      </trkpt>
      <trkpt lat="47.26245" lon="-2.31726">
        <ele>-4</ele>
        <time>2021-09-23T06:52:47.000Z</time>
      </trkpt>
      <trkpt lat="47.26246" lon="-2.31737">
        <ele>-4</ele>
        <time>2021-09-23T06:52:49.000Z</time>
      </trkpt>
      <trkpt lat="47.26247" lon="-2.31743">
        <ele>-4</ele>
        <time>2021-09-23T06:52:50.000Z</time>
      </trkpt>
      <trkpt lat="47.26249" lon="-2.31769">
        <ele>-4</ele>
        <time>2021-09-23T06:52:54.000Z</time>
      </trkpt>
      <trkpt lat="47.26249" lon="-2.31789">
        <ele>-4</ele>
        <time>2021-09-23T06:52:57.000Z</time>
      </trkpt>
      <trkpt lat="47.26246" lon="-2.31832">
        <ele>-4</ele>
        <time>2021-09-23T06:53:04.000Z</time>
      </trkpt>
      <trkpt lat="47.26241" lon="-2.31867">
        <ele>-4</ele>
        <time>2021-09-23T06:53:10.000Z</time>
      </trkpt>
      <trkpt lat="47.2623" lon="-2.31878">
        <ele>-4</ele>
        <time>2021-09-23T06:53:14.000Z</time>
      </trkpt>
      <trkpt lat="47.26219" lon="-2.31889">
        <ele>-4</ele>
        <time>2021-09-23T06:53:18.000Z</time>
      </trkpt>
      <trkpt lat="47.26207" lon="-2.31907">
        <ele>-4</ele>
        <time>2021-09-23T06:53:23.000Z</time>
      </trkpt>
      <trkpt lat="47.26203" lon="-2.3191">
        <ele>-4.5999999046326</ele>
        <time>2021-09-23T06:53:24.000Z</time>
      </trkpt>
      <trkpt lat="47.26201" lon="-2.31913">
        <ele>-5</ele>
        <time>2021-09-23T06:53:25.000Z</time>
      </trkpt>
      <trkpt lat="47.26199" lon="-2.31917">
        <ele>-5.4000000953674</ele>
        <time>2021-09-23T06:53:26.000Z</time>
      </trkpt>
      <trkpt lat="47.26196" lon="-2.31922">
        <ele>-5.8000001907349</ele>
        <time>2021-09-23T06:53:27.000Z</time>
      </trkpt>
      <trkpt lat="47.26195" lon="-2.31928">
        <ele>-6.1999998092651</ele>
        <time>2021-09-23T06:53:28.000Z</time>
      </trkpt>
      <trkpt lat="47.26194" lon="-2.31933">
        <ele>-6.1999998092651</ele>
        <time>2021-09-23T06:53:29.000Z</time>
      </trkpt>
      <trkpt lat="47.26187" lon="-2.31942">
        <ele>-6.1999998092651</ele>
        <time>2021-09-23T06:53:32.000Z</time>
      </trkpt>
      <trkpt lat="47.26171" lon="-2.31958">
        <ele>-6.1999998092651</ele>
        <time>2021-09-23T06:53:37.000Z</time>
      </trkpt>
      <trkpt lat="47.26154" lon="-2.31975">
        <ele>-6.1999998092651</ele>
        <time>2021-09-23T06:53:43.000Z</time>
      </trkpt>
      <trkpt lat="47.26153" lon="-2.31981">
        <ele>-6.1999998092651</ele>
        <time>2021-09-23T06:53:44.000Z</time>
      </trkpt>
      <trkpt lat="47.26152" lon="-2.3199">
        <ele>-6.1999998092651</ele>
        <time>2021-09-23T06:53:46.000Z</time>
      </trkpt>
      <trkpt lat="47.26151" lon="-2.31993">
        <ele>-6.1999998092651</ele>
        <time>2021-09-23T06:53:47.000Z</time>
      </trkpt>
      <trkpt lat="47.26146" lon="-2.31994">
        <ele>-6.1999998092651</ele>
        <time>2021-09-23T06:53:49.000Z</time>
      </trkpt>
      <trkpt lat="47.26138" lon="-2.31994">
        <ele>-6.1999998092651</ele>
        <time>2021-09-23T06:53:52.000Z</time>
      </trkpt>
      <trkpt lat="47.26128" lon="-2.31995">
        <ele>-6.1999998092651</ele>
        <time>2021-09-23T06:53:55.000Z</time>
      </trkpt>
      <trkpt lat="47.26113" lon="-2.32007">
        <ele>-6.1999998092651</ele>
        <time>2021-09-23T06:54:00.000Z</time>
      </trkpt>
      <trkpt lat="47.26106" lon="-2.32016">
        <ele>-6.1999998092651</ele>
        <time>2021-09-23T06:54:02.000Z</time>
      </trkpt>
      <trkpt lat="47.26102" lon="-2.32028">
        <ele>-6.1999998092651</ele>
        <time>2021-09-23T06:54:04.000Z</time>
      </trkpt>
      <trkpt lat="47.26098" lon="-2.3204">
        <ele>-6.1999998092651</ele>
        <time>2021-09-23T06:54:06.000Z</time>
      </trkpt>
      <trkpt lat="47.26088" lon="-2.32078">
        <ele>-6.1999998092651</ele>
        <time>2021-09-23T06:54:12.000Z</time>
      </trkpt>
      <trkpt lat="47.26073" lon="-2.32126">
        <ele>-6.1999998092651</ele>
        <time>2021-09-23T06:54:20.000Z</time>
      </trkpt>
      <trkpt lat="47.2607" lon="-2.32131">
        <ele>-6.1999998092651</ele>
        <time>2021-09-23T06:54:21.000Z</time>
      </trkpt>
      <trkpt lat="47.26054" lon="-2.32169">
        <ele>-6.1999998092651</ele>
        <time>2021-09-23T06:54:28.000Z</time>
      </trkpt>
      <trkpt lat="47.26048" lon="-2.32187">
        <ele>-6.1999998092651</ele>
        <time>2021-09-23T06:54:31.000Z</time>
      </trkpt>
      <trkpt lat="47.26039" lon="-2.322">
        <ele>-6.1999998092651</ele>
        <time>2021-09-23T06:54:34.000Z</time>
      </trkpt>
      <trkpt lat="47.26013" lon="-2.32235">
        <ele>-6.1999998092651</ele>
        <time>2021-09-23T06:54:42.000Z</time>
      </trkpt>
      <trkpt lat="47.25994" lon="-2.32255">
        <ele>-6.1999998092651</ele>
        <time>2021-09-23T06:54:47.000Z</time>
      </trkpt>
      <trkpt lat="47.25987" lon="-2.32264">
        <ele>-6.1999998092651</ele>
        <time>2021-09-23T06:54:49.000Z</time>
      </trkpt>
      <trkpt lat="47.25958" lon="-2.32299">
        <ele>-6.1999998092651</ele>
        <time>2021-09-23T06:54:57.000Z</time>
      </trkpt>
      <trkpt lat="47.25954" lon="-2.32302">
        <ele>-6.1999998092651</ele>
        <time>2021-09-23T06:54:58.000Z</time>
      </trkpt>
      <trkpt lat="47.2594" lon="-2.32319">
        <ele>-6.1999998092651</ele>
        <time>2021-09-23T06:55:02.000Z</time>
      </trkpt>
      <trkpt lat="47.25916" lon="-2.32353">
        <ele>-6.1999998092651</ele>
        <time>2021-09-23T06:55:09.000Z</time>
      </trkpt>
      <trkpt lat="47.25894" lon="-2.32385">
        <ele>-6.1999998092651</ele>
        <time>2021-09-23T06:55:16.000Z</time>
      </trkpt>
      <trkpt lat="47.2586" lon="-2.32428">
        <ele>-6.1999998092651</ele>
        <time>2021-09-23T06:55:26.000Z</time>
      </trkpt>
      <trkpt lat="47.25855" lon="-2.32454">
        <ele>-6.1999998092651</ele>
        <time>2021-09-23T06:55:30.000Z</time>
      </trkpt>
      <trkpt lat="47.25856" lon="-2.3246">
        <ele>-6.1999998092651</ele>
        <time>2021-09-23T06:55:31.000Z</time>
      </trkpt>
      <trkpt lat="47.25862" lon="-2.32468">
        <ele>-6.1999998092651</ele>
        <time>2021-09-23T06:55:33.000Z</time>
      </trkpt>
      <trkpt lat="47.25866" lon="-2.3247">
        <ele>-6.1999998092651</ele>
        <time>2021-09-23T06:55:34.000Z</time>
      </trkpt>
      <trkpt lat="47.25881" lon="-2.32484">
        <ele>-6.1999998092651</ele>
        <time>2021-09-23T06:55:38.000Z</time>
      </trkpt>
      <trkpt lat="47.25887" lon="-2.32502">
        <ele>-6.1999998092651</ele>
        <time>2021-09-23T06:55:41.000Z</time>
      </trkpt>
      <trkpt lat="47.25889" lon="-2.32508">
        <ele>-6.1999998092651</ele>
        <time>2021-09-23T06:55:42.000Z</time>
      </trkpt>
      <trkpt lat="47.25901" lon="-2.32553">
        <ele>-6.1999998092651</ele>
        <time>2021-09-23T06:55:49.000Z</time>
      </trkpt>
      <trkpt lat="47.25905" lon="-2.32567">
        <ele>-6.1999998092651</ele>
        <time>2021-09-23T06:55:51.000Z</time>
      </trkpt>
      <trkpt lat="47.25913" lon="-2.32584">
        <ele>-6.1999998092651</ele>
        <time>2021-09-23T06:55:54.000Z</time>
      </trkpt>
      <trkpt lat="47.2592" lon="-2.3261">
        <ele>-6.1999998092651</ele>
        <time>2021-09-23T06:55:58.000Z</time>
      </trkpt>
      <trkpt lat="47.25921" lon="-2.32617">
        <ele>-6.1999998092651</ele>
        <time>2021-09-23T06:55:59.000Z</time>
      </trkpt>
      <trkpt lat="47.25923" lon="-2.32637">
        <ele>-6.1999998092651</ele>
        <time>2021-09-23T06:56:02.000Z</time>
      </trkpt>
      <trkpt lat="47.25923" lon="-2.32655">
        <ele>-6.1999998092651</ele>
        <time>2021-09-23T06:56:05.000Z</time>
      </trkpt>
      <trkpt lat="47.25926" lon="-2.32664">
        <ele>-6.1999998092651</ele>
        <time>2021-09-23T06:56:07.000Z</time>
      </trkpt>
      <trkpt lat="47.25929" lon="-2.32666">
        <ele>-6.1999998092651</ele>
        <time>2021-09-23T06:56:08.000Z</time>
      </trkpt>
      <trkpt lat="47.25944" lon="-2.32667">
        <ele>-6.1999998092651</ele>
        <time>2021-09-23T06:56:12.000Z</time>
      </trkpt>
      <trkpt lat="47.25966" lon="-2.32665">
        <ele>-6.1999998092651</ele>
        <time>2021-09-23T06:56:17.000Z</time>
      </trkpt>
      <trkpt lat="47.25974" lon="-2.32664">
        <ele>-5.8000001907349</ele>
        <time>2021-09-23T06:56:19.000Z</time>
      </trkpt>
      <trkpt lat="47.25979" lon="-2.32663">
        <ele>-5.4000000953674</ele>
        <time>2021-09-23T06:56:20.000Z</time>
      </trkpt>
      <trkpt lat="47.25983" lon="-2.32663">
        <ele>-5</ele>
        <time>2021-09-23T06:56:21.000Z</time>
      </trkpt>
      <trkpt lat="47.25987" lon="-2.32662">
        <ele>-4.5999999046326</ele>
        <time>2021-09-23T06:56:22.000Z</time>
      </trkpt>
      <trkpt lat="47.25992" lon="-2.32661">
        <ele>-4.1999998092651</ele>
        <time>2021-09-23T06:56:23.000Z</time>
      </trkpt>
      <trkpt lat="47.25996" lon="-2.32661">
        <ele>-4.1999998092651</ele>
        <time>2021-09-23T06:56:24.000Z</time>
      </trkpt>
      <trkpt lat="47.26028" lon="-2.32655">
        <ele>-4.1999998092651</ele>
        <time>2021-09-23T06:56:32.000Z</time>
      </trkpt>
      <trkpt lat="47.26055" lon="-2.32641">
        <ele>-4.1999998092651</ele>
        <time>2021-09-23T06:56:37.000Z</time>
      </trkpt>
      <trkpt lat="47.2607" lon="-2.32635">
        <ele>-4.1999998092651</ele>
        <time>2021-09-23T06:56:40.000Z</time>
      </trkpt>
      <trkpt lat="47.26087" lon="-2.32631">
        <ele>-3.7999999523163</ele>
        <time>2021-09-23T06:56:44.000Z</time>
      </trkpt>
      <trkpt lat="47.26092" lon="-2.32631">
        <ele>-3.4000000953674</ele>
        <time>2021-09-23T06:56:45.000Z</time>
      </trkpt>
      <trkpt lat="47.26096" lon="-2.32631">
        <ele>-3</ele>
        <time>2021-09-23T06:56:46.000Z</time>
      </trkpt>
      <trkpt lat="47.26101" lon="-2.32632">
        <ele>-2.5999999046326</ele>
        <time>2021-09-23T06:56:47.000Z</time>
      </trkpt>
      <trkpt lat="47.26105" lon="-2.32633">
        <ele>-2.2000000476837</ele>
        <time>2021-09-23T06:56:48.000Z</time>
      </trkpt>
      <trkpt lat="47.26127" lon="-2.32637">
        <ele>-2.2000000476837</ele>
        <time>2021-09-23T06:56:53.000Z</time>
      </trkpt>
      <trkpt lat="47.26132" lon="-2.3264">
        <ele>-2.2000000476837</ele>
        <time>2021-09-23T06:56:54.000Z</time>
      </trkpt>
      <trkpt lat="47.26166" lon="-2.32665">
        <ele>-2.2000000476837</ele>
        <time>2021-09-23T06:57:02.000Z</time>
      </trkpt>
      <trkpt lat="47.26196" lon="-2.32701">
        <ele>-2.2000000476837</ele>
        <time>2021-09-23T06:57:10.000Z</time>
      </trkpt>
      <trkpt lat="47.26227" lon="-2.32747">
        <ele>-2.2000000476837</ele>
        <time>2021-09-23T06:57:18.000Z</time>
      </trkpt>
      <trkpt lat="47.26247" lon="-2.32787">
        <ele>-2.2000000476837</ele>
        <time>2021-09-23T06:57:24.000Z</time>
      </trkpt>
      <trkpt lat="47.26267" lon="-2.3284">
        <ele>-2.2000000476837</ele>
        <time>2021-09-23T06:57:31.000Z</time>
      </trkpt>
      <trkpt lat="47.2627" lon="-2.32846">
        <ele>-2.2000000476837</ele>
        <time>2021-09-23T06:57:32.000Z</time>
      </trkpt>
      <trkpt lat="47.26284" lon="-2.32857">
        <ele>-2.2000000476837</ele>
        <time>2021-09-23T06:57:35.000Z</time>
      </trkpt>
      <trkpt lat="47.263" lon="-2.32876">
        <ele>-2.2000000476837</ele>
        <time>2021-09-23T06:57:39.000Z</time>
      </trkpt>
      <trkpt lat="47.26305" lon="-2.32889">
        <ele>-2.2000000476837</ele>
        <time>2021-09-23T06:57:41.000Z</time>
      </trkpt>
      <trkpt lat="47.26313" lon="-2.32917">
        <ele>-2.2000000476837</ele>
        <time>2021-09-23T06:57:45.000Z</time>
      </trkpt>
      <trkpt lat="47.26331" lon="-2.32966">
        <ele>-2.2000000476837</ele>
        <time>2021-09-23T06:57:52.000Z</time>
      </trkpt>
      <trkpt lat="47.26334" lon="-2.32972">
        <ele>-2.2000000476837</ele>
        <time>2021-09-23T06:57:53.000Z</time>
      </trkpt>
      <trkpt lat="47.26346" lon="-2.32987">
        <ele>-2.2000000476837</ele>
        <time>2021-09-23T06:57:56.000Z</time>
      </trkpt>
      <trkpt lat="47.26351" lon="-2.32999">
        <ele>-2.2000000476837</ele>
        <time>2021-09-23T06:57:58.000Z</time>
      </trkpt>
      <trkpt lat="47.26353" lon="-2.33014">
        <ele>-2.2000000476837</ele>
        <time>2021-09-23T06:58:00.000Z</time>
      </trkpt>
      <trkpt lat="47.26356" lon="-2.33044">
        <ele>-2.2000000476837</ele>
        <time>2021-09-23T06:58:04.000Z</time>
      </trkpt>
      <trkpt lat="47.26362" lon="-2.33105">
        <ele>-2.2000000476837</ele>
        <time>2021-09-23T06:58:12.000Z</time>
      </trkpt>
      <trkpt lat="47.26369" lon="-2.33169">
        <ele>-2.2000000476837</ele>
        <time>2021-09-23T06:58:21.000Z</time>
      </trkpt>
      <trkpt lat="47.26372" lon="-2.33218">
        <ele>-2.2000000476837</ele>
        <time>2021-09-23T06:58:28.000Z</time>
      </trkpt>
      <trkpt lat="47.26374" lon="-2.33246">
        <ele>-2.2000000476837</ele>
        <time>2021-09-23T06:58:32.000Z</time>
      </trkpt>
      <trkpt lat="47.2638" lon="-2.33264">
        <ele>-2.2000000476837</ele>
        <time>2021-09-23T06:58:35.000Z</time>
      </trkpt>
      <trkpt lat="47.26394" lon="-2.33273">
        <ele>-2.2000000476837</ele>
        <time>2021-09-23T06:58:38.000Z</time>
      </trkpt>
      <trkpt lat="47.26404" lon="-2.33274">
        <ele>-2.2000000476837</ele>
        <time>2021-09-23T06:58:40.000Z</time>
      </trkpt>
      <trkpt lat="47.26434" lon="-2.33277">
        <ele>-2.2000000476837</ele>
        <time>2021-09-23T06:58:46.000Z</time>
      </trkpt>
      <trkpt lat="47.2647" lon="-2.33281">
        <ele>-2.2000000476837</ele>
        <time>2021-09-23T06:58:54.000Z</time>
      </trkpt>
      <trkpt lat="47.26491" lon="-2.33285">
        <ele>-2.2000000476837</ele>
        <time>2021-09-23T06:59:00.000Z</time>
      </trkpt>
      <trkpt lat="47.26508" lon="-2.3329">
        <ele>-2.2000000476837</ele>
        <time>2021-09-23T06:59:05.000Z</time>
      </trkpt>
      <trkpt lat="47.26525" lon="-2.33291">
        <ele>-2.2000000476837</ele>
        <time>2021-09-23T06:59:10.000Z</time>
      </trkpt>
      <trkpt lat="47.26533" lon="-2.33297">
        <ele>-2.2000000476837</ele>
        <time>2021-09-23T06:59:12.000Z</time>
      </trkpt>
      <trkpt lat="47.26533" lon="-2.33297">
        <ele>-2.2000000476837</ele>
        <time>2021-09-23T06:59:14.000Z</time>
      </trkpt>
      <trkpt lat="47.26534" lon="-2.33299">
        <ele>-2.2000000476837</ele>
        <time>2021-09-23T06:59:15.000Z</time>
      </trkpt>
      <trkpt lat="47.26541" lon="-2.33297">
        <ele>-2.2000000476837</ele>
        <time>2021-09-23T06:59:17.000Z</time>
      </trkpt>
      <trkpt lat="47.26547" lon="-2.3329">
        <ele>-2.2000000476837</ele>
        <time>2021-09-23T06:59:19.000Z</time>
      </trkpt>
      <trkpt lat="47.26557" lon="-2.33279">
        <ele>-2.2000000476837</ele>
        <time>2021-09-23T06:59:22.000Z</time>
      </trkpt>
      <trkpt lat="47.26596" lon="-2.33241">
        <ele>-2.2000000476837</ele>
        <time>2021-09-23T06:59:32.000Z</time>
      </trkpt>
      <trkpt lat="47.26626" lon="-2.33211">
        <ele>-2.2000000476837</ele>
        <time>2021-09-23T06:59:40.000Z</time>
      </trkpt>
      <trkpt lat="47.26629" lon="-2.33207">
        <ele>-2.2000000476837</ele>
        <time>2021-09-23T06:59:41.000Z</time>
      </trkpt>
      <trkpt lat="47.26647" lon="-2.3319">
        <ele>-2.2000000476837</ele>
        <time>2021-09-23T06:59:46.000Z</time>
      </trkpt>
      <trkpt lat="47.26671" lon="-2.33165">
        <ele>-2.2000000476837</ele>
        <time>2021-09-23T06:59:53.000Z</time>
      </trkpt>
      <trkpt lat="47.26678" lon="-2.33157">
        <ele>-2.2000000476837</ele>
        <time>2021-09-23T06:59:55.000Z</time>
      </trkpt>
      <trkpt lat="47.26685" lon="-2.3315">
        <ele>-2.2000000476837</ele>
        <time>2021-09-23T06:59:57.000Z</time>
      </trkpt>
      <trkpt lat="47.26696" lon="-2.33139">
        <ele>-2.2000000476837</ele>
        <time>2021-09-23T07:00:00.000Z</time>
      </trkpt>
      <trkpt lat="47.26714" lon="-2.3312">
        <ele>-2.2000000476837</ele>
        <time>2021-09-23T07:00:05.000Z</time>
      </trkpt>
      <trkpt lat="47.26721" lon="-2.33113">
        <ele>-2.2000000476837</ele>
        <time>2021-09-23T07:00:07.000Z</time>
      </trkpt>
      <trkpt lat="47.2674" lon="-2.33092">
        <ele>-2.2000000476837</ele>
        <time>2021-09-23T07:00:13.000Z</time>
      </trkpt>
      <trkpt lat="47.26747" lon="-2.33088">
        <ele>-2.2000000476837</ele>
        <time>2021-09-23T07:00:15.000Z</time>
      </trkpt>
      <trkpt lat="47.26751" lon="-2.33088">
        <ele>-2.2000000476837</ele>
        <time>2021-09-23T07:00:16.000Z</time>
      </trkpt>
      <trkpt lat="47.2676" lon="-2.33102">
        <ele>-2.2000000476837</ele>
        <time>2021-09-23T07:00:19.000Z</time>
      </trkpt>
      <trkpt lat="47.26761" lon="-2.3314">
        <ele>-2.2000000476837</ele>
        <time>2021-09-23T07:00:24.000Z</time>
      </trkpt>
      <trkpt lat="47.2676" lon="-2.33147">
        <ele>-2.2000000476837</ele>
        <time>2021-09-23T07:00:25.000Z</time>
      </trkpt>
      <trkpt lat="47.2675" lon="-2.33185">
        <ele>-2.2000000476837</ele>
        <time>2021-09-23T07:00:31.000Z</time>
      </trkpt>
      <trkpt lat="47.26739" lon="-2.33227">
        <ele>-2.2000000476837</ele>
        <time>2021-09-23T07:00:38.000Z</time>
      </trkpt>
      <trkpt lat="47.26734" lon="-2.33245">
        <ele>-2.2000000476837</ele>
        <time>2021-09-23T07:00:41.000Z</time>
      </trkpt>
      <trkpt lat="47.26733" lon="-2.33265">
        <ele>-2.2000000476837</ele>
        <time>2021-09-23T07:00:44.000Z</time>
      </trkpt>
      <trkpt lat="47.26734" lon="-2.3328">
        <ele>-2.2000000476837</ele>
        <time>2021-09-23T07:00:46.000Z</time>
      </trkpt>
      <trkpt lat="47.26738" lon="-2.333">
        <ele>-2.2000000476837</ele>
        <time>2021-09-23T07:00:49.000Z</time>
      </trkpt>
      <trkpt lat="47.26752" lon="-2.33357">
        <ele>-2.2000000476837</ele>
        <time>2021-09-23T07:00:57.000Z</time>
      </trkpt>
      <trkpt lat="47.26758" lon="-2.33399">
        <ele>-2.2000000476837</ele>
        <time>2021-09-23T07:01:03.000Z</time>
      </trkpt>
      <trkpt lat="47.26761" lon="-2.33427">
        <ele>-2.2000000476837</ele>
        <time>2021-09-23T07:01:07.000Z</time>
      </trkpt>
      <trkpt lat="47.26763" lon="-2.3344">
        <ele>-2.2000000476837</ele>
        <time>2021-09-23T07:01:09.000Z</time>
      </trkpt>
      <trkpt lat="47.26769" lon="-2.33467">
        <ele>-2.2000000476837</ele>
        <time>2021-09-23T07:01:13.000Z</time>
      </trkpt>
      <trkpt lat="47.26772" lon="-2.33489">
        <ele>-2.2000000476837</ele>
        <time>2021-09-23T07:01:16.000Z</time>
      </trkpt>
      <trkpt lat="47.2678" lon="-2.3354">
        <ele>-2.2000000476837</ele>
        <time>2021-09-23T07:01:23.000Z</time>
      </trkpt>
      <trkpt lat="47.26785" lon="-2.33599">
        <ele>-2.2000000476837</ele>
        <time>2021-09-23T07:01:31.000Z</time>
      </trkpt>
      <trkpt lat="47.26784" lon="-2.33606">
        <ele>-2.2000000476837</ele>
        <time>2021-09-23T07:01:32.000Z</time>
      </trkpt>
      <trkpt lat="47.26782" lon="-2.33673">
        <ele>-2.2000000476837</ele>
        <time>2021-09-23T07:01:42.000Z</time>
      </trkpt>
      <trkpt lat="47.26786" lon="-2.33705">
        <ele>-2.2000000476837</ele>
        <time>2021-09-23T07:01:48.000Z</time>
      </trkpt>
      <trkpt lat="47.26791" lon="-2.33714">
        <ele>-1.7999999523163</ele>
        <time>2021-09-23T07:01:50.000Z</time>
      </trkpt>
      <trkpt lat="47.26793" lon="-2.33717">
        <ele>-1.2000000476837</ele>
        <time>2021-09-23T07:01:51.000Z</time>
      </trkpt>
      <trkpt lat="47.26796" lon="-2.33721">
        <ele>-0.80000001192093</ele>
        <time>2021-09-23T07:01:52.000Z</time>
      </trkpt>
      <trkpt lat="47.26799" lon="-2.33724">
        <ele>-0.40000000596046</ele>
        <time>2021-09-23T07:01:53.000Z</time>
      </trkpt>
      <trkpt lat="47.26803" lon="-2.33728">
        <ele>7.2</ele>
        <time>2021-09-23T07:01:54.000Z</time>
      </trkpt>
      <trkpt lat="47.26823" lon="-2.33749">
        <ele>7.4</ele>
        <time>2021-09-23T07:02:00.000Z</time>
      </trkpt>
      <trkpt lat="47.26834" lon="-2.3376">
        <ele>7</ele>
        <time>2021-09-23T07:02:03.000Z</time>
      </trkpt>
      <trkpt lat="47.26844" lon="-2.33773">
        <ele>7</ele>
        <time>2021-09-23T07:02:06.000Z</time>
      </trkpt>
      <trkpt lat="47.2686" lon="-2.33781">
        <ele>7</ele>
        <time>2021-09-23T07:02:10.000Z</time>
      </trkpt>
      <trkpt lat="47.26889" lon="-2.33793">
        <ele>7.5</ele>
        <time>2021-09-23T07:02:17.000Z</time>
      </trkpt>
      <trkpt lat="47.26902" lon="-2.33814">
        <ele>8</ele>
        <time>2021-09-23T07:02:21.000Z</time>
      </trkpt>
      <trkpt lat="47.26905" lon="-2.33826">
        <ele>8</ele>
        <time>2021-09-23T07:02:23.000Z</time>
      </trkpt>
      <trkpt lat="47.26911" lon="-2.33858">
        <ele>8.7</ele>
        <time>2021-09-23T07:02:28.000Z</time>
      </trkpt>
      <trkpt lat="47.26921" lon="-2.33902">
        <ele>0.40000000596046</ele>
        <time>2021-09-23T07:02:35.000Z</time>
      </trkpt>
      <trkpt lat="47.26922" lon="-2.33909">
        <ele>0.80000001192093</ele>
        <time>2021-09-23T07:02:36.000Z</time>
      </trkpt>
      <trkpt lat="47.26923" lon="-2.33915">
        <ele>1.2000000476837</ele>
        <time>2021-09-23T07:02:37.000Z</time>
      </trkpt>
      <trkpt lat="47.26925" lon="-2.33921">
        <ele>1.6000000238419</ele>
        <time>2021-09-23T07:02:38.000Z</time>
      </trkpt>
      <trkpt lat="47.26927" lon="-2.33928">
        <ele>2</ele>
        <time>2021-09-23T07:02:39.000Z</time>
      </trkpt>
      <trkpt lat="47.26933" lon="-2.33959">
        <ele>2</ele>
        <time>2021-09-23T07:02:44.000Z</time>
      </trkpt>
      <trkpt lat="47.26936" lon="-2.33971">
        <ele>2</ele>
        <time>2021-09-23T07:02:46.000Z</time>
      </trkpt>
      <trkpt lat="47.26947" lon="-2.34015">
        <ele>2</ele>
        <time>2021-09-23T07:02:53.000Z</time>
      </trkpt>
      <trkpt lat="47.26958" lon="-2.34058">
        <ele>2</ele>
        <time>2021-09-23T07:03:00.000Z</time>
      </trkpt>
      <trkpt lat="47.26966" lon="-2.34097">
        <ele>2</ele>
        <time>2021-09-23T07:03:06.000Z</time>
      </trkpt>
      <trkpt lat="47.26968" lon="-2.34103">
        <ele>2</ele>
        <time>2021-09-23T07:03:07.000Z</time>
      </trkpt>
      <trkpt lat="47.26975" lon="-2.34136">
        <ele>2</ele>
        <time>2021-09-23T07:03:12.000Z</time>
      </trkpt>
      <trkpt lat="47.26978" lon="-2.34148">
        <ele>2</ele>
        <time>2021-09-23T07:03:14.000Z</time>
      </trkpt>
      <trkpt lat="47.2699" lon="-2.34199">
        <ele>2</ele>
        <time>2021-09-23T07:03:22.000Z</time>
      </trkpt>
      <trkpt lat="47.26998" lon="-2.34235">
        <ele>2</ele>
        <time>2021-09-23T07:03:28.000Z</time>
      </trkpt>
      <trkpt lat="47.27007" lon="-2.34284">
        <ele>2</ele>
        <time>2021-09-23T07:03:36.000Z</time>
      </trkpt>
      <trkpt lat="47.27008" lon="-2.3431">
        <ele>2</ele>
        <time>2021-09-23T07:03:41.000Z</time>
      </trkpt>
      <trkpt lat="47.27009" lon="-2.34314">
        <ele>2</ele>
        <time>2021-09-23T07:03:42.000Z</time>
      </trkpt>
      <trkpt lat="47.27015" lon="-2.3432">
        <ele>2</ele>
        <time>2021-09-23T07:03:45.000Z</time>
      </trkpt>
      <trkpt lat="47.27025" lon="-2.3432">
        <ele>2</ele>
        <time>2021-09-23T07:03:48.000Z</time>
      </trkpt>
      <trkpt lat="47.27035" lon="-2.34325">
        <ele>2</ele>
        <time>2021-09-23T07:03:51.000Z</time>
      </trkpt>
      <trkpt lat="47.2704" lon="-2.34334">
        <ele>2</ele>
        <time>2021-09-23T07:03:53.000Z</time>
      </trkpt>
      <trkpt lat="47.27042" lon="-2.3434">
        <ele>2</ele>
        <time>2021-09-23T07:03:54.000Z</time>
      </trkpt>
      <trkpt lat="47.27044" lon="-2.34352">
        <ele>2</ele>
        <time>2021-09-23T07:03:56.000Z</time>
      </trkpt>
      <trkpt lat="47.2705" lon="-2.34377">
        <ele>2</ele>
        <time>2021-09-23T07:04:00.000Z</time>
      </trkpt>
      <trkpt lat="47.27062" lon="-2.34424">
        <ele>2</ele>
        <time>2021-09-23T07:04:07.000Z</time>
      </trkpt>
      <trkpt lat="47.27074" lon="-2.34476">
        <ele>2</ele>
        <time>2021-09-23T07:04:15.000Z</time>
      </trkpt>
      <trkpt lat="47.27077" lon="-2.34489">
        <ele>2</ele>
        <time>2021-09-23T07:04:17.000Z</time>
      </trkpt>
      <trkpt lat="47.27083" lon="-2.34514">
        <ele>2</ele>
        <time>2021-09-23T07:04:21.000Z</time>
      </trkpt>
      <trkpt lat="47.27094" lon="-2.34564">
        <ele>2</ele>
        <time>2021-09-23T07:04:29.000Z</time>
      </trkpt>
      <trkpt lat="47.27104" lon="-2.34609">
        <ele>2</ele>
        <time>2021-09-23T07:04:36.000Z</time>
      </trkpt>
      <trkpt lat="47.27107" lon="-2.34624">
        <ele>2</ele>
        <time>2021-09-23T07:04:38.000Z</time>
      </trkpt>
      <trkpt lat="47.27118" lon="-2.34668">
        <ele>2</ele>
        <time>2021-09-23T07:04:44.000Z</time>
      </trkpt>
      <trkpt lat="47.27134" lon="-2.3474">
        <ele>2</ele>
        <time>2021-09-23T07:04:54.000Z</time>
      </trkpt>
      <trkpt lat="47.27144" lon="-2.34787">
        <ele>2</ele>
        <time>2021-09-23T07:05:01.000Z</time>
      </trkpt>
      <trkpt lat="47.27157" lon="-2.34842">
        <ele>2</ele>
        <time>2021-09-23T07:05:09.000Z</time>
      </trkpt>
      <trkpt lat="47.27169" lon="-2.34896">
        <ele>2.4000000953674</ele>
        <time>2021-09-23T07:05:17.000Z</time>
      </trkpt>
      <trkpt lat="47.27171" lon="-2.34902">
        <ele>3</ele>
        <time>2021-09-23T07:05:18.000Z</time>
      </trkpt>
      <trkpt lat="47.27173" lon="-2.34908">
        <ele>3.4000000953674</ele>
        <time>2021-09-23T07:05:19.000Z</time>
      </trkpt>
      <trkpt lat="47.27175" lon="-2.34914">
        <ele>3.7999999523163</ele>
        <time>2021-09-23T07:05:20.000Z</time>
      </trkpt>
      <trkpt lat="47.27177" lon="-2.3492">
        <ele>4.1999998092651</ele>
        <time>2021-09-23T07:05:21.000Z</time>
      </trkpt>
      <trkpt lat="47.2719" lon="-2.34959">
        <ele>4.1999998092651</ele>
        <time>2021-09-23T07:05:27.000Z</time>
      </trkpt>
      <trkpt lat="47.27204" lon="-2.35002">
        <ele>4.1999998092651</ele>
        <time>2021-09-23T07:05:34.000Z</time>
      </trkpt>
      <trkpt lat="47.27224" lon="-2.35058">
        <ele>4.1999998092651</ele>
        <time>2021-09-23T07:05:43.000Z</time>
      </trkpt>
      <trkpt lat="47.2724" lon="-2.35096">
        <ele>4.1999998092651</ele>
        <time>2021-09-23T07:05:49.000Z</time>
      </trkpt>
      <trkpt lat="47.27252" lon="-2.35118">
        <ele>4.1999998092651</ele>
        <time>2021-09-23T07:05:53.000Z</time>
      </trkpt>
      <trkpt lat="47.27259" lon="-2.35122">
        <ele>4.1999998092651</ele>
        <time>2021-09-23T07:05:55.000Z</time>
      </trkpt>
      <trkpt lat="47.27267" lon="-2.35119">
        <ele>4.1999998092651</ele>
        <time>2021-09-23T07:05:57.000Z</time>
      </trkpt>
      <trkpt lat="47.27274" lon="-2.35115">
        <ele>4.1999998092651</ele>
        <time>2021-09-23T07:05:59.000Z</time>
      </trkpt>
      <trkpt lat="47.27293" lon="-2.35104">
        <ele>4.1999998092651</ele>
        <time>2021-09-23T07:06:06.000Z</time>
      </trkpt>
      <trkpt lat="47.27297" lon="-2.35101">
        <ele>4.5999999046326</ele>
        <time>2021-09-23T07:06:10.000Z</time>
      </trkpt>
      <trkpt lat="47.27299" lon="-2.351">
        <ele>5.8000001907349</ele>
        <time>2021-09-23T07:06:13.000Z</time>
      </trkpt>
      <trkpt lat="47.273" lon="-2.351">
        <ele>6.1999998092651</ele>
        <time>2021-09-23T07:06:14.000Z</time>
      </trkpt>
      <trkpt lat="47.27309" lon="-2.35095">
        <ele>6.1999998092651</ele>
        <time>2021-09-23T07:06:18.000Z</time>
      </trkpt>
      <trkpt lat="47.27329" lon="-2.35086">
        <ele>6.5999999046326</ele>
        <time>2021-09-23T07:06:25.000Z</time>
      </trkpt>
      <trkpt lat="47.27332" lon="-2.35084">
        <ele>7.1999998092651</ele>
        <time>2021-09-23T07:06:26.000Z</time>
      </trkpt>
      <trkpt lat="47.27336" lon="-2.35083">
        <ele>7.5999999046326</ele>
        <time>2021-09-23T07:06:27.000Z</time>
      </trkpt>
      <trkpt lat="47.27339" lon="-2.35081">
        <ele>8</ele>
        <time>2021-09-23T07:06:28.000Z</time>
      </trkpt>
      <trkpt lat="47.27342" lon="-2.35079">
        <ele>8.6000003814697</ele>
        <time>2021-09-23T07:06:29.000Z</time>
      </trkpt>
      <trkpt lat="47.2735" lon="-2.35076">
        <ele>8.6000003814697</ele>
        <time>2021-09-23T07:06:31.000Z</time>
      </trkpt>
      <trkpt lat="47.27368" lon="-2.35067">
        <ele>9</ele>
        <time>2021-09-23T07:06:36.000Z</time>
      </trkpt>
      <trkpt lat="47.27371" lon="-2.35066">
        <ele>9.3999996185303</ele>
        <time>2021-09-23T07:06:37.000Z</time>
      </trkpt>
      <trkpt lat="47.27374" lon="-2.35064">
        <ele>9.8000001907349</ele>
        <time>2021-09-23T07:06:38.000Z</time>
      </trkpt>
      <trkpt lat="47.27378" lon="-2.35062">
        <ele>10.199999809265</ele>
        <time>2021-09-23T07:06:39.000Z</time>
      </trkpt>
      <trkpt lat="47.27381" lon="-2.3506">
        <ele>10.60000038147</ele>
        <time>2021-09-23T07:06:40.000Z</time>
      </trkpt>
      <trkpt lat="47.27395" lon="-2.35056">
        <ele>10.60000038147</ele>
        <time>2021-09-23T07:06:45.000Z</time>
      </trkpt>
      <trkpt lat="47.27401" lon="-2.35069">
        <ele>10.60000038147</ele>
        <time>2021-09-23T07:06:49.000Z</time>
      </trkpt>
      <trkpt lat="47.27403" lon="-2.35074">
        <ele>10.60000038147</ele>
        <time>2021-09-23T07:06:50.000Z</time>
      </trkpt>
      <trkpt lat="47.2741" lon="-2.35105">
        <ele>11</ele>
        <time>2021-09-23T07:06:56.000Z</time>
      </trkpt>
      <trkpt lat="47.27412" lon="-2.35111">
        <ele>11.39999961853</ele>
        <time>2021-09-23T07:06:57.000Z</time>
      </trkpt>
      <trkpt lat="47.27413" lon="-2.35116">
        <ele>11.800000190735</ele>
        <time>2021-09-23T07:06:58.000Z</time>
      </trkpt>
      <trkpt lat="47.27414" lon="-2.35121">
        <ele>12.199999809265</ele>
        <time>2021-09-23T07:06:59.000Z</time>
      </trkpt>
      <trkpt lat="47.27416" lon="-2.35127">
        <ele>12.60000038147</ele>
        <time>2021-09-23T07:07:00.000Z</time>
      </trkpt>
      <trkpt lat="47.27418" lon="-2.35137">
        <ele>12.60000038147</ele>
        <time>2021-09-23T07:07:02.000Z</time>
      </trkpt>
      <trkpt lat="47.27426" lon="-2.35169">
        <ele>12.60000038147</ele>
        <time>2021-09-23T07:07:08.000Z</time>
      </trkpt>
      <trkpt lat="47.27431" lon="-2.35191">
        <ele>12.60000038147</ele>
        <time>2021-09-23T07:07:13.000Z</time>
      </trkpt>
      <trkpt lat="47.27439" lon="-2.35234">
        <ele>12.60000038147</ele>
        <time>2021-09-23T07:07:19.000Z</time>
      </trkpt>
      <trkpt lat="47.27441" lon="-2.3525">
        <ele>12.199999809265</ele>
        <time>2021-09-23T07:07:21.000Z</time>
      </trkpt>
      <trkpt lat="47.27443" lon="-2.35257">
        <ele>11.60000038147</ele>
        <time>2021-09-23T07:07:22.000Z</time>
      </trkpt>
      <trkpt lat="47.27444" lon="-2.35265">
        <ele>11.199999809265</ele>
        <time>2021-09-23T07:07:23.000Z</time>
      </trkpt>
      <trkpt lat="47.27445" lon="-2.35274">
        <ele>10.800000190735</ele>
        <time>2021-09-23T07:07:24.000Z</time>
      </trkpt>
      <trkpt lat="47.27445" lon="-2.35282">
        <ele>10.39999961853</ele>
        <time>2021-09-23T07:07:25.000Z</time>
      </trkpt>
      <trkpt lat="47.27445" lon="-2.3529">
        <ele>10.39999961853</ele>
        <time>2021-09-23T07:07:26.000Z</time>
      </trkpt>
      <trkpt lat="47.27444" lon="-2.35314">
        <ele>10</ele>
        <time>2021-09-23T07:07:29.000Z</time>
      </trkpt>
      <trkpt lat="47.27444" lon="-2.35319">
        <ele>9.3999996185303</ele>
        <time>2021-09-23T07:07:30.000Z</time>
      </trkpt>
      <trkpt lat="47.27444" lon="-2.35324">
        <ele>9</ele>
        <time>2021-09-23T07:07:31.000Z</time>
      </trkpt>
      <trkpt lat="47.27444" lon="-2.35327">
        <ele>8.1999998092651</ele>
        <time>2021-09-23T07:07:32.000Z</time>
      </trkpt>
      <trkpt lat="47.27444" lon="-2.35329">
        <ele>8.1999998092651</ele>
        <time>2021-09-23T07:07:33.000Z</time>
      </trkpt>
      <trkpt lat="47.27444" lon="-2.3533">
        <ele>7.8000001907349</ele>
        <time>2021-09-23T07:07:34.000Z</time>
      </trkpt>
      <trkpt lat="47.27444" lon="-2.35329">
        <ele>7.1999998092651</ele>
        <time>2021-09-23T07:07:35.000Z</time>
      </trkpt>
      <trkpt lat="47.27444" lon="-2.35327">
        <ele>6.8000001907349</ele>
        <time>2021-09-23T07:07:36.000Z</time>
      </trkpt>
      <trkpt lat="47.27444" lon="-2.35323">
        <ele>6.4000000953674</ele>
        <time>2021-09-23T07:07:37.000Z</time>
      </trkpt>
      <trkpt lat="47.27444" lon="-2.35319">
        <ele>6</ele>
        <time>2021-09-23T07:07:38.000Z</time>
      </trkpt>
      <trkpt lat="47.27444" lon="-2.35314">
        <ele>6</ele>
        <time>2021-09-23T07:07:39.000Z</time>
      </trkpt>
      <trkpt lat="47.27444" lon="-2.35309">
        <ele>6</ele>
        <time>2021-09-23T07:07:40.000Z</time>
      </trkpt>
      <trkpt lat="47.27444" lon="-2.35279">
        <ele>6</ele>
        <time>2021-09-23T07:07:45.000Z</time>
      </trkpt>
      <trkpt lat="47.27444" lon="-2.35273">
        <ele>6.4000000953674</ele>
        <time>2021-09-23T07:07:46.000Z</time>
      </trkpt>
      <trkpt lat="47.27444" lon="-2.35267">
        <ele>6.8000001907349</ele>
        <time>2021-09-23T07:07:47.000Z</time>
      </trkpt>
      <trkpt lat="47.27444" lon="-2.35261">
        <ele>7.1999998092651</ele>
        <time>2021-09-23T07:07:48.000Z</time>
      </trkpt>
      <trkpt lat="47.27444" lon="-2.35256">
        <ele>7.5999999046326</ele>
        <time>2021-09-23T07:07:49.000Z</time>
      </trkpt>
      <trkpt lat="47.27444" lon="-2.3525">
        <ele>8</ele>
        <time>2021-09-23T07:07:50.000Z</time>
      </trkpt>
      <trkpt lat="47.27443" lon="-2.35245">
        <ele>8</ele>
        <time>2021-09-23T07:07:51.000Z</time>
      </trkpt>
      <trkpt lat="47.27437" lon="-2.35213">
        <ele>8.8000001907349</ele>
        <time>2021-09-23T07:07:57.000Z</time>
      </trkpt>
      <trkpt lat="47.27436" lon="-2.35207">
        <ele>9.1999998092651</ele>
        <time>2021-09-23T07:07:58.000Z</time>
      </trkpt>
      <trkpt lat="47.27435" lon="-2.35202">
        <ele>9.6000003814697</ele>
        <time>2021-09-23T07:07:59.000Z</time>
      </trkpt>
      <trkpt lat="47.27434" lon="-2.35197">
        <ele>10</ele>
        <time>2021-09-23T07:08:00.000Z</time>
      </trkpt>
      <trkpt lat="47.27432" lon="-2.3518">
        <ele>10</ele>
        <time>2021-09-23T07:08:04.000Z</time>
      </trkpt>
      <trkpt lat="47.27441" lon="-2.35168">
        <ele>10</ele>
        <time>2021-09-23T07:08:08.000Z</time>
      </trkpt>
      <trkpt lat="47.27454" lon="-2.35161">
        <ele>10.60000038147</ele>
        <time>2021-09-23T07:08:12.000Z</time>
      </trkpt>
      <trkpt lat="47.27458" lon="-2.3516">
        <ele>11</ele>
        <time>2021-09-23T07:08:13.000Z</time>
      </trkpt>
      <trkpt lat="47.27461" lon="-2.35158">
        <ele>11.39999961853</ele>
        <time>2021-09-23T07:08:14.000Z</time>
      </trkpt>
      <trkpt lat="47.27464" lon="-2.35156">
        <ele>11.800000190735</ele>
        <time>2021-09-23T07:08:15.000Z</time>
      </trkpt>
      <trkpt lat="47.27467" lon="-2.35155">
        <ele>12.39999961853</ele>
        <time>2021-09-23T07:08:16.000Z</time>
      </trkpt>
      <trkpt lat="47.27484" lon="-2.35146">
        <ele>12.39999961853</ele>
        <time>2021-09-23T07:08:21.000Z</time>
      </trkpt>
      <trkpt lat="47.27487" lon="-2.35145">
        <ele>12.800000190735</ele>
        <time>2021-09-23T07:08:22.000Z</time>
      </trkpt>
      <trkpt lat="47.2749" lon="-2.35143">
        <ele>13.199999809265</ele>
        <time>2021-09-23T07:08:23.000Z</time>
      </trkpt>
      <trkpt lat="47.27493" lon="-2.35142">
        <ele>13.60000038147</ele>
        <time>2021-09-23T07:08:24.000Z</time>
      </trkpt>
      <trkpt lat="47.27496" lon="-2.3514">
        <ele>14</ele>
        <time>2021-09-23T07:08:25.000Z</time>
      </trkpt>
      <trkpt lat="47.27498" lon="-2.35137">
        <ele>14.39999961853</ele>
        <time>2021-09-23T07:08:26.000Z</time>
      </trkpt>
      <trkpt lat="47.275" lon="-2.35133">
        <ele>14.39999961853</ele>
        <time>2021-09-23T07:08:27.000Z</time>
      </trkpt>
      <trkpt lat="47.27511" lon="-2.35128">
        <ele>14.39999961853</ele>
        <time>2021-09-23T07:08:31.000Z</time>
      </trkpt>
      <trkpt lat="47.27515" lon="-2.35129">
        <ele>14.39999961853</ele>
        <time>2021-09-23T07:08:32.000Z</time>
      </trkpt>
      <trkpt lat="47.27534" lon="-2.35137">
        <ele>14.39999961853</ele>
        <time>2021-09-23T07:08:37.000Z</time>
      </trkpt>
      <trkpt lat="47.27537" lon="-2.35138">
        <ele>14.39999961853</ele>
        <time>2021-09-23T07:08:38.000Z</time>
      </trkpt>
      <trkpt lat="47.27555" lon="-2.35136">
        <ele>14.39999961853</ele>
        <time>2021-09-23T07:08:42.000Z</time>
      </trkpt>
      <trkpt lat="47.27583" lon="-2.35131">
        <ele>14.39999961853</ele>
        <time>2021-09-23T07:08:48.000Z</time>
      </trkpt>
      <trkpt lat="47.27597" lon="-2.35129">
        <ele>14.39999961853</ele>
        <time>2021-09-23T07:08:51.000Z</time>
      </trkpt>
      <trkpt lat="47.27607" lon="-2.35136">
        <ele>14.39999961853</ele>
        <time>2021-09-23T07:08:53.000Z</time>
      </trkpt>
      <trkpt lat="47.27611" lon="-2.35159">
        <ele>14.39999961853</ele>
        <time>2021-09-23T07:08:56.000Z</time>
      </trkpt>
      <trkpt lat="47.2762" lon="-2.35173">
        <ele>14.39999961853</ele>
        <time>2021-09-23T07:08:59.000Z</time>
      </trkpt>
      <trkpt lat="47.27637" lon="-2.35171">
        <ele>14.39999961853</ele>
        <time>2021-09-23T07:09:02.000Z</time>
      </trkpt>
      <trkpt lat="47.27642" lon="-2.35169">
        <ele>14.39999961853</ele>
        <time>2021-09-23T07:09:03.000Z</time>
      </trkpt>
      <trkpt lat="47.27662" lon="-2.35168">
        <ele>14.39999961853</ele>
        <time>2021-09-23T07:09:07.000Z</time>
      </trkpt>
      <trkpt lat="47.27672" lon="-2.35181">
        <ele>14.39999961853</ele>
        <time>2021-09-23T07:09:10.000Z</time>
      </trkpt>
      <trkpt lat="47.27673" lon="-2.35187">
        <ele>13.39999961853</ele>
        <time>2021-09-23T07:09:11.000Z</time>
      </trkpt>
      <trkpt lat="47.27673" lon="-2.35195">
        <ele>13</ele>
        <time>2021-09-23T07:09:12.000Z</time>
      </trkpt>
      <trkpt lat="47.27673" lon="-2.35203">
        <ele>12.60000038147</ele>
        <time>2021-09-23T07:09:13.000Z</time>
      </trkpt>
      <trkpt lat="47.27674" lon="-2.3521">
        <ele>12.199999809265</ele>
        <time>2021-09-23T07:09:14.000Z</time>
      </trkpt>
      <trkpt lat="47.27677" lon="-2.35218">
        <ele>12.199999809265</ele>
        <time>2021-09-23T07:09:16.000Z</time>
      </trkpt>
      <trkpt lat="47.27689" lon="-2.35217">
        <ele>12.199999809265</ele>
        <time>2021-09-23T07:09:19.000Z</time>
      </trkpt>
      <trkpt lat="47.27694" lon="-2.35215">
        <ele>12.199999809265</ele>
        <time>2021-09-23T07:09:20.000Z</time>
      </trkpt>
      <trkpt lat="47.27721" lon="-2.35207">
        <ele>12.199999809265</ele>
        <time>2021-09-23T07:09:25.000Z</time>
      </trkpt>
      <trkpt lat="47.27743" lon="-2.35202">
        <ele>11.800000190735</ele>
        <time>2021-09-23T07:09:29.000Z</time>
      </trkpt>
      <trkpt lat="47.27749" lon="-2.35201">
        <ele>11.39999961853</ele>
        <time>2021-09-23T07:09:30.000Z</time>
      </trkpt>
      <trkpt lat="47.27754" lon="-2.35199">
        <ele>11</ele>
        <time>2021-09-23T07:09:31.000Z</time>
      </trkpt>
      <trkpt lat="47.27759" lon="-2.35198">
        <ele>10.60000038147</ele>
        <time>2021-09-23T07:09:32.000Z</time>
      </trkpt>
      <trkpt lat="47.27764" lon="-2.35198">
        <ele>10.199999809265</ele>
        <time>2021-09-23T07:09:33.000Z</time>
      </trkpt>
      <trkpt lat="47.27769" lon="-2.35201">
        <ele>10.199999809265</ele>
        <time>2021-09-23T07:09:35.000Z</time>
      </trkpt>
      <trkpt lat="47.27771" lon="-2.35205">
        <ele>9.6000003814697</ele>
        <time>2021-09-23T07:09:36.000Z</time>
      </trkpt>
      <trkpt lat="47.27772" lon="-2.3521">
        <ele>9.1999998092651</ele>
        <time>2021-09-23T07:09:37.000Z</time>
      </trkpt>
      <trkpt lat="47.27774" lon="-2.35215">
        <ele>8.8000001907349</ele>
        <time>2021-09-23T07:09:38.000Z</time>
      </trkpt>
      <trkpt lat="47.27776" lon="-2.35221">
        <ele>8.3999996185303</ele>
        <time>2021-09-23T07:09:39.000Z</time>
      </trkpt>
      <trkpt lat="47.27777" lon="-2.35227">
        <ele>7.8000001907349</ele>
        <time>2021-09-23T07:09:40.000Z</time>
      </trkpt>
      <trkpt lat="47.27783" lon="-2.35264">
        <ele>7.8000001907349</ele>
        <time>2021-09-23T07:09:45.000Z</time>
      </trkpt>
      <trkpt lat="47.27796" lon="-2.35321">
        <ele>7.8000001907349</ele>
        <time>2021-09-23T07:09:53.000Z</time>
      </trkpt>
      <trkpt lat="47.278" lon="-2.35341">
        <ele>7.8000001907349</ele>
        <time>2021-09-23T07:09:56.000Z</time>
      </trkpt>
      <trkpt lat="47.27805" lon="-2.35354">
        <ele>7.8000001907349</ele>
        <time>2021-09-23T07:09:58.000Z</time>
      </trkpt>
      <trkpt lat="47.27809" lon="-2.35358">
        <ele>7.8000001907349</ele>
        <time>2021-09-23T07:09:59.000Z</time>
      </trkpt>
      <trkpt lat="47.27822" lon="-2.3536">
        <ele>7.8000001907349</ele>
        <time>2021-09-23T07:10:02.000Z</time>
      </trkpt>
      <trkpt lat="47.27858" lon="-2.35361">
        <ele>7.8000001907349</ele>
        <time>2021-09-23T07:10:10.000Z</time>
      </trkpt>
      <trkpt lat="47.27871" lon="-2.35361">
        <ele>7.8000001907349</ele>
        <time>2021-09-23T07:10:13.000Z</time>
      </trkpt>
      <trkpt lat="47.27877" lon="-2.35368">
        <ele>7.8000001907349</ele>
        <time>2021-09-23T07:10:15.000Z</time>
      </trkpt>
      <trkpt lat="47.27887" lon="-2.35379">
        <ele>8.3999996185303</ele>
        <time>2021-09-23T07:10:18.000Z</time>
      </trkpt>
      <trkpt lat="47.27891" lon="-2.35384">
        <ele>8.8000001907349</ele>
        <time>2021-09-23T07:10:19.000Z</time>
      </trkpt>
      <trkpt lat="47.27895" lon="-2.35388">
        <ele>9.1999998092651</ele>
        <time>2021-09-23T07:10:20.000Z</time>
      </trkpt>
      <trkpt lat="47.27898" lon="-2.35393">
        <ele>9.6000003814697</ele>
        <time>2021-09-23T07:10:21.000Z</time>
      </trkpt>
      <trkpt lat="47.27902" lon="-2.35398">
        <ele>10</ele>
        <time>2021-09-23T07:10:22.000Z</time>
      </trkpt>
      <trkpt lat="47.27929" lon="-2.35433">
        <ele>10</ele>
        <time>2021-09-23T07:10:29.000Z</time>
      </trkpt>
      <trkpt lat="47.27956" lon="-2.35458">
        <ele>10</ele>
        <time>2021-09-23T07:10:35.000Z</time>
      </trkpt>
      <trkpt lat="47.27975" lon="-2.35472">
        <ele>10</ele>
        <time>2021-09-23T07:10:39.000Z</time>
      </trkpt>
      <trkpt lat="47.27979" lon="-2.35477">
        <ele>10</ele>
        <time>2021-09-23T07:10:40.000Z</time>
      </trkpt>
      <trkpt lat="47.27998" lon="-2.35514">
        <ele>10</ele>
        <time>2021-09-23T07:10:46.000Z</time>
      </trkpt>
      <trkpt lat="47.28003" lon="-2.35526">
        <ele>10</ele>
        <time>2021-09-23T07:10:48.000Z</time>
      </trkpt>
      <trkpt lat="47.28007" lon="-2.35542">
        <ele>10</ele>
        <time>2021-09-23T07:10:51.000Z</time>
      </trkpt>
      <trkpt lat="47.28012" lon="-2.35558">
        <ele>10</ele>
        <time>2021-09-23T07:10:55.000Z</time>
      </trkpt>
      <trkpt lat="47.28014" lon="-2.35565">
        <ele>10</ele>
        <time>2021-09-23T07:10:57.000Z</time>
      </trkpt>
      <trkpt lat="47.2802" lon="-2.35565">
        <ele>10</ele>
        <time>2021-09-23T07:10:59.000Z</time>
      </trkpt>
      <trkpt lat="47.28023" lon="-2.35566">
        <ele>10.39999961853</ele>
        <time>2021-09-23T07:11:00.000Z</time>
      </trkpt>
      <trkpt lat="47.28026" lon="-2.35567">
        <ele>10.800000190735</ele>
        <time>2021-09-23T07:11:01.000Z</time>
      </trkpt>
      <trkpt lat="47.2803" lon="-2.35569">
        <ele>11.199999809265</ele>
        <time>2021-09-23T07:11:02.000Z</time>
      </trkpt>
      <trkpt lat="47.28033" lon="-2.35571">
        <ele>11.60000038147</ele>
        <time>2021-09-23T07:11:03.000Z</time>
      </trkpt>
      <trkpt lat="47.28037" lon="-2.35572">
        <ele>12.199999809265</ele>
        <time>2021-09-23T07:11:04.000Z</time>
      </trkpt>
      <trkpt lat="47.28062" lon="-2.35584">
        <ele>12.199999809265</ele>
        <time>2021-09-23T07:11:12.000Z</time>
      </trkpt>
      <trkpt lat="47.28071" lon="-2.35597">
        <ele>12.199999809265</ele>
        <time>2021-09-23T07:11:17.000Z</time>
      </trkpt>
      <trkpt lat="47.28079" lon="-2.3561">
        <ele>12.199999809265</ele>
        <time>2021-09-23T07:11:23.000Z</time>
      </trkpt>
      <trkpt lat="47.2808" lon="-2.35611">
        <ele>12.199999809265</ele>
        <time>2021-09-23T07:11:25.000Z</time>
      </trkpt>
      <trkpt lat="47.28077" lon="-2.35608">
        <ele>14.199999809265</ele>
        <time>2021-09-23T07:13:12.000Z</time>
      </trkpt>
      <trkpt lat="47.28075" lon="-2.35605">
        <ele>14.199999809265</ele>
        <time>2021-09-23T07:13:13.000Z</time>
      </trkpt>
      <trkpt lat="47.28071" lon="-2.35609">
        <ele>14.199999809265</ele>
        <time>2021-09-23T07:13:16.000Z</time>
      </trkpt>
      <trkpt lat="47.2807" lon="-2.35622">
        <ele>14.199999809265</ele>
        <time>2021-09-23T07:13:20.000Z</time>
      </trkpt>
      <trkpt lat="47.28074" lon="-2.35633">
        <ele>14.60000038147</ele>
        <time>2021-09-23T07:13:24.000Z</time>
      </trkpt>
      <trkpt lat="47.28075" lon="-2.35635">
        <ele>15</ele>
        <time>2021-09-23T07:13:25.000Z</time>
      </trkpt>
      <trkpt lat="47.28076" lon="-2.35637">
        <ele>15.39999961853</ele>
        <time>2021-09-23T07:13:26.000Z</time>
      </trkpt>
      <trkpt lat="47.28077" lon="-2.35639">
        <ele>15.800000190735</ele>
        <time>2021-09-23T07:13:27.000Z</time>
      </trkpt>
      <trkpt lat="47.28078" lon="-2.35641">
        <ele>16.200000762939</ele>
        <time>2021-09-23T07:13:28.000Z</time>
      </trkpt>
      <trkpt lat="47.2808" lon="-2.35652">
        <ele>16.60000038147</ele>
        <time>2021-09-23T07:13:31.000Z</time>
      </trkpt>
      <trkpt lat="47.28081" lon="-2.35656">
        <ele>17</ele>
        <time>2021-09-23T07:13:32.000Z</time>
      </trkpt>
      <trkpt lat="47.28082" lon="-2.3566">
        <ele>17.39999961853</ele>
        <time>2021-09-23T07:13:33.000Z</time>
      </trkpt>
      <trkpt lat="47.28083" lon="-2.35664">
        <ele>17.799999237061</ele>
        <time>2021-09-23T07:13:34.000Z</time>
      </trkpt>
      <trkpt lat="47.28084" lon="-2.35667">
        <ele>18.200000762939</ele>
        <time>2021-09-23T07:13:35.000Z</time>
      </trkpt>
      <trkpt lat="47.28087" lon="-2.35681">
        <ele>18.200000762939</ele>
        <time>2021-09-23T07:13:39.000Z</time>
      </trkpt>
      <trkpt lat="47.2809" lon="-2.3569">
        <ele>18.799999237061</ele>
        <time>2021-09-23T07:13:43.000Z</time>
      </trkpt>
      <trkpt lat="47.2809" lon="-2.35693">
        <ele>19.200000762939</ele>
        <time>2021-09-23T07:13:44.000Z</time>
      </trkpt>
      <trkpt lat="47.28091" lon="-2.35695">
        <ele>19.60000038147</ele>
        <time>2021-09-23T07:13:45.000Z</time>
      </trkpt>
      <trkpt lat="47.28091" lon="-2.35698">
        <ele>20</ele>
        <time>2021-09-23T07:13:46.000Z</time>
      </trkpt>
      <trkpt lat="47.28091" lon="-2.35701">
        <ele>20.39999961853</ele>
        <time>2021-09-23T07:13:47.000Z</time>
      </trkpt>
      <trkpt lat="47.28091" lon="-2.35715">
        <ele>20.39999961853</ele>
        <time>2021-09-23T07:13:51.000Z</time>
      </trkpt>
      <trkpt lat="47.28089" lon="-2.35738">
        <ele>20.39999961853</ele>
        <time>2021-09-23T07:13:58.000Z</time>
      </trkpt>
      <trkpt lat="47.28087" lon="-2.35765">
        <ele>20.39999961853</ele>
        <time>2021-09-23T07:14:02.000Z</time>
      </trkpt>
      <trkpt lat="47.28079" lon="-2.35786">
        <ele>20.39999961853</ele>
        <time>2021-09-23T07:14:06.000Z</time>
      </trkpt>
      <trkpt lat="47.28077" lon="-2.35791">
        <ele>20</ele>
        <time>2021-09-23T07:14:07.000Z</time>
      </trkpt>
      <trkpt lat="47.28076" lon="-2.35794">
        <ele>19.39999961853</ele>
        <time>2021-09-23T07:14:08.000Z</time>
      </trkpt>
      <trkpt lat="47.28076" lon="-2.35796">
        <ele>19</ele>
        <time>2021-09-23T07:14:09.000Z</time>
      </trkpt>
      <trkpt lat="47.28077" lon="-2.35799">
        <ele>18.39999961853</ele>
        <time>2021-09-23T07:14:10.000Z</time>
      </trkpt>
      <trkpt lat="47.28077" lon="-2.35801">
        <ele>18</ele>
        <time>2021-09-23T07:14:11.000Z</time>
      </trkpt>
      <trkpt lat="47.2808" lon="-2.35809">
        <ele>18</ele>
        <time>2021-09-23T07:14:16.000Z</time>
      </trkpt>
      <trkpt lat="47.28082" lon="-2.35809">
        <ele>17.60000038147</ele>
        <time>2021-09-23T07:14:17.000Z</time>
      </trkpt>
      <trkpt lat="47.28083" lon="-2.35809">
        <ele>17.200000762939</ele>
        <time>2021-09-23T07:14:18.000Z</time>
      </trkpt>
      <trkpt lat="47.28085" lon="-2.35808">
        <ele>16.799999237061</ele>
        <time>2021-09-23T07:14:19.000Z</time>
      </trkpt>
      <trkpt lat="47.28086" lon="-2.35807">
        <ele>16.39999961853</ele>
        <time>2021-09-23T07:14:20.000Z</time>
      </trkpt>
      <trkpt lat="47.28087" lon="-2.35807">
        <ele>16</ele>
        <time>2021-09-23T07:14:21.000Z</time>
      </trkpt>
      <trkpt lat="47.2809" lon="-2.35809">
        <ele>16</ele>
        <time>2021-09-23T07:14:23.000Z</time>
      </trkpt>
      <trkpt lat="47.28099" lon="-2.35813">
        <ele>16</ele>
        <time>2021-09-23T07:14:31.000Z</time>
      </trkpt>
      <trkpt lat="47.28102" lon="-2.35817">
        <ele>16</ele>
        <time>2021-09-23T07:14:35.000Z</time>
      </trkpt>
      <trkpt lat="47.28107" lon="-2.3582">
        <ele>16</ele>
        <time>2021-09-23T07:15:06.000Z</time>
      </trkpt>
      <trkpt lat="47.28119" lon="-2.3583">
        <ele>16.39999961853</ele>
        <time>2021-09-23T07:15:14.000Z</time>
      </trkpt>
      <trkpt lat="47.28121" lon="-2.35831">
        <ele>16.799999237061</ele>
        <time>2021-09-23T07:15:15.000Z</time>
      </trkpt>
      <trkpt lat="47.28121" lon="-2.35832">
        <ele>17.39999961853</ele>
        <time>2021-09-23T07:15:16.000Z</time>
      </trkpt>
      <trkpt lat="47.28122" lon="-2.35834">
        <ele>17.799999237061</ele>
        <time>2021-09-23T07:15:17.000Z</time>
      </trkpt>
      <trkpt lat="47.28123" lon="-2.35836">
        <ele>18.200000762939</ele>
        <time>2021-09-23T07:15:18.000Z</time>
      </trkpt>
      <trkpt lat="47.28123" lon="-2.35839">
        <ele>18.200000762939</ele>
        <time>2021-09-23T07:15:19.000Z</time>
      </trkpt>
      <trkpt lat="47.28122" lon="-2.35843">
        <ele>18.200000762939</ele>
        <time>2021-09-23T07:15:20.000Z</time>
      </trkpt>
      <trkpt lat="47.28121" lon="-2.35853">
        <ele>18.200000762939</ele>
        <time>2021-09-23T07:15:23.000Z</time>
      </trkpt>
      <trkpt lat="47.28122" lon="-2.35857">
        <ele>18.200000762939</ele>
        <time>2021-09-23T07:15:24.000Z</time>
      </trkpt>
      <trkpt lat="47.28125" lon="-2.3586">
        <ele>18.200000762939</ele>
        <time>2021-09-23T07:15:25.000Z</time>
      </trkpt>
      <trkpt lat="47.28136" lon="-2.35869">
        <ele>18.200000762939</ele>
        <time>2021-09-23T07:15:29.000Z</time>
      </trkpt>
      <trkpt lat="47.28139" lon="-2.35871">
        <ele>18.200000762939</ele>
        <time>2021-09-23T07:15:30.000Z</time>
      </trkpt>
      <trkpt lat="47.28157" lon="-2.3589">
        <ele>18.200000762939</ele>
        <time>2021-09-23T07:15:36.000Z</time>
      </trkpt>
      <trkpt lat="47.28166" lon="-2.35901">
        <ele>17.799999237061</ele>
        <time>2021-09-23T07:15:40.000Z</time>
      </trkpt>
      <trkpt lat="47.28168" lon="-2.35903">
        <ele>17.39999961853</ele>
        <time>2021-09-23T07:15:41.000Z</time>
      </trkpt>
      <trkpt lat="47.2817" lon="-2.35905">
        <ele>17</ele>
        <time>2021-09-23T07:15:42.000Z</time>
      </trkpt>
      <trkpt lat="47.28172" lon="-2.35908">
        <ele>16.60000038147</ele>
        <time>2021-09-23T07:15:43.000Z</time>
      </trkpt>
      <trkpt lat="47.28173" lon="-2.3591">
        <ele>16.200000762939</ele>
        <time>2021-09-23T07:15:44.000Z</time>
      </trkpt>
      <trkpt lat="47.28176" lon="-2.35931">
        <ele>16.200000762939</ele>
        <time>2021-09-23T07:15:48.000Z</time>
      </trkpt>
      <trkpt lat="47.28183" lon="-2.35952">
        <ele>16.200000762939</ele>
        <time>2021-09-23T07:15:54.000Z</time>
      </trkpt>
      <trkpt lat="47.2819" lon="-2.35977">
        <ele>16.200000762939</ele>
        <time>2021-09-23T07:15:58.000Z</time>
      </trkpt>
      <trkpt lat="47.28193" lon="-2.3599">
        <ele>15.800000190735</ele>
        <time>2021-09-23T07:16:00.000Z</time>
      </trkpt>
      <trkpt lat="47.28195" lon="-2.35996">
        <ele>15.199999809265</ele>
        <time>2021-09-23T07:16:01.000Z</time>
      </trkpt>
      <trkpt lat="47.28197" lon="-2.36003">
        <ele>14.800000190735</ele>
        <time>2021-09-23T07:16:02.000Z</time>
      </trkpt>
      <trkpt lat="47.282" lon="-2.36008">
        <ele>14.39999961853</ele>
        <time>2021-09-23T07:16:03.000Z</time>
      </trkpt>
      <trkpt lat="47.28203" lon="-2.36013">
        <ele>14</ele>
        <time>2021-09-23T07:16:04.000Z</time>
      </trkpt>
      <trkpt lat="47.2821" lon="-2.36025">
        <ele>14</ele>
        <time>2021-09-23T07:16:08.000Z</time>
      </trkpt>
      <trkpt lat="47.28224" lon="-2.36026">
        <ele>14</ele>
        <time>2021-09-23T07:16:14.000Z</time>
      </trkpt>
      <trkpt lat="47.28243" lon="-2.36014">
        <ele>14</ele>
        <time>2021-09-23T07:16:20.000Z</time>
      </trkpt>
      <trkpt lat="47.2826" lon="-2.36001">
        <ele>14.39999961853</ele>
        <time>2021-09-23T07:16:25.000Z</time>
      </trkpt>
      <trkpt lat="47.28263" lon="-2.35999">
        <ele>14.800000190735</ele>
        <time>2021-09-23T07:16:26.000Z</time>
      </trkpt>
      <trkpt lat="47.28266" lon="-2.35997">
        <ele>15.199999809265</ele>
        <time>2021-09-23T07:16:27.000Z</time>
      </trkpt>
      <trkpt lat="47.2827" lon="-2.35993">
        <ele>15.60000038147</ele>
        <time>2021-09-23T07:16:28.000Z</time>
      </trkpt>
      <trkpt lat="47.28273" lon="-2.35991">
        <ele>16.200000762939</ele>
        <time>2021-09-23T07:16:29.000Z</time>
      </trkpt>
      <trkpt lat="47.28279" lon="-2.35986">
        <ele>16.200000762939</ele>
        <time>2021-09-23T07:16:31.000Z</time>
      </trkpt>
      <trkpt lat="47.28302" lon="-2.35964">
        <ele>16.60000038147</ele>
        <time>2021-09-23T07:16:39.000Z</time>
      </trkpt>
      <trkpt lat="47.28303" lon="-2.35961">
        <ele>17</ele>
        <time>2021-09-23T07:16:40.000Z</time>
      </trkpt>
      <trkpt lat="47.28305" lon="-2.35957">
        <ele>17.39999961853</ele>
        <time>2021-09-23T07:16:41.000Z</time>
      </trkpt>
      <trkpt lat="47.28307" lon="-2.35954">
        <ele>17.799999237061</ele>
        <time>2021-09-23T07:16:42.000Z</time>
      </trkpt>
      <trkpt lat="47.28308" lon="-2.35951">
        <ele>18.200000762939</ele>
        <time>2021-09-23T07:16:43.000Z</time>
      </trkpt>
      <trkpt lat="47.28316" lon="-2.35939">
        <ele>18.200000762939</ele>
        <time>2021-09-23T07:16:47.000Z</time>
      </trkpt>
      <trkpt lat="47.28321" lon="-2.35933">
        <ele>18.200000762939</ele>
        <time>2021-09-23T07:16:49.000Z</time>
      </trkpt>
      <trkpt lat="47.28327" lon="-2.35928">
        <ele>18.200000762939</ele>
        <time>2021-09-23T07:16:51.000Z</time>
      </trkpt>
      <trkpt lat="47.28333" lon="-2.35923">
        <ele>18.60000038147</ele>
        <time>2021-09-23T07:16:53.000Z</time>
      </trkpt>
      <trkpt lat="47.28336" lon="-2.35921">
        <ele>19.200000762939</ele>
        <time>2021-09-23T07:16:54.000Z</time>
      </trkpt>
      <trkpt lat="47.28339" lon="-2.35918">
        <ele>19.60000038147</ele>
        <time>2021-09-23T07:16:55.000Z</time>
      </trkpt>
      <trkpt lat="47.28342" lon="-2.35916">
        <ele>20</ele>
        <time>2021-09-23T07:16:56.000Z</time>
      </trkpt>
      <trkpt lat="47.28345" lon="-2.35914">
        <ele>20.39999961853</ele>
        <time>2021-09-23T07:16:57.000Z</time>
      </trkpt>
      <trkpt lat="47.28365" lon="-2.35897">
        <ele>20.39999961853</ele>
        <time>2021-09-23T07:17:04.000Z</time>
      </trkpt>
      <trkpt lat="47.28381" lon="-2.35879">
        <ele>20.39999961853</ele>
        <time>2021-09-23T07:17:10.000Z</time>
      </trkpt>
      <trkpt lat="47.28392" lon="-2.35872">
        <ele>20.799999237061</ele>
        <time>2021-09-23T07:17:14.000Z</time>
      </trkpt>
      <trkpt lat="47.28395" lon="-2.35871">
        <ele>21.39999961853</ele>
        <time>2021-09-23T07:17:15.000Z</time>
      </trkpt>
      <trkpt lat="47.28399" lon="-2.35869">
        <ele>21.799999237061</ele>
        <time>2021-09-23T07:17:16.000Z</time>
      </trkpt>
      <trkpt lat="47.28402" lon="-2.35868">
        <ele>22.200000762939</ele>
        <time>2021-09-23T07:17:17.000Z</time>
      </trkpt>
      <trkpt lat="47.28405" lon="-2.35866">
        <ele>22.60000038147</ele>
        <time>2021-09-23T07:17:18.000Z</time>
      </trkpt>
      <trkpt lat="47.2842" lon="-2.35858">
        <ele>22.60000038147</ele>
        <time>2021-09-23T07:17:22.000Z</time>
      </trkpt>
      <trkpt lat="47.28437" lon="-2.35847">
        <ele>22.60000038147</ele>
        <time>2021-09-23T07:17:28.000Z</time>
      </trkpt>
      <trkpt lat="47.28456" lon="-2.35837">
        <ele>22.60000038147</ele>
        <time>2021-09-23T07:17:34.000Z</time>
      </trkpt>
      <trkpt lat="47.28468" lon="-2.35834">
        <ele>22.60000038147</ele>
        <time>2021-09-23T07:17:40.000Z</time>
      </trkpt>
      <trkpt lat="47.28475" lon="-2.35841">
        <ele>22.60000038147</ele>
        <time>2021-09-23T07:17:45.000Z</time>
      </trkpt>
      <trkpt lat="47.28477" lon="-2.35847">
        <ele>22.60000038147</ele>
        <time>2021-09-23T07:17:47.000Z</time>
      </trkpt>
      <trkpt lat="47.28487" lon="-2.35862">
        <ele>22.60000038147</ele>
        <time>2021-09-23T07:17:52.000Z</time>
      </trkpt>
      <trkpt lat="47.2849" lon="-2.35863">
        <ele>22.60000038147</ele>
        <time>2021-09-23T07:17:53.000Z</time>
      </trkpt>
      <trkpt lat="47.28499" lon="-2.35871">
        <ele>22.60000038147</ele>
        <time>2021-09-23T07:17:58.000Z</time>
      </trkpt>
      <trkpt lat="47.28512" lon="-2.35877">
        <ele>23</ele>
        <time>2021-09-23T07:18:06.000Z</time>
      </trkpt>
      <trkpt lat="47.28514" lon="-2.35878">
        <ele>23.39999961853</ele>
        <time>2021-09-23T07:18:07.000Z</time>
      </trkpt>
      <trkpt lat="47.28515" lon="-2.35878">
        <ele>23.799999237061</ele>
        <time>2021-09-23T07:18:08.000Z</time>
      </trkpt>
      <trkpt lat="47.28516" lon="-2.3588">
        <ele>24.200000762939</ele>
        <time>2021-09-23T07:18:09.000Z</time>
      </trkpt>
      <trkpt lat="47.28517" lon="-2.35881">
        <ele>24.60000038147</ele>
        <time>2021-09-23T07:18:10.000Z</time>
      </trkpt>
      <trkpt lat="47.2852" lon="-2.35883">
        <ele>25</ele>
        <time>2021-09-23T07:18:12.000Z</time>
      </trkpt>
      <trkpt lat="47.28521" lon="-2.35884">
        <ele>25.39999961853</ele>
        <time>2021-09-23T07:18:13.000Z</time>
      </trkpt>
      <trkpt lat="47.28521" lon="-2.35885">
        <ele>26</ele>
        <time>2021-09-23T07:18:14.000Z</time>
      </trkpt>
      <trkpt lat="47.28522" lon="-2.35885">
        <ele>26.39999961853</ele>
        <time>2021-09-23T07:18:15.000Z</time>
      </trkpt>
      <trkpt lat="47.28544" lon="-2.35907">
        <ele>31</ele>
        <time>2021-09-23T07:19:14.000Z</time>
      </trkpt>
      <trkpt lat="47.28543" lon="-2.35913">
        <ele>31</ele>
        <time>2021-09-23T07:19:16.000Z</time>
      </trkpt>
      <trkpt lat="47.28543" lon="-2.35917">
        <ele>31</ele>
        <time>2021-09-23T07:19:18.000Z</time>
      </trkpt>
      <trkpt lat="47.2854" lon="-2.35927">
        <ele>31</ele>
        <time>2021-09-23T07:19:21.000Z</time>
      </trkpt>
      <trkpt lat="47.28539" lon="-2.3593">
        <ele>31.39999961853</ele>
        <time>2021-09-23T07:19:22.000Z</time>
      </trkpt>
      <trkpt lat="47.28539" lon="-2.35932">
        <ele>32</ele>
        <time>2021-09-23T07:19:23.000Z</time>
      </trkpt>
      <trkpt lat="47.28537" lon="-2.35934">
        <ele>32.400001525879</ele>
        <time>2021-09-23T07:19:24.000Z</time>
      </trkpt>
      <trkpt lat="47.28535" lon="-2.35935">
        <ele>32.799999237061</ele>
        <time>2021-09-23T07:19:25.000Z</time>
      </trkpt>
      <trkpt lat="47.28533" lon="-2.35936">
        <ele>33.200000762939</ele>
        <time>2021-09-23T07:19:26.000Z</time>
      </trkpt>
      <trkpt lat="47.28531" lon="-2.35937">
        <ele>33.200000762939</ele>
        <time>2021-09-23T07:19:27.000Z</time>
      </trkpt>
      <trkpt lat="47.28515" lon="-2.35938">
        <ele>33.200000762939</ele>
        <time>2021-09-23T07:19:32.000Z</time>
      </trkpt>
      <trkpt lat="47.28495" lon="-2.35941">
        <ele>33.200000762939</ele>
        <time>2021-09-23T07:19:38.000Z</time>
      </trkpt>
      <trkpt lat="47.2849" lon="-2.35943">
        <ele>33.200000762939</ele>
        <time>2021-09-23T07:19:39.000Z</time>
      </trkpt>
      <trkpt lat="47.28479" lon="-2.35954">
        <ele>33.200000762939</ele>
        <time>2021-09-23T07:19:42.000Z</time>
      </trkpt>
      <trkpt lat="47.28473" lon="-2.35963">
        <ele>33.200000762939</ele>
        <time>2021-09-23T07:19:44.000Z</time>
      </trkpt>
      <trkpt lat="47.28464" lon="-2.35971">
        <ele>33.200000762939</ele>
        <time>2021-09-23T07:19:47.000Z</time>
      </trkpt>
      <trkpt lat="47.28452" lon="-2.35991">
        <ele>33.200000762939</ele>
        <time>2021-09-23T07:19:53.000Z</time>
      </trkpt>
      <trkpt lat="47.28453" lon="-2.35995">
        <ele>33.200000762939</ele>
        <time>2021-09-23T07:19:54.000Z</time>
      </trkpt>
      <trkpt lat="47.28457" lon="-2.36007">
        <ele>33.200000762939</ele>
        <time>2021-09-23T07:19:57.000Z</time>
      </trkpt>
      <trkpt lat="47.28458" lon="-2.3601">
        <ele>33.200000762939</ele>
        <time>2021-09-23T07:19:58.000Z</time>
      </trkpt>
      <trkpt lat="47.28472" lon="-2.36024">
        <ele>33.200000762939</ele>
        <time>2021-09-23T07:20:02.000Z</time>
      </trkpt>
      <trkpt lat="47.28492" lon="-2.36033">
        <ele>33.200000762939</ele>
        <time>2021-09-23T07:20:07.000Z</time>
      </trkpt>
      <trkpt lat="47.28495" lon="-2.36035">
        <ele>33.599998474121</ele>
        <time>2021-09-23T07:20:08.000Z</time>
      </trkpt>
      <trkpt lat="47.28498" lon="-2.36037">
        <ele>34</ele>
        <time>2021-09-23T07:20:09.000Z</time>
      </trkpt>
      <trkpt lat="47.28501" lon="-2.3604">
        <ele>34.599998474121</ele>
        <time>2021-09-23T07:20:10.000Z</time>
      </trkpt>
      <trkpt lat="47.28504" lon="-2.36045">
        <ele>35</ele>
        <time>2021-09-23T07:20:11.000Z</time>
      </trkpt>
      <trkpt lat="47.28508" lon="-2.3605">
        <ele>35.400001525879</ele>
        <time>2021-09-23T07:20:12.000Z</time>
      </trkpt>
      <trkpt lat="47.28511" lon="-2.36055">
        <ele>35.400001525879</ele>
        <time>2021-09-23T07:20:13.000Z</time>
      </trkpt>
      <trkpt lat="47.28525" lon="-2.36078">
        <ele>35.400001525879</ele>
        <time>2021-09-23T07:20:18.000Z</time>
      </trkpt>
      <trkpt lat="47.28533" lon="-2.36104">
        <ele>35.400001525879</ele>
        <time>2021-09-23T07:20:23.000Z</time>
      </trkpt>
      <trkpt lat="47.28542" lon="-2.3614">
        <ele>35.400001525879</ele>
        <time>2021-09-23T07:20:28.000Z</time>
      </trkpt>
      <trkpt lat="47.28547" lon="-2.36151">
        <ele>35.400001525879</ele>
        <time>2021-09-23T07:20:30.000Z</time>
      </trkpt>
      <trkpt lat="47.28555" lon="-2.36151">
        <ele>35.400001525879</ele>
        <time>2021-09-23T07:20:32.000Z</time>
      </trkpt>
      <trkpt lat="47.28565" lon="-2.36147">
        <ele>35.400001525879</ele>
        <time>2021-09-23T07:20:36.000Z</time>
      </trkpt>
      <trkpt lat="47.2857" lon="-2.36145">
        <ele>35.400001525879</ele>
        <time>2021-09-23T07:20:38.000Z</time>
      </trkpt>
      <trkpt lat="47.28571" lon="-2.36145">
        <ele>35.799999237061</ele>
        <time>2021-09-23T07:20:39.000Z</time>
      </trkpt>
      <trkpt lat="47.28573" lon="-2.36144">
        <ele>36.799999237061</ele>
        <time>2021-09-23T07:20:40.000Z</time>
      </trkpt>
      <trkpt lat="47.28575" lon="-2.36144">
        <ele>37.200000762939</ele>
        <time>2021-09-23T07:20:41.000Z</time>
      </trkpt>
      <trkpt lat="47.28577" lon="-2.36145">
        <ele>37.599998474121</ele>
        <time>2021-09-23T07:20:42.000Z</time>
      </trkpt>
      <trkpt lat="47.28592" lon="-2.3615">
        <ele>37.599998474121</ele>
        <time>2021-09-23T07:20:49.000Z</time>
      </trkpt>
      <trkpt lat="47.28601" lon="-2.36151">
        <ele>37.599998474121</ele>
        <time>2021-09-23T07:20:55.000Z</time>
      </trkpt>
      <trkpt lat="47.28603" lon="-2.36152">
        <ele>37.599998474121</ele>
        <time>2021-09-23T07:20:59.000Z</time>
      </trkpt>
      <trkpt lat="47.28605" lon="-2.36171">
        <ele>37.599998474121</ele>
        <time>2021-09-23T07:21:18.000Z</time>
      </trkpt>
      <trkpt lat="47.28605" lon="-2.36173">
        <ele>37.599998474121</ele>
        <time>2021-09-23T07:21:19.000Z</time>
      </trkpt>
      <trkpt lat="47.28605" lon="-2.36196">
        <ele>37.599998474121</ele>
        <time>2021-09-23T07:21:24.000Z</time>
      </trkpt>
      <trkpt lat="47.28594" lon="-2.36228">
        <ele>37.599998474121</ele>
        <time>2021-09-23T07:21:31.000Z</time>
      </trkpt>
      <trkpt lat="47.28592" lon="-2.36231">
        <ele>38</ele>
        <time>2021-09-23T07:21:32.000Z</time>
      </trkpt>
      <trkpt lat="47.28589" lon="-2.36236">
        <ele>38.400001525879</ele>
        <time>2021-09-23T07:21:33.000Z</time>
      </trkpt>
      <trkpt lat="47.28586" lon="-2.36241">
        <ele>38.799999237061</ele>
        <time>2021-09-23T07:21:34.000Z</time>
      </trkpt>
      <trkpt lat="47.28584" lon="-2.36245">
        <ele>39.200000762939</ele>
        <time>2021-09-23T07:21:35.000Z</time>
      </trkpt>
      <trkpt lat="47.28582" lon="-2.36249">
        <ele>39.599998474121</ele>
        <time>2021-09-23T07:21:36.000Z</time>
      </trkpt>
      <trkpt lat="47.28579" lon="-2.36253">
        <ele>39.599998474121</ele>
        <time>2021-09-23T07:21:37.000Z</time>
      </trkpt>
      <trkpt lat="47.28574" lon="-2.36274">
        <ele>39.599998474121</ele>
        <time>2021-09-23T07:21:42.000Z</time>
      </trkpt>
      <trkpt lat="47.28571" lon="-2.36301">
        <ele>39.599998474121</ele>
        <time>2021-09-23T07:21:47.000Z</time>
      </trkpt>
      <trkpt lat="47.28568" lon="-2.36312">
        <ele>39.599998474121</ele>
        <time>2021-09-23T07:21:51.000Z</time>
      </trkpt>
      <trkpt lat="47.28561" lon="-2.36333">
        <ele>39.599998474121</ele>
        <time>2021-09-23T07:21:55.000Z</time>
      </trkpt>
      <trkpt lat="47.28557" lon="-2.36349">
        <ele>39.200000762939</ele>
        <time>2021-09-23T07:21:59.000Z</time>
      </trkpt>
      <trkpt lat="47.28555" lon="-2.36351">
        <ele>38.799999237061</ele>
        <time>2021-09-23T07:22:00.000Z</time>
      </trkpt>
      <trkpt lat="47.28552" lon="-2.36353">
        <ele>38.400001525879</ele>
        <time>2021-09-23T07:22:01.000Z</time>
      </trkpt>
      <trkpt lat="47.28551" lon="-2.36353">
        <ele>37.799999237061</ele>
        <time>2021-09-23T07:22:02.000Z</time>
      </trkpt>
      <trkpt lat="47.2855" lon="-2.36355">
        <ele>37.400001525879</ele>
        <time>2021-09-23T07:22:03.000Z</time>
      </trkpt>
      <trkpt lat="47.2855" lon="-2.36358">
        <ele>37</ele>
        <time>2021-09-23T07:22:04.000Z</time>
      </trkpt>
      <trkpt lat="47.2855" lon="-2.3636">
        <ele>36.599998474121</ele>
        <time>2021-09-23T07:22:05.000Z</time>
      </trkpt>
      <trkpt lat="47.2855" lon="-2.36363">
        <ele>36.200000762939</ele>
        <time>2021-09-23T07:22:06.000Z</time>
      </trkpt>
      <trkpt lat="47.2855" lon="-2.36365">
        <ele>35.799999237061</ele>
        <time>2021-09-23T07:22:07.000Z</time>
      </trkpt>
      <trkpt lat="47.2855" lon="-2.36368">
        <ele>35.400001525879</ele>
        <time>2021-09-23T07:22:08.000Z</time>
      </trkpt>
      <trkpt lat="47.28551" lon="-2.36375">
        <ele>35.400001525879</ele>
        <time>2021-09-23T07:22:12.000Z</time>
      </trkpt>
      <trkpt lat="47.28542" lon="-2.36382">
        <ele>35.400001525879</ele>
        <time>2021-09-23T07:22:26.000Z</time>
      </trkpt>
      <trkpt lat="47.28537" lon="-2.3638">
        <ele>35.400001525879</ele>
        <time>2021-09-23T07:22:28.000Z</time>
      </trkpt>
      <trkpt lat="47.28536" lon="-2.36375">
        <ele>35.400001525879</ele>
        <time>2021-09-23T07:22:31.000Z</time>
      </trkpt>
      <trkpt lat="47.28535" lon="-2.36373">
        <ele>35.400001525879</ele>
        <time>2021-09-23T07:22:32.000Z</time>
      </trkpt>
      <trkpt lat="47.28531" lon="-2.36377">
        <ele>35.400001525879</ele>
        <time>2021-09-23T07:22:35.000Z</time>
      </trkpt>
      <trkpt lat="47.2853" lon="-2.36379">
        <ele>34.799999237061</ele>
        <time>2021-09-23T07:22:36.000Z</time>
      </trkpt>
      <trkpt lat="47.28528" lon="-2.36382">
        <ele>34.400001525879</ele>
        <time>2021-09-23T07:22:37.000Z</time>
      </trkpt>
      <trkpt lat="47.28527" lon="-2.36386">
        <ele>33.799999237061</ele>
        <time>2021-09-23T07:22:38.000Z</time>
      </trkpt>
      <trkpt lat="47.28525" lon="-2.36389">
        <ele>33.200000762939</ele>
        <time>2021-09-23T07:22:39.000Z</time>
      </trkpt>
      <trkpt lat="47.28524" lon="-2.36391">
        <ele>32.599998474121</ele>
        <time>2021-09-23T07:22:40.000Z</time>
      </trkpt>
      <trkpt lat="47.28521" lon="-2.36392">
        <ele>31.799999237061</ele>
        <time>2021-09-23T07:22:41.000Z</time>
      </trkpt>
      <trkpt lat="47.28519" lon="-2.36394">
        <ele>31.200000762939</ele>
        <time>2021-09-23T07:22:42.000Z</time>
      </trkpt>
      <trkpt lat="47.28517" lon="-2.36396">
        <ele>30.39999961853</ele>
        <time>2021-09-23T07:22:43.000Z</time>
      </trkpt>
      <trkpt lat="47.28515" lon="-2.364">
        <ele>29</ele>
        <time>2021-09-23T07:22:44.000Z</time>
      </trkpt>
      <trkpt lat="47.28513" lon="-2.36405">
        <ele>28.39999961853</ele>
        <time>2021-09-23T07:22:45.000Z</time>
      </trkpt>
      <trkpt lat="47.2851" lon="-2.3641">
        <ele>27.799999237061</ele>
        <time>2021-09-23T07:22:46.000Z</time>
      </trkpt>
      <trkpt lat="47.28508" lon="-2.36414">
        <ele>27.39999961853</ele>
        <time>2021-09-23T07:22:47.000Z</time>
      </trkpt>
      <trkpt lat="47.28507" lon="-2.36418">
        <ele>26.799999237061</ele>
        <time>2021-09-23T07:22:48.000Z</time>
      </trkpt>
      <trkpt lat="47.28505" lon="-2.36423">
        <ele>26.200000762939</ele>
        <time>2021-09-23T07:22:49.000Z</time>
      </trkpt>
      <trkpt lat="47.28504" lon="-2.36428">
        <ele>25.60000038147</ele>
        <time>2021-09-23T07:22:50.000Z</time>
      </trkpt>
      <trkpt lat="47.28503" lon="-2.36432">
        <ele>25.200000762939</ele>
        <time>2021-09-23T07:22:51.000Z</time>
      </trkpt>
      <trkpt lat="47.28503" lon="-2.36436">
        <ele>24.60000038147</ele>
        <time>2021-09-23T07:22:52.000Z</time>
      </trkpt>
      <trkpt lat="47.28503" lon="-2.3644">
        <ele>24.200000762939</ele>
        <time>2021-09-23T07:22:53.000Z</time>
      </trkpt>
      <trkpt lat="47.28508" lon="-2.3646">
        <ele>24.200000762939</ele>
        <time>2021-09-23T07:22:58.000Z</time>
      </trkpt>
      <trkpt lat="47.2852" lon="-2.36487">
        <ele>24.200000762939</ele>
        <time>2021-09-23T07:23:04.000Z</time>
      </trkpt>
      <trkpt lat="47.2852" lon="-2.36507">
        <ele>24.200000762939</ele>
        <time>2021-09-23T07:23:08.000Z</time>
      </trkpt>
      <trkpt lat="47.28518" lon="-2.36511">
        <ele>24.200000762939</ele>
        <time>2021-09-23T07:23:09.000Z</time>
      </trkpt>
      <trkpt lat="47.28515" lon="-2.36515">
        <ele>23.60000038147</ele>
        <time>2021-09-23T07:23:10.000Z</time>
      </trkpt>
      <trkpt lat="47.28512" lon="-2.36519">
        <ele>23.200000762939</ele>
        <time>2021-09-23T07:23:11.000Z</time>
      </trkpt>
      <trkpt lat="47.28508" lon="-2.36523">
        <ele>22.799999237061</ele>
        <time>2021-09-23T07:23:12.000Z</time>
      </trkpt>
      <trkpt lat="47.28503" lon="-2.36528">
        <ele>22.39999961853</ele>
        <time>2021-09-23T07:23:13.000Z</time>
      </trkpt>
      <trkpt lat="47.28499" lon="-2.36532">
        <ele>22</ele>
        <time>2021-09-23T07:23:14.000Z</time>
      </trkpt>
      <trkpt lat="47.28473" lon="-2.36573">
        <ele>22</ele>
        <time>2021-09-23T07:23:21.000Z</time>
      </trkpt>
      <trkpt lat="47.28472" lon="-2.36582">
        <ele>21.60000038147</ele>
        <time>2021-09-23T07:23:22.000Z</time>
      </trkpt>
      <trkpt lat="47.28474" lon="-2.3659">
        <ele>21.200000762939</ele>
        <time>2021-09-23T07:23:23.000Z</time>
      </trkpt>
      <trkpt lat="47.28475" lon="-2.36597">
        <ele>20.799999237061</ele>
        <time>2021-09-23T07:23:24.000Z</time>
      </trkpt>
      <trkpt lat="47.28477" lon="-2.36603">
        <ele>20.39999961853</ele>
        <time>2021-09-23T07:23:25.000Z</time>
      </trkpt>
      <trkpt lat="47.28479" lon="-2.36609">
        <ele>20</ele>
        <time>2021-09-23T07:23:26.000Z</time>
      </trkpt>
      <trkpt lat="47.28488" lon="-2.36639">
        <ele>20</ele>
        <time>2021-09-23T07:23:31.000Z</time>
      </trkpt>
      <trkpt lat="47.28502" lon="-2.36665">
        <ele>20</ele>
        <time>2021-09-23T07:23:37.000Z</time>
      </trkpt>
      <trkpt lat="47.28505" lon="-2.36666">
        <ele>20</ele>
        <time>2021-09-23T07:23:38.000Z</time>
      </trkpt>
      <trkpt lat="47.28514" lon="-2.36665">
        <ele>20</ele>
        <time>2021-09-23T07:23:41.000Z</time>
      </trkpt>
      <trkpt lat="47.2852" lon="-2.36667">
        <ele>20</ele>
        <time>2021-09-23T07:23:42.000Z</time>
      </trkpt>
      <trkpt lat="47.28532" lon="-2.36669">
        <ele>20</ele>
        <time>2021-09-23T07:23:44.000Z</time>
      </trkpt>
      <trkpt lat="47.28538" lon="-2.36669">
        <ele>20</ele>
        <time>2021-09-23T07:23:45.000Z</time>
      </trkpt>
      <trkpt lat="47.28578" lon="-2.36666">
        <ele>20</ele>
        <time>2021-09-23T07:23:52.000Z</time>
      </trkpt>
      <trkpt lat="47.28609" lon="-2.36666">
        <ele>20</ele>
        <time>2021-09-23T07:23:58.000Z</time>
      </trkpt>
      <trkpt lat="47.28614" lon="-2.36665">
        <ele>20</ele>
        <time>2021-09-23T07:23:59.000Z</time>
      </trkpt>
      <trkpt lat="47.28627" lon="-2.36662">
        <ele>20.39999961853</ele>
        <time>2021-09-23T07:24:02.000Z</time>
      </trkpt>
      <trkpt lat="47.28631" lon="-2.3666">
        <ele>20.799999237061</ele>
        <time>2021-09-23T07:24:03.000Z</time>
      </trkpt>
      <trkpt lat="47.28635" lon="-2.36657">
        <ele>21.200000762939</ele>
        <time>2021-09-23T07:24:04.000Z</time>
      </trkpt>
      <trkpt lat="47.28639" lon="-2.36655">
        <ele>21.60000038147</ele>
        <time>2021-09-23T07:24:05.000Z</time>
      </trkpt>
      <trkpt lat="47.28643" lon="-2.36652">
        <ele>22.200000762939</ele>
        <time>2021-09-23T07:24:06.000Z</time>
      </trkpt>
      <trkpt lat="47.28654" lon="-2.36643">
        <ele>22.60000038147</ele>
        <time>2021-09-23T07:24:09.000Z</time>
      </trkpt>
      <trkpt lat="47.28658" lon="-2.3664">
        <ele>23</ele>
        <time>2021-09-23T07:24:10.000Z</time>
      </trkpt>
      <trkpt lat="47.28662" lon="-2.36637">
        <ele>23.39999961853</ele>
        <time>2021-09-23T07:24:11.000Z</time>
      </trkpt>
      <trkpt lat="47.28666" lon="-2.36633">
        <ele>23.799999237061</ele>
        <time>2021-09-23T07:24:12.000Z</time>
      </trkpt>
      <trkpt lat="47.2867" lon="-2.3663">
        <ele>24.39999961853</ele>
        <time>2021-09-23T07:24:13.000Z</time>
      </trkpt>
      <trkpt lat="47.28684" lon="-2.36618">
        <ele>24.799999237061</ele>
        <time>2021-09-23T07:24:17.000Z</time>
      </trkpt>
      <trkpt lat="47.28687" lon="-2.36615">
        <ele>25.200000762939</ele>
        <time>2021-09-23T07:24:18.000Z</time>
      </trkpt>
      <trkpt lat="47.28691" lon="-2.36612">
        <ele>25.60000038147</ele>
        <time>2021-09-23T07:24:19.000Z</time>
      </trkpt>
      <trkpt lat="47.28701" lon="-2.36603">
        <ele>26.39999961853</ele>
        <time>2021-09-23T07:24:20.000Z</time>
      </trkpt>
      <trkpt lat="47.2871" lon="-2.36591">
        <ele>26.799999237061</ele>
        <time>2021-09-23T07:24:25.000Z</time>
      </trkpt>
      <trkpt lat="47.28712" lon="-2.36587">
        <ele>27.200000762939</ele>
        <time>2021-09-23T07:24:26.000Z</time>
      </trkpt>
      <trkpt lat="47.28715" lon="-2.36583">
        <ele>27.60000038147</ele>
        <time>2021-09-23T07:24:27.000Z</time>
      </trkpt>
      <trkpt lat="47.28716" lon="-2.3658">
        <ele>28</ele>
        <time>2021-09-23T07:24:28.000Z</time>
      </trkpt>
      <trkpt lat="47.28719" lon="-2.36575">
        <ele>28.39999961853</ele>
        <time>2021-09-23T07:24:29.000Z</time>
      </trkpt>
      <trkpt lat="47.28725" lon="-2.36559">
        <ele>28.39999961853</ele>
        <time>2021-09-23T07:24:32.000Z</time>
      </trkpt>
      <trkpt lat="47.28744" lon="-2.36517">
        <ele>28.39999961853</ele>
        <time>2021-09-23T07:24:40.000Z</time>
      </trkpt>
      <trkpt lat="47.28759" lon="-2.36496">
        <ele>28.39999961853</ele>
        <time>2021-09-23T07:24:45.000Z</time>
      </trkpt>
      <trkpt lat="47.28772" lon="-2.36476">
        <ele>28.39999961853</ele>
        <time>2021-09-23T07:24:51.000Z</time>
      </trkpt>
      <trkpt lat="47.28779" lon="-2.3646">
        <ele>28.39999961853</ele>
        <time>2021-09-23T07:24:57.000Z</time>
      </trkpt>
      <trkpt lat="47.28786" lon="-2.36439">
        <ele>28.39999961853</ele>
        <time>2021-09-23T07:25:03.000Z</time>
      </trkpt>
      <trkpt lat="47.28789" lon="-2.36432">
        <ele>28.39999961853</ele>
        <time>2021-09-23T07:25:05.000Z</time>
      </trkpt>
      <trkpt lat="47.28795" lon="-2.36436">
        <ele>28.39999961853</ele>
        <time>2021-09-23T07:25:08.000Z</time>
      </trkpt>
      <trkpt lat="47.28796" lon="-2.36439">
        <ele>28.39999961853</ele>
        <time>2021-09-23T07:25:09.000Z</time>
      </trkpt>
      <trkpt lat="47.28807" lon="-2.36438">
        <ele>28.39999961853</ele>
        <time>2021-09-23T07:25:14.000Z</time>
      </trkpt>
      <trkpt lat="47.28811" lon="-2.36434">
        <ele>28.799999237061</ele>
        <time>2021-09-23T07:25:16.000Z</time>
      </trkpt>
      <trkpt lat="47.28811" lon="-2.36432">
        <ele>29.39999961853</ele>
        <time>2021-09-23T07:25:17.000Z</time>
      </trkpt>
      <trkpt lat="47.28812" lon="-2.3643">
        <ele>29.799999237061</ele>
        <time>2021-09-23T07:25:18.000Z</time>
      </trkpt>
      <trkpt lat="47.28813" lon="-2.36427">
        <ele>30.200000762939</ele>
        <time>2021-09-23T07:25:19.000Z</time>
      </trkpt>
      <trkpt lat="47.28813" lon="-2.36424">
        <ele>30.60000038147</ele>
        <time>2021-09-23T07:25:20.000Z</time>
      </trkpt>
      <trkpt lat="47.28823" lon="-2.3641">
        <ele>30.60000038147</ele>
        <time>2021-09-23T07:25:24.000Z</time>
      </trkpt>
      <trkpt lat="47.28827" lon="-2.36408">
        <ele>30.60000038147</ele>
        <time>2021-09-23T07:25:25.000Z</time>
      </trkpt>
      <trkpt lat="47.28835" lon="-2.36406">
        <ele>30.60000038147</ele>
        <time>2021-09-23T07:25:28.000Z</time>
      </trkpt>
      <trkpt lat="47.28843" lon="-2.3642">
        <ele>30.60000038147</ele>
        <time>2021-09-23T07:25:34.000Z</time>
      </trkpt>
      <trkpt lat="47.28846" lon="-2.36435">
        <ele>29.799999237061</ele>
        <time>2021-09-23T07:25:37.000Z</time>
      </trkpt>
      <trkpt lat="47.28848" lon="-2.36444">
        <ele>29.39999961853</ele>
        <time>2021-09-23T07:25:38.000Z</time>
      </trkpt>
      <trkpt lat="47.2885" lon="-2.36452">
        <ele>29</ele>
        <time>2021-09-23T07:25:39.000Z</time>
      </trkpt>
      <trkpt lat="47.28851" lon="-2.3646">
        <ele>28.39999961853</ele>
        <time>2021-09-23T07:25:40.000Z</time>
      </trkpt>
      <trkpt lat="47.28854" lon="-2.36477">
        <ele>28</ele>
        <time>2021-09-23T07:25:42.000Z</time>
      </trkpt>
      <trkpt lat="47.28855" lon="-2.36481">
        <ele>27.60000038147</ele>
        <time>2021-09-23T07:25:43.000Z</time>
      </trkpt>
      <trkpt lat="47.28856" lon="-2.36486">
        <ele>27.200000762939</ele>
        <time>2021-09-23T07:25:44.000Z</time>
      </trkpt>
      <trkpt lat="47.28858" lon="-2.3649">
        <ele>26.799999237061</ele>
        <time>2021-09-23T07:25:45.000Z</time>
      </trkpt>
      <trkpt lat="47.2886" lon="-2.36494">
        <ele>26.200000762939</ele>
        <time>2021-09-23T07:25:46.000Z</time>
      </trkpt>
      <trkpt lat="47.28865" lon="-2.36505">
        <ele>25.799999237061</ele>
        <time>2021-09-23T07:25:48.000Z</time>
      </trkpt>
      <trkpt lat="47.28867" lon="-2.36511">
        <ele>25.39999961853</ele>
        <time>2021-09-23T07:25:49.000Z</time>
      </trkpt>
      <trkpt lat="47.28868" lon="-2.3652">
        <ele>25</ele>
        <time>2021-09-23T07:25:50.000Z</time>
      </trkpt>
      <trkpt lat="47.28868" lon="-2.36529">
        <ele>24.60000038147</ele>
        <time>2021-09-23T07:25:51.000Z</time>
      </trkpt>
      <trkpt lat="47.28867" lon="-2.36539">
        <ele>24</ele>
        <time>2021-09-23T07:25:52.000Z</time>
      </trkpt>
      <trkpt lat="47.28865" lon="-2.36548">
        <ele>23.60000038147</ele>
        <time>2021-09-23T07:25:53.000Z</time>
      </trkpt>
      <trkpt lat="47.28862" lon="-2.36557">
        <ele>23.200000762939</ele>
        <time>2021-09-23T07:25:54.000Z</time>
      </trkpt>
      <trkpt lat="47.28859" lon="-2.36565">
        <ele>22.799999237061</ele>
        <time>2021-09-23T07:25:55.000Z</time>
      </trkpt>
      <trkpt lat="47.28857" lon="-2.36571">
        <ele>22.200000762939</ele>
        <time>2021-09-23T07:25:56.000Z</time>
      </trkpt>
      <trkpt lat="47.28854" lon="-2.36577">
        <ele>21.799999237061</ele>
        <time>2021-09-23T07:25:57.000Z</time>
      </trkpt>
      <trkpt lat="47.2885" lon="-2.36587">
        <ele>21.799999237061</ele>
        <time>2021-09-23T07:25:59.000Z</time>
      </trkpt>
      <trkpt lat="47.28837" lon="-2.36618">
        <ele>21.799999237061</ele>
        <time>2021-09-23T07:26:05.000Z</time>
      </trkpt>
      <trkpt lat="47.28822" lon="-2.36647">
        <ele>21.799999237061</ele>
        <time>2021-09-23T07:26:11.000Z</time>
      </trkpt>
      <trkpt lat="47.28817" lon="-2.3666">
        <ele>21.39999961853</ele>
        <time>2021-09-23T07:26:13.000Z</time>
      </trkpt>
      <trkpt lat="47.28814" lon="-2.36668">
        <ele>21</ele>
        <time>2021-09-23T07:26:14.000Z</time>
      </trkpt>
      <trkpt lat="47.28812" lon="-2.36675">
        <ele>20.39999961853</ele>
        <time>2021-09-23T07:26:15.000Z</time>
      </trkpt>
      <trkpt lat="47.28809" lon="-2.36683">
        <ele>20</ele>
        <time>2021-09-23T07:26:16.000Z</time>
      </trkpt>
      <trkpt lat="47.28807" lon="-2.36692">
        <ele>19.60000038147</ele>
        <time>2021-09-23T07:26:17.000Z</time>
      </trkpt>
      <trkpt lat="47.28804" lon="-2.36703">
        <ele>19</ele>
        <time>2021-09-23T07:26:18.000Z</time>
      </trkpt>
      <trkpt lat="47.288" lon="-2.36716">
        <ele>18.39999961853</ele>
        <time>2021-09-23T07:26:19.000Z</time>
      </trkpt>
      <trkpt lat="47.28796" lon="-2.36728">
        <ele>18</ele>
        <time>2021-09-23T07:26:20.000Z</time>
      </trkpt>
      <trkpt lat="47.28793" lon="-2.3674">
        <ele>17.39999961853</ele>
        <time>2021-09-23T07:26:21.000Z</time>
      </trkpt>
      <trkpt lat="47.2879" lon="-2.36751">
        <ele>16.799999237061</ele>
        <time>2021-09-23T07:26:22.000Z</time>
      </trkpt>
      <trkpt lat="47.28787" lon="-2.3676">
        <ele>16.39999961853</ele>
        <time>2021-09-23T07:26:23.000Z</time>
      </trkpt>
      <trkpt lat="47.28784" lon="-2.36769">
        <ele>15.60000038147</ele>
        <time>2021-09-23T07:26:24.000Z</time>
      </trkpt>
      <trkpt lat="47.28783" lon="-2.36776">
        <ele>15</ele>
        <time>2021-09-23T07:26:25.000Z</time>
      </trkpt>
      <trkpt lat="47.28781" lon="-2.36784">
        <ele>13.60000038147</ele>
        <time>2021-09-23T07:26:26.000Z</time>
      </trkpt>
      <trkpt lat="47.28779" lon="-2.36791">
        <ele>12.800000190735</ele>
        <time>2021-09-23T07:26:27.000Z</time>
      </trkpt>
      <trkpt lat="47.28776" lon="-2.36806">
        <ele>12.39999961853</ele>
        <time>2021-09-23T07:26:29.000Z</time>
      </trkpt>
      <trkpt lat="47.28775" lon="-2.36813">
        <ele>12</ele>
        <time>2021-09-23T07:26:30.000Z</time>
      </trkpt>
      <trkpt lat="47.28773" lon="-2.3682">
        <ele>11.60000038147</ele>
        <time>2021-09-23T07:26:31.000Z</time>
      </trkpt>
      <trkpt lat="47.28772" lon="-2.36828">
        <ele>11.199999809265</ele>
        <time>2021-09-23T07:26:32.000Z</time>
      </trkpt>
      <trkpt lat="47.28771" lon="-2.36833">
        <ele>10.800000190735</ele>
        <time>2021-09-23T07:26:33.000Z</time>
      </trkpt>
      <trkpt lat="47.2877" lon="-2.3684">
        <ele>10.199999809265</ele>
        <time>2021-09-23T07:26:34.000Z</time>
      </trkpt>
      <trkpt lat="47.2877" lon="-2.36847">
        <ele>9.8000001907349</ele>
        <time>2021-09-23T07:26:35.000Z</time>
      </trkpt>
      <trkpt lat="47.2877" lon="-2.36854">
        <ele>9.1999998092651</ele>
        <time>2021-09-23T07:26:36.000Z</time>
      </trkpt>
      <trkpt lat="47.2877" lon="-2.36862">
        <ele>8.6000003814697</ele>
        <time>2021-09-23T07:26:37.000Z</time>
      </trkpt>
      <trkpt lat="47.2877" lon="-2.36876">
        <ele>8.1999998092651</ele>
        <time>2021-09-23T07:26:39.000Z</time>
      </trkpt>
      <trkpt lat="47.28769" lon="-2.36882">
        <ele>7.8000001907349</ele>
        <time>2021-09-23T07:26:40.000Z</time>
      </trkpt>
      <trkpt lat="47.28769" lon="-2.36888">
        <ele>7.4000000953674</ele>
        <time>2021-09-23T07:26:41.000Z</time>
      </trkpt>
      <trkpt lat="47.28769" lon="-2.36894">
        <ele>7</ele>
        <time>2021-09-23T07:26:42.000Z</time>
      </trkpt>
      <trkpt lat="47.2877" lon="-2.36899">
        <ele>6.4000000953674</ele>
        <time>2021-09-23T07:26:43.000Z</time>
      </trkpt>
      <trkpt lat="47.2877" lon="-2.36911">
        <ele>6</ele>
        <time>2021-09-23T07:26:45.000Z</time>
      </trkpt>
      <trkpt lat="47.2877" lon="-2.36916">
        <ele>5.5999999046326</ele>
        <time>2021-09-23T07:26:46.000Z</time>
      </trkpt>
      <trkpt lat="47.2877" lon="-2.36923">
        <ele>5.1999998092651</ele>
        <time>2021-09-23T07:26:47.000Z</time>
      </trkpt>
      <trkpt lat="47.28771" lon="-2.3693">
        <ele>4.8000001907349</ele>
        <time>2021-09-23T07:26:48.000Z</time>
      </trkpt>
      <trkpt lat="47.28771" lon="-2.36936">
        <ele>4.4000000953674</ele>
        <time>2021-09-23T07:26:49.000Z</time>
      </trkpt>
      <trkpt lat="47.28777" lon="-2.36964">
        <ele>4.4000000953674</ele>
        <time>2021-09-23T07:26:54.000Z</time>
      </trkpt>
      <trkpt lat="47.2878" lon="-2.36973">
        <ele>4.4000000953674</ele>
        <time>2021-09-23T07:26:58.000Z</time>
      </trkpt>
      <trkpt lat="47.28781" lon="-2.36974">
        <ele>4.4000000953674</ele>
        <time>2021-09-23T07:26:59.000Z</time>
      </trkpt>
      <trkpt lat="47.28781" lon="-2.36973">
        <ele>4.4000000953674</ele>
        <time>2021-09-23T07:27:06.000Z</time>
      </trkpt>
      <trkpt lat="47.28781" lon="-2.36971">
        <ele>4.4000000953674</ele>
        <time>2021-09-23T07:27:08.000Z</time>
      </trkpt>
      <trkpt lat="47.28777" lon="-2.36962">
        <ele>4.4000000953674</ele>
        <time>2021-09-23T07:27:14.000Z</time>
      </trkpt>
      <trkpt lat="47.28776" lon="-2.3696">
        <ele>4.4000000953674</ele>
        <time>2021-09-23T07:27:15.000Z</time>
      </trkpt>
      <trkpt lat="47.28773" lon="-2.36944">
        <ele>4.4000000953674</ele>
        <time>2021-09-23T07:27:20.000Z</time>
      </trkpt>
      <trkpt lat="47.2877" lon="-2.36924">
        <ele>4.4000000953674</ele>
        <time>2021-09-23T07:27:25.000Z</time>
      </trkpt>
      <trkpt lat="47.28771" lon="-2.36922">
        <ele>4.4000000953674</ele>
        <time>2021-09-23T07:27:26.000Z</time>
      </trkpt>
      <trkpt lat="47.28774" lon="-2.36923">
        <ele>4.4000000953674</ele>
        <time>2021-09-23T07:27:29.000Z</time>
      </trkpt>
      <trkpt lat="47.2878" lon="-2.36943">
        <ele>4.4000000953674</ele>
        <time>2021-09-23T07:27:33.000Z</time>
      </trkpt>
      <trkpt lat="47.28792" lon="-2.36984">
        <ele>4.4000000953674</ele>
        <time>2021-09-23T07:27:39.000Z</time>
      </trkpt>
      <trkpt lat="47.28809" lon="-2.37036">
        <ele>4.4000000953674</ele>
        <time>2021-09-23T07:27:47.000Z</time>
      </trkpt>
      <trkpt lat="47.28814" lon="-2.37047">
        <ele>4</ele>
        <time>2021-09-23T07:27:50.000Z</time>
      </trkpt>
      <trkpt lat="47.28815" lon="-2.37048">
        <ele>3.4000000953674</ele>
        <time>2021-09-23T07:27:51.000Z</time>
      </trkpt>
      <trkpt lat="47.28816" lon="-2.37049">
        <ele>3</ele>
        <time>2021-09-23T07:27:52.000Z</time>
      </trkpt>
      <trkpt lat="47.28817" lon="-2.37051">
        <ele>2.5999999046326</ele>
        <time>2021-09-23T07:27:53.000Z</time>
      </trkpt>
      <trkpt lat="47.28817" lon="-2.37051">
        <ele>2.2000000476837</ele>
        <time>2021-09-23T07:27:54.000Z</time>
      </trkpt>
      <trkpt lat="47.28818" lon="-2.37052">
        <ele>2.2000000476837</ele>
        <time>2021-09-23T07:27:56.000Z</time>
      </trkpt>
      <trkpt lat="47.28815" lon="-2.3705">
        <ele>2.2000000476837</ele>
        <time>2021-09-23T07:28:18.000Z</time>
      </trkpt>
      <trkpt lat="47.2881" lon="-2.37031">
        <ele>2.2000000476837</ele>
        <time>2021-09-23T07:28:23.000Z</time>
      </trkpt>
      <trkpt lat="47.28804" lon="-2.37006">
        <ele>2.2000000476837</ele>
        <time>2021-09-23T07:28:29.000Z</time>
      </trkpt>
      <trkpt lat="47.28792" lon="-2.36974">
        <ele>2.2000000476837</ele>
        <time>2021-09-23T07:28:36.000Z</time>
      </trkpt>
      <trkpt lat="47.28786" lon="-2.36941">
        <ele>2.2000000476837</ele>
        <time>2021-09-23T07:28:42.000Z</time>
      </trkpt>
      <trkpt lat="47.28782" lon="-2.36913">
        <ele>2.2000000476837</ele>
        <time>2021-09-23T07:28:48.000Z</time>
      </trkpt>
      <trkpt lat="47.28785" lon="-2.36885">
        <ele>2.2000000476837</ele>
        <time>2021-09-23T07:28:53.000Z</time>
      </trkpt>
      <trkpt lat="47.28792" lon="-2.36849">
        <ele>2.2000000476837</ele>
        <time>2021-09-23T07:28:59.000Z</time>
      </trkpt>
      <trkpt lat="47.28804" lon="-2.3682">
        <ele>2.2000000476837</ele>
        <time>2021-09-23T07:29:06.000Z</time>
      </trkpt>
      <trkpt lat="47.2881" lon="-2.36813">
        <ele>2.2000000476837</ele>
        <time>2021-09-23T07:29:12.000Z</time>
      </trkpt>
      <trkpt lat="47.28811" lon="-2.36813">
        <ele>2.2000000476837</ele>
        <time>2021-09-23T07:29:14.000Z</time>
      </trkpt>
      <trkpt lat="47.28814" lon="-2.36817">
        <ele>2.2000000476837</ele>
        <time>2021-09-23T07:29:43.000Z</time>
      </trkpt>
      <trkpt lat="47.28816" lon="-2.36822">
        <ele>2.2000000476837</ele>
        <time>2021-09-23T07:29:45.000Z</time>
      </trkpt>
      <trkpt lat="47.28826" lon="-2.36839">
        <ele>2.5999999046326</ele>
        <time>2021-09-23T07:29:51.000Z</time>
      </trkpt>
      <trkpt lat="47.28826" lon="-2.36842">
        <ele>3</ele>
        <time>2021-09-23T07:29:52.000Z</time>
      </trkpt>
      <trkpt lat="47.28827" lon="-2.36844">
        <ele>3.4000000953674</ele>
        <time>2021-09-23T07:29:53.000Z</time>
      </trkpt>
      <trkpt lat="47.28828" lon="-2.36847">
        <ele>3.7999999523163</ele>
        <time>2021-09-23T07:29:54.000Z</time>
      </trkpt>
      <trkpt lat="47.28828" lon="-2.36849">
        <ele>4.1999998092651</ele>
        <time>2021-09-23T07:29:55.000Z</time>
      </trkpt>
      <trkpt lat="47.28829" lon="-2.36855">
        <ele>4.8000001907349</ele>
        <time>2021-09-23T07:29:57.000Z</time>
      </trkpt>
      <trkpt lat="47.2883" lon="-2.36858">
        <ele>5.1999998092651</ele>
        <time>2021-09-23T07:29:58.000Z</time>
      </trkpt>
      <trkpt lat="47.2883" lon="-2.36861">
        <ele>5.5999999046326</ele>
        <time>2021-09-23T07:29:59.000Z</time>
      </trkpt>
      <trkpt lat="47.28831" lon="-2.36864">
        <ele>6</ele>
        <time>2021-09-23T07:30:00.000Z</time>
      </trkpt>
      <trkpt lat="47.28832" lon="-2.36866">
        <ele>6.4000000953674</ele>
        <time>2021-09-23T07:30:01.000Z</time>
      </trkpt>
      <trkpt lat="47.28837" lon="-2.36875">
        <ele>6.8000001907349</ele>
        <time>2021-09-23T07:30:04.000Z</time>
      </trkpt>
      <trkpt lat="47.28838" lon="-2.36878">
        <ele>7.1999998092651</ele>
        <time>2021-09-23T07:30:05.000Z</time>
      </trkpt>
      <trkpt lat="47.2884" lon="-2.3688">
        <ele>7.5999999046326</ele>
        <time>2021-09-23T07:30:06.000Z</time>
      </trkpt>
      <trkpt lat="47.28842" lon="-2.3688">
        <ele>8.3999996185303</ele>
        <time>2021-09-23T07:30:07.000Z</time>
      </trkpt>
      <trkpt lat="47.28844" lon="-2.36879">
        <ele>8.8000001907349</ele>
        <time>2021-09-23T07:30:08.000Z</time>
      </trkpt>
      <trkpt lat="47.28846" lon="-2.36877">
        <ele>9.3999996185303</ele>
        <time>2021-09-23T07:30:09.000Z</time>
      </trkpt>
      <trkpt lat="47.28847" lon="-2.36874">
        <ele>9.8000001907349</ele>
        <time>2021-09-23T07:30:10.000Z</time>
      </trkpt>
      <trkpt lat="47.28848" lon="-2.3687">
        <ele>10.199999809265</ele>
        <time>2021-09-23T07:30:11.000Z</time>
      </trkpt>
      <trkpt lat="47.28848" lon="-2.36867">
        <ele>10.60000038147</ele>
        <time>2021-09-23T07:30:12.000Z</time>
      </trkpt>
      <trkpt lat="47.28849" lon="-2.36863">
        <ele>10.60000038147</ele>
        <time>2021-09-23T07:30:13.000Z</time>
      </trkpt>
      <trkpt lat="47.28852" lon="-2.3685">
        <ele>11</ele>
        <time>2021-09-23T07:30:16.000Z</time>
      </trkpt>
      <trkpt lat="47.28852" lon="-2.36846">
        <ele>11.39999961853</ele>
        <time>2021-09-23T07:30:17.000Z</time>
      </trkpt>
      <trkpt lat="47.28853" lon="-2.3684">
        <ele>11.800000190735</ele>
        <time>2021-09-23T07:30:18.000Z</time>
      </trkpt>
      <trkpt lat="47.28853" lon="-2.36836">
        <ele>12.199999809265</ele>
        <time>2021-09-23T07:30:19.000Z</time>
      </trkpt>
      <trkpt lat="47.28854" lon="-2.36831">
        <ele>12.60000038147</ele>
        <time>2021-09-23T07:30:20.000Z</time>
      </trkpt>
      <trkpt lat="47.28867" lon="-2.36793">
        <ele>12.60000038147</ele>
        <time>2021-09-23T07:30:29.000Z</time>
      </trkpt>
      <trkpt lat="47.28874" lon="-2.36783">
        <ele>12.60000038147</ele>
        <time>2021-09-23T07:30:34.000Z</time>
      </trkpt>
      <trkpt lat="47.28876" lon="-2.36778">
        <ele>12.60000038147</ele>
        <time>2021-09-23T07:30:37.000Z</time>
      </trkpt>
      <trkpt lat="47.28878" lon="-2.36775">
        <ele>12.60000038147</ele>
        <time>2021-09-23T07:30:40.000Z</time>
      </trkpt>
      <trkpt lat="47.2888" lon="-2.36775">
        <ele>12.60000038147</ele>
        <time>2021-09-23T07:30:41.000Z</time>
      </trkpt>
      <trkpt lat="47.28885" lon="-2.36775">
        <ele>13</ele>
        <time>2021-09-23T07:30:44.000Z</time>
      </trkpt>
      <trkpt lat="47.28888" lon="-2.36776">
        <ele>13.39999961853</ele>
        <time>2021-09-23T07:30:45.000Z</time>
      </trkpt>
      <trkpt lat="47.28889" lon="-2.36776">
        <ele>13.800000190735</ele>
        <time>2021-09-23T07:30:46.000Z</time>
      </trkpt>
      <trkpt lat="47.28892" lon="-2.36778">
        <ele>14.199999809265</ele>
        <time>2021-09-23T07:30:47.000Z</time>
      </trkpt>
      <trkpt lat="47.28895" lon="-2.36778">
        <ele>14.60000038147</ele>
        <time>2021-09-23T07:30:48.000Z</time>
      </trkpt>
      <trkpt lat="47.28905" lon="-2.36784">
        <ele>14.60000038147</ele>
        <time>2021-09-23T07:30:52.000Z</time>
      </trkpt>
      <trkpt lat="47.28913" lon="-2.36791">
        <ele>15.199999809265</ele>
        <time>2021-09-23T07:30:56.000Z</time>
      </trkpt>
      <trkpt lat="47.28916" lon="-2.36793">
        <ele>15.60000038147</ele>
        <time>2021-09-23T07:30:57.000Z</time>
      </trkpt>
      <trkpt lat="47.28918" lon="-2.36795">
        <ele>16</ele>
        <time>2021-09-23T07:30:58.000Z</time>
      </trkpt>
      <trkpt lat="47.28921" lon="-2.36798">
        <ele>16.39999961853</ele>
        <time>2021-09-23T07:30:59.000Z</time>
      </trkpt>
      <trkpt lat="47.28923" lon="-2.36801">
        <ele>17</ele>
        <time>2021-09-23T07:31:00.000Z</time>
      </trkpt>
      <trkpt lat="47.28941" lon="-2.36813">
        <ele>17</ele>
        <time>2021-09-23T07:31:05.000Z</time>
      </trkpt>
      <trkpt lat="47.28953" lon="-2.36826">
        <ele>17</ele>
        <time>2021-09-23T07:31:09.000Z</time>
      </trkpt>
      <trkpt lat="47.28957" lon="-2.36829">
        <ele>17</ele>
        <time>2021-09-23T07:31:10.000Z</time>
      </trkpt>
      <trkpt lat="47.28965" lon="-2.36835">
        <ele>17</ele>
        <time>2021-09-23T07:31:12.000Z</time>
      </trkpt>
      <trkpt lat="47.28976" lon="-2.36845">
        <ele>17.39999961853</ele>
        <time>2021-09-23T07:31:15.000Z</time>
      </trkpt>
      <trkpt lat="47.28979" lon="-2.36848">
        <ele>17.799999237061</ele>
        <time>2021-09-23T07:31:16.000Z</time>
      </trkpt>
      <trkpt lat="47.28982" lon="-2.36851">
        <ele>18.200000762939</ele>
        <time>2021-09-23T07:31:17.000Z</time>
      </trkpt>
      <trkpt lat="47.28986" lon="-2.36855">
        <ele>18.60000038147</ele>
        <time>2021-09-23T07:31:18.000Z</time>
      </trkpt>
      <trkpt lat="47.2899" lon="-2.36858">
        <ele>19</ele>
        <time>2021-09-23T07:31:19.000Z</time>
      </trkpt>
      <trkpt lat="47.29008" lon="-2.36875">
        <ele>19</ele>
        <time>2021-09-23T07:31:24.000Z</time>
      </trkpt>
      <trkpt lat="47.29015" lon="-2.36881">
        <ele>19</ele>
        <time>2021-09-23T07:31:26.000Z</time>
      </trkpt>
      <trkpt lat="47.29025" lon="-2.3689">
        <ele>19</ele>
        <time>2021-09-23T07:31:29.000Z</time>
      </trkpt>
      <trkpt lat="47.29032" lon="-2.36898">
        <ele>19.39999961853</ele>
        <time>2021-09-23T07:31:32.000Z</time>
      </trkpt>
      <trkpt lat="47.29035" lon="-2.369">
        <ele>19.799999237061</ele>
        <time>2021-09-23T07:31:33.000Z</time>
      </trkpt>
      <trkpt lat="47.29037" lon="-2.36903">
        <ele>20.39999961853</ele>
        <time>2021-09-23T07:31:34.000Z</time>
      </trkpt>
      <trkpt lat="47.29039" lon="-2.36905">
        <ele>20.799999237061</ele>
        <time>2021-09-23T07:31:35.000Z</time>
      </trkpt>
      <trkpt lat="47.2904" lon="-2.36908">
        <ele>21.200000762939</ele>
        <time>2021-09-23T07:31:36.000Z</time>
      </trkpt>
      <trkpt lat="47.29047" lon="-2.36919">
        <ele>21.200000762939</ele>
        <time>2021-09-23T07:31:41.000Z</time>
      </trkpt>
      <trkpt lat="47.29062" lon="-2.36931">
        <ele>21.200000762939</ele>
        <time>2021-09-23T07:31:47.000Z</time>
      </trkpt>
      <trkpt lat="47.29081" lon="-2.36944">
        <ele>21.200000762939</ele>
        <time>2021-09-23T07:31:53.000Z</time>
      </trkpt>
      <trkpt lat="47.29101" lon="-2.36951">
        <ele>21.200000762939</ele>
        <time>2021-09-23T07:31:59.000Z</time>
      </trkpt>
      <trkpt lat="47.29107" lon="-2.36952">
        <ele>21.60000038147</ele>
        <time>2021-09-23T07:32:01.000Z</time>
      </trkpt>
      <trkpt lat="47.2911" lon="-2.36954">
        <ele>22</ele>
        <time>2021-09-23T07:32:02.000Z</time>
      </trkpt>
      <trkpt lat="47.29114" lon="-2.36955">
        <ele>22.39999961853</ele>
        <time>2021-09-23T07:32:03.000Z</time>
      </trkpt>
      <trkpt lat="47.29118" lon="-2.36956">
        <ele>22.799999237061</ele>
        <time>2021-09-23T07:32:04.000Z</time>
      </trkpt>
      <trkpt lat="47.29121" lon="-2.36957">
        <ele>23.200000762939</ele>
        <time>2021-09-23T07:32:05.000Z</time>
      </trkpt>
      <trkpt lat="47.29131" lon="-2.36964">
        <ele>23.200000762939</ele>
        <time>2021-09-23T07:32:08.000Z</time>
      </trkpt>
      <trkpt lat="47.29151" lon="-2.36983">
        <ele>23.200000762939</ele>
        <time>2021-09-23T07:32:14.000Z</time>
      </trkpt>
      <trkpt lat="47.2916" lon="-2.36994">
        <ele>23.200000762939</ele>
        <time>2021-09-23T07:32:17.000Z</time>
      </trkpt>
      <trkpt lat="47.29166" lon="-2.37004">
        <ele>23.200000762939</ele>
        <time>2021-09-23T07:32:19.000Z</time>
      </trkpt>
      <trkpt lat="47.2919" lon="-2.37035">
        <ele>23.60000038147</ele>
        <time>2021-09-23T07:32:25.000Z</time>
      </trkpt>
      <trkpt lat="47.29194" lon="-2.3704">
        <ele>24</ele>
        <time>2021-09-23T07:32:26.000Z</time>
      </trkpt>
      <trkpt lat="47.29199" lon="-2.37046">
        <ele>24.39999961853</ele>
        <time>2021-09-23T07:32:27.000Z</time>
      </trkpt>
      <trkpt lat="47.29203" lon="-2.37051">
        <ele>24.799999237061</ele>
        <time>2021-09-23T07:32:28.000Z</time>
      </trkpt>
      <trkpt lat="47.29207" lon="-2.37056">
        <ele>25.200000762939</ele>
        <time>2021-09-23T07:32:29.000Z</time>
      </trkpt>
      <trkpt lat="47.2922" lon="-2.37076">
        <ele>25.200000762939</ele>
        <time>2021-09-23T07:32:32.000Z</time>
      </trkpt>
      <trkpt lat="47.2923" lon="-2.37085">
        <ele>25.200000762939</ele>
        <time>2021-09-23T07:32:34.000Z</time>
      </trkpt>
      <trkpt lat="47.29243" lon="-2.37098">
        <ele>25.200000762939</ele>
        <time>2021-09-23T07:32:37.000Z</time>
      </trkpt>
      <trkpt lat="47.29247" lon="-2.37102">
        <ele>25.200000762939</ele>
        <time>2021-09-23T07:32:38.000Z</time>
      </trkpt>
      <trkpt lat="47.29264" lon="-2.37117">
        <ele>25.200000762939</ele>
        <time>2021-09-23T07:32:42.000Z</time>
      </trkpt>
      <trkpt lat="47.29287" lon="-2.37144">
        <ele>25.200000762939</ele>
        <time>2021-09-23T07:32:48.000Z</time>
      </trkpt>
      <trkpt lat="47.29291" lon="-2.37149">
        <ele>25.200000762939</ele>
        <time>2021-09-23T07:32:49.000Z</time>
      </trkpt>
      <trkpt lat="47.29317" lon="-2.37176">
        <ele>25.200000762939</ele>
        <time>2021-09-23T07:32:55.000Z</time>
      </trkpt>
      <trkpt lat="47.29354" lon="-2.37201">
        <ele>24.799999237061</ele>
        <time>2021-09-23T07:33:02.000Z</time>
      </trkpt>
      <trkpt lat="47.2936" lon="-2.37203">
        <ele>24.39999961853</ele>
        <time>2021-09-23T07:33:03.000Z</time>
      </trkpt>
      <trkpt lat="47.29366" lon="-2.37206">
        <ele>24</ele>
        <time>2021-09-23T07:33:04.000Z</time>
      </trkpt>
      <trkpt lat="47.29371" lon="-2.37209">
        <ele>23.60000038147</ele>
        <time>2021-09-23T07:33:05.000Z</time>
      </trkpt>
      <trkpt lat="47.29377" lon="-2.37211">
        <ele>23.200000762939</ele>
        <time>2021-09-23T07:33:06.000Z</time>
      </trkpt>
      <trkpt lat="47.29397" lon="-2.37221">
        <ele>23.200000762939</ele>
        <time>2021-09-23T07:33:10.000Z</time>
      </trkpt>
      <trkpt lat="47.2941" lon="-2.37227">
        <ele>23.200000762939</ele>
        <time>2021-09-23T07:33:13.000Z</time>
      </trkpt>
      <trkpt lat="47.29419" lon="-2.37235">
        <ele>23.200000762939</ele>
        <time>2021-09-23T07:33:15.000Z</time>
      </trkpt>
      <trkpt lat="47.29427" lon="-2.37245">
        <ele>23.200000762939</ele>
        <time>2021-09-23T07:33:17.000Z</time>
      </trkpt>
      <trkpt lat="47.29445" lon="-2.37262">
        <ele>23.200000762939</ele>
        <time>2021-09-23T07:33:21.000Z</time>
      </trkpt>
      <trkpt lat="47.29475" lon="-2.37292">
        <ele>23.200000762939</ele>
        <time>2021-09-23T07:33:28.000Z</time>
      </trkpt>
      <trkpt lat="47.29479" lon="-2.37297">
        <ele>23.200000762939</ele>
        <time>2021-09-23T07:33:29.000Z</time>
      </trkpt>
      <trkpt lat="47.29483" lon="-2.37301">
        <ele>23.60000038147</ele>
        <time>2021-09-23T07:33:30.000Z</time>
      </trkpt>
      <trkpt lat="47.29486" lon="-2.37306">
        <ele>24</ele>
        <time>2021-09-23T07:33:31.000Z</time>
      </trkpt>
      <trkpt lat="47.2949" lon="-2.37311">
        <ele>24.60000038147</ele>
        <time>2021-09-23T07:33:32.000Z</time>
      </trkpt>
      <trkpt lat="47.29494" lon="-2.37315">
        <ele>25</ele>
        <time>2021-09-23T07:33:33.000Z</time>
      </trkpt>
      <trkpt lat="47.29498" lon="-2.37319">
        <ele>25.39999961853</ele>
        <time>2021-09-23T07:33:34.000Z</time>
      </trkpt>
      <trkpt lat="47.29519" lon="-2.37344">
        <ele>25.39999961853</ele>
        <time>2021-09-23T07:33:41.000Z</time>
      </trkpt>
      <trkpt lat="47.29541" lon="-2.3737">
        <ele>25.39999961853</ele>
        <time>2021-09-23T07:33:49.000Z</time>
      </trkpt>
      <trkpt lat="47.29562" lon="-2.374">
        <ele>25.39999961853</ele>
        <time>2021-09-23T07:33:57.000Z</time>
      </trkpt>
      <trkpt lat="47.29565" lon="-2.37404">
        <ele>25.799999237061</ele>
        <time>2021-09-23T07:33:58.000Z</time>
      </trkpt>
      <trkpt lat="47.29567" lon="-2.37408">
        <ele>26.200000762939</ele>
        <time>2021-09-23T07:33:59.000Z</time>
      </trkpt>
      <trkpt lat="47.2957" lon="-2.37412">
        <ele>26.60000038147</ele>
        <time>2021-09-23T07:34:00.000Z</time>
      </trkpt>
      <trkpt lat="47.29572" lon="-2.37416">
        <ele>27</ele>
        <time>2021-09-23T07:34:01.000Z</time>
      </trkpt>
      <trkpt lat="47.29575" lon="-2.37421">
        <ele>27.39999961853</ele>
        <time>2021-09-23T07:34:02.000Z</time>
      </trkpt>
      <trkpt lat="47.2958" lon="-2.3743">
        <ele>27.39999961853</ele>
        <time>2021-09-23T07:34:04.000Z</time>
      </trkpt>
      <trkpt lat="47.29603" lon="-2.37473">
        <ele>27.39999961853</ele>
        <time>2021-09-23T07:34:13.000Z</time>
      </trkpt>
      <trkpt lat="47.2961" lon="-2.37484">
        <ele>27.39999961853</ele>
        <time>2021-09-23T07:34:15.000Z</time>
      </trkpt>
      <trkpt lat="47.29625" lon="-2.37496">
        <ele>27.39999961853</ele>
        <time>2021-09-23T07:34:18.000Z</time>
      </trkpt>
      <trkpt lat="47.29631" lon="-2.375">
        <ele>27.39999961853</ele>
        <time>2021-09-23T07:34:19.000Z</time>
      </trkpt>
      <trkpt lat="47.29648" lon="-2.37512">
        <ele>27</ele>
        <time>2021-09-23T07:34:22.000Z</time>
      </trkpt>
      <trkpt lat="47.29655" lon="-2.37516">
        <ele>26.60000038147</ele>
        <time>2021-09-23T07:34:23.000Z</time>
      </trkpt>
      <trkpt lat="47.29661" lon="-2.3752">
        <ele>26</ele>
        <time>2021-09-23T07:34:24.000Z</time>
      </trkpt>
      <trkpt lat="47.29667" lon="-2.37525">
        <ele>25.60000038147</ele>
        <time>2021-09-23T07:34:25.000Z</time>
      </trkpt>
      <trkpt lat="47.29673" lon="-2.3753">
        <ele>25.200000762939</ele>
        <time>2021-09-23T07:34:26.000Z</time>
      </trkpt>
      <trkpt lat="47.29694" lon="-2.37548">
        <ele>25.200000762939</ele>
        <time>2021-09-23T07:34:30.000Z</time>
      </trkpt>
      <trkpt lat="47.29716" lon="-2.3757">
        <ele>25.200000762939</ele>
        <time>2021-09-23T07:34:36.000Z</time>
      </trkpt>
      <trkpt lat="47.29738" lon="-2.37598">
        <ele>25.200000762939</ele>
        <time>2021-09-23T07:34:43.000Z</time>
      </trkpt>
      <trkpt lat="47.29747" lon="-2.3761">
        <ele>25.60000038147</ele>
        <time>2021-09-23T07:34:46.000Z</time>
      </trkpt>
      <trkpt lat="47.2975" lon="-2.37614">
        <ele>26</ele>
        <time>2021-09-23T07:34:47.000Z</time>
      </trkpt>
      <trkpt lat="47.29753" lon="-2.37619">
        <ele>26.39999961853</ele>
        <time>2021-09-23T07:34:48.000Z</time>
      </trkpt>
      <trkpt lat="47.29756" lon="-2.37623">
        <ele>26.799999237061</ele>
        <time>2021-09-23T07:34:49.000Z</time>
      </trkpt>
      <trkpt lat="47.29759" lon="-2.37627">
        <ele>27.200000762939</ele>
        <time>2021-09-23T07:34:50.000Z</time>
      </trkpt>
      <trkpt lat="47.29762" lon="-2.37631">
        <ele>27.200000762939</ele>
        <time>2021-09-23T07:34:51.000Z</time>
      </trkpt>
      <trkpt lat="47.29784" lon="-2.37661">
        <ele>27.200000762939</ele>
        <time>2021-09-23T07:34:59.000Z</time>
      </trkpt>
      <trkpt lat="47.29802" lon="-2.37693">
        <ele>27.200000762939</ele>
        <time>2021-09-23T07:35:06.000Z</time>
      </trkpt>
      <trkpt lat="47.2981" lon="-2.37708">
        <ele>27.60000038147</ele>
        <time>2021-09-23T07:35:09.000Z</time>
      </trkpt>
      <trkpt lat="47.29813" lon="-2.37712">
        <ele>28</ele>
        <time>2021-09-23T07:35:10.000Z</time>
      </trkpt>
      <trkpt lat="47.29816" lon="-2.37717">
        <ele>28.39999961853</ele>
        <time>2021-09-23T07:35:11.000Z</time>
      </trkpt>
      <trkpt lat="47.2982" lon="-2.37722">
        <ele>28.799999237061</ele>
        <time>2021-09-23T07:35:12.000Z</time>
      </trkpt>
      <trkpt lat="47.29823" lon="-2.37726">
        <ele>29.200000762939</ele>
        <time>2021-09-23T07:35:13.000Z</time>
      </trkpt>
      <trkpt lat="47.29849" lon="-2.37769">
        <ele>29.200000762939</ele>
        <time>2021-09-23T07:35:21.000Z</time>
      </trkpt>
      <trkpt lat="47.29863" lon="-2.37791">
        <ele>28.799999237061</ele>
        <time>2021-09-23T07:35:25.000Z</time>
      </trkpt>
      <trkpt lat="47.29866" lon="-2.37796">
        <ele>28.39999961853</ele>
        <time>2021-09-23T07:35:26.000Z</time>
      </trkpt>
      <trkpt lat="47.29868" lon="-2.37801">
        <ele>28</ele>
        <time>2021-09-23T07:35:27.000Z</time>
      </trkpt>
      <trkpt lat="47.29869" lon="-2.37806">
        <ele>27.200000762939</ele>
        <time>2021-09-23T07:35:28.000Z</time>
      </trkpt>
      <trkpt lat="47.29869" lon="-2.37812">
        <ele>27.200000762939</ele>
        <time>2021-09-23T07:35:29.000Z</time>
      </trkpt>
      <trkpt lat="47.29868" lon="-2.37818">
        <ele>27.200000762939</ele>
        <time>2021-09-23T07:35:30.000Z</time>
      </trkpt>
      <trkpt lat="47.29862" lon="-2.37834">
        <ele>27.200000762939</ele>
        <time>2021-09-23T07:35:33.000Z</time>
      </trkpt>
      <trkpt lat="47.29856" lon="-2.37846">
        <ele>27.200000762939</ele>
        <time>2021-09-23T07:35:35.000Z</time>
      </trkpt>
      <trkpt lat="47.29847" lon="-2.37864">
        <ele>27.200000762939</ele>
        <time>2021-09-23T07:35:38.000Z</time>
      </trkpt>
      <trkpt lat="47.29838" lon="-2.37875">
        <ele>27.200000762939</ele>
        <time>2021-09-23T07:35:40.000Z</time>
      </trkpt>
      <trkpt lat="47.2982" lon="-2.37891">
        <ele>27.200000762939</ele>
        <time>2021-09-23T07:35:44.000Z</time>
      </trkpt>
      <trkpt lat="47.2981" lon="-2.37896">
        <ele>27.200000762939</ele>
        <time>2021-09-23T07:35:46.000Z</time>
      </trkpt>
      <trkpt lat="47.29782" lon="-2.37912">
        <ele>27.200000762939</ele>
        <time>2021-09-23T07:35:52.000Z</time>
      </trkpt>
      <trkpt lat="47.29777" lon="-2.37916">
        <ele>27.200000762939</ele>
        <time>2021-09-23T07:35:53.000Z</time>
      </trkpt>
      <trkpt lat="47.29751" lon="-2.37941">
        <ele>27.200000762939</ele>
        <time>2021-09-23T07:35:58.000Z</time>
      </trkpt>
      <trkpt lat="47.29746" lon="-2.37948">
        <ele>27.200000762939</ele>
        <time>2021-09-23T07:35:59.000Z</time>
      </trkpt>
      <trkpt lat="47.29736" lon="-2.37972">
        <ele>26.60000038147</ele>
        <time>2021-09-23T07:36:02.000Z</time>
      </trkpt>
      <trkpt lat="47.29733" lon="-2.37979">
        <ele>26.200000762939</ele>
        <time>2021-09-23T07:36:03.000Z</time>
      </trkpt>
      <trkpt lat="47.2973" lon="-2.37986">
        <ele>25.60000038147</ele>
        <time>2021-09-23T07:36:04.000Z</time>
      </trkpt>
      <trkpt lat="47.29729" lon="-2.37994">
        <ele>25</ele>
        <time>2021-09-23T07:36:05.000Z</time>
      </trkpt>
      <trkpt lat="47.29728" lon="-2.38">
        <ele>24.200000762939</ele>
        <time>2021-09-23T07:36:06.000Z</time>
      </trkpt>
      <trkpt lat="47.29729" lon="-2.38005">
        <ele>23.60000038147</ele>
        <time>2021-09-23T07:36:07.000Z</time>
      </trkpt>
      <trkpt lat="47.2973" lon="-2.38011">
        <ele>22.799999237061</ele>
        <time>2021-09-23T07:36:08.000Z</time>
      </trkpt>
      <trkpt lat="47.29731" lon="-2.38016">
        <ele>22</ele>
        <time>2021-09-23T07:36:09.000Z</time>
      </trkpt>
      <trkpt lat="47.29733" lon="-2.38021">
        <ele>21.200000762939</ele>
        <time>2021-09-23T07:36:10.000Z</time>
      </trkpt>
      <trkpt lat="47.29734" lon="-2.38027">
        <ele>20.39999961853</ele>
        <time>2021-09-23T07:36:11.000Z</time>
      </trkpt>
      <trkpt lat="47.29735" lon="-2.38033">
        <ele>19.60000038147</ele>
        <time>2021-09-23T07:36:12.000Z</time>
      </trkpt>
      <trkpt lat="47.29735" lon="-2.3804">
        <ele>18.799999237061</ele>
        <time>2021-09-23T07:36:13.000Z</time>
      </trkpt>
      <trkpt lat="47.29736" lon="-2.38048">
        <ele>18</ele>
        <time>2021-09-23T07:36:14.000Z</time>
      </trkpt>
      <trkpt lat="47.29736" lon="-2.38054">
        <ele>17.39999961853</ele>
        <time>2021-09-23T07:36:15.000Z</time>
      </trkpt>
      <trkpt lat="47.29736" lon="-2.3806">
        <ele>16.799999237061</ele>
        <time>2021-09-23T07:36:16.000Z</time>
      </trkpt>
      <trkpt lat="47.29736" lon="-2.38063">
        <ele>15.39999961853</ele>
        <time>2021-09-23T07:36:17.000Z</time>
      </trkpt>
      <trkpt lat="47.29735" lon="-2.38066">
        <ele>15</ele>
        <time>2021-09-23T07:36:18.000Z</time>
      </trkpt>
      <trkpt lat="47.29735" lon="-2.38069">
        <ele>14.39999961853</ele>
        <time>2021-09-23T07:36:19.000Z</time>
      </trkpt>
      <trkpt lat="47.29734" lon="-2.38072">
        <ele>13.800000190735</ele>
        <time>2021-09-23T07:36:20.000Z</time>
      </trkpt>
      <trkpt lat="47.29733" lon="-2.38074">
        <ele>13.39999961853</ele>
        <time>2021-09-23T07:36:21.000Z</time>
      </trkpt>
      <trkpt lat="47.29733" lon="-2.38076">
        <ele>12.800000190735</ele>
        <time>2021-09-23T07:36:22.000Z</time>
      </trkpt>
      <trkpt lat="47.29734" lon="-2.38078">
        <ele>12.800000190735</ele>
        <time>2021-09-23T07:36:23.000Z</time>
      </trkpt>
      <trkpt lat="47.29732" lon="-2.38087">
        <ele>12.800000190735</ele>
        <time>2021-09-23T07:36:29.000Z</time>
      </trkpt>
      <trkpt lat="47.29729" lon="-2.38087">
        <ele>12.800000190735</ele>
        <time>2021-09-23T07:36:32.000Z</time>
      </trkpt>
      <trkpt lat="47.29725" lon="-2.38085">
        <ele>12.39999961853</ele>
        <time>2021-09-23T07:36:34.000Z</time>
      </trkpt>
      <trkpt lat="47.29723" lon="-2.38084">
        <ele>12</ele>
        <time>2021-09-23T07:36:35.000Z</time>
      </trkpt>
      <trkpt lat="47.29721" lon="-2.38084">
        <ele>11.60000038147</ele>
        <time>2021-09-23T07:36:36.000Z</time>
      </trkpt>
      <trkpt lat="47.29718" lon="-2.38086">
        <ele>11</ele>
        <time>2021-09-23T07:36:37.000Z</time>
      </trkpt>
      <trkpt lat="47.29715" lon="-2.38089">
        <ele>10.60000038147</ele>
        <time>2021-09-23T07:36:38.000Z</time>
      </trkpt>
      <trkpt lat="47.29709" lon="-2.38101">
        <ele>10.60000038147</ele>
        <time>2021-09-23T07:36:40.000Z</time>
      </trkpt>
      <trkpt lat="47.29703" lon="-2.38113">
        <ele>10.60000038147</ele>
        <time>2021-09-23T07:36:42.000Z</time>
      </trkpt>
      <trkpt lat="47.297" lon="-2.3812">
        <ele>10.199999809265</ele>
        <time>2021-09-23T07:36:43.000Z</time>
      </trkpt>
      <trkpt lat="47.29697" lon="-2.38127">
        <ele>9.8000001907349</ele>
        <time>2021-09-23T07:36:44.000Z</time>
      </trkpt>
      <trkpt lat="47.29694" lon="-2.38134">
        <ele>9.3999996185303</ele>
        <time>2021-09-23T07:36:45.000Z</time>
      </trkpt>
      <trkpt lat="47.29691" lon="-2.3814">
        <ele>9</ele>
        <time>2021-09-23T07:36:46.000Z</time>
      </trkpt>
      <trkpt lat="47.29687" lon="-2.38146">
        <ele>8.6000003814697</ele>
        <time>2021-09-23T07:36:47.000Z</time>
      </trkpt>
      <trkpt lat="47.29684" lon="-2.38151">
        <ele>8.6000003814697</ele>
        <time>2021-09-23T07:36:48.000Z</time>
      </trkpt>
      <trkpt lat="47.29676" lon="-2.38162">
        <ele>8.6000003814697</ele>
        <time>2021-09-23T07:36:50.000Z</time>
      </trkpt>
      <trkpt lat="47.29672" lon="-2.38167">
        <ele>8.1999998092651</ele>
        <time>2021-09-23T07:36:51.000Z</time>
      </trkpt>
      <trkpt lat="47.29668" lon="-2.38171">
        <ele>7.8000001907349</ele>
        <time>2021-09-23T07:36:52.000Z</time>
      </trkpt>
      <trkpt lat="47.29664" lon="-2.38175">
        <ele>7.4000000953674</ele>
        <time>2021-09-23T07:36:53.000Z</time>
      </trkpt>
      <trkpt lat="47.29659" lon="-2.38179">
        <ele>7</ele>
        <time>2021-09-23T07:36:54.000Z</time>
      </trkpt>
      <trkpt lat="47.29655" lon="-2.38182">
        <ele>6.5999999046326</ele>
        <time>2021-09-23T07:36:55.000Z</time>
      </trkpt>
      <trkpt lat="47.2963" lon="-2.38197">
        <ele>6.5999999046326</ele>
        <time>2021-09-23T07:37:00.000Z</time>
      </trkpt>
      <trkpt lat="47.29616" lon="-2.38207">
        <ele>6.1999998092651</ele>
        <time>2021-09-23T07:37:03.000Z</time>
      </trkpt>
      <trkpt lat="47.29611" lon="-2.3821">
        <ele>5.8000001907349</ele>
        <time>2021-09-23T07:37:04.000Z</time>
      </trkpt>
      <trkpt lat="47.29606" lon="-2.38213">
        <ele>5.4000000953674</ele>
        <time>2021-09-23T07:37:05.000Z</time>
      </trkpt>
      <trkpt lat="47.29602" lon="-2.38216">
        <ele>5</ele>
        <time>2021-09-23T07:37:06.000Z</time>
      </trkpt>
      <trkpt lat="47.29597" lon="-2.38219">
        <ele>4.5999999046326</ele>
        <time>2021-09-23T07:37:07.000Z</time>
      </trkpt>
      <trkpt lat="47.29588" lon="-2.38225">
        <ele>4.5999999046326</ele>
        <time>2021-09-23T07:37:09.000Z</time>
      </trkpt>
      <trkpt lat="47.29567" lon="-2.38242">
        <ele>4.1999998092651</ele>
        <time>2021-09-23T07:37:14.000Z</time>
      </trkpt>
      <trkpt lat="47.29563" lon="-2.38247">
        <ele>3.5999999046326</ele>
        <time>2021-09-23T07:37:15.000Z</time>
      </trkpt>
      <trkpt lat="47.2956" lon="-2.38252">
        <ele>3.2000000476837</ele>
        <time>2021-09-23T07:37:16.000Z</time>
      </trkpt>
      <trkpt lat="47.29557" lon="-2.38259">
        <ele>2.7999999523163</ele>
        <time>2021-09-23T07:37:17.000Z</time>
      </trkpt>
      <trkpt lat="47.29555" lon="-2.38265">
        <ele>2.4000000953674</ele>
        <time>2021-09-23T07:37:18.000Z</time>
      </trkpt>
      <trkpt lat="47.29552" lon="-2.38279">
        <ele>2.4000000953674</ele>
        <time>2021-09-23T07:37:20.000Z</time>
      </trkpt>
      <trkpt lat="47.29551" lon="-2.38286">
        <ele>2.4000000953674</ele>
        <time>2021-09-23T07:37:21.000Z</time>
      </trkpt>
      <trkpt lat="47.29546" lon="-2.38325">
        <ele>2.4000000953674</ele>
        <time>2021-09-23T07:37:27.000Z</time>
      </trkpt>
      <trkpt lat="47.29541" lon="-2.38348">
        <ele>2.4000000953674</ele>
        <time>2021-09-23T07:37:32.000Z</time>
      </trkpt>
      <trkpt lat="47.2954" lon="-2.38361">
        <ele>2</ele>
        <time>2021-09-23T07:37:35.000Z</time>
      </trkpt>
      <trkpt lat="47.29538" lon="-2.38364">
        <ele>1.6000000238419</ele>
        <time>2021-09-23T07:37:36.000Z</time>
      </trkpt>
      <trkpt lat="47.29535" lon="-2.38367">
        <ele>1.2000000476837</ele>
        <time>2021-09-23T07:37:37.000Z</time>
      </trkpt>
      <trkpt lat="47.29533" lon="-2.3837">
        <ele>0.80000001192093</ele>
        <time>2021-09-23T07:37:38.000Z</time>
      </trkpt>
      <trkpt lat="47.2953" lon="-2.38374">
        <ele>0.20000000298023</ele>
        <time>2021-09-23T07:37:39.000Z</time>
      </trkpt>
      <trkpt lat="47.29519" lon="-2.38387">
        <ele>0.20000000298023</ele>
        <time>2021-09-23T07:37:42.000Z</time>
      </trkpt>
      <trkpt lat="47.29505" lon="-2.3841">
        <ele>-0.20000000298023</ele>
        <time>2021-09-23T07:37:46.000Z</time>
      </trkpt>
      <trkpt lat="47.29502" lon="-2.38417">
        <ele>-0.60000002384186</ele>
        <time>2021-09-23T07:37:47.000Z</time>
      </trkpt>
      <trkpt lat="47.29499" lon="-2.38423">
        <ele>-1</ele>
        <time>2021-09-23T07:37:48.000Z</time>
      </trkpt>
      <trkpt lat="47.29496" lon="-2.38429">
        <ele>-1.3999999761581</ele>
        <time>2021-09-23T07:37:49.000Z</time>
      </trkpt>
      <trkpt lat="47.29492" lon="-2.38435">
        <ele>-2</ele>
        <time>2021-09-23T07:37:50.000Z</time>
      </trkpt>
      <trkpt lat="47.29482" lon="-2.38453">
        <ele>-2</ele>
        <time>2021-09-23T07:37:53.000Z</time>
      </trkpt>
      <trkpt lat="47.29468" lon="-2.38482">
        <ele>-2.4000000953674</ele>
        <time>2021-09-23T07:37:59.000Z</time>
      </trkpt>
      <trkpt lat="47.29467" lon="-2.38488">
        <ele>-2.7999999523163</ele>
        <time>2021-09-23T07:38:00.000Z</time>
      </trkpt>
      <trkpt lat="47.29465" lon="-2.38495">
        <ele>-3.2000000476837</ele>
        <time>2021-09-23T07:38:01.000Z</time>
      </trkpt>
      <trkpt lat="47.29464" lon="-2.38501">
        <ele>-3.5999999046326</ele>
        <time>2021-09-23T07:38:02.000Z</time>
      </trkpt>
      <trkpt lat="47.29463" lon="-2.38508">
        <ele>-4</ele>
        <time>2021-09-23T07:38:03.000Z</time>
      </trkpt>
      <trkpt lat="47.29463" lon="-2.38516">
        <ele>-4</ele>
        <time>2021-09-23T07:38:04.000Z</time>
      </trkpt>
      <trkpt lat="47.29463" lon="-2.3854">
        <ele>-4</ele>
        <time>2021-09-23T07:38:07.000Z</time>
      </trkpt>
      <trkpt lat="47.29463" lon="-2.38557">
        <ele>-4</ele>
        <time>2021-09-23T07:38:09.000Z</time>
      </trkpt>
      <trkpt lat="47.29467" lon="-2.38624">
        <ele>-4</ele>
        <time>2021-09-23T07:38:17.000Z</time>
      </trkpt>
      <trkpt lat="47.29469" lon="-2.38674">
        <ele>-4</ele>
        <time>2021-09-23T07:38:23.000Z</time>
      </trkpt>
      <trkpt lat="47.29472" lon="-2.38698">
        <ele>-3.5999999046326</ele>
        <time>2021-09-23T07:38:26.000Z</time>
      </trkpt>
      <trkpt lat="47.29473" lon="-2.38707">
        <ele>-3.2000000476837</ele>
        <time>2021-09-23T07:38:27.000Z</time>
      </trkpt>
      <trkpt lat="47.29473" lon="-2.38715">
        <ele>-2.7999999523163</ele>
        <time>2021-09-23T07:38:28.000Z</time>
      </trkpt>
      <trkpt lat="47.29474" lon="-2.38723">
        <ele>-2.4000000953674</ele>
        <time>2021-09-23T07:38:29.000Z</time>
      </trkpt>
      <trkpt lat="47.29474" lon="-2.38731">
        <ele>-2</ele>
        <time>2021-09-23T07:38:30.000Z</time>
      </trkpt>
      <trkpt lat="47.29475" lon="-2.38779">
        <ele>-2</ele>
        <time>2021-09-23T07:38:36.000Z</time>
      </trkpt>
      <trkpt lat="47.29475" lon="-2.38825">
        <ele>-2</ele>
        <time>2021-09-23T07:38:42.000Z</time>
      </trkpt>
      <trkpt lat="47.29476" lon="-2.38832">
        <ele>-2</ele>
        <time>2021-09-23T07:38:43.000Z</time>
      </trkpt>
      <trkpt lat="47.29482" lon="-2.38861">
        <ele>-2</ele>
        <time>2021-09-23T07:38:47.000Z</time>
      </trkpt>
      <trkpt lat="47.29486" lon="-2.38876">
        <ele>-2</ele>
        <time>2021-09-23T07:38:49.000Z</time>
      </trkpt>
      <trkpt lat="47.295" lon="-2.38919">
        <ele>-2</ele>
        <time>2021-09-23T07:38:55.000Z</time>
      </trkpt>
      <trkpt lat="47.29502" lon="-2.38926">
        <ele>-2</ele>
        <time>2021-09-23T07:38:56.000Z</time>
      </trkpt>
      <trkpt lat="47.29516" lon="-2.38949">
        <ele>-2</ele>
        <time>2021-09-23T07:39:00.000Z</time>
      </trkpt>
      <trkpt lat="47.29525" lon="-2.38958">
        <ele>-2</ele>
        <time>2021-09-23T07:39:02.000Z</time>
      </trkpt>
      <trkpt lat="47.2953" lon="-2.38962">
        <ele>-1.6000000238419</ele>
        <time>2021-09-23T07:39:03.000Z</time>
      </trkpt>
      <trkpt lat="47.29534" lon="-2.38966">
        <ele>-1.2000000476837</ele>
        <time>2021-09-23T07:39:04.000Z</time>
      </trkpt>
      <trkpt lat="47.29539" lon="-2.3897">
        <ele>-0.80000001192093</ele>
        <time>2021-09-23T07:39:05.000Z</time>
      </trkpt>
      <trkpt lat="47.29544" lon="-2.38973">
        <ele>-0.20000000298023</ele>
        <time>2021-09-23T07:39:06.000Z</time>
      </trkpt>
      <trkpt lat="47.29549" lon="-2.38976">
        <ele>0.20000000298023</ele>
        <time>2021-09-23T07:39:07.000Z</time>
      </trkpt>
      <trkpt lat="47.29559" lon="-2.38982">
        <ele>0.20000000298023</ele>
        <time>2021-09-23T07:39:09.000Z</time>
      </trkpt>
      <trkpt lat="47.29595" lon="-2.39001">
        <ele>0.20000000298023</ele>
        <time>2021-09-23T07:39:16.000Z</time>
      </trkpt>
      <trkpt lat="47.29615" lon="-2.39011">
        <ele>0.20000000298023</ele>
        <time>2021-09-23T07:39:20.000Z</time>
      </trkpt>
      <trkpt lat="47.29623" lon="-2.3902">
        <ele>0.20000000298023</ele>
        <time>2021-09-23T07:39:22.000Z</time>
      </trkpt>
      <trkpt lat="47.29629" lon="-2.39049">
        <ele>0.20000000298023</ele>
        <time>2021-09-23T07:39:26.000Z</time>
      </trkpt>
      <trkpt lat="47.29629" lon="-2.39066">
        <ele>0.20000000298023</ele>
        <time>2021-09-23T07:39:28.000Z</time>
      </trkpt>
      <trkpt lat="47.29629" lon="-2.391">
        <ele>0.20000000298023</ele>
        <time>2021-09-23T07:39:32.000Z</time>
      </trkpt>
      <trkpt lat="47.2963" lon="-2.39117">
        <ele>-0.40000000596046</ele>
        <time>2021-09-23T07:39:34.000Z</time>
      </trkpt>
      <trkpt lat="47.29631" lon="-2.39125">
        <ele>-1.2000000476837</ele>
        <time>2021-09-23T07:39:35.000Z</time>
      </trkpt>
      <trkpt lat="47.29632" lon="-2.39134">
        <ele>-1.6000000238419</ele>
        <time>2021-09-23T07:39:36.000Z</time>
      </trkpt>
      <trkpt lat="47.29633" lon="-2.39143">
        <ele>-2</ele>
        <time>2021-09-23T07:39:37.000Z</time>
      </trkpt>
      <trkpt lat="47.29635" lon="-2.39151">
        <ele>-2</ele>
        <time>2021-09-23T07:39:38.000Z</time>
      </trkpt>
      <trkpt lat="47.29646" lon="-2.39175">
        <ele>-2</ele>
        <time>2021-09-23T07:39:41.000Z</time>
      </trkpt>
      <trkpt lat="47.29656" lon="-2.39184">
        <ele>-2</ele>
        <time>2021-09-23T07:39:43.000Z</time>
      </trkpt>
      <trkpt lat="47.2966" lon="-2.39189">
        <ele>-2</ele>
        <time>2021-09-23T07:39:44.000Z</time>
      </trkpt>
      <trkpt lat="47.29662" lon="-2.39207">
        <ele>-2</ele>
        <time>2021-09-23T07:39:47.000Z</time>
      </trkpt>
      <trkpt lat="47.29653" lon="-2.39236">
        <ele>-2</ele>
        <time>2021-09-23T07:39:51.000Z</time>
      </trkpt>
      <trkpt lat="47.29652" lon="-2.39244">
        <ele>-2</ele>
        <time>2021-09-23T07:39:52.000Z</time>
      </trkpt>
      <trkpt lat="47.29649" lon="-2.3926">
        <ele>-2</ele>
        <time>2021-09-23T07:39:54.000Z</time>
      </trkpt>
      <trkpt lat="47.29648" lon="-2.39277">
        <ele>-2</ele>
        <time>2021-09-23T07:39:56.000Z</time>
      </trkpt>
      <trkpt lat="47.29644" lon="-2.39348">
        <ele>-2</ele>
        <time>2021-09-23T07:40:04.000Z</time>
      </trkpt>
      <trkpt lat="47.29641" lon="-2.39384">
        <ele>-2</ele>
        <time>2021-09-23T07:40:08.000Z</time>
      </trkpt>
      <trkpt lat="47.29635" lon="-2.39402">
        <ele>-2</ele>
        <time>2021-09-23T07:40:10.000Z</time>
      </trkpt>
      <trkpt lat="47.29627" lon="-2.3944">
        <ele>-2</ele>
        <time>2021-09-23T07:40:14.000Z</time>
      </trkpt>
      <trkpt lat="47.29619" lon="-2.39455">
        <ele>-2</ele>
        <time>2021-09-23T07:40:16.000Z</time>
      </trkpt>
      <trkpt lat="47.29611" lon="-2.39469">
        <ele>-2</ele>
        <time>2021-09-23T07:40:18.000Z</time>
      </trkpt>
      <trkpt lat="47.29603" lon="-2.39482">
        <ele>-2.4000000953674</ele>
        <time>2021-09-23T07:40:20.000Z</time>
      </trkpt>
      <trkpt lat="47.29598" lon="-2.39488">
        <ele>-2.7999999523163</ele>
        <time>2021-09-23T07:40:21.000Z</time>
      </trkpt>
      <trkpt lat="47.29594" lon="-2.39493">
        <ele>-3.2000000476837</ele>
        <time>2021-09-23T07:40:22.000Z</time>
      </trkpt>
      <trkpt lat="47.29589" lon="-2.39497">
        <ele>-3.5999999046326</ele>
        <time>2021-09-23T07:40:23.000Z</time>
      </trkpt>
      <trkpt lat="47.29584" lon="-2.39498">
        <ele>-4</ele>
        <time>2021-09-23T07:40:24.000Z</time>
      </trkpt>
      <trkpt lat="47.29574" lon="-2.39497">
        <ele>-4</ele>
        <time>2021-09-23T07:40:26.000Z</time>
      </trkpt>
      <trkpt lat="47.29571" lon="-2.39495">
        <ele>-4</ele>
        <time>2021-09-23T07:40:27.000Z</time>
      </trkpt>
      <trkpt lat="47.29564" lon="-2.39492">
        <ele>-4</ele>
        <time>2021-09-23T07:40:29.000Z</time>
      </trkpt>
      <trkpt lat="47.29561" lon="-2.39493">
        <ele>-4</ele>
        <time>2021-09-23T07:40:30.000Z</time>
      </trkpt>
      <trkpt lat="47.29556" lon="-2.39504">
        <ele>-4</ele>
        <time>2021-09-23T07:40:33.000Z</time>
      </trkpt>
      <trkpt lat="47.29555" lon="-2.39506">
        <ele>-4</ele>
        <time>2021-09-23T07:40:34.000Z</time>
      </trkpt>
      <trkpt lat="47.29554" lon="-2.39512">
        <ele>-4</ele>
        <time>2021-09-23T07:40:36.000Z</time>
      </trkpt>
      <trkpt lat="47.29556" lon="-2.39527">
        <ele>-4</ele>
        <time>2021-09-23T07:40:41.000Z</time>
      </trkpt>
      <trkpt lat="47.29557" lon="-2.3953">
        <ele>-3.5999999046326</ele>
        <time>2021-09-23T07:40:42.000Z</time>
      </trkpt>
      <trkpt lat="47.29556" lon="-2.39534">
        <ele>-3</ele>
        <time>2021-09-23T07:40:43.000Z</time>
      </trkpt>
      <trkpt lat="47.29556" lon="-2.39537">
        <ele>-2.5999999046326</ele>
        <time>2021-09-23T07:40:44.000Z</time>
      </trkpt>
      <trkpt lat="47.29556" lon="-2.3954">
        <ele>-2</ele>
        <time>2021-09-23T07:40:45.000Z</time>
      </trkpt>
      <trkpt lat="47.29557" lon="-2.39543">
        <ele>-1.6000000238419</ele>
        <time>2021-09-23T07:40:46.000Z</time>
      </trkpt>
      <trkpt lat="47.29563" lon="-2.39544">
        <ele>-1.6000000238419</ele>
        <time>2021-09-23T07:40:48.000Z</time>
      </trkpt>
      <trkpt lat="47.29566" lon="-2.39544">
        <ele>-1</ele>
        <time>2021-09-23T07:40:49.000Z</time>
      </trkpt>
      <trkpt lat="47.2957" lon="-2.39545">
        <ele>-0.60000002384186</ele>
        <time>2021-09-23T07:40:50.000Z</time>
      </trkpt>
      <trkpt lat="47.29573" lon="-2.39546">
        <ele>-0.20000000298023</ele>
        <time>2021-09-23T07:40:51.000Z</time>
      </trkpt>
      <trkpt lat="47.29577" lon="-2.39546">
        <ele>0.20000000298023</ele>
        <time>2021-09-23T07:40:52.000Z</time>
      </trkpt>
      <trkpt lat="47.2958" lon="-2.39546">
        <ele>0.60000002384186</ele>
        <time>2021-09-23T07:40:53.000Z</time>
      </trkpt>
      <trkpt lat="47.29583" lon="-2.39546">
        <ele>0.60000002384186</ele>
        <time>2021-09-23T07:40:54.000Z</time>
      </trkpt>
      <trkpt lat="47.29606" lon="-2.39549">
        <ele>0.60000002384186</ele>
        <time>2021-09-23T07:41:00.000Z</time>
      </trkpt>
      <trkpt lat="47.29621" lon="-2.39552">
        <ele>0.60000002384186</ele>
        <time>2021-09-23T07:41:04.000Z</time>
      </trkpt>
      <trkpt lat="47.29623" lon="-2.39553">
        <ele>0.60000002384186</ele>
        <time>2021-09-23T07:41:05.000Z</time>
      </trkpt>
      <trkpt lat="47.29623" lon="-2.39557">
        <ele>0.60000002384186</ele>
        <time>2021-09-23T07:41:07.000Z</time>
      </trkpt>
      <trkpt lat="47.29615" lon="-2.39562">
        <ele>0.60000002384186</ele>
        <time>2021-09-23T07:41:10.000Z</time>
      </trkpt>
      <trkpt lat="47.2961" lon="-2.39569">
        <ele>0.60000002384186</ele>
        <time>2021-09-23T07:41:13.000Z</time>
      </trkpt>
      <trkpt lat="47.2961" lon="-2.39572">
        <ele>-0.20000000298023</ele>
        <time>2021-09-23T07:41:14.000Z</time>
      </trkpt>
      <trkpt lat="47.29613" lon="-2.39574">
        <ele>-0.60000002384186</ele>
        <time>2021-09-23T07:41:15.000Z</time>
      </trkpt>
      <trkpt lat="47.29616" lon="-2.39574">
        <ele>-1</ele>
        <time>2021-09-23T07:41:16.000Z</time>
      </trkpt>
      <trkpt lat="47.2962" lon="-2.39575">
        <ele>-1.3999999761581</ele>
        <time>2021-09-23T07:41:17.000Z</time>
      </trkpt>
      <trkpt lat="47.29626" lon="-2.39586">
        <ele>-1.7999999523163</ele>
        <time>2021-09-23T07:41:20.000Z</time>
      </trkpt>
      <trkpt lat="47.29626" lon="-2.39593">
        <ele>-2.2000000476837</ele>
        <time>2021-09-23T07:41:21.000Z</time>
      </trkpt>
      <trkpt lat="47.29626" lon="-2.396">
        <ele>-2.7999999523163</ele>
        <time>2021-09-23T07:41:22.000Z</time>
      </trkpt>
      <trkpt lat="47.29625" lon="-2.39608">
        <ele>-3.2000000476837</ele>
        <time>2021-09-23T07:41:23.000Z</time>
      </trkpt>
      <trkpt lat="47.29624" lon="-2.39616">
        <ele>-3.5999999046326</ele>
        <time>2021-09-23T07:41:24.000Z</time>
      </trkpt>
      <trkpt lat="47.29625" lon="-2.39625">
        <ele>-3.5999999046326</ele>
        <time>2021-09-23T07:41:25.000Z</time>
      </trkpt>
      <trkpt lat="47.29624" lon="-2.39634">
        <ele>-3.5999999046326</ele>
        <time>2021-09-23T07:41:26.000Z</time>
      </trkpt>
      <trkpt lat="47.29619" lon="-2.39657">
        <ele>-3.5999999046326</ele>
        <time>2021-09-23T07:41:29.000Z</time>
      </trkpt>
      <trkpt lat="47.2961" lon="-2.39676">
        <ele>-3.5999999046326</ele>
        <time>2021-09-23T07:41:32.000Z</time>
      </trkpt>
      <trkpt lat="47.29603" lon="-2.39687">
        <ele>-3.5999999046326</ele>
        <time>2021-09-23T07:41:34.000Z</time>
      </trkpt>
      <trkpt lat="47.29597" lon="-2.39698">
        <ele>-3.5999999046326</ele>
        <time>2021-09-23T07:41:36.000Z</time>
      </trkpt>
      <trkpt lat="47.29596" lon="-2.39717">
        <ele>-3.5999999046326</ele>
        <time>2021-09-23T07:41:39.000Z</time>
      </trkpt>
      <trkpt lat="47.29602" lon="-2.39731">
        <ele>-3.5999999046326</ele>
        <time>2021-09-23T07:41:42.000Z</time>
      </trkpt>
      <trkpt lat="47.29604" lon="-2.39736">
        <ele>-3.5999999046326</ele>
        <time>2021-09-23T07:41:43.000Z</time>
      </trkpt>
      <trkpt lat="47.29615" lon="-2.39762">
        <ele>-3.5999999046326</ele>
        <time>2021-09-23T07:41:48.000Z</time>
      </trkpt>
      <trkpt lat="47.29615" lon="-2.39768">
        <ele>-3.5999999046326</ele>
        <time>2021-09-23T07:41:49.000Z</time>
      </trkpt>
      <trkpt lat="47.29609" lon="-2.3979">
        <ele>-3.5999999046326</ele>
        <time>2021-09-23T07:41:53.000Z</time>
      </trkpt>
      <trkpt lat="47.29607" lon="-2.39795">
        <ele>-3.5999999046326</ele>
        <time>2021-09-23T07:41:54.000Z</time>
      </trkpt>
      <trkpt lat="47.29603" lon="-2.39804">
        <ele>-3.5999999046326</ele>
        <time>2021-09-23T07:41:56.000Z</time>
      </trkpt>
      <trkpt lat="47.29603" lon="-2.39816">
        <ele>-3.5999999046326</ele>
        <time>2021-09-23T07:41:58.000Z</time>
      </trkpt>
      <trkpt lat="47.29608" lon="-2.39833">
        <ele>-3.5999999046326</ele>
        <time>2021-09-23T07:42:01.000Z</time>
      </trkpt>
      <trkpt lat="47.2961" lon="-2.39839">
        <ele>-3.5999999046326</ele>
        <time>2021-09-23T07:42:02.000Z</time>
      </trkpt>
      <trkpt lat="47.29611" lon="-2.3986">
        <ele>-3.5999999046326</ele>
        <time>2021-09-23T07:42:06.000Z</time>
      </trkpt>
      <trkpt lat="47.29607" lon="-2.39885">
        <ele>-3.5999999046326</ele>
        <time>2021-09-23T07:42:10.000Z</time>
      </trkpt>
      <trkpt lat="47.29613" lon="-2.39901">
        <ele>-3.5999999046326</ele>
        <time>2021-09-23T07:42:13.000Z</time>
      </trkpt>
      <trkpt lat="47.29618" lon="-2.39911">
        <ele>-3.5999999046326</ele>
        <time>2021-09-23T07:42:15.000Z</time>
      </trkpt>
      <trkpt lat="47.29621" lon="-2.39916">
        <ele>-3.5999999046326</ele>
        <time>2021-09-23T07:42:16.000Z</time>
      </trkpt>
      <trkpt lat="47.29636" lon="-2.39941">
        <ele>-3.2000000476837</ele>
        <time>2021-09-23T07:42:21.000Z</time>
      </trkpt>
      <trkpt lat="47.29639" lon="-2.39946">
        <ele>-2.7999999523163</ele>
        <time>2021-09-23T07:42:22.000Z</time>
      </trkpt>
      <trkpt lat="47.29641" lon="-2.39951">
        <ele>-2.4000000953674</ele>
        <time>2021-09-23T07:42:23.000Z</time>
      </trkpt>
      <trkpt lat="47.29643" lon="-2.39957">
        <ele>-2</ele>
        <time>2021-09-23T07:42:24.000Z</time>
      </trkpt>
      <trkpt lat="47.29645" lon="-2.39961">
        <ele>-1.6000000238419</ele>
        <time>2021-09-23T07:42:25.000Z</time>
      </trkpt>
      <trkpt lat="47.29649" lon="-2.3997">
        <ele>-1.6000000238419</ele>
        <time>2021-09-23T07:42:27.000Z</time>
      </trkpt>
      <trkpt lat="47.29651" lon="-2.3998">
        <ele>-1.6000000238419</ele>
        <time>2021-09-23T07:42:29.000Z</time>
      </trkpt>
      <trkpt lat="47.29649" lon="-2.39985">
        <ele>-1.6000000238419</ele>
        <time>2021-09-23T07:42:30.000Z</time>
      </trkpt>
      <trkpt lat="47.29632" lon="-2.39999">
        <ele>-1.6000000238419</ele>
        <time>2021-09-23T07:42:34.000Z</time>
      </trkpt>
      <trkpt lat="47.29623" lon="-2.40008">
        <ele>-1.6000000238419</ele>
        <time>2021-09-23T07:42:36.000Z</time>
      </trkpt>
      <trkpt lat="47.29621" lon="-2.40015">
        <ele>-1.6000000238419</ele>
        <time>2021-09-23T07:42:37.000Z</time>
      </trkpt>
      <trkpt lat="47.2962" lon="-2.40035">
        <ele>-1.6000000238419</ele>
        <time>2021-09-23T07:42:40.000Z</time>
      </trkpt>
      <trkpt lat="47.29624" lon="-2.40045">
        <ele>-1.6000000238419</ele>
        <time>2021-09-23T07:42:44.000Z</time>
      </trkpt>
      <trkpt lat="47.29627" lon="-2.40049">
        <ele>-1.6000000238419</ele>
        <time>2021-09-23T07:42:47.000Z</time>
      </trkpt>
      <trkpt lat="47.29629" lon="-2.40054">
        <ele>-1.6000000238419</ele>
        <time>2021-09-23T07:42:50.000Z</time>
      </trkpt>
      <trkpt lat="47.29633" lon="-2.40061">
        <ele>-1.6000000238419</ele>
        <time>2021-09-23T07:42:54.000Z</time>
      </trkpt>
      <trkpt lat="47.2964" lon="-2.40065">
        <ele>-1.6000000238419</ele>
        <time>2021-09-23T07:42:59.000Z</time>
      </trkpt>
      <trkpt lat="47.29644" lon="-2.40068">
        <ele>-1.6000000238419</ele>
        <time>2021-09-23T07:43:04.000Z</time>
      </trkpt>
      <trkpt lat="47.29649" lon="-2.40079">
        <ele>-1.2000000476837</ele>
        <time>2021-09-23T07:43:07.000Z</time>
      </trkpt>
      <trkpt lat="47.2965" lon="-2.40083">
        <ele>-0.80000001192093</ele>
        <time>2021-09-23T07:43:08.000Z</time>
      </trkpt>
      <trkpt lat="47.29652" lon="-2.40087">
        <ele>-0.40000000596046</ele>
        <time>2021-09-23T07:43:09.000Z</time>
      </trkpt>
      <trkpt lat="47.29653" lon="-2.4009">
        <ele>9.2</ele>
        <time>2021-09-23T07:43:10.000Z</time>
      </trkpt>
      <trkpt lat="47.29653" lon="-2.40095">
        <ele>0.40000000596046</ele>
        <time>2021-09-23T07:43:11.000Z</time>
      </trkpt>
      <trkpt lat="47.29661" lon="-2.40119">
        <ele>0.40000000596046</ele>
        <time>2021-09-23T07:43:17.000Z</time>
      </trkpt>
      <trkpt lat="47.29668" lon="-2.4014">
        <ele>0.40000000596046</ele>
        <time>2021-09-23T07:43:21.000Z</time>
      </trkpt>
      <trkpt lat="47.29669" lon="-2.40146">
        <ele>1</ele>
        <time>2021-09-23T07:43:22.000Z</time>
      </trkpt>
      <trkpt lat="47.2967" lon="-2.40153">
        <ele>1.3999999761581</ele>
        <time>2021-09-23T07:43:23.000Z</time>
      </trkpt>
      <trkpt lat="47.2967" lon="-2.4016">
        <ele>1.7999999523163</ele>
        <time>2021-09-23T07:43:24.000Z</time>
      </trkpt>
      <trkpt lat="47.2967" lon="-2.40168">
        <ele>2.2000000476837</ele>
        <time>2021-09-23T07:43:25.000Z</time>
      </trkpt>
      <trkpt lat="47.29671" lon="-2.40176">
        <ele>2.7999999523163</ele>
        <time>2021-09-23T07:43:26.000Z</time>
      </trkpt>
      <trkpt lat="47.29675" lon="-2.40207">
        <ele>2.7999999523163</ele>
        <time>2021-09-23T07:43:30.000Z</time>
      </trkpt>
      <trkpt lat="47.29676" lon="-2.40222">
        <ele>2.7999999523163</ele>
        <time>2021-09-23T07:43:32.000Z</time>
      </trkpt>
      <trkpt lat="47.29678" lon="-2.40257">
        <ele>3.2000000476837</ele>
        <time>2021-09-23T07:43:37.000Z</time>
      </trkpt>
      <trkpt lat="47.29678" lon="-2.40264">
        <ele>3.5999999046326</ele>
        <time>2021-09-23T07:43:38.000Z</time>
      </trkpt>
      <trkpt lat="47.29679" lon="-2.4027">
        <ele>4.1999998092651</ele>
        <time>2021-09-23T07:43:39.000Z</time>
      </trkpt>
      <trkpt lat="47.29679" lon="-2.40276">
        <ele>4.5999999046326</ele>
        <time>2021-09-23T07:43:40.000Z</time>
      </trkpt>
      <trkpt lat="47.2968" lon="-2.40282">
        <ele>5</ele>
        <time>2021-09-23T07:43:41.000Z</time>
      </trkpt>
      <trkpt lat="47.29681" lon="-2.40303">
        <ele>5.4000000953674</ele>
        <time>2021-09-23T07:43:44.000Z</time>
      </trkpt>
      <trkpt lat="47.29682" lon="-2.40311">
        <ele>5.8000001907349</ele>
        <time>2021-09-23T07:43:45.000Z</time>
      </trkpt>
      <trkpt lat="47.29681" lon="-2.40318">
        <ele>6.1999998092651</ele>
        <time>2021-09-23T07:43:46.000Z</time>
      </trkpt>
      <trkpt lat="47.2968" lon="-2.40327">
        <ele>6.5999999046326</ele>
        <time>2021-09-23T07:43:47.000Z</time>
      </trkpt>
      <trkpt lat="47.2968" lon="-2.40336">
        <ele>7.1999998092651</ele>
        <time>2021-09-23T07:43:48.000Z</time>
      </trkpt>
      <trkpt lat="47.29681" lon="-2.40356">
        <ele>7.1999998092651</ele>
        <time>2021-09-23T07:43:50.000Z</time>
      </trkpt>
      <trkpt lat="47.29689" lon="-2.40377">
        <ele>7.1999998092651</ele>
        <time>2021-09-23T07:43:53.000Z</time>
      </trkpt>
      <trkpt lat="47.29708" lon="-2.40384">
        <ele>7.1999998092651</ele>
        <time>2021-09-23T07:43:57.000Z</time>
      </trkpt>
      <trkpt lat="47.29721" lon="-2.40376">
        <ele>7.1999998092651</ele>
        <time>2021-09-23T07:44:00.000Z</time>
      </trkpt>
      <trkpt lat="47.29746" lon="-2.40358">
        <ele>7.1999998092651</ele>
        <time>2021-09-23T07:44:06.000Z</time>
      </trkpt>
      <trkpt lat="47.29768" lon="-2.40345">
        <ele>7.1999998092651</ele>
        <time>2021-09-23T07:44:12.000Z</time>
      </trkpt>
      <trkpt lat="47.29778" lon="-2.40345">
        <ele>7.1999998092651</ele>
        <time>2021-09-23T07:44:15.000Z</time>
      </trkpt>
      <trkpt lat="47.29779" lon="-2.4035">
        <ele>7.1999998092651</ele>
        <time>2021-09-23T07:44:16.000Z</time>
      </trkpt>
      <trkpt lat="47.29781" lon="-2.40376">
        <ele>6.5999999046326</ele>
        <time>2021-09-23T07:44:20.000Z</time>
      </trkpt>
      <trkpt lat="47.29781" lon="-2.40383">
        <ele>6.1999998092651</ele>
        <time>2021-09-23T07:44:21.000Z</time>
      </trkpt>
      <trkpt lat="47.2978" lon="-2.40391">
        <ele>5.8000001907349</ele>
        <time>2021-09-23T07:44:22.000Z</time>
      </trkpt>
      <trkpt lat="47.2978" lon="-2.40399">
        <ele>5.4000000953674</ele>
        <time>2021-09-23T07:44:23.000Z</time>
      </trkpt>
      <trkpt lat="47.2978" lon="-2.40408">
        <ele>5</ele>
        <time>2021-09-23T07:44:24.000Z</time>
      </trkpt>
      <trkpt lat="47.2978" lon="-2.40417">
        <ele>5</ele>
        <time>2021-09-23T07:44:25.000Z</time>
      </trkpt>
      <trkpt lat="47.29782" lon="-2.40465">
        <ele>5</ele>
        <time>2021-09-23T07:44:30.000Z</time>
      </trkpt>
      <trkpt lat="47.29784" lon="-2.40475">
        <ele>4.5999999046326</ele>
        <time>2021-09-23T07:44:31.000Z</time>
      </trkpt>
      <trkpt lat="47.29786" lon="-2.40485">
        <ele>3.7999999523163</ele>
        <time>2021-09-23T07:44:32.000Z</time>
      </trkpt>
      <trkpt lat="47.29788" lon="-2.40495">
        <ele>3.4000000953674</ele>
        <time>2021-09-23T07:44:33.000Z</time>
      </trkpt>
      <trkpt lat="47.2979" lon="-2.40505">
        <ele>3</ele>
        <time>2021-09-23T07:44:34.000Z</time>
      </trkpt>
      <trkpt lat="47.29796" lon="-2.40535">
        <ele>3</ele>
        <time>2021-09-23T07:44:37.000Z</time>
      </trkpt>
      <trkpt lat="47.29804" lon="-2.40569">
        <ele>2.4000000953674</ele>
        <time>2021-09-23T07:44:41.000Z</time>
      </trkpt>
      <trkpt lat="47.29805" lon="-2.40577">
        <ele>2</ele>
        <time>2021-09-23T07:44:42.000Z</time>
      </trkpt>
      <trkpt lat="47.29807" lon="-2.40585">
        <ele>1.6000000238419</ele>
        <time>2021-09-23T07:44:43.000Z</time>
      </trkpt>
      <trkpt lat="47.2981" lon="-2.40591">
        <ele>1.2000000476837</ele>
        <time>2021-09-23T07:44:44.000Z</time>
      </trkpt>
      <trkpt lat="47.29812" lon="-2.40596">
        <ele>0.60000002384186</ele>
        <time>2021-09-23T07:44:45.000Z</time>
      </trkpt>
      <trkpt lat="47.2982" lon="-2.40603">
        <ele>0.60000002384186</ele>
        <time>2021-09-23T07:44:47.000Z</time>
      </trkpt>
      <trkpt lat="47.29837" lon="-2.40615">
        <ele>0.60000002384186</ele>
        <time>2021-09-23T07:44:51.000Z</time>
      </trkpt>
      <trkpt lat="47.29862" lon="-2.40639">
        <ele>0.60000002384186</ele>
        <time>2021-09-23T07:44:57.000Z</time>
      </trkpt>
      <trkpt lat="47.29898" lon="-2.40671">
        <ele>0.60000002384186</ele>
        <time>2021-09-23T07:45:05.000Z</time>
      </trkpt>
      <trkpt lat="47.29925" lon="-2.40696">
        <ele>1</ele>
        <time>2021-09-23T07:45:10.000Z</time>
      </trkpt>
      <trkpt lat="47.29931" lon="-2.40702">
        <ele>1.6000000238419</ele>
        <time>2021-09-23T07:45:11.000Z</time>
      </trkpt>
      <trkpt lat="47.29937" lon="-2.40708">
        <ele>2</ele>
        <time>2021-09-23T07:45:12.000Z</time>
      </trkpt>
      <trkpt lat="47.29944" lon="-2.40714">
        <ele>2.4000000953674</ele>
        <time>2021-09-23T07:45:13.000Z</time>
      </trkpt>
      <trkpt lat="47.2995" lon="-2.4072">
        <ele>2.7999999523163</ele>
        <time>2021-09-23T07:45:14.000Z</time>
      </trkpt>
      <trkpt lat="47.29981" lon="-2.40749">
        <ele>2.7999999523163</ele>
        <time>2021-09-23T07:45:19.000Z</time>
      </trkpt>
      <trkpt lat="47.30031" lon="-2.40794">
        <ele>2.7999999523163</ele>
        <time>2021-09-23T07:45:27.000Z</time>
      </trkpt>
      <trkpt lat="47.3008" lon="-2.40839">
        <ele>2.7999999523163</ele>
        <time>2021-09-23T07:45:35.000Z</time>
      </trkpt>
      <trkpt lat="47.30104" lon="-2.4086">
        <ele>2.4000000953674</ele>
        <time>2021-09-23T07:45:39.000Z</time>
      </trkpt>
      <trkpt lat="47.30111" lon="-2.40866">
        <ele>2</ele>
        <time>2021-09-23T07:45:40.000Z</time>
      </trkpt>
      <trkpt lat="47.30117" lon="-2.40871">
        <ele>1.6000000238419</ele>
        <time>2021-09-23T07:45:41.000Z</time>
      </trkpt>
      <trkpt lat="47.30123" lon="-2.40876">
        <ele>1</ele>
        <time>2021-09-23T07:45:42.000Z</time>
      </trkpt>
      <trkpt lat="47.30129" lon="-2.40881">
        <ele>0.60000002384186</ele>
        <time>2021-09-23T07:45:43.000Z</time>
      </trkpt>
      <trkpt lat="47.30135" lon="-2.40886">
        <ele>0.60000002384186</ele>
        <time>2021-09-23T07:45:44.000Z</time>
      </trkpt>
      <trkpt lat="47.30171" lon="-2.40911">
        <ele>0.60000002384186</ele>
        <time>2021-09-23T07:45:50.000Z</time>
      </trkpt>
      <trkpt lat="47.30207" lon="-2.40926">
        <ele>0.60000002384186</ele>
        <time>2021-09-23T07:45:56.000Z</time>
      </trkpt>
      <trkpt lat="47.30216" lon="-2.40931">
        <ele>0.60000002384186</ele>
        <time>2021-09-23T07:45:58.000Z</time>
      </trkpt>
      <trkpt lat="47.30223" lon="-2.40939">
        <ele>0.60000002384186</ele>
        <time>2021-09-23T07:46:00.000Z</time>
      </trkpt>
      <trkpt lat="47.30228" lon="-2.40959">
        <ele>0.60000002384186</ele>
        <time>2021-09-23T07:46:03.000Z</time>
      </trkpt>
      <trkpt lat="47.30239" lon="-2.40986">
        <ele>0.60000002384186</ele>
        <time>2021-09-23T07:46:07.000Z</time>
      </trkpt>
      <trkpt lat="47.30244" lon="-2.40991">
        <ele>0.60000002384186</ele>
        <time>2021-09-23T07:46:08.000Z</time>
      </trkpt>
      <trkpt lat="47.30259" lon="-2.41007">
        <ele>0.60000002384186</ele>
        <time>2021-09-23T07:46:11.000Z</time>
      </trkpt>
      <trkpt lat="47.30268" lon="-2.41019">
        <ele>0.60000002384186</ele>
        <time>2021-09-23T07:46:13.000Z</time>
      </trkpt>
      <trkpt lat="47.30274" lon="-2.41036">
        <ele>0.60000002384186</ele>
        <time>2021-09-23T07:46:15.000Z</time>
      </trkpt>
      <trkpt lat="47.30275" lon="-2.41056">
        <ele>0.20000000298023</ele>
        <time>2021-09-23T07:46:17.000Z</time>
      </trkpt>
      <trkpt lat="47.30275" lon="-2.41067">
        <ele>-0.20000000298023</ele>
        <time>2021-09-23T07:46:18.000Z</time>
      </trkpt>
      <trkpt lat="47.30276" lon="-2.41077">
        <ele>-0.60000002384186</ele>
        <time>2021-09-23T07:46:19.000Z</time>
      </trkpt>
      <trkpt lat="47.30277" lon="-2.41087">
        <ele>-1</ele>
        <time>2021-09-23T07:46:20.000Z</time>
      </trkpt>
      <trkpt lat="47.3028" lon="-2.41097">
        <ele>-1.3999999761581</ele>
        <time>2021-09-23T07:46:21.000Z</time>
      </trkpt>
      <trkpt lat="47.30287" lon="-2.41115">
        <ele>-1.3999999761581</ele>
        <time>2021-09-23T07:46:23.000Z</time>
      </trkpt>
      <trkpt lat="47.30294" lon="-2.41126">
        <ele>-1.3999999761581</ele>
        <time>2021-09-23T07:46:25.000Z</time>
      </trkpt>
      <trkpt lat="47.30297" lon="-2.41131">
        <ele>-1.3999999761581</ele>
        <time>2021-09-23T07:46:26.000Z</time>
      </trkpt>
      <trkpt lat="47.30298" lon="-2.41137">
        <ele>-1.7999999523163</ele>
        <time>2021-09-23T07:46:27.000Z</time>
      </trkpt>
      <trkpt lat="47.30297" lon="-2.41143">
        <ele>-2.2000000476837</ele>
        <time>2021-09-23T07:46:28.000Z</time>
      </trkpt>
      <trkpt lat="47.30295" lon="-2.41148">
        <ele>-2.7999999523163</ele>
        <time>2021-09-23T07:46:29.000Z</time>
      </trkpt>
      <trkpt lat="47.30292" lon="-2.41153">
        <ele>-3.2000000476837</ele>
        <time>2021-09-23T07:46:30.000Z</time>
      </trkpt>
      <trkpt lat="47.30288" lon="-2.41158">
        <ele>-3.5999999046326</ele>
        <time>2021-09-23T07:46:31.000Z</time>
      </trkpt>
      <trkpt lat="47.30285" lon="-2.41163">
        <ele>-3.5999999046326</ele>
        <time>2021-09-23T07:46:32.000Z</time>
      </trkpt>
      <trkpt lat="47.30282" lon="-2.41169">
        <ele>-3.5999999046326</ele>
        <time>2021-09-23T07:46:33.000Z</time>
      </trkpt>
      <trkpt lat="47.30262" lon="-2.41209">
        <ele>-3.5999999046326</ele>
        <time>2021-09-23T07:46:39.000Z</time>
      </trkpt>
      <trkpt lat="47.30251" lon="-2.41232">
        <ele>-3.5999999046326</ele>
        <time>2021-09-23T07:46:42.000Z</time>
      </trkpt>
      <trkpt lat="47.30246" lon="-2.41239">
        <ele>-3.5999999046326</ele>
        <time>2021-09-23T07:46:43.000Z</time>
      </trkpt>
      <trkpt lat="47.30231" lon="-2.4126">
        <ele>-3.2000000476837</ele>
        <time>2021-09-23T07:46:46.000Z</time>
      </trkpt>
      <trkpt lat="47.30226" lon="-2.41266">
        <ele>-2.7999999523163</ele>
        <time>2021-09-23T07:46:47.000Z</time>
      </trkpt>
      <trkpt lat="47.30221" lon="-2.41273">
        <ele>-2.4000000953674</ele>
        <time>2021-09-23T07:46:48.000Z</time>
      </trkpt>
      <trkpt lat="47.30216" lon="-2.4128">
        <ele>-2</ele>
        <time>2021-09-23T07:46:49.000Z</time>
      </trkpt>
      <trkpt lat="47.30211" lon="-2.41287">
        <ele>-1.6000000238419</ele>
        <time>2021-09-23T07:46:50.000Z</time>
      </trkpt>
      <trkpt lat="47.30184" lon="-2.41335">
        <ele>-1.6000000238419</ele>
        <time>2021-09-23T07:46:56.000Z</time>
      </trkpt>
      <trkpt lat="47.30159" lon="-2.41394">
        <ele>-1.6000000238419</ele>
        <time>2021-09-23T07:47:03.000Z</time>
      </trkpt>
      <trkpt lat="47.30138" lon="-2.41439">
        <ele>-1.6000000238419</ele>
        <time>2021-09-23T07:47:09.000Z</time>
      </trkpt>
      <trkpt lat="47.30116" lon="-2.41456">
        <ele>-1.6000000238419</ele>
        <time>2021-09-23T07:47:13.000Z</time>
      </trkpt>
      <trkpt lat="47.3011" lon="-2.4146">
        <ele>-1.6000000238419</ele>
        <time>2021-09-23T07:47:14.000Z</time>
      </trkpt>
      <trkpt lat="47.30074" lon="-2.4148">
        <ele>-1.6000000238419</ele>
        <time>2021-09-23T07:47:20.000Z</time>
      </trkpt>
      <trkpt lat="47.30028" lon="-2.41509">
        <ele>-1.6000000238419</ele>
        <time>2021-09-23T07:47:28.000Z</time>
      </trkpt>
      <trkpt lat="47.2999" lon="-2.41523">
        <ele>-1.6000000238419</ele>
        <time>2021-09-23T07:47:34.000Z</time>
      </trkpt>
      <trkpt lat="47.29954" lon="-2.41525">
        <ele>-1.6000000238419</ele>
        <time>2021-09-23T07:47:40.000Z</time>
      </trkpt>
      <trkpt lat="47.29934" lon="-2.41528">
        <ele>-1.6000000238419</ele>
        <time>2021-09-23T07:47:44.000Z</time>
      </trkpt>
      <trkpt lat="47.2993" lon="-2.41532">
        <ele>-1.6000000238419</ele>
        <time>2021-09-23T07:47:45.000Z</time>
      </trkpt>
      <trkpt lat="47.29925" lon="-2.41551">
        <ele>-1.6000000238419</ele>
        <time>2021-09-23T07:47:48.000Z</time>
      </trkpt>
      <trkpt lat="47.29924" lon="-2.41559">
        <ele>-1.6000000238419</ele>
        <time>2021-09-23T07:47:49.000Z</time>
      </trkpt>
      <trkpt lat="47.29926" lon="-2.41583">
        <ele>-1.6000000238419</ele>
        <time>2021-09-23T07:47:52.000Z</time>
      </trkpt>
      <trkpt lat="47.29927" lon="-2.41591">
        <ele>-1.6000000238419</ele>
        <time>2021-09-23T07:47:53.000Z</time>
      </trkpt>
      <trkpt lat="47.29929" lon="-2.41608">
        <ele>-1.6000000238419</ele>
        <time>2021-09-23T07:47:55.000Z</time>
      </trkpt>
      <trkpt lat="47.29928" lon="-2.41625">
        <ele>-1.6000000238419</ele>
        <time>2021-09-23T07:47:57.000Z</time>
      </trkpt>
      <trkpt lat="47.29928" lon="-2.41643">
        <ele>-1.6000000238419</ele>
        <time>2021-09-23T07:47:59.000Z</time>
      </trkpt>
      <trkpt lat="47.29931" lon="-2.41669">
        <ele>-1.6000000238419</ele>
        <time>2021-09-23T07:48:02.000Z</time>
      </trkpt>
      <trkpt lat="47.29934" lon="-2.41685">
        <ele>-2</ele>
        <time>2021-09-23T07:48:04.000Z</time>
      </trkpt>
      <trkpt lat="47.29936" lon="-2.41692">
        <ele>-2.4000000953674</ele>
        <time>2021-09-23T07:48:05.000Z</time>
      </trkpt>
      <trkpt lat="47.29937" lon="-2.417">
        <ele>-2.7999999523163</ele>
        <time>2021-09-23T07:48:06.000Z</time>
      </trkpt>
      <trkpt lat="47.29938" lon="-2.41708">
        <ele>-3.2000000476837</ele>
        <time>2021-09-23T07:48:07.000Z</time>
      </trkpt>
      <trkpt lat="47.29938" lon="-2.41715">
        <ele>-3.5999999046326</ele>
        <time>2021-09-23T07:48:08.000Z</time>
      </trkpt>
      <trkpt lat="47.29929" lon="-2.41733">
        <ele>-3.5999999046326</ele>
        <time>2021-09-23T07:48:11.000Z</time>
      </trkpt>
      <trkpt lat="47.29918" lon="-2.41742">
        <ele>-3.5999999046326</ele>
        <time>2021-09-23T07:48:13.000Z</time>
      </trkpt>
      <trkpt lat="47.29907" lon="-2.4175">
        <ele>-3.5999999046326</ele>
        <time>2021-09-23T07:48:15.000Z</time>
      </trkpt>
      <trkpt lat="47.29896" lon="-2.41761">
        <ele>-3.5999999046326</ele>
        <time>2021-09-23T07:48:17.000Z</time>
      </trkpt>
      <trkpt lat="47.29884" lon="-2.41768">
        <ele>-3.5999999046326</ele>
        <time>2021-09-23T07:48:19.000Z</time>
      </trkpt>
      <trkpt lat="47.29865" lon="-2.41764">
        <ele>-3.5999999046326</ele>
        <time>2021-09-23T07:48:22.000Z</time>
      </trkpt>
      <trkpt lat="47.29847" lon="-2.41764">
        <ele>-3.5999999046326</ele>
        <time>2021-09-23T07:48:25.000Z</time>
      </trkpt>
      <trkpt lat="47.29831" lon="-2.41781">
        <ele>-3.5999999046326</ele>
        <time>2021-09-23T07:48:28.000Z</time>
      </trkpt>
      <trkpt lat="47.29826" lon="-2.41788">
        <ele>-3.5999999046326</ele>
        <time>2021-09-23T07:48:29.000Z</time>
      </trkpt>
      <trkpt lat="47.29817" lon="-2.418">
        <ele>-3.5999999046326</ele>
        <time>2021-09-23T07:48:31.000Z</time>
      </trkpt>
      <trkpt lat="47.29802" lon="-2.41813">
        <ele>-3.5999999046326</ele>
        <time>2021-09-23T07:48:34.000Z</time>
      </trkpt>
      <trkpt lat="47.29796" lon="-2.41817">
        <ele>-3.5999999046326</ele>
        <time>2021-09-23T07:48:35.000Z</time>
      </trkpt>
      <trkpt lat="47.29776" lon="-2.41834">
        <ele>-3.5999999046326</ele>
        <time>2021-09-23T07:48:39.000Z</time>
      </trkpt>
      <trkpt lat="47.29773" lon="-2.41839">
        <ele>-3.5999999046326</ele>
        <time>2021-09-23T07:48:40.000Z</time>
      </trkpt>
      <trkpt lat="47.2977" lon="-2.41859">
        <ele>-3.5999999046326</ele>
        <time>2021-09-23T07:48:43.000Z</time>
      </trkpt>
      <trkpt lat="47.2977" lon="-2.41875">
        <ele>-3.5999999046326</ele>
        <time>2021-09-23T07:48:45.000Z</time>
      </trkpt>
      <trkpt lat="47.29773" lon="-2.41901">
        <ele>-3.5999999046326</ele>
        <time>2021-09-23T07:48:48.000Z</time>
      </trkpt>
      <trkpt lat="47.29786" lon="-2.41961">
        <ele>-3.5999999046326</ele>
        <time>2021-09-23T07:48:54.000Z</time>
      </trkpt>
      <trkpt lat="47.29792" lon="-2.42005">
        <ele>-3.5999999046326</ele>
        <time>2021-09-23T07:48:58.000Z</time>
      </trkpt>
      <trkpt lat="47.29791" lon="-2.42016">
        <ele>-3.5999999046326</ele>
        <time>2021-09-23T07:48:59.000Z</time>
      </trkpt>
      <trkpt lat="47.29779" lon="-2.42045">
        <ele>-3.5999999046326</ele>
        <time>2021-09-23T07:49:02.000Z</time>
      </trkpt>
      <trkpt lat="47.29769" lon="-2.42061">
        <ele>-3.5999999046326</ele>
        <time>2021-09-23T07:49:04.000Z</time>
      </trkpt>
      <trkpt lat="47.29751" lon="-2.42095">
        <ele>-3.5999999046326</ele>
        <time>2021-09-23T07:49:08.000Z</time>
      </trkpt>
      <trkpt lat="47.29715" lon="-2.42157">
        <ele>-3.5999999046326</ele>
        <time>2021-09-23T07:49:16.000Z</time>
      </trkpt>
      <trkpt lat="47.29681" lon="-2.42217">
        <ele>-3.5999999046326</ele>
        <time>2021-09-23T07:49:25.000Z</time>
      </trkpt>
      <trkpt lat="47.29664" lon="-2.4226">
        <ele>-3.5999999046326</ele>
        <time>2021-09-23T07:49:30.000Z</time>
      </trkpt>
      <trkpt lat="47.29651" lon="-2.42324">
        <ele>-3.5999999046326</ele>
        <time>2021-09-23T07:49:37.000Z</time>
      </trkpt>
      <trkpt lat="47.29634" lon="-2.42389">
        <ele>-3.5999999046326</ele>
        <time>2021-09-23T07:49:45.000Z</time>
      </trkpt>
      <trkpt lat="47.29627" lon="-2.42432">
        <ele>-3.5999999046326</ele>
        <time>2021-09-23T07:49:51.000Z</time>
      </trkpt>
      <trkpt lat="47.29624" lon="-2.42436">
        <ele>-3.5999999046326</ele>
        <time>2021-09-23T07:49:52.000Z</time>
      </trkpt>
      <trkpt lat="47.29612" lon="-2.42436">
        <ele>-3.5999999046326</ele>
        <time>2021-09-23T07:49:55.000Z</time>
      </trkpt>
      <trkpt lat="47.29607" lon="-2.42434">
        <ele>-3.5999999046326</ele>
        <time>2021-09-23T07:49:56.000Z</time>
      </trkpt>
      <trkpt lat="47.29602" lon="-2.42432">
        <ele>-3.5999999046326</ele>
        <time>2021-09-23T07:49:57.000Z</time>
      </trkpt>
      <trkpt lat="47.29586" lon="-2.42426">
        <ele>-3.5999999046326</ele>
        <time>2021-09-23T07:50:00.000Z</time>
      </trkpt>
      <trkpt lat="47.29569" lon="-2.42426">
        <ele>-3.5999999046326</ele>
        <time>2021-09-23T07:50:03.000Z</time>
      </trkpt>
      <trkpt lat="47.29559" lon="-2.42431">
        <ele>-3.5999999046326</ele>
        <time>2021-09-23T07:50:05.000Z</time>
      </trkpt>
      <trkpt lat="47.29547" lon="-2.42446">
        <ele>-3.5999999046326</ele>
        <time>2021-09-23T07:50:08.000Z</time>
      </trkpt>
      <trkpt lat="47.2954" lon="-2.42459">
        <ele>-3.5999999046326</ele>
        <time>2021-09-23T07:50:10.000Z</time>
      </trkpt>
      <trkpt lat="47.29533" lon="-2.42471">
        <ele>-3.5999999046326</ele>
        <time>2021-09-23T07:50:12.000Z</time>
      </trkpt>
      <trkpt lat="47.29523" lon="-2.42479">
        <ele>-3.5999999046326</ele>
        <time>2021-09-23T07:50:14.000Z</time>
      </trkpt>
      <trkpt lat="47.2951" lon="-2.4249">
        <ele>-3.5999999046326</ele>
        <time>2021-09-23T07:50:17.000Z</time>
      </trkpt>
      <trkpt lat="47.29499" lon="-2.42504">
        <ele>-3.5999999046326</ele>
        <time>2021-09-23T07:50:20.000Z</time>
      </trkpt>
      <trkpt lat="47.29476" lon="-2.42526">
        <ele>-3.5999999046326</ele>
        <time>2021-09-23T07:50:26.000Z</time>
      </trkpt>
      <trkpt lat="47.29467" lon="-2.42535">
        <ele>-3.5999999046326</ele>
        <time>2021-09-23T07:50:28.000Z</time>
      </trkpt>
      <trkpt lat="47.29448" lon="-2.42554">
        <ele>-3.5999999046326</ele>
        <time>2021-09-23T07:50:32.000Z</time>
      </trkpt>
      <trkpt lat="47.29425" lon="-2.42581">
        <ele>-3.5999999046326</ele>
        <time>2021-09-23T07:50:37.000Z</time>
      </trkpt>
      <trkpt lat="47.29422" lon="-2.42588">
        <ele>-3.5999999046326</ele>
        <time>2021-09-23T07:50:38.000Z</time>
      </trkpt>
      <trkpt lat="47.2942" lon="-2.42605">
        <ele>-3.5999999046326</ele>
        <time>2021-09-23T07:50:40.000Z</time>
      </trkpt>
      <trkpt lat="47.29416" lon="-2.42667">
        <ele>-3.5999999046326</ele>
        <time>2021-09-23T07:50:47.000Z</time>
      </trkpt>
      <trkpt lat="47.29413" lon="-2.42683">
        <ele>-3.5999999046326</ele>
        <time>2021-09-23T07:50:49.000Z</time>
      </trkpt>
      <trkpt lat="47.29406" lon="-2.42696">
        <ele>-3.5999999046326</ele>
        <time>2021-09-23T07:50:51.000Z</time>
      </trkpt>
      <trkpt lat="47.29397" lon="-2.42717">
        <ele>-3.5999999046326</ele>
        <time>2021-09-23T07:50:54.000Z</time>
      </trkpt>
      <trkpt lat="47.29391" lon="-2.42732">
        <ele>-3.5999999046326</ele>
        <time>2021-09-23T07:50:56.000Z</time>
      </trkpt>
      <trkpt lat="47.29378" lon="-2.42784">
        <ele>-3.5999999046326</ele>
        <time>2021-09-23T07:51:03.000Z</time>
      </trkpt>
      <trkpt lat="47.29369" lon="-2.42804">
        <ele>-3.5999999046326</ele>
        <time>2021-09-23T07:51:06.000Z</time>
      </trkpt>
      <trkpt lat="47.29361" lon="-2.42813">
        <ele>-3.5999999046326</ele>
        <time>2021-09-23T07:51:08.000Z</time>
      </trkpt>
      <trkpt lat="47.29343" lon="-2.42835">
        <ele>-3.5999999046326</ele>
        <time>2021-09-23T07:51:12.000Z</time>
      </trkpt>
      <trkpt lat="47.29339" lon="-2.42842">
        <ele>-3.5999999046326</ele>
        <time>2021-09-23T07:51:13.000Z</time>
      </trkpt>
      <trkpt lat="47.29327" lon="-2.42873">
        <ele>-3.5999999046326</ele>
        <time>2021-09-23T07:51:17.000Z</time>
      </trkpt>
      <trkpt lat="47.29322" lon="-2.42888">
        <ele>-3.5999999046326</ele>
        <time>2021-09-23T07:51:19.000Z</time>
      </trkpt>
      <trkpt lat="47.2932" lon="-2.42896">
        <ele>-3.5999999046326</ele>
        <time>2021-09-23T07:51:20.000Z</time>
      </trkpt>
      <trkpt lat="47.29312" lon="-2.42936">
        <ele>-3.5999999046326</ele>
        <time>2021-09-23T07:51:25.000Z</time>
      </trkpt>
      <trkpt lat="47.29312" lon="-2.42944">
        <ele>-3.5999999046326</ele>
        <time>2021-09-23T07:51:26.000Z</time>
      </trkpt>
      <trkpt lat="47.29313" lon="-2.4297">
        <ele>-3.5999999046326</ele>
        <time>2021-09-23T07:51:29.000Z</time>
      </trkpt>
      <trkpt lat="47.29309" lon="-2.43012">
        <ele>-3.5999999046326</ele>
        <time>2021-09-23T07:51:34.000Z</time>
      </trkpt>
      <trkpt lat="47.29303" lon="-2.43056">
        <ele>-3.5999999046326</ele>
        <time>2021-09-23T07:51:39.000Z</time>
      </trkpt>
      <trkpt lat="47.29305" lon="-2.43064">
        <ele>-3.5999999046326</ele>
        <time>2021-09-23T07:51:40.000Z</time>
      </trkpt>
      <trkpt lat="47.29317" lon="-2.43081">
        <ele>-3.5999999046326</ele>
        <time>2021-09-23T07:51:43.000Z</time>
      </trkpt>
      <trkpt lat="47.29334" lon="-2.4309">
        <ele>-3.5999999046326</ele>
        <time>2021-09-23T07:51:46.000Z</time>
      </trkpt>
      <trkpt lat="47.29339" lon="-2.43094">
        <ele>-3.5999999046326</ele>
        <time>2021-09-23T07:51:47.000Z</time>
      </trkpt>
      <trkpt lat="47.29344" lon="-2.43098">
        <ele>-3.5999999046326</ele>
        <time>2021-09-23T07:51:48.000Z</time>
      </trkpt>
      <trkpt lat="47.29354" lon="-2.43117">
        <ele>-3.5999999046326</ele>
        <time>2021-09-23T07:51:51.000Z</time>
      </trkpt>
      <trkpt lat="47.29363" lon="-2.43138">
        <ele>-3.5999999046326</ele>
        <time>2021-09-23T07:51:54.000Z</time>
      </trkpt>
      <trkpt lat="47.29368" lon="-2.43153">
        <ele>-3.5999999046326</ele>
        <time>2021-09-23T07:51:56.000Z</time>
      </trkpt>
      <trkpt lat="47.29372" lon="-2.43169">
        <ele>-3.5999999046326</ele>
        <time>2021-09-23T07:51:58.000Z</time>
      </trkpt>
      <trkpt lat="47.29376" lon="-2.43193">
        <ele>-3.5999999046326</ele>
        <time>2021-09-23T07:52:01.000Z</time>
      </trkpt>
      <trkpt lat="47.29377" lon="-2.43201">
        <ele>-3.5999999046326</ele>
        <time>2021-09-23T07:52:02.000Z</time>
      </trkpt>
      <trkpt lat="47.29372" lon="-2.43222">
        <ele>-3.5999999046326</ele>
        <time>2021-09-23T07:52:05.000Z</time>
      </trkpt>
      <trkpt lat="47.2936" lon="-2.43251">
        <ele>-3.5999999046326</ele>
        <time>2021-09-23T07:52:10.000Z</time>
      </trkpt>
      <trkpt lat="47.29361" lon="-2.43273">
        <ele>-3.5999999046326</ele>
        <time>2021-09-23T07:52:14.000Z</time>
      </trkpt>
      <trkpt lat="47.29361" lon="-2.43279">
        <ele>-3.5999999046326</ele>
        <time>2021-09-23T07:52:15.000Z</time>
      </trkpt>
      <trkpt lat="47.29366" lon="-2.43296">
        <ele>-3.5999999046326</ele>
        <time>2021-09-23T07:52:18.000Z</time>
      </trkpt>
      <trkpt lat="47.29372" lon="-2.43306">
        <ele>-3.5999999046326</ele>
        <time>2021-09-23T07:52:20.000Z</time>
      </trkpt>
      <trkpt lat="47.29387" lon="-2.43325">
        <ele>-3.5999999046326</ele>
        <time>2021-09-23T07:52:24.000Z</time>
      </trkpt>
      <trkpt lat="47.29397" lon="-2.4334">
        <ele>-3.5999999046326</ele>
        <time>2021-09-23T07:52:27.000Z</time>
      </trkpt>
      <trkpt lat="47.2941" lon="-2.43362">
        <ele>-3.5999999046326</ele>
        <time>2021-09-23T07:52:32.000Z</time>
      </trkpt>
      <trkpt lat="47.29417" lon="-2.43386">
        <ele>-3.5999999046326</ele>
        <time>2021-09-23T07:52:37.000Z</time>
      </trkpt>
      <trkpt lat="47.2943" lon="-2.43393">
        <ele>-3.5999999046326</ele>
        <time>2021-09-23T07:52:41.000Z</time>
      </trkpt>
      <trkpt lat="47.29436" lon="-2.43407">
        <ele>-3.5999999046326</ele>
        <time>2021-09-23T07:52:44.000Z</time>
      </trkpt>
      <trkpt lat="47.29438" lon="-2.43428">
        <ele>-3.5999999046326</ele>
        <time>2021-09-23T07:52:49.000Z</time>
      </trkpt>
      <trkpt lat="47.29445" lon="-2.4345">
        <ele>-3.5999999046326</ele>
        <time>2021-09-23T07:52:55.000Z</time>
      </trkpt>
      <trkpt lat="47.2945" lon="-2.43468">
        <ele>-3.5999999046326</ele>
        <time>2021-09-23T07:52:59.000Z</time>
      </trkpt>
      <trkpt lat="47.29449" lon="-2.4348">
        <ele>-3.5999999046326</ele>
        <time>2021-09-23T07:53:01.000Z</time>
      </trkpt>
      <trkpt lat="47.29443" lon="-2.43493">
        <ele>-3.5999999046326</ele>
        <time>2021-09-23T07:53:03.000Z</time>
      </trkpt>
      <trkpt lat="47.29419" lon="-2.43538">
        <ele>-3.5999999046326</ele>
        <time>2021-09-23T07:53:11.000Z</time>
      </trkpt>
      <trkpt lat="47.29407" lon="-2.43559">
        <ele>-3.5999999046326</ele>
        <time>2021-09-23T07:53:16.000Z</time>
      </trkpt>
      <trkpt lat="47.29394" lon="-2.43573">
        <ele>-3.5999999046326</ele>
        <time>2021-09-23T07:53:22.000Z</time>
      </trkpt>
      <trkpt lat="47.29386" lon="-2.43587">
        <ele>-3.5999999046326</ele>
        <time>2021-09-23T07:53:28.000Z</time>
      </trkpt>
      <trkpt lat="47.29382" lon="-2.43607">
        <ele>-3.5999999046326</ele>
        <time>2021-09-23T07:53:34.000Z</time>
      </trkpt>
      <trkpt lat="47.29375" lon="-2.43631">
        <ele>-3.5999999046326</ele>
        <time>2021-09-23T07:53:39.000Z</time>
      </trkpt>
      <trkpt lat="47.29359" lon="-2.43649">
        <ele>-3.5999999046326</ele>
        <time>2021-09-23T07:53:43.000Z</time>
      </trkpt>
      <trkpt lat="47.29327" lon="-2.4368">
        <ele>-3.5999999046326</ele>
        <time>2021-09-23T07:53:50.000Z</time>
      </trkpt>
      <trkpt lat="47.29292" lon="-2.43704">
        <ele>-3.5999999046326</ele>
        <time>2021-09-23T07:53:57.000Z</time>
      </trkpt>
      <trkpt lat="47.29258" lon="-2.43734">
        <ele>-3.5999999046326</ele>
        <time>2021-09-23T07:54:04.000Z</time>
      </trkpt>
      <trkpt lat="47.2925" lon="-2.43741">
        <ele>-3.5999999046326</ele>
        <time>2021-09-23T07:54:06.000Z</time>
      </trkpt>
      <trkpt lat="47.2924" lon="-2.4375">
        <ele>-3.5999999046326</ele>
        <time>2021-09-23T07:54:08.000Z</time>
      </trkpt>
      <trkpt lat="47.2923" lon="-2.43757">
        <ele>-3.5999999046326</ele>
        <time>2021-09-23T07:54:10.000Z</time>
      </trkpt>
      <trkpt lat="47.29211" lon="-2.43773">
        <ele>-3.5999999046326</ele>
        <time>2021-09-23T07:54:14.000Z</time>
      </trkpt>
      <trkpt lat="47.29168" lon="-2.43811">
        <ele>-3.5999999046326</ele>
        <time>2021-09-23T07:54:22.000Z</time>
      </trkpt>
      <trkpt lat="47.29116" lon="-2.43855">
        <ele>-3.5999999046326</ele>
        <time>2021-09-23T07:54:31.000Z</time>
      </trkpt>
      <trkpt lat="47.2911" lon="-2.43858">
        <ele>-3.5999999046326</ele>
        <time>2021-09-23T07:54:32.000Z</time>
      </trkpt>
      <trkpt lat="47.29084" lon="-2.43872">
        <ele>-3.5999999046326</ele>
        <time>2021-09-23T07:54:36.000Z</time>
      </trkpt>
      <trkpt lat="47.2907" lon="-2.43892">
        <ele>-3.5999999046326</ele>
        <time>2021-09-23T07:54:39.000Z</time>
      </trkpt>
      <trkpt lat="47.29056" lon="-2.43914">
        <ele>-3.5999999046326</ele>
        <time>2021-09-23T07:54:42.000Z</time>
      </trkpt>
      <trkpt lat="47.29052" lon="-2.43923">
        <ele>-3.5999999046326</ele>
        <time>2021-09-23T07:54:43.000Z</time>
      </trkpt>
      <trkpt lat="47.29027" lon="-2.43983">
        <ele>-3.5999999046326</ele>
        <time>2021-09-23T07:54:50.000Z</time>
      </trkpt>
      <trkpt lat="47.28997" lon="-2.44049">
        <ele>-3.5999999046326</ele>
        <time>2021-09-23T07:54:58.000Z</time>
      </trkpt>
      <trkpt lat="47.28968" lon="-2.44117">
        <ele>-3.5999999046326</ele>
        <time>2021-09-23T07:55:06.000Z</time>
      </trkpt>
      <trkpt lat="47.28937" lon="-2.44189">
        <ele>-3.5999999046326</ele>
        <time>2021-09-23T07:55:14.000Z</time>
      </trkpt>
      <trkpt lat="47.28904" lon="-2.44265">
        <ele>-3.5999999046326</ele>
        <time>2021-09-23T07:55:22.000Z</time>
      </trkpt>
      <trkpt lat="47.28899" lon="-2.44274">
        <ele>-3.5999999046326</ele>
        <time>2021-09-23T07:55:23.000Z</time>
      </trkpt>
      <trkpt lat="47.28868" lon="-2.44346">
        <ele>-3.5999999046326</ele>
        <time>2021-09-23T07:55:31.000Z</time>
      </trkpt>
      <trkpt lat="47.28843" lon="-2.44403">
        <ele>-3.5999999046326</ele>
        <time>2021-09-23T07:55:38.000Z</time>
      </trkpt>
      <trkpt lat="47.28812" lon="-2.44476">
        <ele>-3.5999999046326</ele>
        <time>2021-09-23T07:55:47.000Z</time>
      </trkpt>
      <trkpt lat="47.2878" lon="-2.44549">
        <ele>-3.5999999046326</ele>
        <time>2021-09-23T07:55:56.000Z</time>
      </trkpt>
      <trkpt lat="47.28776" lon="-2.44557">
        <ele>-3.5999999046326</ele>
        <time>2021-09-23T07:55:57.000Z</time>
      </trkpt>
      <trkpt lat="47.28751" lon="-2.44613">
        <ele>-3.5999999046326</ele>
        <time>2021-09-23T07:56:04.000Z</time>
      </trkpt>
      <trkpt lat="47.28724" lon="-2.44675">
        <ele>-3.5999999046326</ele>
        <time>2021-09-23T07:56:11.000Z</time>
      </trkpt>
      <trkpt lat="47.28708" lon="-2.44713">
        <ele>-3.5999999046326</ele>
        <time>2021-09-23T07:56:15.000Z</time>
      </trkpt>
      <trkpt lat="47.28688" lon="-2.44759">
        <ele>-3.5999999046326</ele>
        <time>2021-09-23T07:56:20.000Z</time>
      </trkpt>
      <trkpt lat="47.28657" lon="-2.44832">
        <ele>-3.5999999046326</ele>
        <time>2021-09-23T07:56:28.000Z</time>
      </trkpt>
      <trkpt lat="47.28649" lon="-2.44851">
        <ele>-3.5999999046326</ele>
        <time>2021-09-23T07:56:30.000Z</time>
      </trkpt>
      <trkpt lat="47.28617" lon="-2.44912">
        <ele>-3.5999999046326</ele>
        <time>2021-09-23T07:56:37.000Z</time>
      </trkpt>
      <trkpt lat="47.28576" lon="-2.44964">
        <ele>-3.5999999046326</ele>
        <time>2021-09-23T07:56:44.000Z</time>
      </trkpt>
      <trkpt lat="47.28533" lon="-2.45016">
        <ele>-3.5999999046326</ele>
        <time>2021-09-23T07:56:51.000Z</time>
      </trkpt>
      <trkpt lat="47.28527" lon="-2.45024">
        <ele>-3.5999999046326</ele>
        <time>2021-09-23T07:56:52.000Z</time>
      </trkpt>
      <trkpt lat="47.28484" lon="-2.45076">
        <ele>-3.5999999046326</ele>
        <time>2021-09-23T07:56:59.000Z</time>
      </trkpt>
      <trkpt lat="47.28437" lon="-2.45133">
        <ele>-3.5999999046326</ele>
        <time>2021-09-23T07:57:07.000Z</time>
      </trkpt>
      <trkpt lat="47.28431" lon="-2.45139">
        <ele>-3.5999999046326</ele>
        <time>2021-09-23T07:57:08.000Z</time>
      </trkpt>
      <trkpt lat="47.28389" lon="-2.45172">
        <ele>-3.5999999046326</ele>
        <time>2021-09-23T07:57:14.000Z</time>
      </trkpt>
      <trkpt lat="47.28338" lon="-2.45209">
        <ele>-3.5999999046326</ele>
        <time>2021-09-23T07:57:21.000Z</time>
      </trkpt>
      <trkpt lat="47.28324" lon="-2.45219">
        <ele>-3.5999999046326</ele>
        <time>2021-09-23T07:57:23.000Z</time>
      </trkpt>
      <trkpt lat="47.28273" lon="-2.45256">
        <ele>-3.5999999046326</ele>
        <time>2021-09-23T07:57:30.000Z</time>
      </trkpt>
      <trkpt lat="47.2826" lon="-2.45265">
        <ele>-3.5999999046326</ele>
        <time>2021-09-23T07:57:32.000Z</time>
      </trkpt>
      <trkpt lat="47.28225" lon="-2.45277">
        <ele>-3.5999999046326</ele>
        <time>2021-09-23T07:57:37.000Z</time>
      </trkpt>
      <trkpt lat="47.28195" lon="-2.45274">
        <ele>-3.5999999046326</ele>
        <time>2021-09-23T07:57:41.000Z</time>
      </trkpt>
      <trkpt lat="47.28188" lon="-2.45272">
        <ele>-3.5999999046326</ele>
        <time>2021-09-23T07:57:42.000Z</time>
      </trkpt>
      <trkpt lat="47.28142" lon="-2.45262">
        <ele>-3.5999999046326</ele>
        <time>2021-09-23T07:57:48.000Z</time>
      </trkpt>
      <trkpt lat="47.28106" lon="-2.4527">
        <ele>-3.5999999046326</ele>
        <time>2021-09-23T07:57:53.000Z</time>
      </trkpt>
      <trkpt lat="47.28073" lon="-2.45295">
        <ele>-3.5999999046326</ele>
        <time>2021-09-23T07:57:58.000Z</time>
      </trkpt>
      <trkpt lat="47.28049" lon="-2.45333">
        <ele>-3.5999999046326</ele>
        <time>2021-09-23T07:58:03.000Z</time>
      </trkpt>
      <trkpt lat="47.28046" lon="-2.45342">
        <ele>-3.5999999046326</ele>
        <time>2021-09-23T07:58:04.000Z</time>
      </trkpt>
      <trkpt lat="47.2804" lon="-2.45361">
        <ele>-3.5999999046326</ele>
        <time>2021-09-23T07:58:06.000Z</time>
      </trkpt>
      <trkpt lat="47.28036" lon="-2.45379">
        <ele>-3.5999999046326</ele>
        <time>2021-09-23T07:58:08.000Z</time>
      </trkpt>
      <trkpt lat="47.28035" lon="-2.45389">
        <ele>-3.5999999046326</ele>
        <time>2021-09-23T07:58:09.000Z</time>
      </trkpt>
      <trkpt lat="47.28033" lon="-2.45431">
        <ele>-3.5999999046326</ele>
        <time>2021-09-23T07:58:13.000Z</time>
      </trkpt>
      <trkpt lat="47.28032" lon="-2.45511">
        <ele>-3.5999999046326</ele>
        <time>2021-09-23T07:58:21.000Z</time>
      </trkpt>
      <trkpt lat="47.28033" lon="-2.456">
        <ele>-3.5999999046326</ele>
        <time>2021-09-23T07:58:30.000Z</time>
      </trkpt>
      <trkpt lat="47.28034" lon="-2.45609">
        <ele>-3.5999999046326</ele>
        <time>2021-09-23T07:58:31.000Z</time>
      </trkpt>
      <trkpt lat="47.28035" lon="-2.45635">
        <ele>-3.5999999046326</ele>
        <time>2021-09-23T07:58:34.000Z</time>
      </trkpt>
      <trkpt lat="47.28023" lon="-2.45655">
        <ele>-3.5999999046326</ele>
        <time>2021-09-23T07:58:37.000Z</time>
      </trkpt>
      <trkpt lat="47.28014" lon="-2.45683">
        <ele>-3.5999999046326</ele>
        <time>2021-09-23T07:58:40.000Z</time>
      </trkpt>
      <trkpt lat="47.28011" lon="-2.45692">
        <ele>-3.5999999046326</ele>
        <time>2021-09-23T07:58:41.000Z</time>
      </trkpt>
      <trkpt lat="47.27987" lon="-2.45773">
        <ele>-3.5999999046326</ele>
        <time>2021-09-23T07:58:50.000Z</time>
      </trkpt>
      <trkpt lat="47.27976" lon="-2.45817">
        <ele>-3.5999999046326</ele>
        <time>2021-09-23T07:58:55.000Z</time>
      </trkpt>
      <trkpt lat="47.27974" lon="-2.45835">
        <ele>-3.5999999046326</ele>
        <time>2021-09-23T07:58:57.000Z</time>
      </trkpt>
      <trkpt lat="47.27965" lon="-2.45841">
        <ele>-3.5999999046326</ele>
        <time>2021-09-23T07:58:59.000Z</time>
      </trkpt>
      <trkpt lat="47.27946" lon="-2.45842">
        <ele>-3.5999999046326</ele>
        <time>2021-09-23T07:59:02.000Z</time>
      </trkpt>
      <trkpt lat="47.27925" lon="-2.45853">
        <ele>-3.5999999046326</ele>
        <time>2021-09-23T07:59:05.000Z</time>
      </trkpt>
      <trkpt lat="47.2789" lon="-2.4587">
        <ele>-4</ele>
        <time>2021-09-23T07:59:09.000Z</time>
      </trkpt>
      <trkpt lat="47.27881" lon="-2.45875">
        <ele>-4.4000000953674</ele>
        <time>2021-09-23T07:59:10.000Z</time>
      </trkpt>
      <trkpt lat="47.27872" lon="-2.4588">
        <ele>-4.8000001907349</ele>
        <time>2021-09-23T07:59:11.000Z</time>
      </trkpt>
      <trkpt lat="47.27864" lon="-2.45884">
        <ele>-5.1999998092651</ele>
        <time>2021-09-23T07:59:12.000Z</time>
      </trkpt>
      <trkpt lat="47.27855" lon="-2.45888">
        <ele>-5.5999999046326</ele>
        <time>2021-09-23T07:59:13.000Z</time>
      </trkpt>
      <trkpt lat="47.27846" lon="-2.45893">
        <ele>-5.5999999046326</ele>
        <time>2021-09-23T07:59:14.000Z</time>
      </trkpt>
      <trkpt lat="47.27809" lon="-2.45911">
        <ele>-5.5999999046326</ele>
        <time>2021-09-23T07:59:19.000Z</time>
      </trkpt>
      <trkpt lat="47.2779" lon="-2.45922">
        <ele>-5.5999999046326</ele>
        <time>2021-09-23T07:59:23.000Z</time>
      </trkpt>
      <trkpt lat="47.27782" lon="-2.45928">
        <ele>-5.5999999046326</ele>
        <time>2021-09-23T07:59:25.000Z</time>
      </trkpt>
      <trkpt lat="47.27773" lon="-2.45936">
        <ele>-5.5999999046326</ele>
        <time>2021-09-23T07:59:28.000Z</time>
      </trkpt>
      <trkpt lat="47.27765" lon="-2.45948">
        <ele>-5.5999999046326</ele>
        <time>2021-09-23T07:59:31.000Z</time>
      </trkpt>
      <trkpt lat="47.2776" lon="-2.45959">
        <ele>-5.5999999046326</ele>
        <time>2021-09-23T07:59:33.000Z</time>
      </trkpt>
      <trkpt lat="47.27756" lon="-2.45965">
        <ele>-5.1999998092651</ele>
        <time>2021-09-23T07:59:34.000Z</time>
      </trkpt>
      <trkpt lat="47.27752" lon="-2.45969">
        <ele>-4.8000001907349</ele>
        <time>2021-09-23T07:59:35.000Z</time>
      </trkpt>
      <trkpt lat="47.27748" lon="-2.45972">
        <ele>-4.4000000953674</ele>
        <time>2021-09-23T07:59:36.000Z</time>
      </trkpt>
      <trkpt lat="47.27744" lon="-2.45975">
        <ele>-4</ele>
        <time>2021-09-23T07:59:37.000Z</time>
      </trkpt>
      <trkpt lat="47.2774" lon="-2.45975">
        <ele>-3.5999999046326</ele>
        <time>2021-09-23T07:59:38.000Z</time>
      </trkpt>
      <trkpt lat="47.27728" lon="-2.45974">
        <ele>-3.5999999046326</ele>
        <time>2021-09-23T07:59:41.000Z</time>
      </trkpt>
      <trkpt lat="47.27721" lon="-2.45975">
        <ele>-3.5999999046326</ele>
        <time>2021-09-23T07:59:43.000Z</time>
      </trkpt>
      <trkpt lat="47.27711" lon="-2.45971">
        <ele>-3.5999999046326</ele>
        <time>2021-09-23T07:59:46.000Z</time>
      </trkpt>
      <trkpt lat="47.27709" lon="-2.45967">
        <ele>-3.5999999046326</ele>
        <time>2021-09-23T07:59:47.000Z</time>
      </trkpt>
      <trkpt lat="47.27706" lon="-2.45954">
        <ele>-3.5999999046326</ele>
        <time>2021-09-23T07:59:49.000Z</time>
      </trkpt>
      <trkpt lat="47.27708" lon="-2.45925">
        <ele>-3.2000000476837</ele>
        <time>2021-09-23T07:59:53.000Z</time>
      </trkpt>
      <trkpt lat="47.27709" lon="-2.45917">
        <ele>-2.7999999523163</ele>
        <time>2021-09-23T07:59:54.000Z</time>
      </trkpt>
      <trkpt lat="47.27712" lon="-2.45911">
        <ele>-2.4000000953674</ele>
        <time>2021-09-23T07:59:55.000Z</time>
      </trkpt>
      <trkpt lat="47.27716" lon="-2.45905">
        <ele>-2</ele>
        <time>2021-09-23T07:59:56.000Z</time>
      </trkpt>
      <trkpt lat="47.2772" lon="-2.459">
        <ele>-1.6000000238419</ele>
        <time>2021-09-23T07:59:57.000Z</time>
      </trkpt>
      <trkpt lat="47.2773" lon="-2.45876">
        <ele>-1.6000000238419</ele>
        <time>2021-09-23T08:00:01.000Z</time>
      </trkpt>
      <trkpt lat="47.27732" lon="-2.45869">
        <ele>-1.6000000238419</ele>
        <time>2021-09-23T08:00:02.000Z</time>
      </trkpt>
      <trkpt lat="47.27735" lon="-2.45862">
        <ele>-1.6000000238419</ele>
        <time>2021-09-23T08:00:03.000Z</time>
      </trkpt>
      <trkpt lat="47.27744" lon="-2.45847">
        <ele>-1.6000000238419</ele>
        <time>2021-09-23T08:00:06.000Z</time>
      </trkpt>
      <trkpt lat="47.27762" lon="-2.45812">
        <ele>-1.6000000238419</ele>
        <time>2021-09-23T08:00:12.000Z</time>
      </trkpt>
      <trkpt lat="47.2777" lon="-2.45779">
        <ele>-1.6000000238419</ele>
        <time>2021-09-23T08:00:17.000Z</time>
      </trkpt>
      <trkpt lat="47.27786" lon="-2.45757">
        <ele>-1.6000000238419</ele>
        <time>2021-09-23T08:00:21.000Z</time>
      </trkpt>
      <trkpt lat="47.27808" lon="-2.45746">
        <ele>-1.6000000238419</ele>
        <time>2021-09-23T08:00:25.000Z</time>
      </trkpt>
      <trkpt lat="47.27813" lon="-2.45744">
        <ele>-1.6000000238419</ele>
        <time>2021-09-23T08:00:26.000Z</time>
      </trkpt>
      <trkpt lat="47.27838" lon="-2.45733">
        <ele>-1.6000000238419</ele>
        <time>2021-09-23T08:00:31.000Z</time>
      </trkpt>
      <trkpt lat="47.27844" lon="-2.45715">
        <ele>-1.6000000238419</ele>
        <time>2021-09-23T08:00:34.000Z</time>
      </trkpt>
      <trkpt lat="47.27847" lon="-2.4571">
        <ele>-1.6000000238419</ele>
        <time>2021-09-23T08:00:35.000Z</time>
      </trkpt>
      <trkpt lat="47.27852" lon="-2.45697">
        <ele>-1.6000000238419</ele>
        <time>2021-09-23T08:00:37.000Z</time>
      </trkpt>
      <trkpt lat="47.27855" lon="-2.45682">
        <ele>-1.6000000238419</ele>
        <time>2021-09-23T08:00:39.000Z</time>
      </trkpt>
      <trkpt lat="47.27859" lon="-2.45658">
        <ele>-1.6000000238419</ele>
        <time>2021-09-23T08:00:42.000Z</time>
      </trkpt>
      <trkpt lat="47.27859" lon="-2.45642">
        <ele>-1.6000000238419</ele>
        <time>2021-09-23T08:00:44.000Z</time>
      </trkpt>
      <trkpt lat="47.27859" lon="-2.45593">
        <ele>-1.6000000238419</ele>
        <time>2021-09-23T08:00:50.000Z</time>
      </trkpt>
      <trkpt lat="47.27857" lon="-2.45571">
        <ele>-1.6000000238419</ele>
        <time>2021-09-23T08:00:53.000Z</time>
      </trkpt>
      <trkpt lat="47.27852" lon="-2.45554">
        <ele>-1.6000000238419</ele>
        <time>2021-09-23T08:00:56.000Z</time>
      </trkpt>
      <trkpt lat="47.2785" lon="-2.45536">
        <ele>-1.6000000238419</ele>
        <time>2021-09-23T08:00:59.000Z</time>
      </trkpt>
      <trkpt lat="47.27852" lon="-2.45522">
        <ele>-1.6000000238419</ele>
        <time>2021-09-23T08:01:01.000Z</time>
      </trkpt>
      <trkpt lat="47.27851" lon="-2.45507">
        <ele>-1.6000000238419</ele>
        <time>2021-09-23T08:01:03.000Z</time>
      </trkpt>
      <trkpt lat="47.27849" lon="-2.45483">
        <ele>-1.6000000238419</ele>
        <time>2021-09-23T08:01:06.000Z</time>
      </trkpt>
      <trkpt lat="47.27847" lon="-2.45468">
        <ele>-1.6000000238419</ele>
        <time>2021-09-23T08:01:08.000Z</time>
      </trkpt>
      <trkpt lat="47.27841" lon="-2.45455">
        <ele>-1.6000000238419</ele>
        <time>2021-09-23T08:01:10.000Z</time>
      </trkpt>
      <trkpt lat="47.27834" lon="-2.45443">
        <ele>-1.6000000238419</ele>
        <time>2021-09-23T08:01:12.000Z</time>
      </trkpt>
      <trkpt lat="47.27824" lon="-2.45423">
        <ele>-1.6000000238419</ele>
        <time>2021-09-23T08:01:15.000Z</time>
      </trkpt>
      <trkpt lat="47.27808" lon="-2.45378">
        <ele>-1.6000000238419</ele>
        <time>2021-09-23T08:01:21.000Z</time>
      </trkpt>
      <trkpt lat="47.27791" lon="-2.45315">
        <ele>-1.6000000238419</ele>
        <time>2021-09-23T08:01:28.000Z</time>
      </trkpt>
      <trkpt lat="47.27778" lon="-2.45268">
        <ele>-1.6000000238419</ele>
        <time>2021-09-23T08:01:33.000Z</time>
      </trkpt>
      <trkpt lat="47.27775" lon="-2.45247">
        <ele>-1.6000000238419</ele>
        <time>2021-09-23T08:01:35.000Z</time>
      </trkpt>
      <trkpt lat="47.27776" lon="-2.45226">
        <ele>-1.6000000238419</ele>
        <time>2021-09-23T08:01:37.000Z</time>
      </trkpt>
      <trkpt lat="47.27773" lon="-2.45153">
        <ele>-1.6000000238419</ele>
        <time>2021-09-23T08:01:44.000Z</time>
      </trkpt>
      <trkpt lat="47.27762" lon="-2.4509">
        <ele>-1.6000000238419</ele>
        <time>2021-09-23T08:01:50.000Z</time>
      </trkpt>
      <trkpt lat="47.2775" lon="-2.45019">
        <ele>-1.6000000238419</ele>
        <time>2021-09-23T08:01:57.000Z</time>
      </trkpt>
      <trkpt lat="47.27748" lon="-2.45011">
        <ele>-1.6000000238419</ele>
        <time>2021-09-23T08:01:58.000Z</time>
      </trkpt>
      <trkpt lat="47.27745" lon="-2.44999">
        <ele>-2</ele>
        <time>2021-09-23T08:02:00.000Z</time>
      </trkpt>
      <trkpt lat="47.27744" lon="-2.44995">
        <ele>-2.4000000953674</ele>
        <time>2021-09-23T08:02:01.000Z</time>
      </trkpt>
      <trkpt lat="47.27743" lon="-2.44993">
        <ele>-2.7999999523163</ele>
        <time>2021-09-23T08:02:02.000Z</time>
      </trkpt>
      <trkpt lat="47.27743" lon="-2.44991">
        <ele>-3.4000000953674</ele>
        <time>2021-09-23T08:02:03.000Z</time>
      </trkpt>
      <trkpt lat="47.27742" lon="-2.4499">
        <ele>-3.7999999523163</ele>
        <time>2021-09-23T08:02:04.000Z</time>
      </trkpt>
      <trkpt lat="47.27742" lon="-2.4499">
        <ele>-3.7999999523163</ele>
        <time>2021-09-23T08:02:05.000Z</time>
      </trkpt>
      <trkpt lat="47.27743" lon="-2.44997">
        <ele>-3.7999999523163</ele>
        <time>2021-09-23T08:02:21.000Z</time>
      </trkpt>
      <trkpt lat="47.27744" lon="-2.45002">
        <ele>-3.7999999523163</ele>
        <time>2021-09-23T08:02:23.000Z</time>
      </trkpt>
      <trkpt lat="47.27744" lon="-2.45019">
        <ele>-3.7999999523163</ele>
        <time>2021-09-23T08:02:28.000Z</time>
      </trkpt>
      <trkpt lat="47.27741" lon="-2.45021">
        <ele>-3.7999999523163</ele>
        <time>2021-09-23T08:02:29.000Z</time>
      </trkpt>
      <trkpt lat="47.27729" lon="-2.45024">
        <ele>-3.7999999523163</ele>
        <time>2021-09-23T08:02:32.000Z</time>
      </trkpt>
      <trkpt lat="47.27725" lon="-2.45025">
        <ele>-3.7999999523163</ele>
        <time>2021-09-23T08:02:33.000Z</time>
      </trkpt>
      <trkpt lat="47.27716" lon="-2.45028">
        <ele>-3.7999999523163</ele>
        <time>2021-09-23T08:02:35.000Z</time>
      </trkpt>
      <trkpt lat="47.27697" lon="-2.45029">
        <ele>-3.7999999523163</ele>
        <time>2021-09-23T08:02:39.000Z</time>
      </trkpt>
      <trkpt lat="47.27662" lon="-2.45033">
        <ele>-3.7999999523163</ele>
        <time>2021-09-23T08:02:46.000Z</time>
      </trkpt>
      <trkpt lat="47.27648" lon="-2.45038">
        <ele>-3.7999999523163</ele>
        <time>2021-09-23T08:02:49.000Z</time>
      </trkpt>
      <trkpt lat="47.27634" lon="-2.45047">
        <ele>-4.1999998092651</ele>
        <time>2021-09-23T08:02:52.000Z</time>
      </trkpt>
      <trkpt lat="47.27631" lon="-2.45049">
        <ele>-4.5999999046326</ele>
        <time>2021-09-23T08:02:53.000Z</time>
      </trkpt>
      <trkpt lat="47.27627" lon="-2.45051">
        <ele>-5</ele>
        <time>2021-09-23T08:02:54.000Z</time>
      </trkpt>
      <trkpt lat="47.27624" lon="-2.45053">
        <ele>-5.4000000953674</ele>
        <time>2021-09-23T08:02:55.000Z</time>
      </trkpt>
      <trkpt lat="47.27621" lon="-2.45056">
        <ele>-5.8000001907349</ele>
        <time>2021-09-23T08:02:56.000Z</time>
      </trkpt>
      <trkpt lat="47.27618" lon="-2.45059">
        <ele>-5.8000001907349</ele>
        <time>2021-09-23T08:02:57.000Z</time>
      </trkpt>
      <trkpt lat="47.27597" lon="-2.45079">
        <ele>-5.8000001907349</ele>
        <time>2021-09-23T08:03:03.000Z</time>
      </trkpt>
      <trkpt lat="47.27584" lon="-2.4509">
        <ele>-5.8000001907349</ele>
        <time>2021-09-23T08:03:06.000Z</time>
      </trkpt>
      <trkpt lat="47.27575" lon="-2.45098">
        <ele>-5.8000001907349</ele>
        <time>2021-09-23T08:03:08.000Z</time>
      </trkpt>
      <trkpt lat="47.27571" lon="-2.45102">
        <ele>-5.8000001907349</ele>
        <time>2021-09-23T08:03:09.000Z</time>
      </trkpt>
      <trkpt lat="47.27561" lon="-2.45112">
        <ele>-5.8000001907349</ele>
        <time>2021-09-23T08:03:11.000Z</time>
      </trkpt>
      <trkpt lat="47.27548" lon="-2.45129">
        <ele>-5.8000001907349</ele>
        <time>2021-09-23T08:03:14.000Z</time>
      </trkpt>
      <trkpt lat="47.27539" lon="-2.45139">
        <ele>-5.8000001907349</ele>
        <time>2021-09-23T08:03:16.000Z</time>
      </trkpt>
      <trkpt lat="47.27522" lon="-2.4516">
        <ele>-5.8000001907349</ele>
        <time>2021-09-23T08:03:20.000Z</time>
      </trkpt>
      <trkpt lat="47.27504" lon="-2.45175">
        <ele>-5.8000001907349</ele>
        <time>2021-09-23T08:03:24.000Z</time>
      </trkpt>
      <trkpt lat="47.27499" lon="-2.45179">
        <ele>-5.8000001907349</ele>
        <time>2021-09-23T08:03:25.000Z</time>
      </trkpt>
      <trkpt lat="47.27473" lon="-2.452">
        <ele>-5.8000001907349</ele>
        <time>2021-09-23T08:03:31.000Z</time>
      </trkpt>
      <trkpt lat="47.27436" lon="-2.45218">
        <ele>-5.8000001907349</ele>
        <time>2021-09-23T08:03:39.000Z</time>
      </trkpt>
      <trkpt lat="47.27417" lon="-2.45217">
        <ele>-5.8000001907349</ele>
        <time>2021-09-23T08:03:43.000Z</time>
      </trkpt>
      <trkpt lat="47.27394" lon="-2.45215">
        <ele>-5.8000001907349</ele>
        <time>2021-09-23T08:03:48.000Z</time>
      </trkpt>
      <trkpt lat="47.2739" lon="-2.45215">
        <ele>-5.8000001907349</ele>
        <time>2021-09-23T08:03:49.000Z</time>
      </trkpt>
      <trkpt lat="47.27376" lon="-2.45218">
        <ele>-5.8000001907349</ele>
        <time>2021-09-23T08:03:52.000Z</time>
      </trkpt>
      <trkpt lat="47.27367" lon="-2.45223">
        <ele>-5.8000001907349</ele>
        <time>2021-09-23T08:03:54.000Z</time>
      </trkpt>
      <trkpt lat="47.27354" lon="-2.45241">
        <ele>-5.8000001907349</ele>
        <time>2021-09-23T08:03:58.000Z</time>
      </trkpt>
      <trkpt lat="47.2735" lon="-2.45246">
        <ele>-5.8000001907349</ele>
        <time>2021-09-23T08:03:59.000Z</time>
      </trkpt>
      <trkpt lat="47.27344" lon="-2.45254">
        <ele>-5.4000000953674</ele>
        <time>2021-09-23T08:04:01.000Z</time>
      </trkpt>
      <trkpt lat="47.2734" lon="-2.45257">
        <ele>-5</ele>
        <time>2021-09-23T08:04:02.000Z</time>
      </trkpt>
      <trkpt lat="47.27336" lon="-2.4526">
        <ele>-4.5999999046326</ele>
        <time>2021-09-23T08:04:03.000Z</time>
      </trkpt>
      <trkpt lat="47.27332" lon="-2.45262">
        <ele>-4.1999998092651</ele>
        <time>2021-09-23T08:04:04.000Z</time>
      </trkpt>
      <trkpt lat="47.27327" lon="-2.45264">
        <ele>-3.7999999523163</ele>
        <time>2021-09-23T08:04:05.000Z</time>
      </trkpt>
      <trkpt lat="47.27318" lon="-2.45266">
        <ele>-3.7999999523163</ele>
        <time>2021-09-23T08:04:07.000Z</time>
      </trkpt>
      <trkpt lat="47.27299" lon="-2.45271">
        <ele>-3.7999999523163</ele>
        <time>2021-09-23T08:04:11.000Z</time>
      </trkpt>
      <trkpt lat="47.27284" lon="-2.45275">
        <ele>-3.7999999523163</ele>
        <time>2021-09-23T08:04:14.000Z</time>
      </trkpt>
      <trkpt lat="47.27266" lon="-2.45277">
        <ele>-3.7999999523163</ele>
        <time>2021-09-23T08:04:18.000Z</time>
      </trkpt>
      <trkpt lat="47.2724" lon="-2.45278">
        <ele>-3.4000000953674</ele>
        <time>2021-09-23T08:04:24.000Z</time>
      </trkpt>
      <trkpt lat="47.27236" lon="-2.45278">
        <ele>-2.7999999523163</ele>
        <time>2021-09-23T08:04:25.000Z</time>
      </trkpt>
      <trkpt lat="47.27232" lon="-2.45278">
        <ele>-2.4000000953674</ele>
        <time>2021-09-23T08:04:26.000Z</time>
      </trkpt>
      <trkpt lat="47.2723" lon="-2.45277">
        <ele>-2</ele>
        <time>2021-09-23T08:04:27.000Z</time>
      </trkpt>
      <trkpt lat="47.27228" lon="-2.45277">
        <ele>-1.6000000238419</ele>
        <time>2021-09-23T08:04:28.000Z</time>
      </trkpt>
      <trkpt lat="47.27227" lon="-2.45277">
        <ele>-1.6000000238419</ele>
        <time>2021-09-23T08:04:29.000Z</time>
      </trkpt>
      <trkpt lat="47.27217" lon="-2.45277">
        <ele>-1.6000000238419</ele>
        <time>2021-09-23T08:04:36.000Z</time>
      </trkpt>
      <trkpt lat="47.2721" lon="-2.45277">
        <ele>-1.6000000238419</ele>
        <time>2021-09-23T08:04:42.000Z</time>
      </trkpt>
      <trkpt lat="47.2721" lon="-2.45277">
        <ele>-1.6000000238419</ele>
        <time>2021-09-23T08:04:44.000Z</time>
      </trkpt>
      <trkpt lat="47.27207" lon="-2.45277">
        <ele>-2.7999999523163</ele>
        <time>2021-09-23T08:04:50.000Z</time>
      </trkpt>
      <trkpt lat="47.27206" lon="-2.45277">
        <ele>-2.2000000476837</ele>
        <time>2021-09-23T08:04:51.000Z</time>
      </trkpt>
      <trkpt lat="47.27205" lon="-2.45277">
        <ele>-1.3999999761581</ele>
        <time>2021-09-23T08:04:52.000Z</time>
      </trkpt>
      <trkpt lat="47.27203" lon="-2.45278">
        <ele>-0.80000001192093</ele>
        <time>2021-09-23T08:04:53.000Z</time>
      </trkpt>
      <trkpt lat="47.27201" lon="-2.45277">
        <ele>-0.20000000298023</ele>
        <time>2021-09-23T08:04:54.000Z</time>
      </trkpt>
      <trkpt lat="47.27199" lon="-2.45275">
        <ele>-0.20000000298023</ele>
        <time>2021-09-23T08:04:56.000Z</time>
      </trkpt>
      <trkpt lat="47.27199" lon="-2.45275">
        <ele>-0.20000000298023</ele>
        <time>2021-09-23T08:04:58.000Z</time>
      </trkpt>
      <trkpt lat="47.27197" lon="-2.45272">
        <ele>-0.20000000298023</ele>
        <time>2021-09-23T08:05:00.000Z</time>
      </trkpt>
      <trkpt lat="47.27196" lon="-2.45271">
        <ele>-0.20000000298023</ele>
        <time>2021-09-23T08:05:01.000Z</time>
      </trkpt>
      <trkpt lat="47.27183" lon="-2.45268">
        <ele>-0.20000000298023</ele>
        <time>2021-09-23T08:05:05.000Z</time>
      </trkpt>
      <trkpt lat="47.27157" lon="-2.4526">
        <ele>-0.20000000298023</ele>
        <time>2021-09-23T08:05:11.000Z</time>
      </trkpt>
      <trkpt lat="47.27153" lon="-2.45258">
        <ele>-0.20000000298023</ele>
        <time>2021-09-23T08:05:12.000Z</time>
      </trkpt>
      <trkpt lat="47.2714" lon="-2.4526">
        <ele>-0.20000000298023</ele>
        <time>2021-09-23T08:05:15.000Z</time>
      </trkpt>
      <trkpt lat="47.27131" lon="-2.45259">
        <ele>-0.20000000298023</ele>
        <time>2021-09-23T08:05:17.000Z</time>
      </trkpt>
      <trkpt lat="47.27109" lon="-2.45262">
        <ele>-0.20000000298023</ele>
        <time>2021-09-23T08:05:22.000Z</time>
      </trkpt>
      <trkpt lat="47.27087" lon="-2.45269">
        <ele>-0.20000000298023</ele>
        <time>2021-09-23T08:05:28.000Z</time>
      </trkpt>
      <trkpt lat="47.27082" lon="-2.45273">
        <ele>-0.20000000298023</ele>
        <time>2021-09-23T08:05:30.000Z</time>
      </trkpt>
      <trkpt lat="47.27081" lon="-2.45276">
        <ele>-0.20000000298023</ele>
        <time>2021-09-23T08:05:31.000Z</time>
      </trkpt>
      <trkpt lat="47.27084" lon="-2.45284">
        <ele>-0.20000000298023</ele>
        <time>2021-09-23T08:05:34.000Z</time>
      </trkpt>
      <trkpt lat="47.27088" lon="-2.45288">
        <ele>-0.20000000298023</ele>
        <time>2021-09-23T08:05:36.000Z</time>
      </trkpt>
      <trkpt lat="47.27101" lon="-2.45305">
        <ele>-0.20000000298023</ele>
        <time>2021-09-23T08:05:41.000Z</time>
      </trkpt>
      <trkpt lat="47.27122" lon="-2.45338">
        <ele>-0.20000000298023</ele>
        <time>2021-09-23T08:05:48.000Z</time>
      </trkpt>
      <trkpt lat="47.27138" lon="-2.4536">
        <ele>-0.20000000298023</ele>
        <time>2021-09-23T08:05:54.000Z</time>
      </trkpt>
      <trkpt lat="47.27153" lon="-2.45376">
        <ele>-0.20000000298023</ele>
        <time>2021-09-23T08:06:00.000Z</time>
      </trkpt>
      <trkpt lat="47.27168" lon="-2.4539">
        <ele>-0.20000000298023</ele>
        <time>2021-09-23T08:06:05.000Z</time>
      </trkpt>
      <trkpt lat="47.27189" lon="-2.45409">
        <ele>-0.20000000298023</ele>
        <time>2021-09-23T08:06:11.000Z</time>
      </trkpt>
      <trkpt lat="47.2721" lon="-2.45428">
        <ele>-0.60000002384186</ele>
        <time>2021-09-23T08:06:18.000Z</time>
      </trkpt>
      <trkpt lat="47.27213" lon="-2.45431">
        <ele>-1</ele>
        <time>2021-09-23T08:06:19.000Z</time>
      </trkpt>
      <trkpt lat="47.27216" lon="-2.45433">
        <ele>-1.3999999761581</ele>
        <time>2021-09-23T08:06:20.000Z</time>
      </trkpt>
      <trkpt lat="47.27219" lon="-2.45436">
        <ele>-2.2000000476837</ele>
        <time>2021-09-23T08:06:21.000Z</time>
      </trkpt>
      <trkpt lat="47.27231" lon="-2.45447">
        <ele>-2.2000000476837</ele>
        <time>2021-09-23T08:06:25.000Z</time>
      </trkpt>
      <trkpt lat="47.27249" lon="-2.45465">
        <ele>-2.2000000476837</ele>
        <time>2021-09-23T08:06:31.000Z</time>
      </trkpt>
      <trkpt lat="47.27267" lon="-2.45494">
        <ele>-2.2000000476837</ele>
        <time>2021-09-23T08:06:39.000Z</time>
      </trkpt>
      <trkpt lat="47.27282" lon="-2.45525">
        <ele>-2.2000000476837</ele>
        <time>2021-09-23T08:06:46.000Z</time>
      </trkpt>
      <trkpt lat="47.27294" lon="-2.45555">
        <ele>-2.2000000476837</ele>
        <time>2021-09-23T08:06:53.000Z</time>
      </trkpt>
      <trkpt lat="47.27304" lon="-2.45585">
        <ele>-2.2000000476837</ele>
        <time>2021-09-23T08:07:00.000Z</time>
      </trkpt>
      <trkpt lat="47.27312" lon="-2.45604">
        <ele>-2.2000000476837</ele>
        <time>2021-09-23T08:07:06.000Z</time>
      </trkpt>
      <trkpt lat="47.27325" lon="-2.45604">
        <ele>-2.2000000476837</ele>
        <time>2021-09-23T08:07:10.000Z</time>
      </trkpt>
      <trkpt lat="47.27337" lon="-2.45596">
        <ele>-2.2000000476837</ele>
        <time>2021-09-23T08:07:13.000Z</time>
      </trkpt>
      <trkpt lat="47.27342" lon="-2.45594">
        <ele>-1.7999999523163</ele>
        <time>2021-09-23T08:07:14.000Z</time>
      </trkpt>
      <trkpt lat="47.27346" lon="-2.45591">
        <ele>-1.3999999761581</ele>
        <time>2021-09-23T08:07:15.000Z</time>
      </trkpt>
      <trkpt lat="47.27351" lon="-2.45589">
        <ele>-0.80000001192093</ele>
        <time>2021-09-23T08:07:16.000Z</time>
      </trkpt>
      <trkpt lat="47.27355" lon="-2.45587">
        <ele>-0.40000000596046</ele>
        <time>2021-09-23T08:07:17.000Z</time>
      </trkpt>
      <trkpt lat="47.2736" lon="-2.45584">
        <ele>8</ele>
        <time>2021-09-23T08:07:18.000Z</time>
      </trkpt>
      <trkpt lat="47.27374" lon="-2.45576">
        <ele>7.9</ele>
        <time>2021-09-23T08:07:21.000Z</time>
      </trkpt>
      <trkpt lat="47.27379" lon="-2.45575">
        <ele>7.9</ele>
        <time>2021-09-23T08:07:22.000Z</time>
      </trkpt>
      <trkpt lat="47.27411" lon="-2.45564">
        <ele>8</ele>
        <time>2021-09-23T08:07:29.000Z</time>
      </trkpt>
      <trkpt lat="47.27425" lon="-2.45557">
        <ele>8</ele>
        <time>2021-09-23T08:07:32.000Z</time>
      </trkpt>
      <trkpt lat="47.27433" lon="-2.45547">
        <ele>7.9</ele>
        <time>2021-09-23T08:07:34.000Z</time>
      </trkpt>
      <trkpt lat="47.27436" lon="-2.45526">
        <ele>7.7</ele>
        <time>2021-09-23T08:07:37.000Z</time>
      </trkpt>
      <trkpt lat="47.27437" lon="-2.45519">
        <ele>7.7</ele>
        <time>2021-09-23T08:07:38.000Z</time>
      </trkpt>
      <trkpt lat="47.27442" lon="-2.4551">
        <ele>7.9</ele>
        <time>2021-09-23T08:07:40.000Z</time>
      </trkpt>
      <trkpt lat="47.27451" lon="-2.45505">
        <ele>8</ele>
        <time>2021-09-23T08:07:42.000Z</time>
      </trkpt>
      <trkpt lat="47.27465" lon="-2.45497">
        <ele>8</ele>
        <time>2021-09-23T08:07:45.000Z</time>
      </trkpt>
      <trkpt lat="47.2749" lon="-2.45478">
        <ele>8.6</ele>
        <time>2021-09-23T08:07:51.000Z</time>
      </trkpt>
      <trkpt lat="47.27495" lon="-2.45463">
        <ele>8.5</ele>
        <time>2021-09-23T08:07:54.000Z</time>
      </trkpt>
      <trkpt lat="47.27493" lon="-2.45449">
        <ele>7.9</ele>
        <time>2021-09-23T08:07:56.000Z</time>
      </trkpt>
      <trkpt lat="47.2749" lon="-2.45427">
        <ele>7.6</ele>
        <time>2021-09-23T08:07:59.000Z</time>
      </trkpt>
      <trkpt lat="47.27488" lon="-2.45412">
        <ele>7.4</ele>
        <time>2021-09-23T08:08:01.000Z</time>
      </trkpt>
      <trkpt lat="47.27492" lon="-2.45402">
        <ele>7.2</ele>
        <time>2021-09-23T08:08:03.000Z</time>
      </trkpt>
      <trkpt lat="47.27501" lon="-2.45399">
        <ele>7.4</ele>
        <time>2021-09-23T08:08:05.000Z</time>
      </trkpt>
      <trkpt lat="47.2751" lon="-2.45397">
        <ele>7.4</ele>
        <time>2021-09-23T08:08:07.000Z</time>
      </trkpt>
      <trkpt lat="47.27515" lon="-2.45395">
        <ele>7.4</ele>
        <time>2021-09-23T08:08:08.000Z</time>
      </trkpt>
      <trkpt lat="47.27535" lon="-2.45385">
        <ele>6.9</ele>
        <time>2021-09-23T08:08:12.000Z</time>
      </trkpt>
      <trkpt lat="47.27568" lon="-2.45371">
        <ele>6.6</ele>
        <time>2021-09-23T08:08:18.000Z</time>
      </trkpt>
      <trkpt lat="47.27611" lon="-2.45361">
        <ele>7</ele>
        <time>2021-09-23T08:08:26.000Z</time>
      </trkpt>
      <trkpt lat="47.2762" lon="-2.45373">
        <ele>7</ele>
        <time>2021-09-23T08:08:29.000Z</time>
      </trkpt>
      <trkpt lat="47.27621" lon="-2.45386">
        <ele>7</ele>
        <time>2021-09-23T08:08:31.000Z</time>
      </trkpt>
      <trkpt lat="47.27625" lon="-2.45414">
        <ele>7.4</ele>
        <time>2021-09-23T08:08:35.000Z</time>
      </trkpt>
      <trkpt lat="47.27627" lon="-2.45457">
        <ele>8.2</ele>
        <time>2021-09-23T08:08:41.000Z</time>
      </trkpt>
      <trkpt lat="47.27628" lon="-2.45464">
        <ele>8.3</ele>
        <time>2021-09-23T08:08:42.000Z</time>
      </trkpt>
      <trkpt lat="47.27638" lon="-2.45516">
        <ele>9</ele>
        <time>2021-09-23T08:08:49.000Z</time>
      </trkpt>
      <trkpt lat="47.27651" lon="-2.45573">
        <ele>9.8</ele>
        <time>2021-09-23T08:08:57.000Z</time>
      </trkpt>
      <trkpt lat="47.27667" lon="-2.45636">
        <ele>9.1</ele>
        <time>2021-09-23T08:09:06.000Z</time>
      </trkpt>
      <trkpt lat="47.27674" lon="-2.45659">
        <ele>8.5</ele>
        <time>2021-09-23T08:09:10.000Z</time>
      </trkpt>
      <trkpt lat="47.27674" lon="-2.45664">
        <ele>8.5</ele>
        <time>2021-09-23T08:09:11.000Z</time>
      </trkpt>
      <trkpt lat="47.27672" lon="-2.45674">
        <ele>8.4</ele>
        <time>2021-09-23T08:09:13.000Z</time>
      </trkpt>
      <trkpt lat="47.27657" lon="-2.45688">
        <ele>8.5</ele>
        <time>2021-09-23T08:09:17.000Z</time>
      </trkpt>
      <trkpt lat="47.27648" lon="-2.45694">
        <ele>8.7</ele>
        <time>2021-09-23T08:09:19.000Z</time>
      </trkpt>
      <trkpt lat="47.27633" lon="-2.45703">
        <ele>9.1</ele>
        <time>2021-09-23T08:09:23.000Z</time>
      </trkpt>
      <trkpt lat="47.27631" lon="-2.45707">
        <ele>9.1</ele>
        <time>2021-09-23T08:09:24.000Z</time>
      </trkpt>
      <trkpt lat="47.2763" lon="-2.45718">
        <ele>9.3</ele>
        <time>2021-09-23T08:09:26.000Z</time>
      </trkpt>
      <trkpt lat="47.27633" lon="-2.4573">
        <ele>8.9</ele>
        <time>2021-09-23T08:09:28.000Z</time>
      </trkpt>
      <trkpt lat="47.27635" lon="-2.45737">
        <ele>8.5</ele>
        <time>2021-09-23T08:09:29.000Z</time>
      </trkpt>
      <trkpt lat="47.27638" lon="-2.45754">
        <ele>7.9</ele>
        <time>2021-09-23T08:09:31.000Z</time>
      </trkpt>
      <trkpt lat="47.27643" lon="-2.45802">
        <ele>6.1</ele>
        <time>2021-09-23T08:09:36.000Z</time>
      </trkpt>
      <trkpt lat="47.27644" lon="-2.4583">
        <ele>-0.40000000596046</ele>
        <time>2021-09-23T08:09:39.000Z</time>
      </trkpt>
      <trkpt lat="47.27643" lon="-2.4584">
        <ele>-0.80000001192093</ele>
        <time>2021-09-23T08:09:40.000Z</time>
      </trkpt>
      <trkpt lat="47.27643" lon="-2.45849">
        <ele>-1.2000000476837</ele>
        <time>2021-09-23T08:09:41.000Z</time>
      </trkpt>
      <trkpt lat="47.27642" lon="-2.45858">
        <ele>-1.6000000238419</ele>
        <time>2021-09-23T08:09:42.000Z</time>
      </trkpt>
      <trkpt lat="47.27642" lon="-2.45868">
        <ele>-2.2000000476837</ele>
        <time>2021-09-23T08:09:43.000Z</time>
      </trkpt>
      <trkpt lat="47.27641" lon="-2.45907">
        <ele>-2.2000000476837</ele>
        <time>2021-09-23T08:09:47.000Z</time>
      </trkpt>
      <trkpt lat="47.27639" lon="-2.45949">
        <ele>-2.2000000476837</ele>
        <time>2021-09-23T08:09:52.000Z</time>
      </trkpt>
      <trkpt lat="47.27631" lon="-2.45963">
        <ele>-2.2000000476837</ele>
        <time>2021-09-23T08:09:55.000Z</time>
      </trkpt>
      <trkpt lat="47.27626" lon="-2.45965">
        <ele>-2.2000000476837</ele>
        <time>2021-09-23T08:09:56.000Z</time>
      </trkpt>
      <trkpt lat="47.27621" lon="-2.45969">
        <ele>-2.2000000476837</ele>
        <time>2021-09-23T08:09:57.000Z</time>
      </trkpt>
      <trkpt lat="47.27606" lon="-2.45981">
        <ele>-2.2000000476837</ele>
        <time>2021-09-23T08:10:00.000Z</time>
      </trkpt>
      <trkpt lat="47.27571" lon="-2.46015">
        <ele>-2.2000000476837</ele>
        <time>2021-09-23T08:10:07.000Z</time>
      </trkpt>
      <trkpt lat="47.2754" lon="-2.46042">
        <ele>-2.2000000476837</ele>
        <time>2021-09-23T08:10:13.000Z</time>
      </trkpt>
      <trkpt lat="47.27513" lon="-2.46061">
        <ele>-2.2000000476837</ele>
        <time>2021-09-23T08:10:18.000Z</time>
      </trkpt>
      <trkpt lat="47.27483" lon="-2.46087">
        <ele>-2.2000000476837</ele>
        <time>2021-09-23T08:10:24.000Z</time>
      </trkpt>
      <trkpt lat="47.27459" lon="-2.46107">
        <ele>-2.2000000476837</ele>
        <time>2021-09-23T08:10:29.000Z</time>
      </trkpt>
      <trkpt lat="47.2743" lon="-2.46128">
        <ele>-2.2000000476837</ele>
        <time>2021-09-23T08:10:35.000Z</time>
      </trkpt>
      <trkpt lat="47.27426" lon="-2.46129">
        <ele>-2.2000000476837</ele>
        <time>2021-09-23T08:10:36.000Z</time>
      </trkpt>
      <trkpt lat="47.27394" lon="-2.46138">
        <ele>-2.2000000476837</ele>
        <time>2021-09-23T08:10:42.000Z</time>
      </trkpt>
      <trkpt lat="47.27366" lon="-2.46143">
        <ele>-2.2000000476837</ele>
        <time>2021-09-23T08:10:47.000Z</time>
      </trkpt>
      <trkpt lat="47.27355" lon="-2.46143">
        <ele>-2.2000000476837</ele>
        <time>2021-09-23T08:10:49.000Z</time>
      </trkpt>
      <trkpt lat="47.27335" lon="-2.46145">
        <ele>-2.2000000476837</ele>
        <time>2021-09-23T08:10:53.000Z</time>
      </trkpt>
      <trkpt lat="47.27326" lon="-2.46152">
        <ele>-2.2000000476837</ele>
        <time>2021-09-23T08:10:55.000Z</time>
      </trkpt>
      <trkpt lat="47.27316" lon="-2.4616">
        <ele>-2.2000000476837</ele>
        <time>2021-09-23T08:10:57.000Z</time>
      </trkpt>
      <trkpt lat="47.27307" lon="-2.46168">
        <ele>-2.2000000476837</ele>
        <time>2021-09-23T08:10:59.000Z</time>
      </trkpt>
      <trkpt lat="47.27302" lon="-2.46172">
        <ele>-2.2000000476837</ele>
        <time>2021-09-23T08:11:00.000Z</time>
      </trkpt>
      <trkpt lat="47.27276" lon="-2.46191">
        <ele>-2.2000000476837</ele>
        <time>2021-09-23T08:11:05.000Z</time>
      </trkpt>
      <trkpt lat="47.27263" lon="-2.46202">
        <ele>-2.2000000476837</ele>
        <time>2021-09-23T08:11:08.000Z</time>
      </trkpt>
      <trkpt lat="47.2726" lon="-2.46207">
        <ele>-2.2000000476837</ele>
        <time>2021-09-23T08:11:09.000Z</time>
      </trkpt>
      <trkpt lat="47.27262" lon="-2.46218">
        <ele>-2.2000000476837</ele>
        <time>2021-09-23T08:11:11.000Z</time>
      </trkpt>
      <trkpt lat="47.27264" lon="-2.46223">
        <ele>-2.2000000476837</ele>
        <time>2021-09-23T08:11:12.000Z</time>
      </trkpt>
      <trkpt lat="47.27275" lon="-2.4625">
        <ele>-2.2000000476837</ele>
        <time>2021-09-23T08:11:16.000Z</time>
      </trkpt>
      <trkpt lat="47.27296" lon="-2.46297">
        <ele>-1.7999999523163</ele>
        <time>2021-09-23T08:11:22.000Z</time>
      </trkpt>
      <trkpt lat="47.27299" lon="-2.46305">
        <ele>-1.2000000476837</ele>
        <time>2021-09-23T08:11:23.000Z</time>
      </trkpt>
      <trkpt lat="47.27302" lon="-2.46313">
        <ele>-0.80000001192093</ele>
        <time>2021-09-23T08:11:24.000Z</time>
      </trkpt>
      <trkpt lat="47.27305" lon="-2.46321">
        <ele>-0.40000000596046</ele>
        <time>2021-09-23T08:11:25.000Z</time>
      </trkpt>
      <trkpt lat="47.27308" lon="-2.46329">
        <ele>8.1</ele>
        <time>2021-09-23T08:11:26.000Z</time>
      </trkpt>
      <trkpt lat="47.27323" lon="-2.46367">
        <ele>9</ele>
        <time>2021-09-23T08:11:31.000Z</time>
      </trkpt>
      <trkpt lat="47.27342" lon="-2.46421">
        <ele>9.1</ele>
        <time>2021-09-23T08:11:38.000Z</time>
      </trkpt>
      <trkpt lat="47.27361" lon="-2.46472">
        <ele>10</ele>
        <time>2021-09-23T08:11:45.000Z</time>
      </trkpt>
      <trkpt lat="47.27364" lon="-2.4648">
        <ele>10</ele>
        <time>2021-09-23T08:11:46.000Z</time>
      </trkpt>
      <trkpt lat="47.27375" lon="-2.46517">
        <ele>10</ele>
        <time>2021-09-23T08:11:51.000Z</time>
      </trkpt>
      <trkpt lat="47.27378" lon="-2.46522">
        <ele>10</ele>
        <time>2021-09-23T08:11:52.000Z</time>
      </trkpt>
      <trkpt lat="47.27391" lon="-2.46523">
        <ele>9.9</ele>
        <time>2021-09-23T08:11:55.000Z</time>
      </trkpt>
      <trkpt lat="47.27401" lon="-2.46512">
        <ele>9.5</ele>
        <time>2021-09-23T08:11:57.000Z</time>
      </trkpt>
      <trkpt lat="47.27411" lon="-2.46502">
        <ele>0.40000000596046</ele>
        <time>2021-09-23T08:11:59.000Z</time>
      </trkpt>
      <trkpt lat="47.27417" lon="-2.46497">
        <ele>0.80000001192093</ele>
        <time>2021-09-23T08:12:00.000Z</time>
      </trkpt>
      <trkpt lat="47.27422" lon="-2.46492">
        <ele>1.3999999761581</ele>
        <time>2021-09-23T08:12:01.000Z</time>
      </trkpt>
      <trkpt lat="47.27428" lon="-2.46487">
        <ele>1.7999999523163</ele>
        <time>2021-09-23T08:12:02.000Z</time>
      </trkpt>
      <trkpt lat="47.27434" lon="-2.46481">
        <ele>2.2000000476837</ele>
        <time>2021-09-23T08:12:03.000Z</time>
      </trkpt>
      <trkpt lat="47.27463" lon="-2.46453">
        <ele>2.2000000476837</ele>
        <time>2021-09-23T08:12:08.000Z</time>
      </trkpt>
      <trkpt lat="47.27512" lon="-2.46413">
        <ele>2.2000000476837</ele>
        <time>2021-09-23T08:12:16.000Z</time>
      </trkpt>
      <trkpt lat="47.27517" lon="-2.46409">
        <ele>2.2000000476837</ele>
        <time>2021-09-23T08:12:17.000Z</time>
      </trkpt>
      <trkpt lat="47.27559" lon="-2.46372">
        <ele>2.2000000476837</ele>
        <time>2021-09-23T08:12:25.000Z</time>
      </trkpt>
      <trkpt lat="47.27573" lon="-2.46345">
        <ele>2.2000000476837</ele>
        <time>2021-09-23T08:12:29.000Z</time>
      </trkpt>
      <trkpt lat="47.27582" lon="-2.46333">
        <ele>2.2000000476837</ele>
        <time>2021-09-23T08:12:31.000Z</time>
      </trkpt>
      <trkpt lat="47.27597" lon="-2.4632">
        <ele>2.2000000476837</ele>
        <time>2021-09-23T08:12:34.000Z</time>
      </trkpt>
      <trkpt lat="47.27614" lon="-2.46315">
        <ele>2.2000000476837</ele>
        <time>2021-09-23T08:12:37.000Z</time>
      </trkpt>
      <trkpt lat="47.2762" lon="-2.46313">
        <ele>2.2000000476837</ele>
        <time>2021-09-23T08:12:38.000Z</time>
      </trkpt>
      <trkpt lat="47.27635" lon="-2.46321">
        <ele>1.7999999523163</ele>
        <time>2021-09-23T08:12:41.000Z</time>
      </trkpt>
      <trkpt lat="47.2764" lon="-2.46327">
        <ele>1.3999999761581</ele>
        <time>2021-09-23T08:12:42.000Z</time>
      </trkpt>
      <trkpt lat="47.27644" lon="-2.46333">
        <ele>1</ele>
        <time>2021-09-23T08:12:43.000Z</time>
      </trkpt>
      <trkpt lat="47.27648" lon="-2.46339">
        <ele>0.60000002384186</ele>
        <time>2021-09-23T08:12:44.000Z</time>
      </trkpt>
      <trkpt lat="47.27653" lon="-2.46342">
        <ele>0.20000000298023</ele>
        <time>2021-09-23T08:12:45.000Z</time>
      </trkpt>
      <trkpt lat="47.2767" lon="-2.46349">
        <ele>0.20000000298023</ele>
        <time>2021-09-23T08:12:48.000Z</time>
      </trkpt>
      <trkpt lat="47.27675" lon="-2.46353">
        <ele>0.20000000298023</ele>
        <time>2021-09-23T08:12:49.000Z</time>
      </trkpt>
      <trkpt lat="47.2769" lon="-2.4638">
        <ele>0.20000000298023</ele>
        <time>2021-09-23T08:12:53.000Z</time>
      </trkpt>
      <trkpt lat="47.27709" lon="-2.46431">
        <ele>0.20000000298023</ele>
        <time>2021-09-23T08:12:59.000Z</time>
      </trkpt>
      <trkpt lat="47.27727" lon="-2.46472">
        <ele>0.20000000298023</ele>
        <time>2021-09-23T08:13:04.000Z</time>
      </trkpt>
      <trkpt lat="47.27729" lon="-2.4648">
        <ele>0.20000000298023</ele>
        <time>2021-09-23T08:13:05.000Z</time>
      </trkpt>
      <trkpt lat="47.27741" lon="-2.4653">
        <ele>0.20000000298023</ele>
        <time>2021-09-23T08:13:11.000Z</time>
      </trkpt>
      <trkpt lat="47.27755" lon="-2.46577">
        <ele>0.20000000298023</ele>
        <time>2021-09-23T08:13:17.000Z</time>
      </trkpt>
      <trkpt lat="47.27758" lon="-2.46583">
        <ele>0.20000000298023</ele>
        <time>2021-09-23T08:13:18.000Z</time>
      </trkpt>
      <trkpt lat="47.27765" lon="-2.46598">
        <ele>0.20000000298023</ele>
        <time>2021-09-23T08:13:21.000Z</time>
      </trkpt>
      <trkpt lat="47.27766" lon="-2.46608">
        <ele>-0.20000000298023</ele>
        <time>2021-09-23T08:13:23.000Z</time>
      </trkpt>
      <trkpt lat="47.27765" lon="-2.46612">
        <ele>-0.60000002384186</ele>
        <time>2021-09-23T08:13:24.000Z</time>
      </trkpt>
      <trkpt lat="47.27763" lon="-2.46616">
        <ele>-1</ele>
        <time>2021-09-23T08:13:25.000Z</time>
      </trkpt>
      <trkpt lat="47.27761" lon="-2.46621">
        <ele>-1.6000000238419</ele>
        <time>2021-09-23T08:13:26.000Z</time>
      </trkpt>
      <trkpt lat="47.2776" lon="-2.46626">
        <ele>-2</ele>
        <time>2021-09-23T08:13:27.000Z</time>
      </trkpt>
      <trkpt lat="47.27764" lon="-2.46648">
        <ele>-2</ele>
        <time>2021-09-23T08:13:31.000Z</time>
      </trkpt>
      <trkpt lat="47.27763" lon="-2.4666">
        <ele>-2</ele>
        <time>2021-09-23T08:13:33.000Z</time>
      </trkpt>
      <trkpt lat="47.27762" lon="-2.46667">
        <ele>-2</ele>
        <time>2021-09-23T08:13:34.000Z</time>
      </trkpt>
      <trkpt lat="47.27761" lon="-2.46698">
        <ele>-2</ele>
        <time>2021-09-23T08:13:38.000Z</time>
      </trkpt>
      <trkpt lat="47.27759" lon="-2.46706">
        <ele>-2</ele>
        <time>2021-09-23T08:13:39.000Z</time>
      </trkpt>
      <trkpt lat="47.27759" lon="-2.46728">
        <ele>-2</ele>
        <time>2021-09-23T08:13:42.000Z</time>
      </trkpt>
      <trkpt lat="47.27762" lon="-2.46754">
        <ele>-2.4000000953674</ele>
        <time>2021-09-23T08:13:46.000Z</time>
      </trkpt>
      <trkpt lat="47.27764" lon="-2.46761">
        <ele>-2.7999999523163</ele>
        <time>2021-09-23T08:13:47.000Z</time>
      </trkpt>
      <trkpt lat="47.27766" lon="-2.46768">
        <ele>-3.2000000476837</ele>
        <time>2021-09-23T08:13:48.000Z</time>
      </trkpt>
      <trkpt lat="47.27768" lon="-2.46775">
        <ele>-3.5999999046326</ele>
        <time>2021-09-23T08:13:49.000Z</time>
      </trkpt>
      <trkpt lat="47.2777" lon="-2.46783">
        <ele>-4</ele>
        <time>2021-09-23T08:13:50.000Z</time>
      </trkpt>
      <trkpt lat="47.27772" lon="-2.46789">
        <ele>-4</ele>
        <time>2021-09-23T08:13:51.000Z</time>
      </trkpt>
      <trkpt lat="47.27775" lon="-2.46803">
        <ele>-4</ele>
        <time>2021-09-23T08:13:53.000Z</time>
      </trkpt>
      <trkpt lat="47.27782" lon="-2.46829">
        <ele>-4</ele>
        <time>2021-09-23T08:13:57.000Z</time>
      </trkpt>
      <trkpt lat="47.27784" lon="-2.46843">
        <ele>-4</ele>
        <time>2021-09-23T08:13:59.000Z</time>
      </trkpt>
      <trkpt lat="47.27784" lon="-2.4685">
        <ele>-4</ele>
        <time>2021-09-23T08:14:00.000Z</time>
      </trkpt>
      <trkpt lat="47.27782" lon="-2.46878">
        <ele>-4</ele>
        <time>2021-09-23T08:14:04.000Z</time>
      </trkpt>
      <trkpt lat="47.27778" lon="-2.46893">
        <ele>-4</ele>
        <time>2021-09-23T08:14:06.000Z</time>
      </trkpt>
      <trkpt lat="47.27771" lon="-2.46912">
        <ele>-4</ele>
        <time>2021-09-23T08:14:09.000Z</time>
      </trkpt>
      <trkpt lat="47.27769" lon="-2.4693">
        <ele>-4</ele>
        <time>2021-09-23T08:14:12.000Z</time>
      </trkpt>
      <trkpt lat="47.27762" lon="-2.46935">
        <ele>-4</ele>
        <time>2021-09-23T08:14:15.000Z</time>
      </trkpt>
      <trkpt lat="47.27759" lon="-2.46935">
        <ele>-4</ele>
        <time>2021-09-23T08:14:16.000Z</time>
      </trkpt>
      <trkpt lat="47.27745" lon="-2.46935">
        <ele>-4</ele>
        <time>2021-09-23T08:14:19.000Z</time>
      </trkpt>
      <trkpt lat="47.27727" lon="-2.46936">
        <ele>-3.5999999046326</ele>
        <time>2021-09-23T08:14:23.000Z</time>
      </trkpt>
      <trkpt lat="47.27723" lon="-2.46936">
        <ele>-3.2000000476837</ele>
        <time>2021-09-23T08:14:24.000Z</time>
      </trkpt>
      <trkpt lat="47.27719" lon="-2.46936">
        <ele>-2.7999999523163</ele>
        <time>2021-09-23T08:14:25.000Z</time>
      </trkpt>
      <trkpt lat="47.27715" lon="-2.46936">
        <ele>-2.4000000953674</ele>
        <time>2021-09-23T08:14:26.000Z</time>
      </trkpt>
      <trkpt lat="47.27711" lon="-2.46936">
        <ele>-2</ele>
        <time>2021-09-23T08:14:27.000Z</time>
      </trkpt>
      <trkpt lat="47.27693" lon="-2.46933">
        <ele>-2</ele>
        <time>2021-09-23T08:14:31.000Z</time>
      </trkpt>
      <trkpt lat="47.27689" lon="-2.46932">
        <ele>-2</ele>
        <time>2021-09-23T08:14:32.000Z</time>
      </trkpt>
      <trkpt lat="47.27679" lon="-2.46929">
        <ele>-2</ele>
        <time>2021-09-23T08:14:34.000Z</time>
      </trkpt>
      <trkpt lat="47.2767" lon="-2.46932">
        <ele>-2</ele>
        <time>2021-09-23T08:14:36.000Z</time>
      </trkpt>
      <trkpt lat="47.27666" lon="-2.46948">
        <ele>-2</ele>
        <time>2021-09-23T08:14:39.000Z</time>
      </trkpt>
      <trkpt lat="47.27665" lon="-2.46954">
        <ele>-2</ele>
        <time>2021-09-23T08:14:40.000Z</time>
      </trkpt>
      <trkpt lat="47.27664" lon="-2.46976">
        <ele>-2</ele>
        <time>2021-09-23T08:14:43.000Z</time>
      </trkpt>
      <trkpt lat="47.27658" lon="-2.46992">
        <ele>-2</ele>
        <time>2021-09-23T08:14:47.000Z</time>
      </trkpt>
      <trkpt lat="47.27646" lon="-2.46991">
        <ele>-2</ele>
        <time>2021-09-23T08:14:50.000Z</time>
      </trkpt>
      <trkpt lat="47.27642" lon="-2.4699">
        <ele>-2</ele>
        <time>2021-09-23T08:14:51.000Z</time>
      </trkpt>
      <trkpt lat="47.27621" lon="-2.46993">
        <ele>-2</ele>
        <time>2021-09-23T08:14:57.000Z</time>
      </trkpt>
      <trkpt lat="47.27618" lon="-2.46993">
        <ele>-1.3999999761581</ele>
        <time>2021-09-23T08:14:58.000Z</time>
      </trkpt>
      <trkpt lat="47.27615" lon="-2.46993">
        <ele>-0.60000002384186</ele>
        <time>2021-09-23T08:14:59.000Z</time>
      </trkpt>
      <trkpt lat="47.27613" lon="-2.46994">
        <ele>-0.20000000298023</ele>
        <time>2021-09-23T08:15:00.000Z</time>
      </trkpt>
      <trkpt lat="47.2761" lon="-2.46994">
        <ele>0.20000000298023</ele>
        <time>2021-09-23T08:15:01.000Z</time>
      </trkpt>
      <trkpt lat="47.27607" lon="-2.46995">
        <ele>0.20000000298023</ele>
        <time>2021-09-23T08:15:02.000Z</time>
      </trkpt>
      <trkpt lat="47.27604" lon="-2.46995">
        <ele>0.60000002384186</ele>
        <time>2021-09-23T08:15:03.000Z</time>
      </trkpt>
      <trkpt lat="47.27601" lon="-2.46995">
        <ele>1.2000000476837</ele>
        <time>2021-09-23T08:15:04.000Z</time>
      </trkpt>
      <trkpt lat="47.27597" lon="-2.46995">
        <ele>1.6000000238419</ele>
        <time>2021-09-23T08:15:05.000Z</time>
      </trkpt>
      <trkpt lat="47.27594" lon="-2.46995">
        <ele>2</ele>
        <time>2021-09-23T08:15:06.000Z</time>
      </trkpt>
      <trkpt lat="47.2759" lon="-2.46994">
        <ele>2.4000000953674</ele>
        <time>2021-09-23T08:15:07.000Z</time>
      </trkpt>
      <trkpt lat="47.27582" lon="-2.46991">
        <ele>2.4000000953674</ele>
        <time>2021-09-23T08:15:09.000Z</time>
      </trkpt>
      <trkpt lat="47.27573" lon="-2.46987">
        <ele>2.4000000953674</ele>
        <time>2021-09-23T08:15:11.000Z</time>
      </trkpt>
      <trkpt lat="47.27564" lon="-2.46981">
        <ele>2.4000000953674</ele>
        <time>2021-09-23T08:15:13.000Z</time>
      </trkpt>
      <trkpt lat="47.27559" lon="-2.4698">
        <ele>2.4000000953674</ele>
        <time>2021-09-23T08:15:14.000Z</time>
      </trkpt>
      <trkpt lat="47.27543" lon="-2.4699">
        <ele>2.4000000953674</ele>
        <time>2021-09-23T08:15:18.000Z</time>
      </trkpt>
      <trkpt lat="47.27538" lon="-2.47">
        <ele>2.4000000953674</ele>
        <time>2021-09-23T08:15:20.000Z</time>
      </trkpt>
      <trkpt lat="47.2753" lon="-2.47016">
        <ele>2.4000000953674</ele>
        <time>2021-09-23T08:15:23.000Z</time>
      </trkpt>
      <trkpt lat="47.27521" lon="-2.4703">
        <ele>2.4000000953674</ele>
        <time>2021-09-23T08:15:26.000Z</time>
      </trkpt>
      <trkpt lat="47.27505" lon="-2.47051">
        <ele>2.4000000953674</ele>
        <time>2021-09-23T08:15:31.000Z</time>
      </trkpt>
      <trkpt lat="47.27481" lon="-2.47081">
        <ele>2.4000000953674</ele>
        <time>2021-09-23T08:15:39.000Z</time>
      </trkpt>
      <trkpt lat="47.27478" lon="-2.47092">
        <ele>2.4000000953674</ele>
        <time>2021-09-23T08:15:42.000Z</time>
      </trkpt>
      <trkpt lat="47.27479" lon="-2.47097">
        <ele>2.4000000953674</ele>
        <time>2021-09-23T08:15:43.000Z</time>
      </trkpt>
      <trkpt lat="47.27484" lon="-2.47113">
        <ele>2.4000000953674</ele>
        <time>2021-09-23T08:15:46.000Z</time>
      </trkpt>
      <trkpt lat="47.27488" lon="-2.47124">
        <ele>2.4000000953674</ele>
        <time>2021-09-23T08:15:48.000Z</time>
      </trkpt>
      <trkpt lat="47.27503" lon="-2.47168">
        <ele>1.7999999523163</ele>
        <time>2021-09-23T08:15:56.000Z</time>
      </trkpt>
      <trkpt lat="47.27504" lon="-2.47174">
        <ele>1.3999999761581</ele>
        <time>2021-09-23T08:15:57.000Z</time>
      </trkpt>
      <trkpt lat="47.27505" lon="-2.4718">
        <ele>1</ele>
        <time>2021-09-23T08:15:58.000Z</time>
      </trkpt>
      <trkpt lat="47.27506" lon="-2.47186">
        <ele>0.60000002384186</ele>
        <time>2021-09-23T08:15:59.000Z</time>
      </trkpt>
      <trkpt lat="47.27505" lon="-2.47191">
        <ele>0.20000000298023</ele>
        <time>2021-09-23T08:16:00.000Z</time>
      </trkpt>
      <trkpt lat="47.27502" lon="-2.47195">
        <ele>0.20000000298023</ele>
        <time>2021-09-23T08:16:01.000Z</time>
      </trkpt>
      <trkpt lat="47.27486" lon="-2.47203">
        <ele>0.20000000298023</ele>
        <time>2021-09-23T08:16:05.000Z</time>
      </trkpt>
      <trkpt lat="47.27481" lon="-2.47205">
        <ele>0.20000000298023</ele>
        <time>2021-09-23T08:16:06.000Z</time>
      </trkpt>
      <trkpt lat="47.27456" lon="-2.47221">
        <ele>0.20000000298023</ele>
        <time>2021-09-23T08:16:12.000Z</time>
      </trkpt>
      <trkpt lat="47.27431" lon="-2.47238">
        <ele>0.20000000298023</ele>
        <time>2021-09-23T08:16:18.000Z</time>
      </trkpt>
      <trkpt lat="47.27414" lon="-2.47248">
        <ele>0.60000002384186</ele>
        <time>2021-09-23T08:16:22.000Z</time>
      </trkpt>
      <trkpt lat="47.2741" lon="-2.47251">
        <ele>1</ele>
        <time>2021-09-23T08:16:23.000Z</time>
      </trkpt>
      <trkpt lat="47.27405" lon="-2.47254">
        <ele>1.6000000238419</ele>
        <time>2021-09-23T08:16:24.000Z</time>
      </trkpt>
      <trkpt lat="47.27401" lon="-2.47257">
        <ele>2</ele>
        <time>2021-09-23T08:16:25.000Z</time>
      </trkpt>
      <trkpt lat="47.27398" lon="-2.4726">
        <ele>2.4000000953674</ele>
        <time>2021-09-23T08:16:26.000Z</time>
      </trkpt>
      <trkpt lat="47.27373" lon="-2.47282">
        <ele>2.4000000953674</ele>
        <time>2021-09-23T08:16:33.000Z</time>
      </trkpt>
      <trkpt lat="47.27349" lon="-2.473">
        <ele>2.4000000953674</ele>
        <time>2021-09-23T08:16:40.000Z</time>
      </trkpt>
      <trkpt lat="47.27339" lon="-2.47302">
        <ele>2.7999999523163</ele>
        <time>2021-09-23T08:16:43.000Z</time>
      </trkpt>
      <trkpt lat="47.27335" lon="-2.47302">
        <ele>3.2000000476837</ele>
        <time>2021-09-23T08:16:44.000Z</time>
      </trkpt>
      <trkpt lat="47.27331" lon="-2.47303">
        <ele>3.7999999523163</ele>
        <time>2021-09-23T08:16:45.000Z</time>
      </trkpt>
      <trkpt lat="47.27328" lon="-2.47305">
        <ele>4.1999998092651</ele>
        <time>2021-09-23T08:16:46.000Z</time>
      </trkpt>
      <trkpt lat="47.27326" lon="-2.47308">
        <ele>4.5999999046326</ele>
        <time>2021-09-23T08:16:47.000Z</time>
      </trkpt>
      <trkpt lat="47.27315" lon="-2.47316">
        <ele>4.5999999046326</ele>
        <time>2021-09-23T08:16:51.000Z</time>
      </trkpt>
      <trkpt lat="47.27299" lon="-2.47335">
        <ele>4.5999999046326</ele>
        <time>2021-09-23T08:16:57.000Z</time>
      </trkpt>
      <trkpt lat="47.27299" lon="-2.4734">
        <ele>5</ele>
        <time>2021-09-23T08:16:58.000Z</time>
      </trkpt>
      <trkpt lat="47.27299" lon="-2.47345">
        <ele>5.4000000953674</ele>
        <time>2021-09-23T08:16:59.000Z</time>
      </trkpt>
      <trkpt lat="47.27299" lon="-2.47351">
        <ele>5.8000001907349</ele>
        <time>2021-09-23T08:17:00.000Z</time>
      </trkpt>
      <trkpt lat="47.27298" lon="-2.47357">
        <ele>6.1999998092651</ele>
        <time>2021-09-23T08:17:01.000Z</time>
      </trkpt>
      <trkpt lat="47.27297" lon="-2.47364">
        <ele>6.5999999046326</ele>
        <time>2021-09-23T08:17:02.000Z</time>
      </trkpt>
      <trkpt lat="47.27293" lon="-2.47377">
        <ele>6.5999999046326</ele>
        <time>2021-09-23T08:17:04.000Z</time>
      </trkpt>
      <trkpt lat="47.27288" lon="-2.47387">
        <ele>6.5999999046326</ele>
        <time>2021-09-23T08:17:06.000Z</time>
      </trkpt>
      <trkpt lat="47.27272" lon="-2.47413">
        <ele>6.5999999046326</ele>
        <time>2021-09-23T08:17:11.000Z</time>
      </trkpt>
      <trkpt lat="47.2727" lon="-2.47419">
        <ele>6.5999999046326</ele>
        <time>2021-09-23T08:17:12.000Z</time>
      </trkpt>
      <trkpt lat="47.27271" lon="-2.47441">
        <ele>6.5999999046326</ele>
        <time>2021-09-23T08:17:15.000Z</time>
      </trkpt>
      <trkpt lat="47.27273" lon="-2.47454">
        <ele>6.5999999046326</ele>
        <time>2021-09-23T08:17:17.000Z</time>
      </trkpt>
      <trkpt lat="47.27277" lon="-2.47476">
        <ele>6.5999999046326</ele>
        <time>2021-09-23T08:17:20.000Z</time>
      </trkpt>
      <trkpt lat="47.27283" lon="-2.47502">
        <ele>6.5999999046326</ele>
        <time>2021-09-23T08:17:24.000Z</time>
      </trkpt>
      <trkpt lat="47.27285" lon="-2.47508">
        <ele>6.5999999046326</ele>
        <time>2021-09-23T08:17:25.000Z</time>
      </trkpt>
      <trkpt lat="47.27295" lon="-2.47548">
        <ele>6.5999999046326</ele>
        <time>2021-09-23T08:17:31.000Z</time>
      </trkpt>
      <trkpt lat="47.27307" lon="-2.4757">
        <ele>6.5999999046326</ele>
        <time>2021-09-23T08:17:36.000Z</time>
      </trkpt>
      <trkpt lat="47.27307" lon="-2.47574">
        <ele>6.5999999046326</ele>
        <time>2021-09-23T08:17:37.000Z</time>
      </trkpt>
      <trkpt lat="47.27304" lon="-2.4758">
        <ele>6.5999999046326</ele>
        <time>2021-09-23T08:17:39.000Z</time>
      </trkpt>
      <trkpt lat="47.27304" lon="-2.47589">
        <ele>6.5999999046326</ele>
        <time>2021-09-23T08:17:42.000Z</time>
      </trkpt>
      <trkpt lat="47.27315" lon="-2.47605">
        <ele>6.5999999046326</ele>
        <time>2021-09-23T08:17:46.000Z</time>
      </trkpt>
      <trkpt lat="47.27318" lon="-2.4761">
        <ele>6.5999999046326</ele>
        <time>2021-09-23T08:17:47.000Z</time>
      </trkpt>
      <trkpt lat="47.27324" lon="-2.47619">
        <ele>6.5999999046326</ele>
        <time>2021-09-23T08:17:49.000Z</time>
      </trkpt>
      <trkpt lat="47.27332" lon="-2.47626">
        <ele>6.5999999046326</ele>
        <time>2021-09-23T08:17:51.000Z</time>
      </trkpt>
      <trkpt lat="47.27342" lon="-2.47634">
        <ele>6.1999998092651</ele>
        <time>2021-09-23T08:17:53.000Z</time>
      </trkpt>
      <trkpt lat="47.27347" lon="-2.47639">
        <ele>5.8000001907349</ele>
        <time>2021-09-23T08:17:54.000Z</time>
      </trkpt>
      <trkpt lat="47.27352" lon="-2.47644">
        <ele>5.1999998092651</ele>
        <time>2021-09-23T08:17:55.000Z</time>
      </trkpt>
      <trkpt lat="47.27358" lon="-2.4765">
        <ele>4.8000001907349</ele>
        <time>2021-09-23T08:17:56.000Z</time>
      </trkpt>
      <trkpt lat="47.27363" lon="-2.47655">
        <ele>4.4000000953674</ele>
        <time>2021-09-23T08:17:57.000Z</time>
      </trkpt>
      <trkpt lat="47.27384" lon="-2.47681">
        <ele>4</ele>
        <time>2021-09-23T08:18:01.000Z</time>
      </trkpt>
      <trkpt lat="47.2739" lon="-2.47687">
        <ele>3.5999999046326</ele>
        <time>2021-09-23T08:18:02.000Z</time>
      </trkpt>
      <trkpt lat="47.27395" lon="-2.47692">
        <ele>3</ele>
        <time>2021-09-23T08:18:03.000Z</time>
      </trkpt>
      <trkpt lat="47.274" lon="-2.47697">
        <ele>2.5999999046326</ele>
        <time>2021-09-23T08:18:04.000Z</time>
      </trkpt>
      <trkpt lat="47.27405" lon="-2.47703">
        <ele>2.2000000476837</ele>
        <time>2021-09-23T08:18:05.000Z</time>
      </trkpt>
      <trkpt lat="47.27413" lon="-2.47713">
        <ele>2.2000000476837</ele>
        <time>2021-09-23T08:18:07.000Z</time>
      </trkpt>
      <trkpt lat="47.27428" lon="-2.47735">
        <ele>1.7999999523163</ele>
        <time>2021-09-23T08:18:11.000Z</time>
      </trkpt>
      <trkpt lat="47.27432" lon="-2.4774">
        <ele>1.3999999761581</ele>
        <time>2021-09-23T08:18:12.000Z</time>
      </trkpt>
      <trkpt lat="47.27435" lon="-2.47746">
        <ele>1</ele>
        <time>2021-09-23T08:18:13.000Z</time>
      </trkpt>
      <trkpt lat="47.27439" lon="-2.47753">
        <ele>0.40000000596046</ele>
        <time>2021-09-23T08:18:14.000Z</time>
      </trkpt>
      <trkpt lat="47.27443" lon="-2.4776">
        <ele>8</ele>
        <time>2021-09-23T08:18:15.000Z</time>
      </trkpt>
      <trkpt lat="47.27456" lon="-2.47788">
        <ele>8.3</ele>
        <time>2021-09-23T08:18:19.000Z</time>
      </trkpt>
      <trkpt lat="47.2746" lon="-2.47794">
        <ele>8.2</ele>
        <time>2021-09-23T08:18:20.000Z</time>
      </trkpt>
      <trkpt lat="47.27487" lon="-2.47835">
        <ele>9.5</ele>
        <time>2021-09-23T08:18:27.000Z</time>
      </trkpt>
      <trkpt lat="47.27506" lon="-2.47874">
        <ele>10</ele>
        <time>2021-09-23T08:18:33.000Z</time>
      </trkpt>
      <trkpt lat="47.27526" lon="-2.47913">
        <ele>0.60000002384186</ele>
        <time>2021-09-23T08:18:39.000Z</time>
      </trkpt>
      <trkpt lat="47.27529" lon="-2.47919">
        <ele>1</ele>
        <time>2021-09-23T08:18:40.000Z</time>
      </trkpt>
      <trkpt lat="47.27534" lon="-2.47924">
        <ele>1.6000000238419</ele>
        <time>2021-09-23T08:18:41.000Z</time>
      </trkpt>
      <trkpt lat="47.27539" lon="-2.47925">
        <ele>2.5999999046326</ele>
        <time>2021-09-23T08:18:42.000Z</time>
      </trkpt>
      <trkpt lat="47.27544" lon="-2.47925">
        <ele>2.5999999046326</ele>
        <time>2021-09-23T08:18:43.000Z</time>
      </trkpt>
      <trkpt lat="47.27559" lon="-2.47919">
        <ele>2.5999999046326</ele>
        <time>2021-09-23T08:18:46.000Z</time>
      </trkpt>
      <trkpt lat="47.27569" lon="-2.47915">
        <ele>2.5999999046326</ele>
        <time>2021-09-23T08:18:48.000Z</time>
      </trkpt>
      <trkpt lat="47.2758" lon="-2.47911">
        <ele>2.5999999046326</ele>
        <time>2021-09-23T08:18:50.000Z</time>
      </trkpt>
      <trkpt lat="47.27591" lon="-2.47916">
        <ele>2.5999999046326</ele>
        <time>2021-09-23T08:18:52.000Z</time>
      </trkpt>
      <trkpt lat="47.276" lon="-2.47934">
        <ele>3</ele>
        <time>2021-09-23T08:18:55.000Z</time>
      </trkpt>
      <trkpt lat="47.27602" lon="-2.47941">
        <ele>3.4000000953674</ele>
        <time>2021-09-23T08:18:56.000Z</time>
      </trkpt>
      <trkpt lat="47.27604" lon="-2.47947">
        <ele>4</ele>
        <time>2021-09-23T08:18:57.000Z</time>
      </trkpt>
      <trkpt lat="47.27606" lon="-2.47954">
        <ele>4.4000000953674</ele>
        <time>2021-09-23T08:18:58.000Z</time>
      </trkpt>
      <trkpt lat="47.27608" lon="-2.4796">
        <ele>4.8000001907349</ele>
        <time>2021-09-23T08:18:59.000Z</time>
      </trkpt>
      <trkpt lat="47.27614" lon="-2.47979">
        <ele>5.1999998092651</ele>
        <time>2021-09-23T08:19:02.000Z</time>
      </trkpt>
      <trkpt lat="47.27616" lon="-2.47984">
        <ele>5.8000001907349</ele>
        <time>2021-09-23T08:19:03.000Z</time>
      </trkpt>
      <trkpt lat="47.27619" lon="-2.4799">
        <ele>6.1999998092651</ele>
        <time>2021-09-23T08:19:04.000Z</time>
      </trkpt>
      <trkpt lat="47.27622" lon="-2.47994">
        <ele>6.5999999046326</ele>
        <time>2021-09-23T08:19:05.000Z</time>
      </trkpt>
      <trkpt lat="47.27625" lon="-2.47994">
        <ele>7</ele>
        <time>2021-09-23T08:19:06.000Z</time>
      </trkpt>
      <trkpt lat="47.27628" lon="-2.47994">
        <ele>7</ele>
        <time>2021-09-23T08:19:07.000Z</time>
      </trkpt>
      <trkpt lat="47.27635" lon="-2.4799">
        <ele>7</ele>
        <time>2021-09-23T08:19:09.000Z</time>
      </trkpt>
      <trkpt lat="47.27644" lon="-2.47981">
        <ele>7</ele>
        <time>2021-09-23T08:19:12.000Z</time>
      </trkpt>
      <trkpt lat="47.27657" lon="-2.4797">
        <ele>7</ele>
        <time>2021-09-23T08:19:16.000Z</time>
      </trkpt>
      <trkpt lat="47.27677" lon="-2.47964">
        <ele>7</ele>
        <time>2021-09-23T08:19:23.000Z</time>
      </trkpt>
      <trkpt lat="47.2769" lon="-2.4796">
        <ele>7</ele>
        <time>2021-09-23T08:19:28.000Z</time>
      </trkpt>
      <trkpt lat="47.27703" lon="-2.47952">
        <ele>7</ele>
        <time>2021-09-23T08:19:33.000Z</time>
      </trkpt>
      <trkpt lat="47.27706" lon="-2.47948">
        <ele>7</ele>
        <time>2021-09-23T08:19:34.000Z</time>
      </trkpt>
      <trkpt lat="47.27709" lon="-2.47947">
        <ele>7</ele>
        <time>2021-09-23T08:19:36.000Z</time>
      </trkpt>
      <trkpt lat="47.27712" lon="-2.47948">
        <ele>7</ele>
        <time>2021-09-23T08:19:37.000Z</time>
      </trkpt>
      <trkpt lat="47.27719" lon="-2.4795">
        <ele>7</ele>
        <time>2021-09-23T08:19:39.000Z</time>
      </trkpt>
      <trkpt lat="47.27722" lon="-2.47953">
        <ele>7</ele>
        <time>2021-09-23T08:19:40.000Z</time>
      </trkpt>
      <trkpt lat="47.27735" lon="-2.47968">
        <ele>7</ele>
        <time>2021-09-23T08:19:45.000Z</time>
      </trkpt>
      <trkpt lat="47.27743" lon="-2.47968">
        <ele>7</ele>
        <time>2021-09-23T08:19:48.000Z</time>
      </trkpt>
      <trkpt lat="47.27747" lon="-2.47967">
        <ele>7</ele>
        <time>2021-09-23T08:19:51.000Z</time>
      </trkpt>
      <trkpt lat="47.2775" lon="-2.47965">
        <ele>7</ele>
        <time>2021-09-23T08:19:54.000Z</time>
      </trkpt>
      <trkpt lat="47.27761" lon="-2.47958">
        <ele>7</ele>
        <time>2021-09-23T08:19:59.000Z</time>
      </trkpt>
      <trkpt lat="47.27771" lon="-2.47946">
        <ele>7</ele>
        <time>2021-09-23T08:20:02.000Z</time>
      </trkpt>
      <trkpt lat="47.27774" lon="-2.4794">
        <ele>7</ele>
        <time>2021-09-23T08:20:03.000Z</time>
      </trkpt>
      <trkpt lat="47.27785" lon="-2.47927">
        <ele>7</ele>
        <time>2021-09-23T08:20:07.000Z</time>
      </trkpt>
      <trkpt lat="47.27789" lon="-2.47927">
        <ele>6.5999999046326</ele>
        <time>2021-09-23T08:20:08.000Z</time>
      </trkpt>
      <trkpt lat="47.27794" lon="-2.47931">
        <ele>6.1999998092651</ele>
        <time>2021-09-23T08:20:09.000Z</time>
      </trkpt>
      <trkpt lat="47.27798" lon="-2.47935">
        <ele>5.8000001907349</ele>
        <time>2021-09-23T08:20:10.000Z</time>
      </trkpt>
      <trkpt lat="47.27801" lon="-2.4794">
        <ele>5.1999998092651</ele>
        <time>2021-09-23T08:20:11.000Z</time>
      </trkpt>
      <trkpt lat="47.27801" lon="-2.47946">
        <ele>4.8000001907349</ele>
        <time>2021-09-23T08:20:12.000Z</time>
      </trkpt>
      <trkpt lat="47.27801" lon="-2.47963">
        <ele>4.8000001907349</ele>
        <time>2021-09-23T08:20:14.000Z</time>
      </trkpt>
      <trkpt lat="47.27805" lon="-2.47991">
        <ele>4.8000001907349</ele>
        <time>2021-09-23T08:20:19.000Z</time>
      </trkpt>
      <trkpt lat="47.27807" lon="-2.48001">
        <ele>4.8000001907349</ele>
        <time>2021-09-23T08:20:25.000Z</time>
      </trkpt>
      <trkpt lat="47.2781" lon="-2.48007">
        <ele>4.8000001907349</ele>
        <time>2021-09-23T08:20:31.000Z</time>
      </trkpt>
      <trkpt lat="47.2781" lon="-2.48008">
        <ele>4.8000001907349</ele>
        <time>2021-09-23T08:20:32.000Z</time>
      </trkpt>
      <trkpt lat="47.27816" lon="-2.48014">
        <ele>4.8000001907349</ele>
        <time>2021-09-23T08:20:37.000Z</time>
      </trkpt>
      <trkpt lat="47.27821" lon="-2.48014">
        <ele>4.8000001907349</ele>
        <time>2021-09-23T08:20:39.000Z</time>
      </trkpt>
      <trkpt lat="47.27836" lon="-2.48009">
        <ele>4.8000001907349</ele>
        <time>2021-09-23T08:20:44.000Z</time>
      </trkpt>
      <trkpt lat="47.2786" lon="-2.48002">
        <ele>4.8000001907349</ele>
        <time>2021-09-23T08:20:50.000Z</time>
      </trkpt>
      <trkpt lat="47.27879" lon="-2.47994">
        <ele>4.8000001907349</ele>
        <time>2021-09-23T08:20:55.000Z</time>
      </trkpt>
      <trkpt lat="47.27896" lon="-2.47987">
        <ele>4.8000001907349</ele>
        <time>2021-09-23T08:21:00.000Z</time>
      </trkpt>
      <trkpt lat="47.27928" lon="-2.47972">
        <ele>4.8000001907349</ele>
        <time>2021-09-23T08:21:06.000Z</time>
      </trkpt>
      <trkpt lat="47.27951" lon="-2.47963">
        <ele>4.4000000953674</ele>
        <time>2021-09-23T08:21:10.000Z</time>
      </trkpt>
      <trkpt lat="47.27956" lon="-2.47961">
        <ele>4</ele>
        <time>2021-09-23T08:21:11.000Z</time>
      </trkpt>
      <trkpt lat="47.27962" lon="-2.47959">
        <ele>3.5999999046326</ele>
        <time>2021-09-23T08:21:12.000Z</time>
      </trkpt>
      <trkpt lat="47.27967" lon="-2.47957">
        <ele>3</ele>
        <time>2021-09-23T08:21:13.000Z</time>
      </trkpt>
      <trkpt lat="47.27971" lon="-2.47956">
        <ele>2.5999999046326</ele>
        <time>2021-09-23T08:21:14.000Z</time>
      </trkpt>
      <trkpt lat="47.27992" lon="-2.47948">
        <ele>2.5999999046326</ele>
        <time>2021-09-23T08:21:18.000Z</time>
      </trkpt>
      <trkpt lat="47.27997" lon="-2.47945">
        <ele>2.5999999046326</ele>
        <time>2021-09-23T08:21:19.000Z</time>
      </trkpt>
      <trkpt lat="47.28018" lon="-2.47937">
        <ele>2.5999999046326</ele>
        <time>2021-09-23T08:21:23.000Z</time>
      </trkpt>
      <trkpt lat="47.28044" lon="-2.47927">
        <ele>2.2000000476837</ele>
        <time>2021-09-23T08:21:28.000Z</time>
      </trkpt>
      <trkpt lat="47.28049" lon="-2.47925">
        <ele>1.7999999523163</ele>
        <time>2021-09-23T08:21:29.000Z</time>
      </trkpt>
      <trkpt lat="47.28054" lon="-2.47923">
        <ele>1.3999999761581</ele>
        <time>2021-09-23T08:21:30.000Z</time>
      </trkpt>
      <trkpt lat="47.28059" lon="-2.47925">
        <ele>1</ele>
        <time>2021-09-23T08:21:31.000Z</time>
      </trkpt>
      <trkpt lat="47.28063" lon="-2.47929">
        <ele>0.60000002384186</ele>
        <time>2021-09-23T08:21:32.000Z</time>
      </trkpt>
      <trkpt lat="47.28065" lon="-2.47936">
        <ele>0.60000002384186</ele>
        <time>2021-09-23T08:21:33.000Z</time>
      </trkpt>
      <trkpt lat="47.28067" lon="-2.47953">
        <ele>0.60000002384186</ele>
        <time>2021-09-23T08:21:35.000Z</time>
      </trkpt>
      <trkpt lat="47.28068" lon="-2.47962">
        <ele>0.60000002384186</ele>
        <time>2021-09-23T08:21:36.000Z</time>
      </trkpt>
      <trkpt lat="47.28074" lon="-2.48021">
        <ele>0.60000002384186</ele>
        <time>2021-09-23T08:21:42.000Z</time>
      </trkpt>
      <trkpt lat="47.28079" lon="-2.48058">
        <ele>0.60000002384186</ele>
        <time>2021-09-23T08:21:46.000Z</time>
      </trkpt>
      <trkpt lat="47.28083" lon="-2.48076">
        <ele>0.60000002384186</ele>
        <time>2021-09-23T08:21:48.000Z</time>
      </trkpt>
      <trkpt lat="47.28107" lon="-2.48155">
        <ele>0.60000002384186</ele>
        <time>2021-09-23T08:21:57.000Z</time>
      </trkpt>
      <trkpt lat="47.28119" lon="-2.48208">
        <ele>0.60000002384186</ele>
        <time>2021-09-23T08:22:03.000Z</time>
      </trkpt>
      <trkpt lat="47.2813" lon="-2.48284">
        <ele>0.60000002384186</ele>
        <time>2021-09-23T08:22:11.000Z</time>
      </trkpt>
      <trkpt lat="47.28137" lon="-2.48342">
        <ele>0.60000002384186</ele>
        <time>2021-09-23T08:22:18.000Z</time>
      </trkpt>
      <trkpt lat="47.28139" lon="-2.48357">
        <ele>0.60000002384186</ele>
        <time>2021-09-23T08:22:20.000Z</time>
      </trkpt>
      <trkpt lat="47.28145" lon="-2.48365">
        <ele>0.60000002384186</ele>
        <time>2021-09-23T08:22:22.000Z</time>
      </trkpt>
      <trkpt lat="47.28159" lon="-2.48363">
        <ele>0.60000002384186</ele>
        <time>2021-09-23T08:22:25.000Z</time>
      </trkpt>
      <trkpt lat="47.2817" lon="-2.48359">
        <ele>0.60000002384186</ele>
        <time>2021-09-23T08:22:27.000Z</time>
      </trkpt>
      <trkpt lat="47.28186" lon="-2.48352">
        <ele>0.60000002384186</ele>
        <time>2021-09-23T08:22:30.000Z</time>
      </trkpt>
      <trkpt lat="47.28191" lon="-2.48352">
        <ele>0.60000002384186</ele>
        <time>2021-09-23T08:22:31.000Z</time>
      </trkpt>
      <trkpt lat="47.28206" lon="-2.48352">
        <ele>0.60000002384186</ele>
        <time>2021-09-23T08:22:34.000Z</time>
      </trkpt>
      <trkpt lat="47.28219" lon="-2.48348">
        <ele>0.60000002384186</ele>
        <time>2021-09-23T08:22:36.000Z</time>
      </trkpt>
      <trkpt lat="47.28225" lon="-2.48347">
        <ele>0.20000000298023</ele>
        <time>2021-09-23T08:22:37.000Z</time>
      </trkpt>
      <trkpt lat="47.28231" lon="-2.48345">
        <ele>-0.20000000298023</ele>
        <time>2021-09-23T08:22:38.000Z</time>
      </trkpt>
      <trkpt lat="47.28237" lon="-2.48345">
        <ele>-0.60000002384186</ele>
        <time>2021-09-23T08:22:39.000Z</time>
      </trkpt>
      <trkpt lat="47.28242" lon="-2.48346">
        <ele>-1.2000000476837</ele>
        <time>2021-09-23T08:22:40.000Z</time>
      </trkpt>
      <trkpt lat="47.28247" lon="-2.4835">
        <ele>-1.6000000238419</ele>
        <time>2021-09-23T08:22:41.000Z</time>
      </trkpt>
      <trkpt lat="47.28259" lon="-2.48366">
        <ele>-1.6000000238419</ele>
        <time>2021-09-23T08:22:44.000Z</time>
      </trkpt>
      <trkpt lat="47.28264" lon="-2.4837">
        <ele>-1.6000000238419</ele>
        <time>2021-09-23T08:22:45.000Z</time>
      </trkpt>
      <trkpt lat="47.28281" lon="-2.48371">
        <ele>-1.6000000238419</ele>
        <time>2021-09-23T08:22:48.000Z</time>
      </trkpt>
      <trkpt lat="47.28286" lon="-2.48369">
        <ele>-2</ele>
        <time>2021-09-23T08:22:49.000Z</time>
      </trkpt>
      <trkpt lat="47.28291" lon="-2.48369">
        <ele>-2.4000000953674</ele>
        <time>2021-09-23T08:22:50.000Z</time>
      </trkpt>
      <trkpt lat="47.28296" lon="-2.48373">
        <ele>-2.7999999523163</ele>
        <time>2021-09-23T08:22:51.000Z</time>
      </trkpt>
      <trkpt lat="47.28299" lon="-2.48378">
        <ele>-3.2000000476837</ele>
        <time>2021-09-23T08:22:52.000Z</time>
      </trkpt>
      <trkpt lat="47.28302" lon="-2.48382">
        <ele>-3.7999999523163</ele>
        <time>2021-09-23T08:22:53.000Z</time>
      </trkpt>
      <trkpt lat="47.28306" lon="-2.48384">
        <ele>-3.7999999523163</ele>
        <time>2021-09-23T08:22:54.000Z</time>
      </trkpt>
      <trkpt lat="47.28321" lon="-2.48382">
        <ele>-3.7999999523163</ele>
        <time>2021-09-23T08:22:57.000Z</time>
      </trkpt>
      <trkpt lat="47.28337" lon="-2.4837">
        <ele>-3.7999999523163</ele>
        <time>2021-09-23T08:23:00.000Z</time>
      </trkpt>
      <trkpt lat="47.28342" lon="-2.48365">
        <ele>-3.7999999523163</ele>
        <time>2021-09-23T08:23:01.000Z</time>
      </trkpt>
      <trkpt lat="47.28348" lon="-2.48363">
        <ele>-3.7999999523163</ele>
        <time>2021-09-23T08:23:02.000Z</time>
      </trkpt>
      <trkpt lat="47.28359" lon="-2.48359">
        <ele>-3.7999999523163</ele>
        <time>2021-09-23T08:23:04.000Z</time>
      </trkpt>
      <trkpt lat="47.28365" lon="-2.48358">
        <ele>-3.7999999523163</ele>
        <time>2021-09-23T08:23:05.000Z</time>
      </trkpt>
      <trkpt lat="47.28376" lon="-2.48355">
        <ele>-3.7999999523163</ele>
        <time>2021-09-23T08:23:07.000Z</time>
      </trkpt>
      <trkpt lat="47.28394" lon="-2.48356">
        <ele>-3.7999999523163</ele>
        <time>2021-09-23T08:23:10.000Z</time>
      </trkpt>
      <trkpt lat="47.284" lon="-2.48359">
        <ele>-3.7999999523163</ele>
        <time>2021-09-23T08:23:11.000Z</time>
      </trkpt>
      <trkpt lat="47.28418" lon="-2.48371">
        <ele>-3.7999999523163</ele>
        <time>2021-09-23T08:23:14.000Z</time>
      </trkpt>
      <trkpt lat="47.28444" lon="-2.48395">
        <ele>-3.7999999523163</ele>
        <time>2021-09-23T08:23:19.000Z</time>
      </trkpt>
      <trkpt lat="47.28448" lon="-2.484">
        <ele>-3.7999999523163</ele>
        <time>2021-09-23T08:23:20.000Z</time>
      </trkpt>
      <trkpt lat="47.2845" lon="-2.48414">
        <ele>-3.7999999523163</ele>
        <time>2021-09-23T08:23:22.000Z</time>
      </trkpt>
      <trkpt lat="47.28447" lon="-2.48427">
        <ele>-3.7999999523163</ele>
        <time>2021-09-23T08:23:24.000Z</time>
      </trkpt>
      <trkpt lat="47.28446" lon="-2.48434">
        <ele>-3.7999999523163</ele>
        <time>2021-09-23T08:23:25.000Z</time>
      </trkpt>
      <trkpt lat="47.28445" lon="-2.48442">
        <ele>-3.7999999523163</ele>
        <time>2021-09-23T08:23:26.000Z</time>
      </trkpt>
      <trkpt lat="47.28443" lon="-2.48474">
        <ele>-3.7999999523163</ele>
        <time>2021-09-23T08:23:30.000Z</time>
      </trkpt>
      <trkpt lat="47.28442" lon="-2.48491">
        <ele>-3.7999999523163</ele>
        <time>2021-09-23T08:23:32.000Z</time>
      </trkpt>
      <trkpt lat="47.28439" lon="-2.48514">
        <ele>-3.7999999523163</ele>
        <time>2021-09-23T08:23:35.000Z</time>
      </trkpt>
      <trkpt lat="47.28436" lon="-2.48521">
        <ele>-3.7999999523163</ele>
        <time>2021-09-23T08:23:36.000Z</time>
      </trkpt>
      <trkpt lat="47.28436" lon="-2.48543">
        <ele>-3.7999999523163</ele>
        <time>2021-09-23T08:23:39.000Z</time>
      </trkpt>
      <trkpt lat="47.2845" lon="-2.48555">
        <ele>-3.7999999523163</ele>
        <time>2021-09-23T08:23:42.000Z</time>
      </trkpt>
      <trkpt lat="47.28456" lon="-2.48558">
        <ele>-4.1999998092651</ele>
        <time>2021-09-23T08:23:43.000Z</time>
      </trkpt>
      <trkpt lat="47.28462" lon="-2.48561">
        <ele>-4.5999999046326</ele>
        <time>2021-09-23T08:23:44.000Z</time>
      </trkpt>
      <trkpt lat="47.28467" lon="-2.48566">
        <ele>-5</ele>
        <time>2021-09-23T08:23:45.000Z</time>
      </trkpt>
      <trkpt lat="47.28471" lon="-2.48571">
        <ele>-5.4000000953674</ele>
        <time>2021-09-23T08:23:46.000Z</time>
      </trkpt>
      <trkpt lat="47.28474" lon="-2.48577">
        <ele>-5.8000001907349</ele>
        <time>2021-09-23T08:23:47.000Z</time>
      </trkpt>
      <trkpt lat="47.28479" lon="-2.48597">
        <ele>-5.8000001907349</ele>
        <time>2021-09-23T08:23:50.000Z</time>
      </trkpt>
      <trkpt lat="47.28483" lon="-2.4861">
        <ele>-5.8000001907349</ele>
        <time>2021-09-23T08:23:52.000Z</time>
      </trkpt>
      <trkpt lat="47.2848" lon="-2.48632">
        <ele>-5.8000001907349</ele>
        <time>2021-09-23T08:23:55.000Z</time>
      </trkpt>
      <trkpt lat="47.28478" lon="-2.4864">
        <ele>-5.8000001907349</ele>
        <time>2021-09-23T08:23:56.000Z</time>
      </trkpt>
      <trkpt lat="47.28473" lon="-2.48671">
        <ele>-5.8000001907349</ele>
        <time>2021-09-23T08:24:00.000Z</time>
      </trkpt>
      <trkpt lat="47.28475" lon="-2.4868">
        <ele>-5.8000001907349</ele>
        <time>2021-09-23T08:24:01.000Z</time>
      </trkpt>
      <trkpt lat="47.28487" lon="-2.48699">
        <ele>-5.8000001907349</ele>
        <time>2021-09-23T08:24:04.000Z</time>
      </trkpt>
      <trkpt lat="47.28506" lon="-2.48723">
        <ele>-5.8000001907349</ele>
        <time>2021-09-23T08:24:08.000Z</time>
      </trkpt>
      <trkpt lat="47.28515" lon="-2.48735">
        <ele>-5.8000001907349</ele>
        <time>2021-09-23T08:24:10.000Z</time>
      </trkpt>
      <trkpt lat="47.28539" lon="-2.48773">
        <ele>-5.8000001907349</ele>
        <time>2021-09-23T08:24:16.000Z</time>
      </trkpt>
      <trkpt lat="47.2855" lon="-2.48793">
        <ele>-5.8000001907349</ele>
        <time>2021-09-23T08:24:19.000Z</time>
      </trkpt>
      <trkpt lat="47.28556" lon="-2.48807">
        <ele>-5.8000001907349</ele>
        <time>2021-09-23T08:24:21.000Z</time>
      </trkpt>
      <trkpt lat="47.28569" lon="-2.48827">
        <ele>-5.8000001907349</ele>
        <time>2021-09-23T08:24:24.000Z</time>
      </trkpt>
      <trkpt lat="47.28577" lon="-2.48838">
        <ele>-5.8000001907349</ele>
        <time>2021-09-23T08:24:26.000Z</time>
      </trkpt>
      <trkpt lat="47.28582" lon="-2.4886">
        <ele>-5.8000001907349</ele>
        <time>2021-09-23T08:24:29.000Z</time>
      </trkpt>
      <trkpt lat="47.2858" lon="-2.48884">
        <ele>-5.8000001907349</ele>
        <time>2021-09-23T08:24:32.000Z</time>
      </trkpt>
      <trkpt lat="47.28579" lon="-2.48893">
        <ele>-5.8000001907349</ele>
        <time>2021-09-23T08:24:33.000Z</time>
      </trkpt>
      <trkpt lat="47.28577" lon="-2.48901">
        <ele>-5.8000001907349</ele>
        <time>2021-09-23T08:24:34.000Z</time>
      </trkpt>
      <trkpt lat="47.28568" lon="-2.48912">
        <ele>-5.8000001907349</ele>
        <time>2021-09-23T08:24:36.000Z</time>
      </trkpt>
      <trkpt lat="47.2855" lon="-2.48918">
        <ele>-5.8000001907349</ele>
        <time>2021-09-23T08:24:39.000Z</time>
      </trkpt>
      <trkpt lat="47.28543" lon="-2.48921">
        <ele>-5.8000001907349</ele>
        <time>2021-09-23T08:24:40.000Z</time>
      </trkpt>
      <trkpt lat="47.28524" lon="-2.48928">
        <ele>-5.8000001907349</ele>
        <time>2021-09-23T08:24:43.000Z</time>
      </trkpt>
      <trkpt lat="47.28518" lon="-2.48928">
        <ele>-5.8000001907349</ele>
        <time>2021-09-23T08:24:44.000Z</time>
      </trkpt>
      <trkpt lat="47.28498" lon="-2.48925">
        <ele>-5.4000000953674</ele>
        <time>2021-09-23T08:24:47.000Z</time>
      </trkpt>
      <trkpt lat="47.28492" lon="-2.48923">
        <ele>-5</ele>
        <time>2021-09-23T08:24:48.000Z</time>
      </trkpt>
      <trkpt lat="47.28485" lon="-2.48923">
        <ele>-4.5999999046326</ele>
        <time>2021-09-23T08:24:49.000Z</time>
      </trkpt>
      <trkpt lat="47.28479" lon="-2.48925">
        <ele>-4.1999998092651</ele>
        <time>2021-09-23T08:24:50.000Z</time>
      </trkpt>
      <trkpt lat="47.28474" lon="-2.48929">
        <ele>-3.7999999523163</ele>
        <time>2021-09-23T08:24:51.000Z</time>
      </trkpt>
      <trkpt lat="47.28471" lon="-2.48935">
        <ele>-3.7999999523163</ele>
        <time>2021-09-23T08:24:52.000Z</time>
      </trkpt>
      <trkpt lat="47.28467" lon="-2.48948">
        <ele>-4.1999998092651</ele>
        <time>2021-09-23T08:24:54.000Z</time>
      </trkpt>
      <trkpt lat="47.28466" lon="-2.48955">
        <ele>-4.5999999046326</ele>
        <time>2021-09-23T08:24:55.000Z</time>
      </trkpt>
      <trkpt lat="47.28466" lon="-2.48961">
        <ele>-5</ele>
        <time>2021-09-23T08:24:56.000Z</time>
      </trkpt>
      <trkpt lat="47.28468" lon="-2.48966">
        <ele>-5.4000000953674</ele>
        <time>2021-09-23T08:24:57.000Z</time>
      </trkpt>
      <trkpt lat="47.28471" lon="-2.48969">
        <ele>-5.8000001907349</ele>
        <time>2021-09-23T08:24:58.000Z</time>
      </trkpt>
      <trkpt lat="47.28479" lon="-2.48973">
        <ele>-5.8000001907349</ele>
        <time>2021-09-23T08:25:00.000Z</time>
      </trkpt>
      <trkpt lat="47.28489" lon="-2.48979">
        <ele>-5.8000001907349</ele>
        <time>2021-09-23T08:25:02.000Z</time>
      </trkpt>
      <trkpt lat="47.28494" lon="-2.48981">
        <ele>-5.8000001907349</ele>
        <time>2021-09-23T08:25:03.000Z</time>
      </trkpt>
      <trkpt lat="47.28511" lon="-2.48979">
        <ele>-5.8000001907349</ele>
        <time>2021-09-23T08:25:06.000Z</time>
      </trkpt>
      <trkpt lat="47.28543" lon="-2.48973">
        <ele>-5.8000001907349</ele>
        <time>2021-09-23T08:25:11.000Z</time>
      </trkpt>
      <trkpt lat="47.28568" lon="-2.48972">
        <ele>-5.8000001907349</ele>
        <time>2021-09-23T08:25:15.000Z</time>
      </trkpt>
      <trkpt lat="47.28579" lon="-2.4898">
        <ele>-5.8000001907349</ele>
        <time>2021-09-23T08:25:17.000Z</time>
      </trkpt>
      <trkpt lat="47.2859" lon="-2.49001">
        <ele>-5.8000001907349</ele>
        <time>2021-09-23T08:25:20.000Z</time>
      </trkpt>
      <trkpt lat="47.28598" lon="-2.49032">
        <ele>-5.8000001907349</ele>
        <time>2021-09-23T08:25:24.000Z</time>
      </trkpt>
      <trkpt lat="47.28598" lon="-2.4904">
        <ele>-5.8000001907349</ele>
        <time>2021-09-23T08:25:25.000Z</time>
      </trkpt>
      <trkpt lat="47.28599" lon="-2.49066">
        <ele>-5.8000001907349</ele>
        <time>2021-09-23T08:25:28.000Z</time>
      </trkpt>
      <trkpt lat="47.28598" lon="-2.49075">
        <ele>-5.8000001907349</ele>
        <time>2021-09-23T08:25:29.000Z</time>
      </trkpt>
      <trkpt lat="47.28602" lon="-2.49121">
        <ele>-5.8000001907349</ele>
        <time>2021-09-23T08:25:34.000Z</time>
      </trkpt>
      <trkpt lat="47.28604" lon="-2.49129">
        <ele>-5.8000001907349</ele>
        <time>2021-09-23T08:25:35.000Z</time>
      </trkpt>
      <trkpt lat="47.28611" lon="-2.49159">
        <ele>-5.8000001907349</ele>
        <time>2021-09-23T08:25:39.000Z</time>
      </trkpt>
      <trkpt lat="47.28611" lon="-2.49168">
        <ele>-5.8000001907349</ele>
        <time>2021-09-23T08:25:40.000Z</time>
      </trkpt>
      <trkpt lat="47.28612" lon="-2.49203">
        <ele>-5.8000001907349</ele>
        <time>2021-09-23T08:25:44.000Z</time>
      </trkpt>
      <trkpt lat="47.28614" lon="-2.49211">
        <ele>-5.8000001907349</ele>
        <time>2021-09-23T08:25:45.000Z</time>
      </trkpt>
      <trkpt lat="47.28618" lon="-2.49235">
        <ele>-5.8000001907349</ele>
        <time>2021-09-23T08:25:48.000Z</time>
      </trkpt>
      <trkpt lat="47.2862" lon="-2.49244">
        <ele>-5.8000001907349</ele>
        <time>2021-09-23T08:25:49.000Z</time>
      </trkpt>
      <trkpt lat="47.28622" lon="-2.49252">
        <ele>-5.8000001907349</ele>
        <time>2021-09-23T08:25:50.000Z</time>
      </trkpt>
      <trkpt lat="47.28629" lon="-2.49294">
        <ele>-5.8000001907349</ele>
        <time>2021-09-23T08:25:55.000Z</time>
      </trkpt>
      <trkpt lat="47.28632" lon="-2.49309">
        <ele>-5.8000001907349</ele>
        <time>2021-09-23T08:25:57.000Z</time>
      </trkpt>
      <trkpt lat="47.28634" lon="-2.49326">
        <ele>-5.8000001907349</ele>
        <time>2021-09-23T08:25:59.000Z</time>
      </trkpt>
      <trkpt lat="47.28633" lon="-2.49345">
        <ele>-5.8000001907349</ele>
        <time>2021-09-23T08:26:01.000Z</time>
      </trkpt>
      <trkpt lat="47.28631" lon="-2.49402">
        <ele>-5.8000001907349</ele>
        <time>2021-09-23T08:26:07.000Z</time>
      </trkpt>
      <trkpt lat="47.28634" lon="-2.49448">
        <ele>-5.8000001907349</ele>
        <time>2021-09-23T08:26:12.000Z</time>
      </trkpt>
      <trkpt lat="47.28634" lon="-2.49477">
        <ele>-5.4000000953674</ele>
        <time>2021-09-23T08:26:15.000Z</time>
      </trkpt>
      <trkpt lat="47.28634" lon="-2.49488">
        <ele>-4.8000001907349</ele>
        <time>2021-09-23T08:26:16.000Z</time>
      </trkpt>
      <trkpt lat="47.28633" lon="-2.49498">
        <ele>-4.4000000953674</ele>
        <time>2021-09-23T08:26:17.000Z</time>
      </trkpt>
      <trkpt lat="47.28633" lon="-2.49508">
        <ele>-4</ele>
        <time>2021-09-23T08:26:18.000Z</time>
      </trkpt>
      <trkpt lat="47.28633" lon="-2.49518">
        <ele>-3.5999999046326</ele>
        <time>2021-09-23T08:26:19.000Z</time>
      </trkpt>
      <trkpt lat="47.28635" lon="-2.49565">
        <ele>-3.5999999046326</ele>
        <time>2021-09-23T08:26:24.000Z</time>
      </trkpt>
      <trkpt lat="47.28639" lon="-2.49615">
        <ele>-3.5999999046326</ele>
        <time>2021-09-23T08:26:29.000Z</time>
      </trkpt>
      <trkpt lat="47.28638" lon="-2.49624">
        <ele>-3.5999999046326</ele>
        <time>2021-09-23T08:26:30.000Z</time>
      </trkpt>
      <trkpt lat="47.28635" lon="-2.49633">
        <ele>-4</ele>
        <time>2021-09-23T08:26:31.000Z</time>
      </trkpt>
      <trkpt lat="47.28631" lon="-2.49638">
        <ele>-4.8000001907349</ele>
        <time>2021-09-23T08:26:32.000Z</time>
      </trkpt>
      <trkpt lat="47.28624" lon="-2.49641">
        <ele>-5.1999998092651</ele>
        <time>2021-09-23T08:26:33.000Z</time>
      </trkpt>
      <trkpt lat="47.28618" lon="-2.49644">
        <ele>-5.5999999046326</ele>
        <time>2021-09-23T08:26:34.000Z</time>
      </trkpt>
      <trkpt lat="47.28612" lon="-2.49646">
        <ele>-5.5999999046326</ele>
        <time>2021-09-23T08:26:35.000Z</time>
      </trkpt>
      <trkpt lat="47.28605" lon="-2.49647">
        <ele>-5.5999999046326</ele>
        <time>2021-09-23T08:26:36.000Z</time>
      </trkpt>
      <trkpt lat="47.28577" lon="-2.49654">
        <ele>-5.5999999046326</ele>
        <time>2021-09-23T08:26:40.000Z</time>
      </trkpt>
      <trkpt lat="47.28538" lon="-2.49672">
        <ele>-5.5999999046326</ele>
        <time>2021-09-23T08:26:46.000Z</time>
      </trkpt>
      <trkpt lat="47.28518" lon="-2.49693">
        <ele>-5.5999999046326</ele>
        <time>2021-09-23T08:26:50.000Z</time>
      </trkpt>
      <trkpt lat="47.28519" lon="-2.49709">
        <ele>-5.5999999046326</ele>
        <time>2021-09-23T08:26:52.000Z</time>
      </trkpt>
      <trkpt lat="47.2851" lon="-2.49723">
        <ele>-5.5999999046326</ele>
        <time>2021-09-23T08:26:55.000Z</time>
      </trkpt>
      <trkpt lat="47.285" lon="-2.49724">
        <ele>-5.5999999046326</ele>
        <time>2021-09-23T08:26:57.000Z</time>
      </trkpt>
      <trkpt lat="47.28494" lon="-2.49725">
        <ele>-5.5999999046326</ele>
        <time>2021-09-23T08:26:58.000Z</time>
      </trkpt>
      <trkpt lat="47.28457" lon="-2.49733">
        <ele>-5.5999999046326</ele>
        <time>2021-09-23T08:27:04.000Z</time>
      </trkpt>
      <trkpt lat="47.2842" lon="-2.49733">
        <ele>-5.1999998092651</ele>
        <time>2021-09-23T08:27:10.000Z</time>
      </trkpt>
      <trkpt lat="47.28414" lon="-2.49732">
        <ele>-4.8000001907349</ele>
        <time>2021-09-23T08:27:11.000Z</time>
      </trkpt>
      <trkpt lat="47.28408" lon="-2.49734">
        <ele>-4.4000000953674</ele>
        <time>2021-09-23T08:27:12.000Z</time>
      </trkpt>
      <trkpt lat="47.28403" lon="-2.49736">
        <ele>-4</ele>
        <time>2021-09-23T08:27:13.000Z</time>
      </trkpt>
      <trkpt lat="47.28398" lon="-2.4974">
        <ele>-3.5999999046326</ele>
        <time>2021-09-23T08:27:14.000Z</time>
      </trkpt>
      <trkpt lat="47.28393" lon="-2.49744">
        <ele>-3.5999999046326</ele>
        <time>2021-09-23T08:27:15.000Z</time>
      </trkpt>
      <trkpt lat="47.28372" lon="-2.4976">
        <ele>-3.5999999046326</ele>
        <time>2021-09-23T08:27:19.000Z</time>
      </trkpt>
      <trkpt lat="47.28351" lon="-2.49776">
        <ele>-3.5999999046326</ele>
        <time>2021-09-23T08:27:23.000Z</time>
      </trkpt>
      <trkpt lat="47.28347" lon="-2.49782">
        <ele>-3.5999999046326</ele>
        <time>2021-09-23T08:27:24.000Z</time>
      </trkpt>
      <trkpt lat="47.28343" lon="-2.49805">
        <ele>-3.5999999046326</ele>
        <time>2021-09-23T08:27:27.000Z</time>
      </trkpt>
      <trkpt lat="47.2835" lon="-2.49827">
        <ele>-3.5999999046326</ele>
        <time>2021-09-23T08:27:30.000Z</time>
      </trkpt>
      <trkpt lat="47.28367" lon="-2.49835">
        <ele>-3.5999999046326</ele>
        <time>2021-09-23T08:27:33.000Z</time>
      </trkpt>
      <trkpt lat="47.28373" lon="-2.49836">
        <ele>-3.5999999046326</ele>
        <time>2021-09-23T08:27:34.000Z</time>
      </trkpt>
      <trkpt lat="47.28384" lon="-2.49842">
        <ele>-3.5999999046326</ele>
        <time>2021-09-23T08:27:36.000Z</time>
      </trkpt>
      <trkpt lat="47.28389" lon="-2.49848">
        <ele>-3.5999999046326</ele>
        <time>2021-09-23T08:27:37.000Z</time>
      </trkpt>
      <trkpt lat="47.28398" lon="-2.49874">
        <ele>-3.5999999046326</ele>
        <time>2021-09-23T08:27:40.000Z</time>
      </trkpt>
      <trkpt lat="47.28401" lon="-2.49883">
        <ele>-3.5999999046326</ele>
        <time>2021-09-23T08:27:41.000Z</time>
      </trkpt>
      <trkpt lat="47.2841" lon="-2.49906">
        <ele>-3.5999999046326</ele>
        <time>2021-09-23T08:27:44.000Z</time>
      </trkpt>
      <trkpt lat="47.28415" lon="-2.49912">
        <ele>-3.5999999046326</ele>
        <time>2021-09-23T08:27:45.000Z</time>
      </trkpt>
      <trkpt lat="47.28434" lon="-2.49917">
        <ele>-3.5999999046326</ele>
        <time>2021-09-23T08:27:48.000Z</time>
      </trkpt>
      <trkpt lat="47.28453" lon="-2.49908">
        <ele>-3.5999999046326</ele>
        <time>2021-09-23T08:27:51.000Z</time>
      </trkpt>
      <trkpt lat="47.28459" lon="-2.49904">
        <ele>-3.5999999046326</ele>
        <time>2021-09-23T08:27:52.000Z</time>
      </trkpt>
      <trkpt lat="47.28472" lon="-2.49898">
        <ele>-3.5999999046326</ele>
        <time>2021-09-23T08:27:54.000Z</time>
      </trkpt>
      <trkpt lat="47.28491" lon="-2.49893">
        <ele>-3.5999999046326</ele>
        <time>2021-09-23T08:27:57.000Z</time>
      </trkpt>
      <trkpt lat="47.28518" lon="-2.4989">
        <ele>-3.5999999046326</ele>
        <time>2021-09-23T08:28:01.000Z</time>
      </trkpt>
      <trkpt lat="47.28523" lon="-2.49893">
        <ele>-3.5999999046326</ele>
        <time>2021-09-23T08:28:02.000Z</time>
      </trkpt>
      <trkpt lat="47.28531" lon="-2.49913">
        <ele>-3.5999999046326</ele>
        <time>2021-09-23T08:28:05.000Z</time>
      </trkpt>
      <trkpt lat="47.28534" lon="-2.49947">
        <ele>-3.5999999046326</ele>
        <time>2021-09-23T08:28:09.000Z</time>
      </trkpt>
      <trkpt lat="47.28535" lon="-2.49956">
        <ele>-3.5999999046326</ele>
        <time>2021-09-23T08:28:10.000Z</time>
      </trkpt>
      <trkpt lat="47.28537" lon="-2.49974">
        <ele>-3.5999999046326</ele>
        <time>2021-09-23T08:28:12.000Z</time>
      </trkpt>
      <trkpt lat="47.28539" lon="-2.50001">
        <ele>-3.5999999046326</ele>
        <time>2021-09-23T08:28:15.000Z</time>
      </trkpt>
      <trkpt lat="47.28546" lon="-2.50046">
        <ele>-3.5999999046326</ele>
        <time>2021-09-23T08:28:20.000Z</time>
      </trkpt>
      <trkpt lat="47.28552" lon="-2.50092">
        <ele>-3.5999999046326</ele>
        <time>2021-09-23T08:28:26.000Z</time>
      </trkpt>
      <trkpt lat="47.28557" lon="-2.50146">
        <ele>-3.5999999046326</ele>
        <time>2021-09-23T08:28:33.000Z</time>
      </trkpt>
      <trkpt lat="47.28557" lon="-2.50155">
        <ele>-4.4000000953674</ele>
        <time>2021-09-23T08:28:34.000Z</time>
      </trkpt>
      <trkpt lat="47.28554" lon="-2.50161">
        <ele>-4.8000001907349</ele>
        <time>2021-09-23T08:28:35.000Z</time>
      </trkpt>
      <trkpt lat="47.2855" lon="-2.50165">
        <ele>-5.1999998092651</ele>
        <time>2021-09-23T08:28:36.000Z</time>
      </trkpt>
      <trkpt lat="47.28546" lon="-2.50165">
        <ele>-5.5999999046326</ele>
        <time>2021-09-23T08:28:37.000Z</time>
      </trkpt>
      <trkpt lat="47.28537" lon="-2.50166">
        <ele>-5.5999999046326</ele>
        <time>2021-09-23T08:28:39.000Z</time>
      </trkpt>
      <trkpt lat="47.28528" lon="-2.50168">
        <ele>-5.5999999046326</ele>
        <time>2021-09-23T08:28:41.000Z</time>
      </trkpt>
      <trkpt lat="47.28518" lon="-2.5017">
        <ele>-5.5999999046326</ele>
        <time>2021-09-23T08:28:44.000Z</time>
      </trkpt>
      <trkpt lat="47.28506" lon="-2.50162">
        <ele>-5.5999999046326</ele>
        <time>2021-09-23T08:28:48.000Z</time>
      </trkpt>
      <trkpt lat="47.28501" lon="-2.50169">
        <ele>-5.5999999046326</ele>
        <time>2021-09-23T08:28:51.000Z</time>
      </trkpt>
      <trkpt lat="47.28498" lon="-2.5018">
        <ele>-5.5999999046326</ele>
        <time>2021-09-23T08:28:53.000Z</time>
      </trkpt>
      <trkpt lat="47.28498" lon="-2.50191">
        <ele>-5.5999999046326</ele>
        <time>2021-09-23T08:28:55.000Z</time>
      </trkpt>
      <trkpt lat="47.28499" lon="-2.50208">
        <ele>-5.5999999046326</ele>
        <time>2021-09-23T08:28:58.000Z</time>
      </trkpt>
      <trkpt lat="47.28498" lon="-2.50221">
        <ele>-5.5999999046326</ele>
        <time>2021-09-23T08:29:00.000Z</time>
      </trkpt>
      <trkpt lat="47.28491" lon="-2.50237">
        <ele>-5.5999999046326</ele>
        <time>2021-09-23T08:29:04.000Z</time>
      </trkpt>
      <trkpt lat="47.28485" lon="-2.5025">
        <ele>-5.5999999046326</ele>
        <time>2021-09-23T08:29:09.000Z</time>
      </trkpt>
      <trkpt lat="47.28486" lon="-2.50256">
        <ele>-5.5999999046326</ele>
        <time>2021-09-23T08:29:11.000Z</time>
      </trkpt>
      <trkpt lat="47.28489" lon="-2.50262">
        <ele>-5.5999999046326</ele>
        <time>2021-09-23T08:29:14.000Z</time>
      </trkpt>
      <trkpt lat="47.2849" lon="-2.50267">
        <ele>-5.5999999046326</ele>
        <time>2021-09-23T08:29:16.000Z</time>
      </trkpt>
      <trkpt lat="47.28493" lon="-2.5027">
        <ele>-5.5999999046326</ele>
        <time>2021-09-23T08:29:17.000Z</time>
      </trkpt>
      <trkpt lat="47.28496" lon="-2.50272">
        <ele>-5.5999999046326</ele>
        <time>2021-09-23T08:29:18.000Z</time>
      </trkpt>
      <trkpt lat="47.28508" lon="-2.50278">
        <ele>-5.5999999046326</ele>
        <time>2021-09-23T08:29:21.000Z</time>
      </trkpt>
      <trkpt lat="47.28513" lon="-2.50279">
        <ele>-5.5999999046326</ele>
        <time>2021-09-23T08:29:22.000Z</time>
      </trkpt>
      <trkpt lat="47.28532" lon="-2.50291">
        <ele>-5.5999999046326</ele>
        <time>2021-09-23T08:29:26.000Z</time>
      </trkpt>
      <trkpt lat="47.2854" lon="-2.50298">
        <ele>-5.5999999046326</ele>
        <time>2021-09-23T08:29:28.000Z</time>
      </trkpt>
      <trkpt lat="47.28548" lon="-2.50305">
        <ele>-5.5999999046326</ele>
        <time>2021-09-23T08:29:30.000Z</time>
      </trkpt>
      <trkpt lat="47.28566" lon="-2.50316">
        <ele>-5.5999999046326</ele>
        <time>2021-09-23T08:29:34.000Z</time>
      </trkpt>
      <trkpt lat="47.286" lon="-2.50329">
        <ele>-5.5999999046326</ele>
        <time>2021-09-23T08:29:41.000Z</time>
      </trkpt>
      <trkpt lat="47.2862" lon="-2.50333">
        <ele>-5.5999999046326</ele>
        <time>2021-09-23T08:29:45.000Z</time>
      </trkpt>
      <trkpt lat="47.28628" lon="-2.50339">
        <ele>-5.5999999046326</ele>
        <time>2021-09-23T08:29:47.000Z</time>
      </trkpt>
      <trkpt lat="47.28651" lon="-2.50355">
        <ele>-5.5999999046326</ele>
        <time>2021-09-23T08:29:52.000Z</time>
      </trkpt>
      <trkpt lat="47.28659" lon="-2.50361">
        <ele>-5.5999999046326</ele>
        <time>2021-09-23T08:29:54.000Z</time>
      </trkpt>
      <trkpt lat="47.28667" lon="-2.50368">
        <ele>-5.1999998092651</ele>
        <time>2021-09-23T08:29:56.000Z</time>
      </trkpt>
      <trkpt lat="47.2867" lon="-2.50371">
        <ele>-4.8000001907349</ele>
        <time>2021-09-23T08:29:57.000Z</time>
      </trkpt>
      <trkpt lat="47.28674" lon="-2.50374">
        <ele>-4.4000000953674</ele>
        <time>2021-09-23T08:29:58.000Z</time>
      </trkpt>
      <trkpt lat="47.28678" lon="-2.50377">
        <ele>-4</ele>
        <time>2021-09-23T08:29:59.000Z</time>
      </trkpt>
      <trkpt lat="47.28681" lon="-2.50379">
        <ele>-3.5999999046326</ele>
        <time>2021-09-23T08:30:00.000Z</time>
      </trkpt>
      <trkpt lat="47.28703" lon="-2.50387">
        <ele>-3.5999999046326</ele>
        <time>2021-09-23T08:30:06.000Z</time>
      </trkpt>
      <trkpt lat="47.28714" lon="-2.50371">
        <ele>-3.5999999046326</ele>
        <time>2021-09-23T08:30:09.000Z</time>
      </trkpt>
      <trkpt lat="47.28719" lon="-2.50358">
        <ele>-3.5999999046326</ele>
        <time>2021-09-23T08:30:11.000Z</time>
      </trkpt>
      <trkpt lat="47.28729" lon="-2.5033">
        <ele>-3.5999999046326</ele>
        <time>2021-09-23T08:30:15.000Z</time>
      </trkpt>
      <trkpt lat="47.28731" lon="-2.50324">
        <ele>-3.5999999046326</ele>
        <time>2021-09-23T08:30:16.000Z</time>
      </trkpt>
      <trkpt lat="47.28743" lon="-2.5031">
        <ele>-3.5999999046326</ele>
        <time>2021-09-23T08:30:19.000Z</time>
      </trkpt>
      <trkpt lat="47.28752" lon="-2.50305">
        <ele>-3.5999999046326</ele>
        <time>2021-09-23T08:30:21.000Z</time>
      </trkpt>
      <trkpt lat="47.28765" lon="-2.50297">
        <ele>-3.5999999046326</ele>
        <time>2021-09-23T08:30:24.000Z</time>
      </trkpt>
      <trkpt lat="47.28787" lon="-2.50281">
        <ele>-3.5999999046326</ele>
        <time>2021-09-23T08:30:29.000Z</time>
      </trkpt>
      <trkpt lat="47.28796" lon="-2.50274">
        <ele>-3.5999999046326</ele>
        <time>2021-09-23T08:30:31.000Z</time>
      </trkpt>
      <trkpt lat="47.28823" lon="-2.50254">
        <ele>-3.5999999046326</ele>
        <time>2021-09-23T08:30:37.000Z</time>
      </trkpt>
      <trkpt lat="47.28827" lon="-2.50249">
        <ele>-3.5999999046326</ele>
        <time>2021-09-23T08:30:38.000Z</time>
      </trkpt>
      <trkpt lat="47.2883" lon="-2.50239">
        <ele>-3.5999999046326</ele>
        <time>2021-09-23T08:30:41.000Z</time>
      </trkpt>
      <trkpt lat="47.28836" lon="-2.50228">
        <ele>-3.5999999046326</ele>
        <time>2021-09-23T08:30:48.000Z</time>
      </trkpt>
      <trkpt lat="47.28838" lon="-2.50227">
        <ele>-3.5999999046326</ele>
        <time>2021-09-23T08:30:52.000Z</time>
      </trkpt>
      <trkpt lat="47.28843" lon="-2.50226">
        <ele>-3.5999999046326</ele>
        <time>2021-09-23T08:31:04.000Z</time>
      </trkpt>
      <trkpt lat="47.28851" lon="-2.5022">
        <ele>-3.5999999046326</ele>
        <time>2021-09-23T08:31:08.000Z</time>
      </trkpt>
      <trkpt lat="47.28854" lon="-2.50218">
        <ele>-3.5999999046326</ele>
        <time>2021-09-23T08:31:09.000Z</time>
      </trkpt>
      <trkpt lat="47.2887" lon="-2.50201">
        <ele>-3.5999999046326</ele>
        <time>2021-09-23T08:31:16.000Z</time>
      </trkpt>
      <trkpt lat="47.28879" lon="-2.5018">
        <ele>-3.5999999046326</ele>
        <time>2021-09-23T08:31:22.000Z</time>
      </trkpt>
      <trkpt lat="47.28879" lon="-2.50172">
        <ele>-3.5999999046326</ele>
        <time>2021-09-23T08:31:24.000Z</time>
      </trkpt>
      <trkpt lat="47.28882" lon="-2.50163">
        <ele>-3.5999999046326</ele>
        <time>2021-09-23T08:31:26.000Z</time>
      </trkpt>
      <trkpt lat="47.28891" lon="-2.5015">
        <ele>-3.5999999046326</ele>
        <time>2021-09-23T08:31:29.000Z</time>
      </trkpt>
      <trkpt lat="47.28894" lon="-2.50148">
        <ele>-3.5999999046326</ele>
        <time>2021-09-23T08:31:30.000Z</time>
      </trkpt>
      <trkpt lat="47.289" lon="-2.50144">
        <ele>-3.5999999046326</ele>
        <time>2021-09-23T08:31:33.000Z</time>
      </trkpt>
      <trkpt lat="47.28902" lon="-2.50144">
        <ele>-3.5999999046326</ele>
        <time>2021-09-23T08:31:34.000Z</time>
      </trkpt>
      <trkpt lat="47.2891" lon="-2.50146">
        <ele>-4</ele>
        <time>2021-09-23T08:31:38.000Z</time>
      </trkpt>
      <trkpt lat="47.28912" lon="-2.50149">
        <ele>-4.4000000953674</ele>
        <time>2021-09-23T08:31:39.000Z</time>
      </trkpt>
      <trkpt lat="47.28914" lon="-2.50154">
        <ele>-5</ele>
        <time>2021-09-23T08:31:40.000Z</time>
      </trkpt>
      <trkpt lat="47.28916" lon="-2.50157">
        <ele>-5.4000000953674</ele>
        <time>2021-09-23T08:31:41.000Z</time>
      </trkpt>
      <trkpt lat="47.28918" lon="-2.5016">
        <ele>-5.8000001907349</ele>
        <time>2021-09-23T08:31:42.000Z</time>
      </trkpt>
      <trkpt lat="47.2893" lon="-2.5017">
        <ele>-5.8000001907349</ele>
        <time>2021-09-23T08:31:46.000Z</time>
      </trkpt>
      <trkpt lat="47.28946" lon="-2.50174">
        <ele>-5.8000001907349</ele>
        <time>2021-09-23T08:31:52.000Z</time>
      </trkpt>
      <trkpt lat="47.28951" lon="-2.5017">
        <ele>-5.8000001907349</ele>
        <time>2021-09-23T08:31:54.000Z</time>
      </trkpt>
      <trkpt lat="47.28957" lon="-2.5017">
        <ele>-5.8000001907349</ele>
        <time>2021-09-23T08:31:56.000Z</time>
      </trkpt>
      <trkpt lat="47.28959" lon="-2.50172">
        <ele>-5.8000001907349</ele>
        <time>2021-09-23T08:31:57.000Z</time>
      </trkpt>
      <trkpt lat="47.28963" lon="-2.50185">
        <ele>-5.8000001907349</ele>
        <time>2021-09-23T08:32:00.000Z</time>
      </trkpt>
      <trkpt lat="47.28966" lon="-2.50196">
        <ele>-5.8000001907349</ele>
        <time>2021-09-23T08:32:02.000Z</time>
      </trkpt>
      <trkpt lat="47.28972" lon="-2.50216">
        <ele>-5.8000001907349</ele>
        <time>2021-09-23T08:32:06.000Z</time>
      </trkpt>
      <trkpt lat="47.28977" lon="-2.50249">
        <ele>-5.8000001907349</ele>
        <time>2021-09-23T08:32:13.000Z</time>
      </trkpt>
      <trkpt lat="47.2899" lon="-2.50267">
        <ele>-5.8000001907349</ele>
        <time>2021-09-23T08:32:18.000Z</time>
      </trkpt>
      <trkpt lat="47.29001" lon="-2.50285">
        <ele>-5.8000001907349</ele>
        <time>2021-09-23T08:32:23.000Z</time>
      </trkpt>
      <trkpt lat="47.29015" lon="-2.50328">
        <ele>-5.8000001907349</ele>
        <time>2021-09-23T08:32:32.000Z</time>
      </trkpt>
      <trkpt lat="47.29028" lon="-2.50368">
        <ele>-5.8000001907349</ele>
        <time>2021-09-23T08:32:41.000Z</time>
      </trkpt>
      <trkpt lat="47.29041" lon="-2.50405">
        <ele>-5.8000001907349</ele>
        <time>2021-09-23T08:32:49.000Z</time>
      </trkpt>
      <trkpt lat="47.29046" lon="-2.50413">
        <ele>-5.8000001907349</ele>
        <time>2021-09-23T08:32:53.000Z</time>
      </trkpt>
      <trkpt lat="47.29061" lon="-2.50422">
        <ele>-5.8000001907349</ele>
        <time>2021-09-23T08:33:00.000Z</time>
      </trkpt>
      <trkpt lat="47.29073" lon="-2.50429">
        <ele>-5.8000001907349</ele>
        <time>2021-09-23T08:33:06.000Z</time>
      </trkpt>
      <trkpt lat="47.29088" lon="-2.50439">
        <ele>-5.8000001907349</ele>
        <time>2021-09-23T08:33:13.000Z</time>
      </trkpt>
      <trkpt lat="47.29105" lon="-2.50439">
        <ele>-5.8000001907349</ele>
        <time>2021-09-23T08:33:20.000Z</time>
      </trkpt>
      <trkpt lat="47.29118" lon="-2.50429">
        <ele>-5.8000001907349</ele>
        <time>2021-09-23T08:33:26.000Z</time>
      </trkpt>
      <trkpt lat="47.29125" lon="-2.50413">
        <ele>-5.8000001907349</ele>
        <time>2021-09-23T08:33:32.000Z</time>
      </trkpt>
      <trkpt lat="47.29129" lon="-2.504">
        <ele>-5.8000001907349</ele>
        <time>2021-09-23T08:33:36.000Z</time>
      </trkpt>
      <trkpt lat="47.29131" lon="-2.504">
        <ele>-5.8000001907349</ele>
        <time>2021-09-23T08:33:37.000Z</time>
      </trkpt>
      <trkpt lat="47.29137" lon="-2.50403">
        <ele>-5.8000001907349</ele>
        <time>2021-09-23T08:33:41.000Z</time>
      </trkpt>
      <trkpt lat="47.29136" lon="-2.50406">
        <ele>-5.8000001907349</ele>
        <time>2021-09-23T08:33:42.000Z</time>
      </trkpt>
      <trkpt lat="47.2913" lon="-2.50423">
        <ele>-5.8000001907349</ele>
        <time>2021-09-23T08:33:49.000Z</time>
      </trkpt>
      <trkpt lat="47.29125" lon="-2.50439">
        <ele>-5.8000001907349</ele>
        <time>2021-09-23T08:33:54.000Z</time>
      </trkpt>
      <trkpt lat="47.29127" lon="-2.50449">
        <ele>-5.8000001907349</ele>
        <time>2021-09-23T08:33:57.000Z</time>
      </trkpt>
      <trkpt lat="47.29128" lon="-2.50452">
        <ele>-5.8000001907349</ele>
        <time>2021-09-23T08:33:58.000Z</time>
      </trkpt>
      <trkpt lat="47.29139" lon="-2.5046">
        <ele>-5.8000001907349</ele>
        <time>2021-09-23T08:34:02.000Z</time>
      </trkpt>
      <trkpt lat="47.2915" lon="-2.50467">
        <ele>-5.4000000953674</ele>
        <time>2021-09-23T08:34:05.000Z</time>
      </trkpt>
      <trkpt lat="47.29154" lon="-2.50469">
        <ele>-5</ele>
        <time>2021-09-23T08:34:06.000Z</time>
      </trkpt>
      <trkpt lat="47.29157" lon="-2.50471">
        <ele>-4.5999999046326</ele>
        <time>2021-09-23T08:34:07.000Z</time>
      </trkpt>
      <trkpt lat="47.29161" lon="-2.50474">
        <ele>-4.1999998092651</ele>
        <time>2021-09-23T08:34:08.000Z</time>
      </trkpt>
      <trkpt lat="47.29164" lon="-2.50476">
        <ele>-3.7999999523163</ele>
        <time>2021-09-23T08:34:09.000Z</time>
      </trkpt>
      <trkpt lat="47.29187" lon="-2.50492">
        <ele>-3.7999999523163</ele>
        <time>2021-09-23T08:34:16.000Z</time>
      </trkpt>
      <trkpt lat="47.29205" lon="-2.50512">
        <ele>-3.7999999523163</ele>
        <time>2021-09-23T08:34:22.000Z</time>
      </trkpt>
      <trkpt lat="47.29216" lon="-2.50534">
        <ele>-3.7999999523163</ele>
        <time>2021-09-23T08:34:27.000Z</time>
      </trkpt>
      <trkpt lat="47.29218" lon="-2.50547">
        <ele>-3.7999999523163</ele>
        <time>2021-09-23T08:34:29.000Z</time>
      </trkpt>
      <trkpt lat="47.29216" lon="-2.50563">
        <ele>-3.7999999523163</ele>
        <time>2021-09-23T08:34:31.000Z</time>
      </trkpt>
      <trkpt lat="47.29214" lon="-2.5058">
        <ele>-3.7999999523163</ele>
        <time>2021-09-23T08:34:33.000Z</time>
      </trkpt>
      <trkpt lat="47.29209" lon="-2.50618">
        <ele>-3.7999999523163</ele>
        <time>2021-09-23T08:34:38.000Z</time>
      </trkpt>
      <trkpt lat="47.29208" lon="-2.50625">
        <ele>-3.7999999523163</ele>
        <time>2021-09-23T08:34:39.000Z</time>
      </trkpt>
      <trkpt lat="47.2921" lon="-2.50646">
        <ele>-3.7999999523163</ele>
        <time>2021-09-23T08:34:42.000Z</time>
      </trkpt>
      <trkpt lat="47.29211" lon="-2.50653">
        <ele>-3.7999999523163</ele>
        <time>2021-09-23T08:34:43.000Z</time>
      </trkpt>
      <trkpt lat="47.29213" lon="-2.5066">
        <ele>-3.7999999523163</ele>
        <time>2021-09-23T08:34:44.000Z</time>
      </trkpt>
      <trkpt lat="47.29218" lon="-2.50701">
        <ele>-3.7999999523163</ele>
        <time>2021-09-23T08:34:50.000Z</time>
      </trkpt>
      <trkpt lat="47.29213" lon="-2.50722">
        <ele>-3.7999999523163</ele>
        <time>2021-09-23T08:34:54.000Z</time>
      </trkpt>
      <trkpt lat="47.29208" lon="-2.50741">
        <ele>-3.7999999523163</ele>
        <time>2021-09-23T08:34:58.000Z</time>
      </trkpt>
      <trkpt lat="47.29207" lon="-2.50747">
        <ele>-3.7999999523163</ele>
        <time>2021-09-23T08:34:59.000Z</time>
      </trkpt>
      <trkpt lat="47.29205" lon="-2.5076">
        <ele>-3.7999999523163</ele>
        <time>2021-09-23T08:35:01.000Z</time>
      </trkpt>
      <trkpt lat="47.29203" lon="-2.50774">
        <ele>-3.7999999523163</ele>
        <time>2021-09-23T08:35:03.000Z</time>
      </trkpt>
      <trkpt lat="47.29208" lon="-2.50793">
        <ele>-3.7999999523163</ele>
        <time>2021-09-23T08:35:06.000Z</time>
      </trkpt>
      <trkpt lat="47.29211" lon="-2.50799">
        <ele>-3.7999999523163</ele>
        <time>2021-09-23T08:35:07.000Z</time>
      </trkpt>
      <trkpt lat="47.29228" lon="-2.50825">
        <ele>-3.7999999523163</ele>
        <time>2021-09-23T08:35:12.000Z</time>
      </trkpt>
      <trkpt lat="47.2924" lon="-2.50848">
        <ele>-3.7999999523163</ele>
        <time>2021-09-23T08:35:16.000Z</time>
      </trkpt>
      <trkpt lat="47.2925" lon="-2.50864">
        <ele>-3.7999999523163</ele>
        <time>2021-09-23T08:35:19.000Z</time>
      </trkpt>
      <trkpt lat="47.29253" lon="-2.50868">
        <ele>-3.7999999523163</ele>
        <time>2021-09-23T08:35:20.000Z</time>
      </trkpt>
      <trkpt lat="47.29262" lon="-2.50876">
        <ele>-3.7999999523163</ele>
        <time>2021-09-23T08:35:23.000Z</time>
      </trkpt>
      <trkpt lat="47.29265" lon="-2.50879">
        <ele>-3.7999999523163</ele>
        <time>2021-09-23T08:35:24.000Z</time>
      </trkpt>
      <trkpt lat="47.29278" lon="-2.50896">
        <ele>-3.7999999523163</ele>
        <time>2021-09-23T08:35:29.000Z</time>
      </trkpt>
      <trkpt lat="47.29293" lon="-2.50904">
        <ele>-3.7999999523163</ele>
        <time>2021-09-23T08:35:34.000Z</time>
      </trkpt>
      <trkpt lat="47.29296" lon="-2.50904">
        <ele>-3.7999999523163</ele>
        <time>2021-09-23T08:35:35.000Z</time>
      </trkpt>
      <trkpt lat="47.29306" lon="-2.50902">
        <ele>-3.7999999523163</ele>
        <time>2021-09-23T08:35:38.000Z</time>
      </trkpt>
      <trkpt lat="47.29326" lon="-2.50914">
        <ele>-3.7999999523163</ele>
        <time>2021-09-23T08:35:44.000Z</time>
      </trkpt>
      <trkpt lat="47.29347" lon="-2.50928">
        <ele>-3.7999999523163</ele>
        <time>2021-09-23T08:35:51.000Z</time>
      </trkpt>
      <trkpt lat="47.29361" lon="-2.50932">
        <ele>-3.7999999523163</ele>
        <time>2021-09-23T08:35:56.000Z</time>
      </trkpt>
      <trkpt lat="47.29369" lon="-2.50935">
        <ele>-3.7999999523163</ele>
        <time>2021-09-23T08:36:01.000Z</time>
      </trkpt>
      <trkpt lat="47.29382" lon="-2.50949">
        <ele>-3.7999999523163</ele>
        <time>2021-09-23T08:36:06.000Z</time>
      </trkpt>
      <trkpt lat="47.29389" lon="-2.50967">
        <ele>-3.7999999523163</ele>
        <time>2021-09-23T08:36:10.000Z</time>
      </trkpt>
      <trkpt lat="47.2939" lon="-2.50974">
        <ele>-3.7999999523163</ele>
        <time>2021-09-23T08:36:11.000Z</time>
      </trkpt>
      <trkpt lat="47.29391" lon="-2.50987">
        <ele>-3.7999999523163</ele>
        <time>2021-09-23T08:36:13.000Z</time>
      </trkpt>
      <trkpt lat="47.29392" lon="-2.51001">
        <ele>-3.7999999523163</ele>
        <time>2021-09-23T08:36:15.000Z</time>
      </trkpt>
      <trkpt lat="47.29393" lon="-2.51008">
        <ele>-3.7999999523163</ele>
        <time>2021-09-23T08:36:16.000Z</time>
      </trkpt>
      <trkpt lat="47.29406" lon="-2.51029">
        <ele>-3.7999999523163</ele>
        <time>2021-09-23T08:36:20.000Z</time>
      </trkpt>
      <trkpt lat="47.29416" lon="-2.51041">
        <ele>-3.7999999523163</ele>
        <time>2021-09-23T08:36:23.000Z</time>
      </trkpt>
      <trkpt lat="47.29422" lon="-2.51049">
        <ele>-3.7999999523163</ele>
        <time>2021-09-23T08:36:25.000Z</time>
      </trkpt>
      <trkpt lat="47.29436" lon="-2.51069">
        <ele>-3.7999999523163</ele>
        <time>2021-09-23T08:36:31.000Z</time>
      </trkpt>
      <trkpt lat="47.29451" lon="-2.51087">
        <ele>-3.7999999523163</ele>
        <time>2021-09-23T08:36:38.000Z</time>
      </trkpt>
      <trkpt lat="47.29462" lon="-2.51104">
        <ele>-3.7999999523163</ele>
        <time>2021-09-23T08:36:45.000Z</time>
      </trkpt>
      <trkpt lat="47.29479" lon="-2.51124">
        <ele>-3.7999999523163</ele>
        <time>2021-09-23T08:36:52.000Z</time>
      </trkpt>
      <trkpt lat="47.295" lon="-2.51153">
        <ele>-3.7999999523163</ele>
        <time>2021-09-23T08:37:00.000Z</time>
      </trkpt>
      <trkpt lat="47.29502" lon="-2.51159">
        <ele>-3.7999999523163</ele>
        <time>2021-09-23T08:37:01.000Z</time>
      </trkpt>
      <trkpt lat="47.29507" lon="-2.51178">
        <ele>-3.7999999523163</ele>
        <time>2021-09-23T08:37:04.000Z</time>
      </trkpt>
      <trkpt lat="47.29513" lon="-2.51197">
        <ele>-3.7999999523163</ele>
        <time>2021-09-23T08:37:07.000Z</time>
      </trkpt>
      <trkpt lat="47.29525" lon="-2.51237">
        <ele>-3.7999999523163</ele>
        <time>2021-09-23T08:37:14.000Z</time>
      </trkpt>
      <trkpt lat="47.29527" lon="-2.51243">
        <ele>-3.7999999523163</ele>
        <time>2021-09-23T08:37:15.000Z</time>
      </trkpt>
      <trkpt lat="47.29528" lon="-2.51254">
        <ele>-3.7999999523163</ele>
        <time>2021-09-23T08:37:17.000Z</time>
      </trkpt>
      <trkpt lat="47.29533" lon="-2.51277">
        <ele>-3.7999999523163</ele>
        <time>2021-09-23T08:37:21.000Z</time>
      </trkpt>
      <trkpt lat="47.29541" lon="-2.51306">
        <ele>-3.7999999523163</ele>
        <time>2021-09-23T08:37:26.000Z</time>
      </trkpt>
      <trkpt lat="47.29543" lon="-2.51312">
        <ele>-3.7999999523163</ele>
        <time>2021-09-23T08:37:27.000Z</time>
      </trkpt>
      <trkpt lat="47.29548" lon="-2.5132">
        <ele>-3.7999999523163</ele>
        <time>2021-09-23T08:37:29.000Z</time>
      </trkpt>
      <trkpt lat="47.29555" lon="-2.51324">
        <ele>-3.7999999523163</ele>
        <time>2021-09-23T08:37:31.000Z</time>
      </trkpt>
      <trkpt lat="47.29586" lon="-2.51337">
        <ele>-3.7999999523163</ele>
        <time>2021-09-23T08:37:39.000Z</time>
      </trkpt>
      <trkpt lat="47.29603" lon="-2.51349">
        <ele>-3.7999999523163</ele>
        <time>2021-09-23T08:37:44.000Z</time>
      </trkpt>
      <trkpt lat="47.2962" lon="-2.51361">
        <ele>-3.7999999523163</ele>
        <time>2021-09-23T08:37:49.000Z</time>
      </trkpt>
      <trkpt lat="47.29624" lon="-2.51365">
        <ele>-3.7999999523163</ele>
        <time>2021-09-23T08:37:50.000Z</time>
      </trkpt>
      <trkpt lat="47.29653" lon="-2.51389">
        <ele>-3.7999999523163</ele>
        <time>2021-09-23T08:37:57.000Z</time>
      </trkpt>
      <trkpt lat="47.29684" lon="-2.51414">
        <ele>-3.7999999523163</ele>
        <time>2021-09-23T08:38:04.000Z</time>
      </trkpt>
      <trkpt lat="47.29697" lon="-2.51425">
        <ele>-3.4000000953674</ele>
        <time>2021-09-23T08:38:07.000Z</time>
      </trkpt>
      <trkpt lat="47.29702" lon="-2.51427">
        <ele>-3</ele>
        <time>2021-09-23T08:38:08.000Z</time>
      </trkpt>
      <trkpt lat="47.29706" lon="-2.5143">
        <ele>-2.5999999046326</ele>
        <time>2021-09-23T08:38:09.000Z</time>
      </trkpt>
      <trkpt lat="47.29711" lon="-2.51433">
        <ele>-2.2000000476837</ele>
        <time>2021-09-23T08:38:10.000Z</time>
      </trkpt>
      <trkpt lat="47.29715" lon="-2.51436">
        <ele>-1.6000000238419</ele>
        <time>2021-09-23T08:38:11.000Z</time>
      </trkpt>
      <trkpt lat="47.2972" lon="-2.51438">
        <ele>-2.2000000476837</ele>
        <time>2021-09-23T08:38:12.000Z</time>
      </trkpt>
      <trkpt lat="47.29724" lon="-2.51441">
        <ele>-2.5999999046326</ele>
        <time>2021-09-23T08:38:13.000Z</time>
      </trkpt>
      <trkpt lat="47.29729" lon="-2.51443">
        <ele>-3</ele>
        <time>2021-09-23T08:38:14.000Z</time>
      </trkpt>
      <trkpt lat="47.29733" lon="-2.51446">
        <ele>-3.4000000953674</ele>
        <time>2021-09-23T08:38:15.000Z</time>
      </trkpt>
      <trkpt lat="47.29737" lon="-2.51449">
        <ele>-3.7999999523163</ele>
        <time>2021-09-23T08:38:16.000Z</time>
      </trkpt>
      <trkpt lat="47.29746" lon="-2.51454">
        <ele>-3.7999999523163</ele>
        <time>2021-09-23T08:38:18.000Z</time>
      </trkpt>
      <trkpt lat="47.29764" lon="-2.51466">
        <ele>-3.7999999523163</ele>
        <time>2021-09-23T08:38:22.000Z</time>
      </trkpt>
      <trkpt lat="47.29781" lon="-2.51478">
        <ele>-3.7999999523163</ele>
        <time>2021-09-23T08:38:26.000Z</time>
      </trkpt>
      <trkpt lat="47.29785" lon="-2.5148">
        <ele>-3.7999999523163</ele>
        <time>2021-09-23T08:38:27.000Z</time>
      </trkpt>
      <trkpt lat="47.29794" lon="-2.51483">
        <ele>-3.7999999523163</ele>
        <time>2021-09-23T08:38:29.000Z</time>
      </trkpt>
      <trkpt lat="47.29803" lon="-2.51484">
        <ele>-3.7999999523163</ele>
        <time>2021-09-23T08:38:31.000Z</time>
      </trkpt>
      <trkpt lat="47.29813" lon="-2.5149">
        <ele>-3.7999999523163</ele>
        <time>2021-09-23T08:38:34.000Z</time>
      </trkpt>
      <trkpt lat="47.29816" lon="-2.51491">
        <ele>-3.7999999523163</ele>
        <time>2021-09-23T08:38:35.000Z</time>
      </trkpt>
      <trkpt lat="47.29824" lon="-2.51488">
        <ele>-3.7999999523163</ele>
        <time>2021-09-23T08:38:38.000Z</time>
      </trkpt>
      <trkpt lat="47.29833" lon="-2.51489">
        <ele>-3.7999999523163</ele>
        <time>2021-09-23T08:38:41.000Z</time>
      </trkpt>
      <trkpt lat="47.29836" lon="-2.51492">
        <ele>-3.7999999523163</ele>
        <time>2021-09-23T08:38:42.000Z</time>
      </trkpt>
      <trkpt lat="47.29843" lon="-2.51506">
        <ele>-3.7999999523163</ele>
        <time>2021-09-23T08:38:45.000Z</time>
      </trkpt>
      <trkpt lat="47.29845" lon="-2.5151">
        <ele>-3.7999999523163</ele>
        <time>2021-09-23T08:38:46.000Z</time>
      </trkpt>
      <trkpt lat="47.29848" lon="-2.51514">
        <ele>-3.7999999523163</ele>
        <time>2021-09-23T08:38:47.000Z</time>
      </trkpt>
      <trkpt lat="47.29859" lon="-2.51526">
        <ele>-3.7999999523163</ele>
        <time>2021-09-23T08:38:50.000Z</time>
      </trkpt>
      <trkpt lat="47.29865" lon="-2.51533">
        <ele>-3.7999999523163</ele>
        <time>2021-09-23T08:38:52.000Z</time>
      </trkpt>
      <trkpt lat="47.29868" lon="-2.51538">
        <ele>-3.7999999523163</ele>
        <time>2021-09-23T08:38:53.000Z</time>
      </trkpt>
      <trkpt lat="47.29881" lon="-2.51561">
        <ele>-3.7999999523163</ele>
        <time>2021-09-23T08:38:58.000Z</time>
      </trkpt>
      <trkpt lat="47.29885" lon="-2.51572">
        <ele>-3.7999999523163</ele>
        <time>2021-09-23T08:39:00.000Z</time>
      </trkpt>
      <trkpt lat="47.29896" lon="-2.51616">
        <ele>-3.7999999523163</ele>
        <time>2021-09-23T08:39:08.000Z</time>
      </trkpt>
      <trkpt lat="47.299" lon="-2.5164">
        <ele>-3.7999999523163</ele>
        <time>2021-09-23T08:39:13.000Z</time>
      </trkpt>
      <trkpt lat="47.29912" lon="-2.5167">
        <ele>-3.7999999523163</ele>
        <time>2021-09-23T08:39:19.000Z</time>
      </trkpt>
      <trkpt lat="47.29928" lon="-2.5171">
        <ele>-3.7999999523163</ele>
        <time>2021-09-23T08:39:26.000Z</time>
      </trkpt>
      <trkpt lat="47.29946" lon="-2.51753">
        <ele>-3.7999999523163</ele>
        <time>2021-09-23T08:39:33.000Z</time>
      </trkpt>
      <trkpt lat="47.29969" lon="-2.51802">
        <ele>-3.7999999523163</ele>
        <time>2021-09-23T08:39:42.000Z</time>
      </trkpt>
      <trkpt lat="47.29982" lon="-2.51833">
        <ele>-3.7999999523163</ele>
        <time>2021-09-23T08:39:48.000Z</time>
      </trkpt>
      <trkpt lat="47.2999" lon="-2.51862">
        <ele>-3.7999999523163</ele>
        <time>2021-09-23T08:39:54.000Z</time>
      </trkpt>
      <trkpt lat="47.29988" lon="-2.51879">
        <ele>-3.7999999523163</ele>
        <time>2021-09-23T08:39:58.000Z</time>
      </trkpt>
      <trkpt lat="47.2999" lon="-2.51883">
        <ele>-3.7999999523163</ele>
        <time>2021-09-23T08:39:59.000Z</time>
      </trkpt>
      <trkpt lat="47.30006" lon="-2.5191">
        <ele>-3.7999999523163</ele>
        <time>2021-09-23T08:40:05.000Z</time>
      </trkpt>
      <trkpt lat="47.30026" lon="-2.51939">
        <ele>-3.7999999523163</ele>
        <time>2021-09-23T08:40:11.000Z</time>
      </trkpt>
      <trkpt lat="47.3005" lon="-2.51975">
        <ele>-3.7999999523163</ele>
        <time>2021-09-23T08:40:18.000Z</time>
      </trkpt>
      <trkpt lat="47.30064" lon="-2.52">
        <ele>-3.7999999523163</ele>
        <time>2021-09-23T08:40:22.000Z</time>
      </trkpt>
      <trkpt lat="47.30066" lon="-2.52007">
        <ele>-3.7999999523163</ele>
        <time>2021-09-23T08:40:23.000Z</time>
      </trkpt>
      <trkpt lat="47.3007" lon="-2.52028">
        <ele>-3.7999999523163</ele>
        <time>2021-09-23T08:40:26.000Z</time>
      </trkpt>
      <trkpt lat="47.30073" lon="-2.5204">
        <ele>-3.7999999523163</ele>
        <time>2021-09-23T08:40:28.000Z</time>
      </trkpt>
      <trkpt lat="47.30077" lon="-2.52051">
        <ele>-3.7999999523163</ele>
        <time>2021-09-23T08:40:30.000Z</time>
      </trkpt>
      <trkpt lat="47.30079" lon="-2.5207">
        <ele>-3.7999999523163</ele>
        <time>2021-09-23T08:40:33.000Z</time>
      </trkpt>
      <trkpt lat="47.30068" lon="-2.5208">
        <ele>-3.7999999523163</ele>
        <time>2021-09-23T08:40:36.000Z</time>
      </trkpt>
      <trkpt lat="47.30052" lon="-2.52082">
        <ele>-3.4000000953674</ele>
        <time>2021-09-23T08:40:39.000Z</time>
      </trkpt>
      <trkpt lat="47.30047" lon="-2.52082">
        <ele>-3</ele>
        <time>2021-09-23T08:40:40.000Z</time>
      </trkpt>
      <trkpt lat="47.30043" lon="-2.52082">
        <ele>-2.5999999046326</ele>
        <time>2021-09-23T08:40:41.000Z</time>
      </trkpt>
      <trkpt lat="47.30038" lon="-2.52082">
        <ele>-2.2000000476837</ele>
        <time>2021-09-23T08:40:42.000Z</time>
      </trkpt>
      <trkpt lat="47.30033" lon="-2.52085">
        <ele>-1.7999999523163</ele>
        <time>2021-09-23T08:40:43.000Z</time>
      </trkpt>
      <trkpt lat="47.30029" lon="-2.52089">
        <ele>-1.7999999523163</ele>
        <time>2021-09-23T08:40:44.000Z</time>
      </trkpt>
      <trkpt lat="47.30027" lon="-2.52107">
        <ele>-1.7999999523163</ele>
        <time>2021-09-23T08:40:47.000Z</time>
      </trkpt>
      <trkpt lat="47.30028" lon="-2.52116">
        <ele>-1.7999999523163</ele>
        <time>2021-09-23T08:40:48.000Z</time>
      </trkpt>
      <trkpt lat="47.30036" lon="-2.52162">
        <ele>-1.7999999523163</ele>
        <time>2021-09-23T08:40:53.000Z</time>
      </trkpt>
      <trkpt lat="47.30044" lon="-2.52243">
        <ele>-1.7999999523163</ele>
        <time>2021-09-23T08:41:02.000Z</time>
      </trkpt>
      <trkpt lat="47.30046" lon="-2.52261">
        <ele>-1.7999999523163</ele>
        <time>2021-09-23T08:41:04.000Z</time>
      </trkpt>
      <trkpt lat="47.3005" lon="-2.52288">
        <ele>-1.7999999523163</ele>
        <time>2021-09-23T08:41:07.000Z</time>
      </trkpt>
      <trkpt lat="47.3005" lon="-2.52305">
        <ele>-1.7999999523163</ele>
        <time>2021-09-23T08:41:09.000Z</time>
      </trkpt>
      <trkpt lat="47.30051" lon="-2.52315">
        <ele>-1.7999999523163</ele>
        <time>2021-09-23T08:41:10.000Z</time>
      </trkpt>
      <trkpt lat="47.30053" lon="-2.52324">
        <ele>-1.7999999523163</ele>
        <time>2021-09-23T08:41:11.000Z</time>
      </trkpt>
      <trkpt lat="47.30064" lon="-2.52392">
        <ele>-1.7999999523163</ele>
        <time>2021-09-23T08:41:18.000Z</time>
      </trkpt>
      <trkpt lat="47.3007" lon="-2.52455">
        <ele>-1.7999999523163</ele>
        <time>2021-09-23T08:41:24.000Z</time>
      </trkpt>
      <trkpt lat="47.30075" lon="-2.5249">
        <ele>-2.2000000476837</ele>
        <time>2021-09-23T08:41:27.000Z</time>
      </trkpt>
      <trkpt lat="47.30076" lon="-2.52502">
        <ele>-2.5999999046326</ele>
        <time>2021-09-23T08:41:28.000Z</time>
      </trkpt>
      <trkpt lat="47.30078" lon="-2.52514">
        <ele>-3</ele>
        <time>2021-09-23T08:41:29.000Z</time>
      </trkpt>
      <trkpt lat="47.3008" lon="-2.52526">
        <ele>-3.4000000953674</ele>
        <time>2021-09-23T08:41:30.000Z</time>
      </trkpt>
      <trkpt lat="47.30081" lon="-2.52537">
        <ele>-3.7999999523163</ele>
        <time>2021-09-23T08:41:31.000Z</time>
      </trkpt>
      <trkpt lat="47.3009" lon="-2.5262">
        <ele>-3.7999999523163</ele>
        <time>2021-09-23T08:41:38.000Z</time>
      </trkpt>
      <trkpt lat="47.30091" lon="-2.52632">
        <ele>-3.7999999523163</ele>
        <time>2021-09-23T08:41:39.000Z</time>
      </trkpt>
      <trkpt lat="47.30096" lon="-2.52713">
        <ele>-3.7999999523163</ele>
        <time>2021-09-23T08:41:46.000Z</time>
      </trkpt>
      <trkpt lat="47.30096" lon="-2.52724">
        <ele>-3.7999999523163</ele>
        <time>2021-09-23T08:41:47.000Z</time>
      </trkpt>
      <trkpt lat="47.30091" lon="-2.52755">
        <ele>-3.7999999523163</ele>
        <time>2021-09-23T08:41:50.000Z</time>
      </trkpt>
      <trkpt lat="47.30081" lon="-2.52824">
        <ele>-3.7999999523163</ele>
        <time>2021-09-23T08:41:57.000Z</time>
      </trkpt>
      <trkpt lat="47.30071" lon="-2.5288">
        <ele>-3.7999999523163</ele>
        <time>2021-09-23T08:42:03.000Z</time>
      </trkpt>
      <trkpt lat="47.30056" lon="-2.52947">
        <ele>-3.7999999523163</ele>
        <time>2021-09-23T08:42:10.000Z</time>
      </trkpt>
      <trkpt lat="47.3004" lon="-2.5302">
        <ele>-3.7999999523163</ele>
        <time>2021-09-23T08:42:17.000Z</time>
      </trkpt>
      <trkpt lat="47.30038" lon="-2.53077">
        <ele>-3.7999999523163</ele>
        <time>2021-09-23T08:42:22.000Z</time>
      </trkpt>
      <trkpt lat="47.30044" lon="-2.53159">
        <ele>-3.7999999523163</ele>
        <time>2021-09-23T08:42:29.000Z</time>
      </trkpt>
      <trkpt lat="47.30047" lon="-2.53229">
        <ele>-3.7999999523163</ele>
        <time>2021-09-23T08:42:35.000Z</time>
      </trkpt>
      <trkpt lat="47.30049" lon="-2.53306">
        <ele>-3.7999999523163</ele>
        <time>2021-09-23T08:42:42.000Z</time>
      </trkpt>
      <trkpt lat="47.30043" lon="-2.53364">
        <ele>-3.7999999523163</ele>
        <time>2021-09-23T08:42:47.000Z</time>
      </trkpt>
      <trkpt lat="47.30026" lon="-2.53416">
        <ele>-3.7999999523163</ele>
        <time>2021-09-23T08:42:52.000Z</time>
      </trkpt>
      <trkpt lat="47.29999" lon="-2.53468">
        <ele>-3.7999999523163</ele>
        <time>2021-09-23T08:42:58.000Z</time>
      </trkpt>
      <trkpt lat="47.29963" lon="-2.53527">
        <ele>-3.7999999523163</ele>
        <time>2021-09-23T08:43:05.000Z</time>
      </trkpt>
      <trkpt lat="47.29927" lon="-2.53593">
        <ele>-3.7999999523163</ele>
        <time>2021-09-23T08:43:12.000Z</time>
      </trkpt>
      <trkpt lat="47.29923" lon="-2.53603">
        <ele>-3.7999999523163</ele>
        <time>2021-09-23T08:43:13.000Z</time>
      </trkpt>
      <trkpt lat="47.29914" lon="-2.53634">
        <ele>-3.7999999523163</ele>
        <time>2021-09-23T08:43:16.000Z</time>
      </trkpt>
      <trkpt lat="47.29908" lon="-2.53684">
        <ele>-3.7999999523163</ele>
        <time>2021-09-23T08:43:21.000Z</time>
      </trkpt>
      <trkpt lat="47.29907" lon="-2.53702">
        <ele>-3.7999999523163</ele>
        <time>2021-09-23T08:43:23.000Z</time>
      </trkpt>
      <trkpt lat="47.29901" lon="-2.53716">
        <ele>-3.7999999523163</ele>
        <time>2021-09-23T08:43:25.000Z</time>
      </trkpt>
      <trkpt lat="47.29893" lon="-2.5373">
        <ele>-3.7999999523163</ele>
        <time>2021-09-23T08:43:27.000Z</time>
      </trkpt>
      <trkpt lat="47.29881" lon="-2.5375">
        <ele>-3.7999999523163</ele>
        <time>2021-09-23T08:43:30.000Z</time>
      </trkpt>
      <trkpt lat="47.29868" lon="-2.53769">
        <ele>-3.7999999523163</ele>
        <time>2021-09-23T08:43:33.000Z</time>
      </trkpt>
      <trkpt lat="47.29858" lon="-2.53777">
        <ele>-3.7999999523163</ele>
        <time>2021-09-23T08:43:35.000Z</time>
      </trkpt>
      <trkpt lat="47.29853" lon="-2.53782">
        <ele>-3.7999999523163</ele>
        <time>2021-09-23T08:43:36.000Z</time>
      </trkpt>
      <trkpt lat="47.29834" lon="-2.53807">
        <ele>-3.7999999523163</ele>
        <time>2021-09-23T08:43:40.000Z</time>
      </trkpt>
      <trkpt lat="47.29822" lon="-2.53829">
        <ele>-3.7999999523163</ele>
        <time>2021-09-23T08:43:43.000Z</time>
      </trkpt>
      <trkpt lat="47.29818" lon="-2.53845">
        <ele>-3.7999999523163</ele>
        <time>2021-09-23T08:43:45.000Z</time>
      </trkpt>
      <trkpt lat="47.29815" lon="-2.5387">
        <ele>-3.7999999523163</ele>
        <time>2021-09-23T08:43:48.000Z</time>
      </trkpt>
      <trkpt lat="47.29814" lon="-2.53878">
        <ele>-3.7999999523163</ele>
        <time>2021-09-23T08:43:49.000Z</time>
      </trkpt>
      <trkpt lat="47.29809" lon="-2.53893">
        <ele>-3.7999999523163</ele>
        <time>2021-09-23T08:43:51.000Z</time>
      </trkpt>
      <trkpt lat="47.29793" lon="-2.53928">
        <ele>-3.7999999523163</ele>
        <time>2021-09-23T08:43:56.000Z</time>
      </trkpt>
      <trkpt lat="47.29788" lon="-2.53933">
        <ele>-3.7999999523163</ele>
        <time>2021-09-23T08:43:57.000Z</time>
      </trkpt>
      <trkpt lat="47.2976" lon="-2.53944">
        <ele>-3.7999999523163</ele>
        <time>2021-09-23T08:44:02.000Z</time>
      </trkpt>
      <trkpt lat="47.29754" lon="-2.53944">
        <ele>-3.7999999523163</ele>
        <time>2021-09-23T08:44:03.000Z</time>
      </trkpt>
      <trkpt lat="47.29724" lon="-2.53944">
        <ele>-3.7999999523163</ele>
        <time>2021-09-23T08:44:08.000Z</time>
      </trkpt>
      <trkpt lat="47.29708" lon="-2.53943">
        <ele>-3.7999999523163</ele>
        <time>2021-09-23T08:44:11.000Z</time>
      </trkpt>
      <trkpt lat="47.29704" lon="-2.53942">
        <ele>-3.7999999523163</ele>
        <time>2021-09-23T08:44:12.000Z</time>
      </trkpt>
      <trkpt lat="47.297" lon="-2.53931">
        <ele>-3.7999999523163</ele>
        <time>2021-09-23T08:44:15.000Z</time>
      </trkpt>
      <trkpt lat="47.297" lon="-2.5392">
        <ele>-3.7999999523163</ele>
        <time>2021-09-23T08:44:17.000Z</time>
      </trkpt>
      <trkpt lat="47.297" lon="-2.539">
        <ele>-3.7999999523163</ele>
        <time>2021-09-23T08:44:20.000Z</time>
      </trkpt>
      <trkpt lat="47.297" lon="-2.53892">
        <ele>-3.7999999523163</ele>
        <time>2021-09-23T08:44:21.000Z</time>
      </trkpt>
      <trkpt lat="47.29702" lon="-2.53864">
        <ele>-3.7999999523163</ele>
        <time>2021-09-23T08:44:25.000Z</time>
      </trkpt>
      <trkpt lat="47.29702" lon="-2.53856">
        <ele>-3.4000000953674</ele>
        <time>2021-09-23T08:44:26.000Z</time>
      </trkpt>
      <trkpt lat="47.29703" lon="-2.53849">
        <ele>-3</ele>
        <time>2021-09-23T08:44:27.000Z</time>
      </trkpt>
      <trkpt lat="47.29703" lon="-2.53842">
        <ele>-2.5999999046326</ele>
        <time>2021-09-23T08:44:28.000Z</time>
      </trkpt>
      <trkpt lat="47.29703" lon="-2.53836">
        <ele>-2.2000000476837</ele>
        <time>2021-09-23T08:44:29.000Z</time>
      </trkpt>
      <trkpt lat="47.29704" lon="-2.5383">
        <ele>-1.7999999523163</ele>
        <time>2021-09-23T08:44:30.000Z</time>
      </trkpt>
      <trkpt lat="47.29705" lon="-2.53806">
        <ele>-1.7999999523163</ele>
        <time>2021-09-23T08:44:35.000Z</time>
      </trkpt>
      <trkpt lat="47.29703" lon="-2.53801">
        <ele>-1.7999999523163</ele>
        <time>2021-09-23T08:44:36.000Z</time>
      </trkpt>
      <trkpt lat="47.29695" lon="-2.53795">
        <ele>-1.7999999523163</ele>
        <time>2021-09-23T08:44:38.000Z</time>
      </trkpt>
      <trkpt lat="47.29679" lon="-2.53793">
        <ele>-1.7999999523163</ele>
        <time>2021-09-23T08:44:41.000Z</time>
      </trkpt>
      <trkpt lat="47.29674" lon="-2.53793">
        <ele>-1.7999999523163</ele>
        <time>2021-09-23T08:44:42.000Z</time>
      </trkpt>
      <trkpt lat="47.29668" lon="-2.53794">
        <ele>-1.7999999523163</ele>
        <time>2021-09-23T08:44:43.000Z</time>
      </trkpt>
      <trkpt lat="47.2965" lon="-2.538">
        <ele>-1.7999999523163</ele>
        <time>2021-09-23T08:44:46.000Z</time>
      </trkpt>
      <trkpt lat="47.29622" lon="-2.53822">
        <ele>-1.7999999523163</ele>
        <time>2021-09-23T08:44:51.000Z</time>
      </trkpt>
      <trkpt lat="47.29582" lon="-2.53857">
        <ele>-1.7999999523163</ele>
        <time>2021-09-23T08:44:58.000Z</time>
      </trkpt>
      <trkpt lat="47.29571" lon="-2.53871">
        <ele>-1.7999999523163</ele>
        <time>2021-09-23T08:45:00.000Z</time>
      </trkpt>
      <trkpt lat="47.29562" lon="-2.53888">
        <ele>-1.7999999523163</ele>
        <time>2021-09-23T08:45:02.000Z</time>
      </trkpt>
      <trkpt lat="47.2954" lon="-2.53943">
        <ele>-1.7999999523163</ele>
        <time>2021-09-23T08:45:08.000Z</time>
      </trkpt>
      <trkpt lat="47.29511" lon="-2.5399">
        <ele>-1.7999999523163</ele>
        <time>2021-09-23T08:45:14.000Z</time>
      </trkpt>
      <trkpt lat="47.2948" lon="-2.54029">
        <ele>-1.3999999761581</ele>
        <time>2021-09-23T08:45:20.000Z</time>
      </trkpt>
      <trkpt lat="47.29474" lon="-2.54034">
        <ele>-1</ele>
        <time>2021-09-23T08:45:21.000Z</time>
      </trkpt>
      <trkpt lat="47.29468" lon="-2.54039">
        <ele>-0.60000002384186</ele>
        <time>2021-09-23T08:45:22.000Z</time>
      </trkpt>
      <trkpt lat="47.29462" lon="-2.54044">
        <ele>0.40000000596046</ele>
        <time>2021-09-23T08:45:23.000Z</time>
      </trkpt>
      <trkpt lat="47.29435" lon="-2.54063">
        <ele>0.40000000596046</ele>
        <time>2021-09-23T08:45:27.000Z</time>
      </trkpt>
      <trkpt lat="47.29413" lon="-2.54081">
        <ele>0.40000000596046</ele>
        <time>2021-09-23T08:45:31.000Z</time>
      </trkpt>
      <trkpt lat="47.2941" lon="-2.54087">
        <ele>0.40000000596046</ele>
        <time>2021-09-23T08:45:32.000Z</time>
      </trkpt>
      <trkpt lat="47.29402" lon="-2.54117">
        <ele>0.40000000596046</ele>
        <time>2021-09-23T08:45:36.000Z</time>
      </trkpt>
      <trkpt lat="47.29393" lon="-2.54136">
        <ele>0.40000000596046</ele>
        <time>2021-09-23T08:45:39.000Z</time>
      </trkpt>
      <trkpt lat="47.29381" lon="-2.54144">
        <ele>0.40000000596046</ele>
        <time>2021-09-23T08:45:41.000Z</time>
      </trkpt>
      <trkpt lat="47.29362" lon="-2.54159">
        <ele>0.40000000596046</ele>
        <time>2021-09-23T08:45:44.000Z</time>
      </trkpt>
      <trkpt lat="47.2932" lon="-2.54192">
        <ele>0.40000000596046</ele>
        <time>2021-09-23T08:45:51.000Z</time>
      </trkpt>
      <trkpt lat="47.29284" lon="-2.54221">
        <ele>0.40000000596046</ele>
        <time>2021-09-23T08:45:57.000Z</time>
      </trkpt>
      <trkpt lat="47.29249" lon="-2.54246">
        <ele>0.40000000596046</ele>
        <time>2021-09-23T08:46:03.000Z</time>
      </trkpt>
      <trkpt lat="47.29214" lon="-2.54271">
        <ele>0.40000000596046</ele>
        <time>2021-09-23T08:46:09.000Z</time>
      </trkpt>
      <trkpt lat="47.29196" lon="-2.54283">
        <ele>0.40000000596046</ele>
        <time>2021-09-23T08:46:12.000Z</time>
      </trkpt>
      <trkpt lat="47.2919" lon="-2.54286">
        <ele>-0.20000000298023</ele>
        <time>2021-09-23T08:46:13.000Z</time>
      </trkpt>
      <trkpt lat="47.29184" lon="-2.54287">
        <ele>-0.60000002384186</ele>
        <time>2021-09-23T08:46:14.000Z</time>
      </trkpt>
      <trkpt lat="47.29178" lon="-2.54287">
        <ele>-1</ele>
        <time>2021-09-23T08:46:15.000Z</time>
      </trkpt>
      <trkpt lat="47.29171" lon="-2.54287">
        <ele>-1.3999999761581</ele>
        <time>2021-09-23T08:46:16.000Z</time>
      </trkpt>
      <trkpt lat="47.29165" lon="-2.54287">
        <ele>-1.7999999523163</ele>
        <time>2021-09-23T08:46:17.000Z</time>
      </trkpt>
      <trkpt lat="47.29138" lon="-2.54291">
        <ele>-1.7999999523163</ele>
        <time>2021-09-23T08:46:21.000Z</time>
      </trkpt>
      <trkpt lat="47.29109" lon="-2.54289">
        <ele>-1.7999999523163</ele>
        <time>2021-09-23T08:46:26.000Z</time>
      </trkpt>
      <trkpt lat="47.2909" lon="-2.54283">
        <ele>-1.7999999523163</ele>
        <time>2021-09-23T08:46:31.000Z</time>
      </trkpt>
      <trkpt lat="47.29075" lon="-2.54282">
        <ele>-1.7999999523163</ele>
        <time>2021-09-23T08:46:37.000Z</time>
      </trkpt>
      <trkpt lat="47.29074" lon="-2.54282">
        <ele>-1.7999999523163</ele>
        <time>2021-09-23T08:46:40.000Z</time>
      </trkpt>
      <trkpt lat="47.2907" lon="-2.54291">
        <ele>-3.7999999523163</ele>
        <time>2021-09-23T09:02:59.000Z</time>
      </trkpt>
      <trkpt lat="47.29062" lon="-2.54275">
        <ele>-3.7999999523163</ele>
        <time>2021-09-23T09:03:05.000Z</time>
      </trkpt>
      <trkpt lat="47.29052" lon="-2.54261">
        <ele>-3.7999999523163</ele>
        <time>2021-09-23T09:03:09.000Z</time>
      </trkpt>
      <trkpt lat="47.2905" lon="-2.54256">
        <ele>-3.7999999523163</ele>
        <time>2021-09-23T09:03:10.000Z</time>
      </trkpt>
      <trkpt lat="47.29048" lon="-2.5425">
        <ele>-3.4000000953674</ele>
        <time>2021-09-23T09:03:11.000Z</time>
      </trkpt>
      <trkpt lat="47.29048" lon="-2.54243">
        <ele>-3</ele>
        <time>2021-09-23T09:03:12.000Z</time>
      </trkpt>
      <trkpt lat="47.29047" lon="-2.54236">
        <ele>-2.5999999046326</ele>
        <time>2021-09-23T09:03:13.000Z</time>
      </trkpt>
      <trkpt lat="47.29048" lon="-2.5423">
        <ele>-2.2000000476837</ele>
        <time>2021-09-23T09:03:14.000Z</time>
      </trkpt>
      <trkpt lat="47.29049" lon="-2.54223">
        <ele>-1.6000000238419</ele>
        <time>2021-09-23T09:03:15.000Z</time>
      </trkpt>
      <trkpt lat="47.29051" lon="-2.54204">
        <ele>-1.6000000238419</ele>
        <time>2021-09-23T09:03:18.000Z</time>
      </trkpt>
      <trkpt lat="47.29058" lon="-2.54186">
        <ele>-1.6000000238419</ele>
        <time>2021-09-23T09:03:21.000Z</time>
      </trkpt>
      <trkpt lat="47.29068" lon="-2.54149">
        <ele>-1.6000000238419</ele>
        <time>2021-09-23T09:03:27.000Z</time>
      </trkpt>
      <trkpt lat="47.29069" lon="-2.54142">
        <ele>-1.6000000238419</ele>
        <time>2021-09-23T09:03:28.000Z</time>
      </trkpt>
      <trkpt lat="47.29068" lon="-2.54116">
        <ele>-1.6000000238419</ele>
        <time>2021-09-23T09:03:32.000Z</time>
      </trkpt>
      <trkpt lat="47.29073" lon="-2.54082">
        <ele>-1.6000000238419</ele>
        <time>2021-09-23T09:03:38.000Z</time>
      </trkpt>
      <trkpt lat="47.29088" lon="-2.54045">
        <ele>-1.6000000238419</ele>
        <time>2021-09-23T09:03:44.000Z</time>
      </trkpt>
      <trkpt lat="47.29105" lon="-2.54001">
        <ele>-1.6000000238419</ele>
        <time>2021-09-23T09:03:51.000Z</time>
      </trkpt>
      <trkpt lat="47.29111" lon="-2.53982">
        <ele>-1.6000000238419</ele>
        <time>2021-09-23T09:03:54.000Z</time>
      </trkpt>
      <trkpt lat="47.29113" lon="-2.53977">
        <ele>-1.2000000476837</ele>
        <time>2021-09-23T09:03:55.000Z</time>
      </trkpt>
      <trkpt lat="47.29115" lon="-2.53971">
        <ele>-0.40000000596046</ele>
        <time>2021-09-23T09:03:56.000Z</time>
      </trkpt>
      <trkpt lat="47.29116" lon="-2.53965">
        <ele>9</ele>
        <time>2021-09-23T09:03:57.000Z</time>
      </trkpt>
      <trkpt lat="47.29116" lon="-2.53958">
        <ele>0.40000000596046</ele>
        <time>2021-09-23T09:03:58.000Z</time>
      </trkpt>
      <trkpt lat="47.29117" lon="-2.53935">
        <ele>0.40000000596046</ele>
        <time>2021-09-23T09:04:02.000Z</time>
      </trkpt>
      <trkpt lat="47.29116" lon="-2.53929">
        <ele>0.40000000596046</ele>
        <time>2021-09-23T09:04:03.000Z</time>
      </trkpt>
      <trkpt lat="47.29112" lon="-2.53912">
        <ele>0.40000000596046</ele>
        <time>2021-09-23T09:04:06.000Z</time>
      </trkpt>
      <trkpt lat="47.29111" lon="-2.539">
        <ele>0.40000000596046</ele>
        <time>2021-09-23T09:04:08.000Z</time>
      </trkpt>
      <trkpt lat="47.29108" lon="-2.53884">
        <ele>0.40000000596046</ele>
        <time>2021-09-23T09:04:11.000Z</time>
      </trkpt>
      <trkpt lat="47.29101" lon="-2.53845">
        <ele>0.80000001192093</ele>
        <time>2021-09-23T09:04:18.000Z</time>
      </trkpt>
      <trkpt lat="47.291" lon="-2.53839">
        <ele>1.2000000476837</ele>
        <time>2021-09-23T09:04:19.000Z</time>
      </trkpt>
      <trkpt lat="47.29099" lon="-2.53833">
        <ele>2</ele>
        <time>2021-09-23T09:04:20.000Z</time>
      </trkpt>
      <trkpt lat="47.29097" lon="-2.53828">
        <ele>2.4000000953674</ele>
        <time>2021-09-23T09:04:21.000Z</time>
      </trkpt>
      <trkpt lat="47.29097" lon="-2.53821">
        <ele>2.4000000953674</ele>
        <time>2021-09-23T09:04:22.000Z</time>
      </trkpt>
      <trkpt lat="47.29093" lon="-2.53798">
        <ele>2.4000000953674</ele>
        <time>2021-09-23T09:04:26.000Z</time>
      </trkpt>
      <trkpt lat="47.29091" lon="-2.53786">
        <ele>2.4000000953674</ele>
        <time>2021-09-23T09:04:28.000Z</time>
      </trkpt>
      <trkpt lat="47.29091" lon="-2.53767">
        <ele>2.4000000953674</ele>
        <time>2021-09-23T09:04:31.000Z</time>
      </trkpt>
      <trkpt lat="47.29094" lon="-2.53727">
        <ele>2.4000000953674</ele>
        <time>2021-09-23T09:04:37.000Z</time>
      </trkpt>
      <trkpt lat="47.29097" lon="-2.53669">
        <ele>2.4000000953674</ele>
        <time>2021-09-23T09:04:45.000Z</time>
      </trkpt>
      <trkpt lat="47.29096" lon="-2.53636">
        <ele>2.4000000953674</ele>
        <time>2021-09-23T09:04:50.000Z</time>
      </trkpt>
      <trkpt lat="47.29098" lon="-2.536">
        <ele>2.4000000953674</ele>
        <time>2021-09-23T09:04:55.000Z</time>
      </trkpt>
      <trkpt lat="47.29099" lon="-2.53569">
        <ele>2.4000000953674</ele>
        <time>2021-09-23T09:04:59.000Z</time>
      </trkpt>
      <trkpt lat="47.29107" lon="-2.53541">
        <ele>2.4000000953674</ele>
        <time>2021-09-23T09:05:04.000Z</time>
      </trkpt>
      <trkpt lat="47.29121" lon="-2.53527">
        <ele>2.4000000953674</ele>
        <time>2021-09-23T09:05:08.000Z</time>
      </trkpt>
      <trkpt lat="47.2913" lon="-2.53518">
        <ele>2.4000000953674</ele>
        <time>2021-09-23T09:05:10.000Z</time>
      </trkpt>
      <trkpt lat="47.29139" lon="-2.5351">
        <ele>2.4000000953674</ele>
        <time>2021-09-23T09:05:12.000Z</time>
      </trkpt>
      <trkpt lat="47.29142" lon="-2.53495">
        <ele>2.4000000953674</ele>
        <time>2021-09-23T09:05:14.000Z</time>
      </trkpt>
      <trkpt lat="47.2914" lon="-2.53464">
        <ele>2.4000000953674</ele>
        <time>2021-09-23T09:05:18.000Z</time>
      </trkpt>
      <trkpt lat="47.29134" lon="-2.53415">
        <ele>2.4000000953674</ele>
        <time>2021-09-23T09:05:24.000Z</time>
      </trkpt>
      <trkpt lat="47.2913" lon="-2.53349">
        <ele>2.4000000953674</ele>
        <time>2021-09-23T09:05:33.000Z</time>
      </trkpt>
      <trkpt lat="47.29127" lon="-2.53304">
        <ele>2.7999999523163</ele>
        <time>2021-09-23T09:05:40.000Z</time>
      </trkpt>
      <trkpt lat="47.29126" lon="-2.53298">
        <ele>3.4000000953674</ele>
        <time>2021-09-23T09:05:41.000Z</time>
      </trkpt>
      <trkpt lat="47.29126" lon="-2.53292">
        <ele>3.7999999523163</ele>
        <time>2021-09-23T09:05:42.000Z</time>
      </trkpt>
      <trkpt lat="47.29126" lon="-2.53286">
        <ele>4.1999998092651</ele>
        <time>2021-09-23T09:05:43.000Z</time>
      </trkpt>
      <trkpt lat="47.29125" lon="-2.53279">
        <ele>4.8000001907349</ele>
        <time>2021-09-23T09:05:44.000Z</time>
      </trkpt>
      <trkpt lat="47.29122" lon="-2.53268">
        <ele>4.8000001907349</ele>
        <time>2021-09-23T09:05:46.000Z</time>
      </trkpt>
      <trkpt lat="47.29118" lon="-2.53257">
        <ele>4.8000001907349</ele>
        <time>2021-09-23T09:05:48.000Z</time>
      </trkpt>
      <trkpt lat="47.29114" lon="-2.53243">
        <ele>4.8000001907349</ele>
        <time>2021-09-23T09:05:50.000Z</time>
      </trkpt>
      <trkpt lat="47.2911" lon="-2.5322">
        <ele>4.8000001907349</ele>
        <time>2021-09-23T09:05:53.000Z</time>
      </trkpt>
      <trkpt lat="47.29094" lon="-2.53152">
        <ele>4.8000001907349</ele>
        <time>2021-09-23T09:06:02.000Z</time>
      </trkpt>
      <trkpt lat="47.29091" lon="-2.53144">
        <ele>4.8000001907349</ele>
        <time>2021-09-23T09:06:03.000Z</time>
      </trkpt>
      <trkpt lat="47.2908" lon="-2.53122">
        <ele>4.8000001907349</ele>
        <time>2021-09-23T09:06:06.000Z</time>
      </trkpt>
      <trkpt lat="47.2907" lon="-2.53102">
        <ele>4.8000001907349</ele>
        <time>2021-09-23T09:06:09.000Z</time>
      </trkpt>
      <trkpt lat="47.29061" lon="-2.5308">
        <ele>4.8000001907349</ele>
        <time>2021-09-23T09:06:12.000Z</time>
      </trkpt>
      <trkpt lat="47.29043" lon="-2.53036">
        <ele>4.8000001907349</ele>
        <time>2021-09-23T09:06:19.000Z</time>
      </trkpt>
      <trkpt lat="47.29037" lon="-2.53023">
        <ele>4.8000001907349</ele>
        <time>2021-09-23T09:06:21.000Z</time>
      </trkpt>
      <trkpt lat="47.2903" lon="-2.53011">
        <ele>4.8000001907349</ele>
        <time>2021-09-23T09:06:23.000Z</time>
      </trkpt>
      <trkpt lat="47.29014" lon="-2.52976">
        <ele>4.8000001907349</ele>
        <time>2021-09-23T09:06:29.000Z</time>
      </trkpt>
      <trkpt lat="47.29001" lon="-2.52938">
        <ele>4.8000001907349</ele>
        <time>2021-09-23T09:06:35.000Z</time>
      </trkpt>
      <trkpt lat="47.2899" lon="-2.52901">
        <ele>5.1999998092651</ele>
        <time>2021-09-23T09:06:41.000Z</time>
      </trkpt>
      <trkpt lat="47.28988" lon="-2.52895">
        <ele>5.5999999046326</ele>
        <time>2021-09-23T09:06:42.000Z</time>
      </trkpt>
      <trkpt lat="47.28986" lon="-2.52888">
        <ele>6</ele>
        <time>2021-09-23T09:06:43.000Z</time>
      </trkpt>
      <trkpt lat="47.28984" lon="-2.52882">
        <ele>6.4000000953674</ele>
        <time>2021-09-23T09:06:44.000Z</time>
      </trkpt>
      <trkpt lat="47.28982" lon="-2.52876">
        <ele>6.8000001907349</ele>
        <time>2021-09-23T09:06:45.000Z</time>
      </trkpt>
      <trkpt lat="47.2898" lon="-2.52869">
        <ele>6.8000001907349</ele>
        <time>2021-09-23T09:06:46.000Z</time>
      </trkpt>
      <trkpt lat="47.28976" lon="-2.52856">
        <ele>6.8000001907349</ele>
        <time>2021-09-23T09:06:48.000Z</time>
      </trkpt>
      <trkpt lat="47.28972" lon="-2.52843">
        <ele>6.8000001907349</ele>
        <time>2021-09-23T09:06:50.000Z</time>
      </trkpt>
      <trkpt lat="47.28955" lon="-2.52797">
        <ele>6.8000001907349</ele>
        <time>2021-09-23T09:06:57.000Z</time>
      </trkpt>
      <trkpt lat="47.28953" lon="-2.52789">
        <ele>6.8000001907349</ele>
        <time>2021-09-23T09:06:58.000Z</time>
      </trkpt>
      <trkpt lat="47.28949" lon="-2.52764">
        <ele>6.8000001907349</ele>
        <time>2021-09-23T09:07:01.000Z</time>
      </trkpt>
      <trkpt lat="47.28947" lon="-2.52755">
        <ele>6.8000001907349</ele>
        <time>2021-09-23T09:07:02.000Z</time>
      </trkpt>
      <trkpt lat="47.28947" lon="-2.52746">
        <ele>6.8000001907349</ele>
        <time>2021-09-23T09:07:03.000Z</time>
      </trkpt>
      <trkpt lat="47.28945" lon="-2.52708">
        <ele>6.8000001907349</ele>
        <time>2021-09-23T09:07:07.000Z</time>
      </trkpt>
      <trkpt lat="47.28942" lon="-2.52621">
        <ele>6.8000001907349</ele>
        <time>2021-09-23T09:07:16.000Z</time>
      </trkpt>
      <trkpt lat="47.28938" lon="-2.5254">
        <ele>6.8000001907349</ele>
        <time>2021-09-23T09:07:25.000Z</time>
      </trkpt>
      <trkpt lat="47.28937" lon="-2.5253">
        <ele>6.8000001907349</ele>
        <time>2021-09-23T09:07:26.000Z</time>
      </trkpt>
      <trkpt lat="47.28935" lon="-2.52522">
        <ele>6.8000001907349</ele>
        <time>2021-09-23T09:07:27.000Z</time>
      </trkpt>
      <trkpt lat="47.28928" lon="-2.52496">
        <ele>6.8000001907349</ele>
        <time>2021-09-23T09:07:30.000Z</time>
      </trkpt>
      <trkpt lat="47.2892" lon="-2.52461">
        <ele>6.8000001907349</ele>
        <time>2021-09-23T09:07:34.000Z</time>
      </trkpt>
      <trkpt lat="47.28919" lon="-2.52452">
        <ele>6.4000000953674</ele>
        <time>2021-09-23T09:07:35.000Z</time>
      </trkpt>
      <trkpt lat="47.28917" lon="-2.52443">
        <ele>6</ele>
        <time>2021-09-23T09:07:36.000Z</time>
      </trkpt>
      <trkpt lat="47.28915" lon="-2.52434">
        <ele>5.5999999046326</ele>
        <time>2021-09-23T09:07:37.000Z</time>
      </trkpt>
      <trkpt lat="47.28914" lon="-2.52424">
        <ele>4.8000001907349</ele>
        <time>2021-09-23T09:07:38.000Z</time>
      </trkpt>
      <trkpt lat="47.28909" lon="-2.52387">
        <ele>4.8000001907349</ele>
        <time>2021-09-23T09:07:42.000Z</time>
      </trkpt>
      <trkpt lat="47.28905" lon="-2.5231">
        <ele>4.8000001907349</ele>
        <time>2021-09-23T09:07:50.000Z</time>
      </trkpt>
      <trkpt lat="47.28903" lon="-2.52241">
        <ele>4.8000001907349</ele>
        <time>2021-09-23T09:07:57.000Z</time>
      </trkpt>
      <trkpt lat="47.28901" lon="-2.52231">
        <ele>4.8000001907349</ele>
        <time>2021-09-23T09:07:58.000Z</time>
      </trkpt>
      <trkpt lat="47.28883" lon="-2.52181">
        <ele>4.8000001907349</ele>
        <time>2021-09-23T09:08:04.000Z</time>
      </trkpt>
      <trkpt lat="47.28867" lon="-2.52137">
        <ele>4.8000001907349</ele>
        <time>2021-09-23T09:08:10.000Z</time>
      </trkpt>
      <trkpt lat="47.28865" lon="-2.52112">
        <ele>4.8000001907349</ele>
        <time>2021-09-23T09:08:15.000Z</time>
      </trkpt>
      <trkpt lat="47.28864" lon="-2.52106">
        <ele>4.8000001907349</ele>
        <time>2021-09-23T09:08:16.000Z</time>
      </trkpt>
      <trkpt lat="47.28857" lon="-2.52089">
        <ele>4.8000001907349</ele>
        <time>2021-09-23T09:08:19.000Z</time>
      </trkpt>
      <trkpt lat="47.2884" lon="-2.52055">
        <ele>4.8000001907349</ele>
        <time>2021-09-23T09:08:24.000Z</time>
      </trkpt>
      <trkpt lat="47.28838" lon="-2.52048">
        <ele>4.8000001907349</ele>
        <time>2021-09-23T09:08:25.000Z</time>
      </trkpt>
      <trkpt lat="47.28817" lon="-2.51999">
        <ele>4.8000001907349</ele>
        <time>2021-09-23T09:08:32.000Z</time>
      </trkpt>
      <trkpt lat="47.28806" lon="-2.51973">
        <ele>4.4000000953674</ele>
        <time>2021-09-23T09:08:36.000Z</time>
      </trkpt>
      <trkpt lat="47.28804" lon="-2.51967">
        <ele>4</ele>
        <time>2021-09-23T09:08:37.000Z</time>
      </trkpt>
      <trkpt lat="47.28801" lon="-2.5196">
        <ele>3.5999999046326</ele>
        <time>2021-09-23T09:08:38.000Z</time>
      </trkpt>
      <trkpt lat="47.28799" lon="-2.51954">
        <ele>3.2000000476837</ele>
        <time>2021-09-23T09:08:39.000Z</time>
      </trkpt>
      <trkpt lat="47.28796" lon="-2.51948">
        <ele>2.7999999523163</ele>
        <time>2021-09-23T09:08:40.000Z</time>
      </trkpt>
      <trkpt lat="47.2879" lon="-2.51936">
        <ele>2.7999999523163</ele>
        <time>2021-09-23T09:08:42.000Z</time>
      </trkpt>
      <trkpt lat="47.28779" lon="-2.51918">
        <ele>2.7999999523163</ele>
        <time>2021-09-23T09:08:45.000Z</time>
      </trkpt>
      <trkpt lat="47.28776" lon="-2.51912">
        <ele>2.7999999523163</ele>
        <time>2021-09-23T09:08:46.000Z</time>
      </trkpt>
      <trkpt lat="47.2877" lon="-2.51892">
        <ele>2.7999999523163</ele>
        <time>2021-09-23T09:08:49.000Z</time>
      </trkpt>
      <trkpt lat="47.28769" lon="-2.51884">
        <ele>2.7999999523163</ele>
        <time>2021-09-23T09:08:50.000Z</time>
      </trkpt>
      <trkpt lat="47.28772" lon="-2.51868">
        <ele>2.7999999523163</ele>
        <time>2021-09-23T09:08:53.000Z</time>
      </trkpt>
      <trkpt lat="47.28788" lon="-2.51858">
        <ele>2.7999999523163</ele>
        <time>2021-09-23T09:08:57.000Z</time>
      </trkpt>
      <trkpt lat="47.28799" lon="-2.51857">
        <ele>2.7999999523163</ele>
        <time>2021-09-23T09:08:59.000Z</time>
      </trkpt>
      <trkpt lat="47.28819" lon="-2.51856">
        <ele>2.7999999523163</ele>
        <time>2021-09-23T09:09:03.000Z</time>
      </trkpt>
      <trkpt lat="47.28851" lon="-2.51857">
        <ele>2.7999999523163</ele>
        <time>2021-09-23T09:09:10.000Z</time>
      </trkpt>
      <trkpt lat="47.28887" lon="-2.51856">
        <ele>2.7999999523163</ele>
        <time>2021-09-23T09:09:17.000Z</time>
      </trkpt>
      <trkpt lat="47.28915" lon="-2.51855">
        <ele>2.7999999523163</ele>
        <time>2021-09-23T09:09:23.000Z</time>
      </trkpt>
      <trkpt lat="47.28933" lon="-2.5185">
        <ele>2.7999999523163</ele>
        <time>2021-09-23T09:09:28.000Z</time>
      </trkpt>
      <trkpt lat="47.28939" lon="-2.51836">
        <ele>2.7999999523163</ele>
        <time>2021-09-23T09:09:33.000Z</time>
      </trkpt>
      <trkpt lat="47.28938" lon="-2.51821">
        <ele>2.7999999523163</ele>
        <time>2021-09-23T09:09:37.000Z</time>
      </trkpt>
      <trkpt lat="47.28938" lon="-2.51816">
        <ele>2.7999999523163</ele>
        <time>2021-09-23T09:09:40.000Z</time>
      </trkpt>
      <trkpt lat="47.28934" lon="-2.51814">
        <ele>2.7999999523163</ele>
        <time>2021-09-23T09:09:51.000Z</time>
      </trkpt>
      <trkpt lat="47.28923" lon="-2.51829">
        <ele>2.7999999523163</ele>
        <time>2021-09-23T09:09:56.000Z</time>
      </trkpt>
      <trkpt lat="47.28916" lon="-2.51833">
        <ele>2.7999999523163</ele>
        <time>2021-09-23T09:09:58.000Z</time>
      </trkpt>
      <trkpt lat="47.28911" lon="-2.51833">
        <ele>2.7999999523163</ele>
        <time>2021-09-23T09:09:59.000Z</time>
      </trkpt>
      <trkpt lat="47.28897" lon="-2.51829">
        <ele>2.7999999523163</ele>
        <time>2021-09-23T09:10:02.000Z</time>
      </trkpt>
      <trkpt lat="47.28887" lon="-2.51825">
        <ele>2.7999999523163</ele>
        <time>2021-09-23T09:10:04.000Z</time>
      </trkpt>
      <trkpt lat="47.28863" lon="-2.5182">
        <ele>2.7999999523163</ele>
        <time>2021-09-23T09:10:10.000Z</time>
      </trkpt>
      <trkpt lat="47.28858" lon="-2.51822">
        <ele>2.7999999523163</ele>
        <time>2021-09-23T09:10:12.000Z</time>
      </trkpt>
      <trkpt lat="47.28857" lon="-2.51825">
        <ele>2.7999999523163</ele>
        <time>2021-09-23T09:10:13.000Z</time>
      </trkpt>
      <trkpt lat="47.28853" lon="-2.51843">
        <ele>2.7999999523163</ele>
        <time>2021-09-23T09:10:17.000Z</time>
      </trkpt>
      <trkpt lat="47.28843" lon="-2.51848">
        <ele>2.7999999523163</ele>
        <time>2021-09-23T09:10:21.000Z</time>
      </trkpt>
      <trkpt lat="47.2884" lon="-2.51847">
        <ele>2.7999999523163</ele>
        <time>2021-09-23T09:10:23.000Z</time>
      </trkpt>
      <trkpt lat="47.28837" lon="-2.51844">
        <ele>2.7999999523163</ele>
        <time>2021-09-23T09:10:25.000Z</time>
      </trkpt>
      <trkpt lat="47.28837" lon="-2.5184">
        <ele>2.7999999523163</ele>
        <time>2021-09-23T09:10:26.000Z</time>
      </trkpt>
      <trkpt lat="47.28837" lon="-2.51829">
        <ele>2.7999999523163</ele>
        <time>2021-09-23T09:10:30.000Z</time>
      </trkpt>
      <trkpt lat="47.28838" lon="-2.51827">
        <ele>2.7999999523163</ele>
        <time>2021-09-23T09:10:31.000Z</time>
      </trkpt>
      <trkpt lat="47.28847" lon="-2.51819">
        <ele>2.7999999523163</ele>
        <time>2021-09-23T09:10:37.000Z</time>
      </trkpt>
      <trkpt lat="47.28851" lon="-2.51817">
        <ele>2.7999999523163</ele>
        <time>2021-09-23T09:10:39.000Z</time>
      </trkpt>
      <trkpt lat="47.28851" lon="-2.51813">
        <ele>2.7999999523163</ele>
        <time>2021-09-23T09:10:41.000Z</time>
      </trkpt>
      <trkpt lat="47.2885" lon="-2.5181">
        <ele>2.7999999523163</ele>
        <time>2021-09-23T09:10:42.000Z</time>
      </trkpt>
      <trkpt lat="47.28842" lon="-2.51806">
        <ele>2.7999999523163</ele>
        <time>2021-09-23T09:10:45.000Z</time>
      </trkpt>
      <trkpt lat="47.28834" lon="-2.51805">
        <ele>2.7999999523163</ele>
        <time>2021-09-23T09:10:48.000Z</time>
      </trkpt>
      <trkpt lat="47.28829" lon="-2.51808">
        <ele>2.7999999523163</ele>
        <time>2021-09-23T09:10:50.000Z</time>
      </trkpt>
      <trkpt lat="47.28801" lon="-2.51812">
        <ele>2.7999999523163</ele>
        <time>2021-09-23T09:10:57.000Z</time>
      </trkpt>
      <trkpt lat="47.28763" lon="-2.51819">
        <ele>2.7999999523163</ele>
        <time>2021-09-23T09:11:04.000Z</time>
      </trkpt>
      <trkpt lat="47.28758" lon="-2.51821">
        <ele>2.7999999523163</ele>
        <time>2021-09-23T09:11:05.000Z</time>
      </trkpt>
      <trkpt lat="47.28753" lon="-2.51824">
        <ele>2.7999999523163</ele>
        <time>2021-09-23T09:11:06.000Z</time>
      </trkpt>
      <trkpt lat="47.28733" lon="-2.51832">
        <ele>2.7999999523163</ele>
        <time>2021-09-23T09:11:10.000Z</time>
      </trkpt>
      <trkpt lat="47.28728" lon="-2.51833">
        <ele>2.7999999523163</ele>
        <time>2021-09-23T09:11:11.000Z</time>
      </trkpt>
      <trkpt lat="47.28723" lon="-2.51834">
        <ele>2.4000000953674</ele>
        <time>2021-09-23T09:11:12.000Z</time>
      </trkpt>
      <trkpt lat="47.28719" lon="-2.51834">
        <ele>1.7999999523163</ele>
        <time>2021-09-23T09:11:13.000Z</time>
      </trkpt>
      <trkpt lat="47.28714" lon="-2.51835">
        <ele>1.3999999761581</ele>
        <time>2021-09-23T09:11:14.000Z</time>
      </trkpt>
      <trkpt lat="47.2871" lon="-2.51835">
        <ele>1</ele>
        <time>2021-09-23T09:11:15.000Z</time>
      </trkpt>
      <trkpt lat="47.28705" lon="-2.51835">
        <ele>0.60000002384186</ele>
        <time>2021-09-23T09:11:16.000Z</time>
      </trkpt>
      <trkpt lat="47.28695" lon="-2.51832">
        <ele>0.60000002384186</ele>
        <time>2021-09-23T09:11:18.000Z</time>
      </trkpt>
      <trkpt lat="47.28668" lon="-2.51818">
        <ele>0.60000002384186</ele>
        <time>2021-09-23T09:11:24.000Z</time>
      </trkpt>
      <trkpt lat="47.28641" lon="-2.51794">
        <ele>0.60000002384186</ele>
        <time>2021-09-23T09:11:31.000Z</time>
      </trkpt>
      <trkpt lat="47.28613" lon="-2.51772">
        <ele>0.60000002384186</ele>
        <time>2021-09-23T09:11:38.000Z</time>
      </trkpt>
      <trkpt lat="47.28605" lon="-2.51764">
        <ele>0.20000000298023</ele>
        <time>2021-09-23T09:11:40.000Z</time>
      </trkpt>
      <trkpt lat="47.28602" lon="-2.51761">
        <ele>-0.40000000596046</ele>
        <time>2021-09-23T09:11:41.000Z</time>
      </trkpt>
      <trkpt lat="47.28599" lon="-2.51758">
        <ele>-0.80000001192093</ele>
        <time>2021-09-23T09:11:42.000Z</time>
      </trkpt>
      <trkpt lat="47.28596" lon="-2.51755">
        <ele>-1.2000000476837</ele>
        <time>2021-09-23T09:11:43.000Z</time>
      </trkpt>
      <trkpt lat="47.28593" lon="-2.51751">
        <ele>-1.6000000238419</ele>
        <time>2021-09-23T09:11:44.000Z</time>
      </trkpt>
      <trkpt lat="47.28588" lon="-2.51744">
        <ele>-1.6000000238419</ele>
        <time>2021-09-23T09:11:46.000Z</time>
      </trkpt>
      <trkpt lat="47.28585" lon="-2.51735">
        <ele>-1.6000000238419</ele>
        <time>2021-09-23T09:11:48.000Z</time>
      </trkpt>
      <trkpt lat="47.28586" lon="-2.51724">
        <ele>-1.6000000238419</ele>
        <time>2021-09-23T09:11:50.000Z</time>
      </trkpt>
      <trkpt lat="47.28586" lon="-2.51689">
        <ele>-1.6000000238419</ele>
        <time>2021-09-23T09:11:56.000Z</time>
      </trkpt>
      <trkpt lat="47.28584" lon="-2.5167">
        <ele>-1.6000000238419</ele>
        <time>2021-09-23T09:11:59.000Z</time>
      </trkpt>
      <trkpt lat="47.28581" lon="-2.51656">
        <ele>-1.6000000238419</ele>
        <time>2021-09-23T09:12:01.000Z</time>
      </trkpt>
      <trkpt lat="47.28572" lon="-2.51637">
        <ele>-1.6000000238419</ele>
        <time>2021-09-23T09:12:04.000Z</time>
      </trkpt>
      <trkpt lat="47.28566" lon="-2.51622">
        <ele>-1.6000000238419</ele>
        <time>2021-09-23T09:12:06.000Z</time>
      </trkpt>
      <trkpt lat="47.28557" lon="-2.51585">
        <ele>-1.6000000238419</ele>
        <time>2021-09-23T09:12:11.000Z</time>
      </trkpt>
      <trkpt lat="47.28557" lon="-2.51561">
        <ele>-2</ele>
        <time>2021-09-23T09:12:14.000Z</time>
      </trkpt>
      <trkpt lat="47.28558" lon="-2.51554">
        <ele>-2.4000000953674</ele>
        <time>2021-09-23T09:12:15.000Z</time>
      </trkpt>
      <trkpt lat="47.28558" lon="-2.51547">
        <ele>-2.7999999523163</ele>
        <time>2021-09-23T09:12:16.000Z</time>
      </trkpt>
      <trkpt lat="47.28558" lon="-2.5154">
        <ele>-3.2000000476837</ele>
        <time>2021-09-23T09:12:17.000Z</time>
      </trkpt>
      <trkpt lat="47.28557" lon="-2.51534">
        <ele>-3.5999999046326</ele>
        <time>2021-09-23T09:12:18.000Z</time>
      </trkpt>
      <trkpt lat="47.28555" lon="-2.5153">
        <ele>-3.5999999046326</ele>
        <time>2021-09-23T09:12:19.000Z</time>
      </trkpt>
      <trkpt lat="47.28552" lon="-2.51527">
        <ele>-3.5999999046326</ele>
        <time>2021-09-23T09:12:20.000Z</time>
      </trkpt>
      <trkpt lat="47.28542" lon="-2.51522">
        <ele>-3.5999999046326</ele>
        <time>2021-09-23T09:12:24.000Z</time>
      </trkpt>
      <trkpt lat="47.28534" lon="-2.51514">
        <ele>-3.5999999046326</ele>
        <time>2021-09-23T09:12:29.000Z</time>
      </trkpt>
      <trkpt lat="47.28525" lon="-2.51506">
        <ele>-3.5999999046326</ele>
        <time>2021-09-23T09:12:34.000Z</time>
      </trkpt>
      <trkpt lat="47.28512" lon="-2.51489">
        <ele>-3.5999999046326</ele>
        <time>2021-09-23T09:12:39.000Z</time>
      </trkpt>
      <trkpt lat="47.285" lon="-2.51474">
        <ele>-3.5999999046326</ele>
        <time>2021-09-23T09:12:42.000Z</time>
      </trkpt>
      <trkpt lat="47.28492" lon="-2.51464">
        <ele>-3.5999999046326</ele>
        <time>2021-09-23T09:12:44.000Z</time>
      </trkpt>
      <trkpt lat="47.28462" lon="-2.51434">
        <ele>-3.5999999046326</ele>
        <time>2021-09-23T09:12:51.000Z</time>
      </trkpt>
      <trkpt lat="47.28455" lon="-2.51425">
        <ele>-3.5999999046326</ele>
        <time>2021-09-23T09:12:53.000Z</time>
      </trkpt>
      <trkpt lat="47.28447" lon="-2.51407">
        <ele>-3.5999999046326</ele>
        <time>2021-09-23T09:12:56.000Z</time>
      </trkpt>
      <trkpt lat="47.28441" lon="-2.51371">
        <ele>-3.5999999046326</ele>
        <time>2021-09-23T09:13:01.000Z</time>
      </trkpt>
      <trkpt lat="47.28435" lon="-2.51331">
        <ele>-3.5999999046326</ele>
        <time>2021-09-23T09:13:07.000Z</time>
      </trkpt>
      <trkpt lat="47.28423" lon="-2.51302">
        <ele>-3.5999999046326</ele>
        <time>2021-09-23T09:13:12.000Z</time>
      </trkpt>
      <trkpt lat="47.28416" lon="-2.5129">
        <ele>-3.5999999046326</ele>
        <time>2021-09-23T09:13:14.000Z</time>
      </trkpt>
      <trkpt lat="47.28405" lon="-2.51274">
        <ele>-3.5999999046326</ele>
        <time>2021-09-23T09:13:17.000Z</time>
      </trkpt>
      <trkpt lat="47.284" lon="-2.5127">
        <ele>-3.5999999046326</ele>
        <time>2021-09-23T09:13:18.000Z</time>
      </trkpt>
      <trkpt lat="47.28386" lon="-2.51259">
        <ele>-3.5999999046326</ele>
        <time>2021-09-23T09:13:21.000Z</time>
      </trkpt>
      <trkpt lat="47.28338" lon="-2.51225">
        <ele>-3.5999999046326</ele>
        <time>2021-09-23T09:13:30.000Z</time>
      </trkpt>
      <trkpt lat="47.28308" lon="-2.51201">
        <ele>-3.5999999046326</ele>
        <time>2021-09-23T09:13:36.000Z</time>
      </trkpt>
      <trkpt lat="47.28304" lon="-2.51195">
        <ele>-3.5999999046326</ele>
        <time>2021-09-23T09:13:37.000Z</time>
      </trkpt>
      <trkpt lat="47.28295" lon="-2.51175">
        <ele>-3.5999999046326</ele>
        <time>2021-09-23T09:13:40.000Z</time>
      </trkpt>
      <trkpt lat="47.2829" lon="-2.51161">
        <ele>-3.5999999046326</ele>
        <time>2021-09-23T09:13:42.000Z</time>
      </trkpt>
      <trkpt lat="47.28275" lon="-2.51114">
        <ele>-3.5999999046326</ele>
        <time>2021-09-23T09:13:48.000Z</time>
      </trkpt>
      <trkpt lat="47.28254" lon="-2.51054">
        <ele>-3.5999999046326</ele>
        <time>2021-09-23T09:13:56.000Z</time>
      </trkpt>
      <trkpt lat="47.28242" lon="-2.51003">
        <ele>-3.5999999046326</ele>
        <time>2021-09-23T09:14:02.000Z</time>
      </trkpt>
      <trkpt lat="47.28233" lon="-2.50928">
        <ele>-3.5999999046326</ele>
        <time>2021-09-23T09:14:10.000Z</time>
      </trkpt>
      <trkpt lat="47.28221" lon="-2.50867">
        <ele>-3.5999999046326</ele>
        <time>2021-09-23T09:14:17.000Z</time>
      </trkpt>
      <trkpt lat="47.28212" lon="-2.50827">
        <ele>-3.5999999046326</ele>
        <time>2021-09-23T09:14:22.000Z</time>
      </trkpt>
      <trkpt lat="47.2821" lon="-2.50818">
        <ele>-3.5999999046326</ele>
        <time>2021-09-23T09:14:23.000Z</time>
      </trkpt>
      <trkpt lat="47.28202" lon="-2.50747">
        <ele>-3.5999999046326</ele>
        <time>2021-09-23T09:14:31.000Z</time>
      </trkpt>
      <trkpt lat="47.282" lon="-2.50731">
        <ele>-3.5999999046326</ele>
        <time>2021-09-23T09:14:33.000Z</time>
      </trkpt>
      <trkpt lat="47.28201" lon="-2.50715">
        <ele>-3.5999999046326</ele>
        <time>2021-09-23T09:14:35.000Z</time>
      </trkpt>
      <trkpt lat="47.28209" lon="-2.50684">
        <ele>-3.5999999046326</ele>
        <time>2021-09-23T09:14:39.000Z</time>
      </trkpt>
      <trkpt lat="47.28213" lon="-2.50658">
        <ele>-3.5999999046326</ele>
        <time>2021-09-23T09:14:42.000Z</time>
      </trkpt>
      <trkpt lat="47.28218" lon="-2.50641">
        <ele>-3.5999999046326</ele>
        <time>2021-09-23T09:14:44.000Z</time>
      </trkpt>
      <trkpt lat="47.28224" lon="-2.50618">
        <ele>-3.5999999046326</ele>
        <time>2021-09-23T09:14:47.000Z</time>
      </trkpt>
      <trkpt lat="47.28229" lon="-2.50603">
        <ele>-3.5999999046326</ele>
        <time>2021-09-23T09:14:49.000Z</time>
      </trkpt>
      <trkpt lat="47.28241" lon="-2.50555">
        <ele>-3.5999999046326</ele>
        <time>2021-09-23T09:14:55.000Z</time>
      </trkpt>
      <trkpt lat="47.28254" lon="-2.50501">
        <ele>-3.5999999046326</ele>
        <time>2021-09-23T09:15:01.000Z</time>
      </trkpt>
      <trkpt lat="47.28272" lon="-2.50433">
        <ele>-3.5999999046326</ele>
        <time>2021-09-23T09:15:09.000Z</time>
      </trkpt>
      <trkpt lat="47.28282" lon="-2.50376">
        <ele>-3.5999999046326</ele>
        <time>2021-09-23T09:15:16.000Z</time>
      </trkpt>
      <trkpt lat="47.28281" lon="-2.50346">
        <ele>-4.1999998092651</ele>
        <time>2021-09-23T09:15:20.000Z</time>
      </trkpt>
      <trkpt lat="47.2828" lon="-2.50339">
        <ele>-4.5999999046326</ele>
        <time>2021-09-23T09:15:21.000Z</time>
      </trkpt>
      <trkpt lat="47.2828" lon="-2.50332">
        <ele>-5</ele>
        <time>2021-09-23T09:15:22.000Z</time>
      </trkpt>
      <trkpt lat="47.28279" lon="-2.50325">
        <ele>-5.4000000953674</ele>
        <time>2021-09-23T09:15:23.000Z</time>
      </trkpt>
      <trkpt lat="47.28279" lon="-2.50318">
        <ele>-5.8000001907349</ele>
        <time>2021-09-23T09:15:24.000Z</time>
      </trkpt>
      <trkpt lat="47.28277" lon="-2.50311">
        <ele>-5.8000001907349</ele>
        <time>2021-09-23T09:15:25.000Z</time>
      </trkpt>
      <trkpt lat="47.2827" lon="-2.50292">
        <ele>-5.8000001907349</ele>
        <time>2021-09-23T09:15:28.000Z</time>
      </trkpt>
      <trkpt lat="47.28268" lon="-2.50285">
        <ele>-5.8000001907349</ele>
        <time>2021-09-23T09:15:29.000Z</time>
      </trkpt>
      <trkpt lat="47.28255" lon="-2.5026">
        <ele>-5.8000001907349</ele>
        <time>2021-09-23T09:15:33.000Z</time>
      </trkpt>
      <trkpt lat="47.2825" lon="-2.50255">
        <ele>-5.8000001907349</ele>
        <time>2021-09-23T09:15:34.000Z</time>
      </trkpt>
      <trkpt lat="47.28223" lon="-2.50215">
        <ele>-5.8000001907349</ele>
        <time>2021-09-23T09:15:41.000Z</time>
      </trkpt>
      <trkpt lat="47.28217" lon="-2.50202">
        <ele>-5.8000001907349</ele>
        <time>2021-09-23T09:15:43.000Z</time>
      </trkpt>
      <trkpt lat="47.28209" lon="-2.50183">
        <ele>-5.8000001907349</ele>
        <time>2021-09-23T09:15:46.000Z</time>
      </trkpt>
      <trkpt lat="47.28198" lon="-2.50131">
        <ele>-5.8000001907349</ele>
        <time>2021-09-23T09:15:53.000Z</time>
      </trkpt>
      <trkpt lat="47.28185" lon="-2.50074">
        <ele>-5.8000001907349</ele>
        <time>2021-09-23T09:16:00.000Z</time>
      </trkpt>
      <trkpt lat="47.28175" lon="-2.50024">
        <ele>-5.8000001907349</ele>
        <time>2021-09-23T09:16:06.000Z</time>
      </trkpt>
      <trkpt lat="47.28172" lon="-2.50008">
        <ele>-5.8000001907349</ele>
        <time>2021-09-23T09:16:08.000Z</time>
      </trkpt>
      <trkpt lat="47.28167" lon="-2.49972">
        <ele>-5.8000001907349</ele>
        <time>2021-09-23T09:16:12.000Z</time>
      </trkpt>
      <trkpt lat="47.28156" lon="-2.49916">
        <ele>-5.8000001907349</ele>
        <time>2021-09-23T09:16:18.000Z</time>
      </trkpt>
      <trkpt lat="47.28151" lon="-2.49867">
        <ele>-5.8000001907349</ele>
        <time>2021-09-23T09:16:23.000Z</time>
      </trkpt>
      <trkpt lat="47.28144" lon="-2.49811">
        <ele>-5.8000001907349</ele>
        <time>2021-09-23T09:16:29.000Z</time>
      </trkpt>
      <trkpt lat="47.28136" lon="-2.49751">
        <ele>-5.4000000953674</ele>
        <time>2021-09-23T09:16:36.000Z</time>
      </trkpt>
      <trkpt lat="47.28135" lon="-2.49743">
        <ele>-5</ele>
        <time>2021-09-23T09:16:37.000Z</time>
      </trkpt>
      <trkpt lat="47.28134" lon="-2.49734">
        <ele>-4.5999999046326</ele>
        <time>2021-09-23T09:16:38.000Z</time>
      </trkpt>
      <trkpt lat="47.28134" lon="-2.49725">
        <ele>-4.1999998092651</ele>
        <time>2021-09-23T09:16:39.000Z</time>
      </trkpt>
      <trkpt lat="47.28133" lon="-2.49716">
        <ele>-3.7999999523163</ele>
        <time>2021-09-23T09:16:40.000Z</time>
      </trkpt>
      <trkpt lat="47.28129" lon="-2.49691">
        <ele>-3.7999999523163</ele>
        <time>2021-09-23T09:16:43.000Z</time>
      </trkpt>
      <trkpt lat="47.28117" lon="-2.49647">
        <ele>-3.7999999523163</ele>
        <time>2021-09-23T09:16:49.000Z</time>
      </trkpt>
      <trkpt lat="47.28097" lon="-2.49616">
        <ele>-3.7999999523163</ele>
        <time>2021-09-23T09:16:55.000Z</time>
      </trkpt>
      <trkpt lat="47.28073" lon="-2.49581">
        <ele>-3.7999999523163</ele>
        <time>2021-09-23T09:17:01.000Z</time>
      </trkpt>
      <trkpt lat="47.28038" lon="-2.49535">
        <ele>-3.7999999523163</ele>
        <time>2021-09-23T09:17:09.000Z</time>
      </trkpt>
      <trkpt lat="47.28034" lon="-2.49531">
        <ele>-3.7999999523163</ele>
        <time>2021-09-23T09:17:10.000Z</time>
      </trkpt>
      <trkpt lat="47.28028" lon="-2.4952">
        <ele>-3.7999999523163</ele>
        <time>2021-09-23T09:17:13.000Z</time>
      </trkpt>
      <trkpt lat="47.28027" lon="-2.49508">
        <ele>-3.7999999523163</ele>
        <time>2021-09-23T09:17:16.000Z</time>
      </trkpt>
      <trkpt lat="47.28026" lon="-2.49506">
        <ele>-3.7999999523163</ele>
        <time>2021-09-23T09:17:17.000Z</time>
      </trkpt>
      <trkpt lat="47.28024" lon="-2.49501">
        <ele>-3.7999999523163</ele>
        <time>2021-09-23T09:17:20.000Z</time>
      </trkpt>
      <trkpt lat="47.28024" lon="-2.49499">
        <ele>-3.7999999523163</ele>
        <time>2021-09-23T09:17:22.000Z</time>
      </trkpt>
      <trkpt lat="47.28024" lon="-2.49499">
        <ele>-3.7999999523163</ele>
        <time>2021-09-23T09:17:23.000Z</time>
      </trkpt>
      <trkpt lat="47.28027" lon="-2.49482">
        <ele>-3.7999999523163</ele>
        <time>2021-09-23T09:17:49.000Z</time>
      </trkpt>
      <trkpt lat="47.28027" lon="-2.49477">
        <ele>-3.7999999523163</ele>
        <time>2021-09-23T09:17:51.000Z</time>
      </trkpt>
      <trkpt lat="47.28025" lon="-2.49456">
        <ele>-3.7999999523163</ele>
        <time>2021-09-23T09:17:56.000Z</time>
      </trkpt>
      <trkpt lat="47.28019" lon="-2.49433">
        <ele>-3.7999999523163</ele>
        <time>2021-09-23T09:18:01.000Z</time>
      </trkpt>
      <trkpt lat="47.28012" lon="-2.49412">
        <ele>-3.7999999523163</ele>
        <time>2021-09-23T09:18:05.000Z</time>
      </trkpt>
      <trkpt lat="47.28012" lon="-2.49405">
        <ele>-3.7999999523163</ele>
        <time>2021-09-23T09:18:06.000Z</time>
      </trkpt>
      <trkpt lat="47.28011" lon="-2.49375">
        <ele>-3.7999999523163</ele>
        <time>2021-09-23T09:18:10.000Z</time>
      </trkpt>
      <trkpt lat="47.2801" lon="-2.49368">
        <ele>-3.7999999523163</ele>
        <time>2021-09-23T09:18:11.000Z</time>
      </trkpt>
      <trkpt lat="47.28004" lon="-2.49346">
        <ele>-3.7999999523163</ele>
        <time>2021-09-23T09:18:14.000Z</time>
      </trkpt>
      <trkpt lat="47.27998" lon="-2.49326">
        <ele>-3.7999999523163</ele>
        <time>2021-09-23T09:18:17.000Z</time>
      </trkpt>
      <trkpt lat="47.27988" lon="-2.4929">
        <ele>-3.7999999523163</ele>
        <time>2021-09-23T09:18:23.000Z</time>
      </trkpt>
      <trkpt lat="47.27986" lon="-2.49283">
        <ele>-3.7999999523163</ele>
        <time>2021-09-23T09:18:24.000Z</time>
      </trkpt>
      <trkpt lat="47.27984" lon="-2.49263">
        <ele>-3.7999999523163</ele>
        <time>2021-09-23T09:18:27.000Z</time>
      </trkpt>
      <trkpt lat="47.27982" lon="-2.4925">
        <ele>-3.7999999523163</ele>
        <time>2021-09-23T09:18:29.000Z</time>
      </trkpt>
      <trkpt lat="47.27981" lon="-2.49243">
        <ele>-4.1999998092651</ele>
        <time>2021-09-23T09:18:30.000Z</time>
      </trkpt>
      <trkpt lat="47.2798" lon="-2.49237">
        <ele>-4.5999999046326</ele>
        <time>2021-09-23T09:18:31.000Z</time>
      </trkpt>
      <trkpt lat="47.27978" lon="-2.4923">
        <ele>-5</ele>
        <time>2021-09-23T09:18:32.000Z</time>
      </trkpt>
      <trkpt lat="47.27976" lon="-2.49223">
        <ele>-5.4000000953674</ele>
        <time>2021-09-23T09:18:33.000Z</time>
      </trkpt>
      <trkpt lat="47.27975" lon="-2.49216">
        <ele>-5.8000001907349</ele>
        <time>2021-09-23T09:18:34.000Z</time>
      </trkpt>
      <trkpt lat="47.27973" lon="-2.49209">
        <ele>-5.8000001907349</ele>
        <time>2021-09-23T09:18:35.000Z</time>
      </trkpt>
      <trkpt lat="47.27965" lon="-2.49171">
        <ele>-5.8000001907349</ele>
        <time>2021-09-23T09:18:41.000Z</time>
      </trkpt>
      <trkpt lat="47.27957" lon="-2.49149">
        <ele>-5.8000001907349</ele>
        <time>2021-09-23T09:18:46.000Z</time>
      </trkpt>
      <trkpt lat="47.27949" lon="-2.49154">
        <ele>-5.8000001907349</ele>
        <time>2021-09-23T09:18:49.000Z</time>
      </trkpt>
      <trkpt lat="47.27937" lon="-2.49168">
        <ele>-5.8000001907349</ele>
        <time>2021-09-23T09:18:53.000Z</time>
      </trkpt>
      <trkpt lat="47.27933" lon="-2.49172">
        <ele>-5.8000001907349</ele>
        <time>2021-09-23T09:18:54.000Z</time>
      </trkpt>
      <trkpt lat="47.27911" lon="-2.49202">
        <ele>-5.8000001907349</ele>
        <time>2021-09-23T09:19:01.000Z</time>
      </trkpt>
      <trkpt lat="47.27901" lon="-2.49214">
        <ele>-5.8000001907349</ele>
        <time>2021-09-23T09:19:04.000Z</time>
      </trkpt>
      <trkpt lat="47.27892" lon="-2.49227">
        <ele>-5.8000001907349</ele>
        <time>2021-09-23T09:19:07.000Z</time>
      </trkpt>
      <trkpt lat="47.2788" lon="-2.49236">
        <ele>-5.8000001907349</ele>
        <time>2021-09-23T09:19:12.000Z</time>
      </trkpt>
      <trkpt lat="47.2787" lon="-2.49235">
        <ele>-5.8000001907349</ele>
        <time>2021-09-23T09:19:19.000Z</time>
      </trkpt>
      <trkpt lat="47.27862" lon="-2.49238">
        <ele>-5.8000001907349</ele>
        <time>2021-09-23T09:19:24.000Z</time>
      </trkpt>
      <trkpt lat="47.27856" lon="-2.49236">
        <ele>-5.4000000953674</ele>
        <time>2021-09-23T09:19:28.000Z</time>
      </trkpt>
      <trkpt lat="47.27856" lon="-2.49236">
        <ele>-5</ele>
        <time>2021-09-23T09:19:29.000Z</time>
      </trkpt>
      <trkpt lat="47.27855" lon="-2.49236">
        <ele>-4.4000000953674</ele>
        <time>2021-09-23T09:19:30.000Z</time>
      </trkpt>
      <trkpt lat="47.27855" lon="-2.49237">
        <ele>-4</ele>
        <time>2021-09-23T09:19:31.000Z</time>
      </trkpt>
      <trkpt lat="47.27855" lon="-2.49237">
        <ele>-3.5999999046326</ele>
        <time>2021-09-23T09:19:32.000Z</time>
      </trkpt>
      <trkpt lat="47.27854" lon="-2.49237">
        <ele>-3.5999999046326</ele>
        <time>2021-09-23T09:19:33.000Z</time>
      </trkpt>
      <trkpt lat="47.27853" lon="-2.4924">
        <ele>-3.5999999046326</ele>
        <time>2021-09-23T09:19:55.000Z</time>
      </trkpt>
      <trkpt lat="47.27852" lon="-2.49248">
        <ele>-3.5999999046326</ele>
        <time>2021-09-23T09:19:58.000Z</time>
      </trkpt>
      <trkpt lat="47.27848" lon="-2.49262">
        <ele>-3.5999999046326</ele>
        <time>2021-09-23T09:20:03.000Z</time>
      </trkpt>
      <trkpt lat="47.27844" lon="-2.49266">
        <ele>-3.5999999046326</ele>
        <time>2021-09-23T09:20:06.000Z</time>
      </trkpt>
      <trkpt lat="47.27841" lon="-2.49271">
        <ele>-3.5999999046326</ele>
        <time>2021-09-23T09:20:09.000Z</time>
      </trkpt>
      <trkpt lat="47.2783" lon="-2.49272">
        <ele>-3.5999999046326</ele>
        <time>2021-09-23T09:20:12.000Z</time>
      </trkpt>
      <trkpt lat="47.27802" lon="-2.49263">
        <ele>-3.5999999046326</ele>
        <time>2021-09-23T09:20:17.000Z</time>
      </trkpt>
      <trkpt lat="47.27796" lon="-2.49262">
        <ele>-3.5999999046326</ele>
        <time>2021-09-23T09:20:18.000Z</time>
      </trkpt>
      <trkpt lat="47.27773" lon="-2.4926">
        <ele>-3.5999999046326</ele>
        <time>2021-09-23T09:20:22.000Z</time>
      </trkpt>
      <trkpt lat="47.2773" lon="-2.49257">
        <ele>-3.5999999046326</ele>
        <time>2021-09-23T09:20:29.000Z</time>
      </trkpt>
      <trkpt lat="47.27724" lon="-2.49257">
        <ele>-3.5999999046326</ele>
        <time>2021-09-23T09:20:30.000Z</time>
      </trkpt>
      <trkpt lat="47.27686" lon="-2.49252">
        <ele>-3.5999999046326</ele>
        <time>2021-09-23T09:20:37.000Z</time>
      </trkpt>
      <trkpt lat="47.2766" lon="-2.49241">
        <ele>-3.5999999046326</ele>
        <time>2021-09-23T09:20:43.000Z</time>
      </trkpt>
      <trkpt lat="47.27656" lon="-2.4924">
        <ele>-3.5999999046326</ele>
        <time>2021-09-23T09:20:44.000Z</time>
      </trkpt>
      <trkpt lat="47.27642" lon="-2.49241">
        <ele>-3.5999999046326</ele>
        <time>2021-09-23T09:20:47.000Z</time>
      </trkpt>
      <trkpt lat="47.27631" lon="-2.49228">
        <ele>-3.5999999046326</ele>
        <time>2021-09-23T09:20:50.000Z</time>
      </trkpt>
      <trkpt lat="47.27628" lon="-2.49221">
        <ele>-3.5999999046326</ele>
        <time>2021-09-23T09:20:51.000Z</time>
      </trkpt>
      <trkpt lat="47.27624" lon="-2.49214">
        <ele>-3.5999999046326</ele>
        <time>2021-09-23T09:20:52.000Z</time>
      </trkpt>
      <trkpt lat="47.27612" lon="-2.49195">
        <ele>-3.5999999046326</ele>
        <time>2021-09-23T09:20:55.000Z</time>
      </trkpt>
      <trkpt lat="47.276" lon="-2.49173">
        <ele>-3.5999999046326</ele>
        <time>2021-09-23T09:20:59.000Z</time>
      </trkpt>
      <trkpt lat="47.27595" lon="-2.4916">
        <ele>-3.5999999046326</ele>
        <time>2021-09-23T09:21:01.000Z</time>
      </trkpt>
      <trkpt lat="47.27586" lon="-2.49109">
        <ele>-3.5999999046326</ele>
        <time>2021-09-23T09:21:08.000Z</time>
      </trkpt>
      <trkpt lat="47.27586" lon="-2.4906">
        <ele>-3.5999999046326</ele>
        <time>2021-09-23T09:21:15.000Z</time>
      </trkpt>
      <trkpt lat="47.27589" lon="-2.49003">
        <ele>-3.5999999046326</ele>
        <time>2021-09-23T09:21:23.000Z</time>
      </trkpt>
      <trkpt lat="47.27589" lon="-2.48995">
        <ele>-3.2000000476837</ele>
        <time>2021-09-23T09:21:24.000Z</time>
      </trkpt>
      <trkpt lat="47.2759" lon="-2.48988">
        <ele>-2.5999999046326</ele>
        <time>2021-09-23T09:21:25.000Z</time>
      </trkpt>
      <trkpt lat="47.2759" lon="-2.48981">
        <ele>-2.2000000476837</ele>
        <time>2021-09-23T09:21:26.000Z</time>
      </trkpt>
      <trkpt lat="47.27591" lon="-2.48974">
        <ele>-1.7999999523163</ele>
        <time>2021-09-23T09:21:27.000Z</time>
      </trkpt>
      <trkpt lat="47.27592" lon="-2.48966">
        <ele>-1.3999999761581</ele>
        <time>2021-09-23T09:21:28.000Z</time>
      </trkpt>
      <trkpt lat="47.27594" lon="-2.48928">
        <ele>-1.3999999761581</ele>
        <time>2021-09-23T09:21:33.000Z</time>
      </trkpt>
      <trkpt lat="47.27597" lon="-2.48892">
        <ele>-1.3999999761581</ele>
        <time>2021-09-23T09:21:38.000Z</time>
      </trkpt>
      <trkpt lat="47.27597" lon="-2.48887">
        <ele>-1.3999999761581</ele>
        <time>2021-09-23T09:21:39.000Z</time>
      </trkpt>
      <trkpt lat="47.27589" lon="-2.48884">
        <ele>-1.3999999761581</ele>
        <time>2021-09-23T09:21:42.000Z</time>
      </trkpt>
      <trkpt lat="47.27585" lon="-2.48885">
        <ele>-1.3999999761581</ele>
        <time>2021-09-23T09:21:43.000Z</time>
      </trkpt>
      <trkpt lat="47.27567" lon="-2.48888">
        <ele>-1.3999999761581</ele>
        <time>2021-09-23T09:21:47.000Z</time>
      </trkpt>
      <trkpt lat="47.27562" lon="-2.4889">
        <ele>-1.3999999761581</ele>
        <time>2021-09-23T09:21:48.000Z</time>
      </trkpt>
      <trkpt lat="47.27529" lon="-2.48898">
        <ele>-1.3999999761581</ele>
        <time>2021-09-23T09:21:55.000Z</time>
      </trkpt>
      <trkpt lat="47.27518" lon="-2.48898">
        <ele>-1.3999999761581</ele>
        <time>2021-09-23T09:21:59.000Z</time>
      </trkpt>
      <trkpt lat="47.27517" lon="-2.48888">
        <ele>-1.3999999761581</ele>
        <time>2021-09-23T09:22:03.000Z</time>
      </trkpt>
      <trkpt lat="47.27521" lon="-2.48868">
        <ele>-1.3999999761581</ele>
        <time>2021-09-23T09:22:07.000Z</time>
      </trkpt>
      <trkpt lat="47.27531" lon="-2.48832">
        <ele>-1.3999999761581</ele>
        <time>2021-09-23T09:22:13.000Z</time>
      </trkpt>
      <trkpt lat="47.27533" lon="-2.48826">
        <ele>-1.3999999761581</ele>
        <time>2021-09-23T09:22:14.000Z</time>
      </trkpt>
      <trkpt lat="47.27537" lon="-2.48806">
        <ele>-1.3999999761581</ele>
        <time>2021-09-23T09:22:17.000Z</time>
      </trkpt>
      <trkpt lat="47.27539" lon="-2.48784">
        <ele>-1.3999999761581</ele>
        <time>2021-09-23T09:22:20.000Z</time>
      </trkpt>
      <trkpt lat="47.2754" lon="-2.48777">
        <ele>-1.3999999761581</ele>
        <time>2021-09-23T09:22:21.000Z</time>
      </trkpt>
      <trkpt lat="47.27541" lon="-2.48763">
        <ele>-1.3999999761581</ele>
        <time>2021-09-23T09:22:23.000Z</time>
      </trkpt>
      <trkpt lat="47.27539" lon="-2.48752">
        <ele>-1.3999999761581</ele>
        <time>2021-09-23T09:22:25.000Z</time>
      </trkpt>
      <trkpt lat="47.27538" lon="-2.48746">
        <ele>-1.3999999761581</ele>
        <time>2021-09-23T09:22:26.000Z</time>
      </trkpt>
      <trkpt lat="47.27534" lon="-2.48728">
        <ele>-1.3999999761581</ele>
        <time>2021-09-23T09:22:29.000Z</time>
      </trkpt>
      <trkpt lat="47.27533" lon="-2.48722">
        <ele>-1.3999999761581</ele>
        <time>2021-09-23T09:22:30.000Z</time>
      </trkpt>
      <trkpt lat="47.27527" lon="-2.48705">
        <ele>-1.3999999761581</ele>
        <time>2021-09-23T09:22:33.000Z</time>
      </trkpt>
      <trkpt lat="47.27523" lon="-2.48696">
        <ele>-1.3999999761581</ele>
        <time>2021-09-23T09:22:35.000Z</time>
      </trkpt>
      <trkpt lat="47.2752" lon="-2.48683">
        <ele>-1.3999999761581</ele>
        <time>2021-09-23T09:22:38.000Z</time>
      </trkpt>
      <trkpt lat="47.27519" lon="-2.48676">
        <ele>-1.3999999761581</ele>
        <time>2021-09-23T09:22:39.000Z</time>
      </trkpt>
      <trkpt lat="47.27516" lon="-2.48655">
        <ele>-1.3999999761581</ele>
        <time>2021-09-23T09:22:42.000Z</time>
      </trkpt>
      <trkpt lat="47.27513" lon="-2.48642">
        <ele>-1.3999999761581</ele>
        <time>2021-09-23T09:22:44.000Z</time>
      </trkpt>
      <trkpt lat="47.27499" lon="-2.48607">
        <ele>-1.3999999761581</ele>
        <time>2021-09-23T09:22:50.000Z</time>
      </trkpt>
      <trkpt lat="47.27497" lon="-2.48602">
        <ele>-1.3999999761581</ele>
        <time>2021-09-23T09:22:51.000Z</time>
      </trkpt>
      <trkpt lat="47.27483" lon="-2.48576">
        <ele>-1.3999999761581</ele>
        <time>2021-09-23T09:22:56.000Z</time>
      </trkpt>
      <trkpt lat="47.27479" lon="-2.48571">
        <ele>-1.3999999761581</ele>
        <time>2021-09-23T09:22:57.000Z</time>
      </trkpt>
      <trkpt lat="47.2747" lon="-2.48558">
        <ele>-1.3999999761581</ele>
        <time>2021-09-23T09:23:00.000Z</time>
      </trkpt>
      <trkpt lat="47.27468" lon="-2.48546">
        <ele>-1.3999999761581</ele>
        <time>2021-09-23T09:23:02.000Z</time>
      </trkpt>
      <trkpt lat="47.27467" lon="-2.48516">
        <ele>-1.3999999761581</ele>
        <time>2021-09-23T09:23:06.000Z</time>
      </trkpt>
      <trkpt lat="47.27466" lon="-2.48509">
        <ele>-1.3999999761581</ele>
        <time>2021-09-23T09:23:07.000Z</time>
      </trkpt>
      <trkpt lat="47.27462" lon="-2.48459">
        <ele>-1.3999999761581</ele>
        <time>2021-09-23T09:23:13.000Z</time>
      </trkpt>
      <trkpt lat="47.2745" lon="-2.48406">
        <ele>-1.3999999761581</ele>
        <time>2021-09-23T09:23:20.000Z</time>
      </trkpt>
      <trkpt lat="47.27435" lon="-2.4836">
        <ele>-1.3999999761581</ele>
        <time>2021-09-23T09:23:27.000Z</time>
      </trkpt>
      <trkpt lat="47.27425" lon="-2.48319">
        <ele>-1.3999999761581</ele>
        <time>2021-09-23T09:23:33.000Z</time>
      </trkpt>
      <trkpt lat="47.27425" lon="-2.48311">
        <ele>-1.3999999761581</ele>
        <time>2021-09-23T09:23:34.000Z</time>
      </trkpt>
      <trkpt lat="47.27422" lon="-2.48278">
        <ele>-1.3999999761581</ele>
        <time>2021-09-23T09:23:38.000Z</time>
      </trkpt>
      <trkpt lat="47.27418" lon="-2.48244">
        <ele>-1.3999999761581</ele>
        <time>2021-09-23T09:23:43.000Z</time>
      </trkpt>
      <trkpt lat="47.27417" lon="-2.48238">
        <ele>-1.3999999761581</ele>
        <time>2021-09-23T09:23:44.000Z</time>
      </trkpt>
      <trkpt lat="47.27409" lon="-2.48201">
        <ele>-1.3999999761581</ele>
        <time>2021-09-23T09:23:50.000Z</time>
      </trkpt>
      <trkpt lat="47.27406" lon="-2.48162">
        <ele>-1.3999999761581</ele>
        <time>2021-09-23T09:23:57.000Z</time>
      </trkpt>
      <trkpt lat="47.27408" lon="-2.48132">
        <ele>-1.3999999761581</ele>
        <time>2021-09-23T09:24:03.000Z</time>
      </trkpt>
      <trkpt lat="47.27413" lon="-2.48128">
        <ele>-1.3999999761581</ele>
        <time>2021-09-23T09:24:05.000Z</time>
      </trkpt>
      <trkpt lat="47.27416" lon="-2.48127">
        <ele>-1.3999999761581</ele>
        <time>2021-09-23T09:24:06.000Z</time>
      </trkpt>
      <trkpt lat="47.27433" lon="-2.48125">
        <ele>-1.3999999761581</ele>
        <time>2021-09-23T09:24:11.000Z</time>
      </trkpt>
      <trkpt lat="47.27456" lon="-2.48122">
        <ele>-1</ele>
        <time>2021-09-23T09:24:17.000Z</time>
      </trkpt>
      <trkpt lat="47.2746" lon="-2.48121">
        <ele>-0.60000002384186</ele>
        <time>2021-09-23T09:24:18.000Z</time>
      </trkpt>
      <trkpt lat="47.27464" lon="-2.48121">
        <ele>-0.20000000298023</ele>
        <time>2021-09-23T09:24:19.000Z</time>
      </trkpt>
      <trkpt lat="47.27468" lon="-2.4812">
        <ele>0.40000000596046</ele>
        <time>2021-09-23T09:24:20.000Z</time>
      </trkpt>
      <trkpt lat="47.27471" lon="-2.48119">
        <ele>0.80000001192093</ele>
        <time>2021-09-23T09:24:21.000Z</time>
      </trkpt>
      <trkpt lat="47.27478" lon="-2.48116">
        <ele>0.80000001192093</ele>
        <time>2021-09-23T09:24:23.000Z</time>
      </trkpt>
      <trkpt lat="47.27487" lon="-2.48112">
        <ele>0.80000001192093</ele>
        <time>2021-09-23T09:24:27.000Z</time>
      </trkpt>
      <trkpt lat="47.2749" lon="-2.48109">
        <ele>0.80000001192093</ele>
        <time>2021-09-23T09:24:29.000Z</time>
      </trkpt>
      <trkpt lat="47.27488" lon="-2.48102">
        <ele>0.80000001192093</ele>
        <time>2021-09-23T09:24:31.000Z</time>
      </trkpt>
      <trkpt lat="47.27485" lon="-2.48094">
        <ele>0.80000001192093</ele>
        <time>2021-09-23T09:24:33.000Z</time>
      </trkpt>
      <trkpt lat="47.27479" lon="-2.48081">
        <ele>1.2000000476837</ele>
        <time>2021-09-23T09:24:37.000Z</time>
      </trkpt>
      <trkpt lat="47.27476" lon="-2.48075">
        <ele>1.6000000238419</ele>
        <time>2021-09-23T09:24:38.000Z</time>
      </trkpt>
      <trkpt lat="47.27473" lon="-2.48068">
        <ele>2</ele>
        <time>2021-09-23T09:24:39.000Z</time>
      </trkpt>
      <trkpt lat="47.27469" lon="-2.48062">
        <ele>2.4000000953674</ele>
        <time>2021-09-23T09:24:40.000Z</time>
      </trkpt>
      <trkpt lat="47.27466" lon="-2.48055">
        <ele>2.7999999523163</ele>
        <time>2021-09-23T09:24:41.000Z</time>
      </trkpt>
      <trkpt lat="47.27459" lon="-2.4804">
        <ele>2.7999999523163</ele>
        <time>2021-09-23T09:24:43.000Z</time>
      </trkpt>
      <trkpt lat="47.27443" lon="-2.48009">
        <ele>2.4000000953674</ele>
        <time>2021-09-23T09:24:47.000Z</time>
      </trkpt>
      <trkpt lat="47.27439" lon="-2.48001">
        <ele>2</ele>
        <time>2021-09-23T09:24:48.000Z</time>
      </trkpt>
      <trkpt lat="47.27435" lon="-2.47993">
        <ele>1.6000000238419</ele>
        <time>2021-09-23T09:24:49.000Z</time>
      </trkpt>
      <trkpt lat="47.2743" lon="-2.47985">
        <ele>1</ele>
        <time>2021-09-23T09:24:50.000Z</time>
      </trkpt>
      <trkpt lat="47.27425" lon="-2.47977">
        <ele>0.60000002384186</ele>
        <time>2021-09-23T09:24:51.000Z</time>
      </trkpt>
      <trkpt lat="47.27403" lon="-2.47947">
        <ele>0.60000002384186</ele>
        <time>2021-09-23T09:24:55.000Z</time>
      </trkpt>
      <trkpt lat="47.27396" lon="-2.4794">
        <ele>0.20000000298023</ele>
        <time>2021-09-23T09:24:56.000Z</time>
      </trkpt>
      <trkpt lat="47.2739" lon="-2.47934">
        <ele>-0.20000000298023</ele>
        <time>2021-09-23T09:24:57.000Z</time>
      </trkpt>
      <trkpt lat="47.27383" lon="-2.47928">
        <ele>-1</ele>
        <time>2021-09-23T09:24:58.000Z</time>
      </trkpt>
      <trkpt lat="47.27376" lon="-2.47922">
        <ele>-1.3999999761581</ele>
        <time>2021-09-23T09:24:59.000Z</time>
      </trkpt>
      <trkpt lat="47.27363" lon="-2.47911">
        <ele>-1.3999999761581</ele>
        <time>2021-09-23T09:25:01.000Z</time>
      </trkpt>
      <trkpt lat="47.27315" lon="-2.47873">
        <ele>-1.3999999761581</ele>
        <time>2021-09-23T09:25:08.000Z</time>
      </trkpt>
      <trkpt lat="47.27308" lon="-2.47868">
        <ele>-1.3999999761581</ele>
        <time>2021-09-23T09:25:09.000Z</time>
      </trkpt>
      <trkpt lat="47.27263" lon="-2.47824">
        <ele>-1.3999999761581</ele>
        <time>2021-09-23T09:25:16.000Z</time>
      </trkpt>
      <trkpt lat="47.27232" lon="-2.47772">
        <ele>-1.3999999761581</ele>
        <time>2021-09-23T09:25:22.000Z</time>
      </trkpt>
      <trkpt lat="47.27221" lon="-2.47745">
        <ele>-1.3999999761581</ele>
        <time>2021-09-23T09:25:25.000Z</time>
      </trkpt>
      <trkpt lat="47.27216" lon="-2.47727">
        <ele>-1.3999999761581</ele>
        <time>2021-09-23T09:25:27.000Z</time>
      </trkpt>
      <trkpt lat="47.27209" lon="-2.47702">
        <ele>-1.3999999761581</ele>
        <time>2021-09-23T09:25:30.000Z</time>
      </trkpt>
      <trkpt lat="47.27206" lon="-2.47685">
        <ele>-1.3999999761581</ele>
        <time>2021-09-23T09:25:32.000Z</time>
      </trkpt>
      <trkpt lat="47.27202" lon="-2.47644">
        <ele>-1.3999999761581</ele>
        <time>2021-09-23T09:25:37.000Z</time>
      </trkpt>
      <trkpt lat="47.27197" lon="-2.47588">
        <ele>-1.3999999761581</ele>
        <time>2021-09-23T09:25:43.000Z</time>
      </trkpt>
      <trkpt lat="47.27194" lon="-2.47558">
        <ele>-1</ele>
        <time>2021-09-23T09:25:46.000Z</time>
      </trkpt>
      <trkpt lat="47.27193" lon="-2.47548">
        <ele>-0.20000000298023</ele>
        <time>2021-09-23T09:25:47.000Z</time>
      </trkpt>
      <trkpt lat="47.27192" lon="-2.47538">
        <ele>0.20000000298023</ele>
        <time>2021-09-23T09:25:48.000Z</time>
      </trkpt>
      <trkpt lat="47.27191" lon="-2.47528">
        <ele>0.60000002384186</ele>
        <time>2021-09-23T09:25:49.000Z</time>
      </trkpt>
      <trkpt lat="47.27179" lon="-2.47475">
        <ele>0.60000002384186</ele>
        <time>2021-09-23T09:25:55.000Z</time>
      </trkpt>
      <trkpt lat="47.2716" lon="-2.47424">
        <ele>0.60000002384186</ele>
        <time>2021-09-23T09:26:01.000Z</time>
      </trkpt>
      <trkpt lat="47.27137" lon="-2.47366">
        <ele>1</ele>
        <time>2021-09-23T09:26:08.000Z</time>
      </trkpt>
      <trkpt lat="47.27135" lon="-2.47357">
        <ele>1.3999999761581</ele>
        <time>2021-09-23T09:26:09.000Z</time>
      </trkpt>
      <trkpt lat="47.27133" lon="-2.47349">
        <ele>1.7999999523163</ele>
        <time>2021-09-23T09:26:10.000Z</time>
      </trkpt>
      <trkpt lat="47.27131" lon="-2.4734">
        <ele>2.2000000476837</ele>
        <time>2021-09-23T09:26:11.000Z</time>
      </trkpt>
      <trkpt lat="47.2713" lon="-2.47331">
        <ele>2.5999999046326</ele>
        <time>2021-09-23T09:26:12.000Z</time>
      </trkpt>
      <trkpt lat="47.27127" lon="-2.47313">
        <ele>2.5999999046326</ele>
        <time>2021-09-23T09:26:14.000Z</time>
      </trkpt>
      <trkpt lat="47.27122" lon="-2.47236">
        <ele>2.5999999046326</ele>
        <time>2021-09-23T09:26:22.000Z</time>
      </trkpt>
      <trkpt lat="47.27117" lon="-2.4718">
        <ele>2.5999999046326</ele>
        <time>2021-09-23T09:26:28.000Z</time>
      </trkpt>
      <trkpt lat="47.27116" lon="-2.47171">
        <ele>2.5999999046326</ele>
        <time>2021-09-23T09:26:29.000Z</time>
      </trkpt>
      <trkpt lat="47.27111" lon="-2.47119">
        <ele>2.5999999046326</ele>
        <time>2021-09-23T09:26:35.000Z</time>
      </trkpt>
      <trkpt lat="47.27108" lon="-2.47086">
        <ele>2.5999999046326</ele>
        <time>2021-09-23T09:26:40.000Z</time>
      </trkpt>
      <trkpt lat="47.27111" lon="-2.47064">
        <ele>2.5999999046326</ele>
        <time>2021-09-23T09:26:44.000Z</time>
      </trkpt>
      <trkpt lat="47.27114" lon="-2.4706">
        <ele>2.5999999046326</ele>
        <time>2021-09-23T09:26:45.000Z</time>
      </trkpt>
      <trkpt lat="47.27128" lon="-2.47056">
        <ele>2.5999999046326</ele>
        <time>2021-09-23T09:26:48.000Z</time>
      </trkpt>
      <trkpt lat="47.27177" lon="-2.47046">
        <ele>2.5999999046326</ele>
        <time>2021-09-23T09:26:57.000Z</time>
      </trkpt>
      <trkpt lat="47.27187" lon="-2.47044">
        <ele>3</ele>
        <time>2021-09-23T09:26:59.000Z</time>
      </trkpt>
      <trkpt lat="47.27193" lon="-2.47042">
        <ele>3.4000000953674</ele>
        <time>2021-09-23T09:27:00.000Z</time>
      </trkpt>
      <trkpt lat="47.27197" lon="-2.47041">
        <ele>4.1999998092651</ele>
        <time>2021-09-23T09:27:01.000Z</time>
      </trkpt>
      <trkpt lat="47.27202" lon="-2.4704">
        <ele>4.5999999046326</ele>
        <time>2021-09-23T09:27:02.000Z</time>
      </trkpt>
      <trkpt lat="47.27206" lon="-2.47039">
        <ele>4.5999999046326</ele>
        <time>2021-09-23T09:27:03.000Z</time>
      </trkpt>
      <trkpt lat="47.27233" lon="-2.47033">
        <ele>4.5999999046326</ele>
        <time>2021-09-23T09:27:09.000Z</time>
      </trkpt>
      <trkpt lat="47.27273" lon="-2.47035">
        <ele>4.5999999046326</ele>
        <time>2021-09-23T09:27:17.000Z</time>
      </trkpt>
      <trkpt lat="47.27302" lon="-2.4703">
        <ele>4.5999999046326</ele>
        <time>2021-09-23T09:27:22.000Z</time>
      </trkpt>
      <trkpt lat="47.27326" lon="-2.47012">
        <ele>4.5999999046326</ele>
        <time>2021-09-23T09:27:26.000Z</time>
      </trkpt>
      <trkpt lat="47.27331" lon="-2.47007">
        <ele>4.5999999046326</ele>
        <time>2021-09-23T09:27:27.000Z</time>
      </trkpt>
      <trkpt lat="47.27342" lon="-2.46999">
        <ele>4.5999999046326</ele>
        <time>2021-09-23T09:27:29.000Z</time>
      </trkpt>
      <trkpt lat="47.27354" lon="-2.46994">
        <ele>4.5999999046326</ele>
        <time>2021-09-23T09:27:31.000Z</time>
      </trkpt>
      <trkpt lat="47.27392" lon="-2.46981">
        <ele>4.5999999046326</ele>
        <time>2021-09-23T09:27:37.000Z</time>
      </trkpt>
      <trkpt lat="47.27405" lon="-2.46975">
        <ele>4.1999998092651</ele>
        <time>2021-09-23T09:27:39.000Z</time>
      </trkpt>
      <trkpt lat="47.27411" lon="-2.46973">
        <ele>3.7999999523163</ele>
        <time>2021-09-23T09:27:40.000Z</time>
      </trkpt>
      <trkpt lat="47.27417" lon="-2.4697">
        <ele>3.4000000953674</ele>
        <time>2021-09-23T09:27:41.000Z</time>
      </trkpt>
      <trkpt lat="47.27423" lon="-2.46968">
        <ele>3</ele>
        <time>2021-09-23T09:27:42.000Z</time>
      </trkpt>
      <trkpt lat="47.27428" lon="-2.46964">
        <ele>2.5999999046326</ele>
        <time>2021-09-23T09:27:43.000Z</time>
      </trkpt>
      <trkpt lat="47.27465" lon="-2.46937">
        <ele>2.5999999046326</ele>
        <time>2021-09-23T09:27:49.000Z</time>
      </trkpt>
      <trkpt lat="47.27477" lon="-2.46924">
        <ele>2.5999999046326</ele>
        <time>2021-09-23T09:27:51.000Z</time>
      </trkpt>
      <trkpt lat="47.27484" lon="-2.46905">
        <ele>2.5999999046326</ele>
        <time>2021-09-23T09:27:53.000Z</time>
      </trkpt>
      <trkpt lat="47.27486" lon="-2.46894">
        <ele>2.2000000476837</ele>
        <time>2021-09-23T09:27:54.000Z</time>
      </trkpt>
      <trkpt lat="47.27485" lon="-2.46883">
        <ele>1.7999999523163</ele>
        <time>2021-09-23T09:27:55.000Z</time>
      </trkpt>
      <trkpt lat="47.27482" lon="-2.46872">
        <ele>1.3999999761581</ele>
        <time>2021-09-23T09:27:56.000Z</time>
      </trkpt>
      <trkpt lat="47.27479" lon="-2.46862">
        <ele>1</ele>
        <time>2021-09-23T09:27:57.000Z</time>
      </trkpt>
      <trkpt lat="47.27476" lon="-2.46852">
        <ele>0.40000000596046</ele>
        <time>2021-09-23T09:27:58.000Z</time>
      </trkpt>
      <trkpt lat="47.27466" lon="-2.46823">
        <ele>0.40000000596046</ele>
        <time>2021-09-23T09:28:01.000Z</time>
      </trkpt>
      <trkpt lat="47.27442" lon="-2.46746">
        <ele>0.40000000596046</ele>
        <time>2021-09-23T09:28:09.000Z</time>
      </trkpt>
      <trkpt lat="47.27434" lon="-2.46718">
        <ele>10</ele>
        <time>2021-09-23T09:28:12.000Z</time>
      </trkpt>
      <trkpt lat="47.27431" lon="-2.46709">
        <ele>-0.40000000596046</ele>
        <time>2021-09-23T09:28:13.000Z</time>
      </trkpt>
      <trkpt lat="47.27427" lon="-2.46699">
        <ele>-0.80000001192093</ele>
        <time>2021-09-23T09:28:14.000Z</time>
      </trkpt>
      <trkpt lat="47.27425" lon="-2.46689">
        <ele>-1.6000000238419</ele>
        <time>2021-09-23T09:28:15.000Z</time>
      </trkpt>
      <trkpt lat="47.27402" lon="-2.4661">
        <ele>-1.6000000238419</ele>
        <time>2021-09-23T09:28:23.000Z</time>
      </trkpt>
      <trkpt lat="47.27379" lon="-2.46538">
        <ele>-1.6000000238419</ele>
        <time>2021-09-23T09:28:31.000Z</time>
      </trkpt>
      <trkpt lat="47.27358" lon="-2.46473">
        <ele>-1.6000000238419</ele>
        <time>2021-09-23T09:28:38.000Z</time>
      </trkpt>
      <trkpt lat="47.27337" lon="-2.46415">
        <ele>-1.6000000238419</ele>
        <time>2021-09-23T09:28:44.000Z</time>
      </trkpt>
      <trkpt lat="47.27311" lon="-2.46343">
        <ele>-1.6000000238419</ele>
        <time>2021-09-23T09:28:51.000Z</time>
      </trkpt>
      <trkpt lat="47.27286" lon="-2.46279">
        <ele>-1.6000000238419</ele>
        <time>2021-09-23T09:28:57.000Z</time>
      </trkpt>
      <trkpt lat="47.27259" lon="-2.46212">
        <ele>-1.6000000238419</ele>
        <time>2021-09-23T09:29:04.000Z</time>
      </trkpt>
      <trkpt lat="47.2724" lon="-2.46162">
        <ele>-1.6000000238419</ele>
        <time>2021-09-23T09:29:10.000Z</time>
      </trkpt>
      <trkpt lat="47.27236" lon="-2.46146">
        <ele>-1.6000000238419</ele>
        <time>2021-09-23T09:29:12.000Z</time>
      </trkpt>
      <trkpt lat="47.27229" lon="-2.46109">
        <ele>-1.6000000238419</ele>
        <time>2021-09-23T09:29:16.000Z</time>
      </trkpt>
      <trkpt lat="47.27218" lon="-2.4605">
        <ele>-1.6000000238419</ele>
        <time>2021-09-23T09:29:22.000Z</time>
      </trkpt>
      <trkpt lat="47.27203" lon="-2.45995">
        <ele>-1.6000000238419</ele>
        <time>2021-09-23T09:29:28.000Z</time>
      </trkpt>
      <trkpt lat="47.27183" lon="-2.4594">
        <ele>-1.6000000238419</ele>
        <time>2021-09-23T09:29:35.000Z</time>
      </trkpt>
      <trkpt lat="47.27168" lon="-2.45904">
        <ele>-1.6000000238419</ele>
        <time>2021-09-23T09:29:41.000Z</time>
      </trkpt>
      <trkpt lat="47.2716" lon="-2.45881">
        <ele>-1.6000000238419</ele>
        <time>2021-09-23T09:29:45.000Z</time>
      </trkpt>
      <trkpt lat="47.27156" lon="-2.45867">
        <ele>-1.6000000238419</ele>
        <time>2021-09-23T09:29:47.000Z</time>
      </trkpt>
      <trkpt lat="47.27136" lon="-2.45822">
        <ele>-1.6000000238419</ele>
        <time>2021-09-23T09:29:53.000Z</time>
      </trkpt>
      <trkpt lat="47.27114" lon="-2.45776">
        <ele>-1.6000000238419</ele>
        <time>2021-09-23T09:30:00.000Z</time>
      </trkpt>
      <trkpt lat="47.27105" lon="-2.45759">
        <ele>-1.6000000238419</ele>
        <time>2021-09-23T09:30:03.000Z</time>
      </trkpt>
      <trkpt lat="47.27097" lon="-2.45748">
        <ele>-1.6000000238419</ele>
        <time>2021-09-23T09:30:06.000Z</time>
      </trkpt>
      <trkpt lat="47.27097" lon="-2.4574">
        <ele>-1.6000000238419</ele>
        <time>2021-09-23T09:30:08.000Z</time>
      </trkpt>
      <trkpt lat="47.27098" lon="-2.45738">
        <ele>-1.6000000238419</ele>
        <time>2021-09-23T09:30:09.000Z</time>
      </trkpt>
      <trkpt lat="47.27107" lon="-2.45735">
        <ele>-1.6000000238419</ele>
        <time>2021-09-23T09:30:12.000Z</time>
      </trkpt>
      <trkpt lat="47.27133" lon="-2.45726">
        <ele>-1.6000000238419</ele>
        <time>2021-09-23T09:30:18.000Z</time>
      </trkpt>
      <trkpt lat="47.27164" lon="-2.45714">
        <ele>-1.6000000238419</ele>
        <time>2021-09-23T09:30:24.000Z</time>
      </trkpt>
      <trkpt lat="47.2718" lon="-2.45713">
        <ele>-1.6000000238419</ele>
        <time>2021-09-23T09:30:27.000Z</time>
      </trkpt>
      <trkpt lat="47.27192" lon="-2.45709">
        <ele>-1.6000000238419</ele>
        <time>2021-09-23T09:30:29.000Z</time>
      </trkpt>
      <trkpt lat="47.2722" lon="-2.45698">
        <ele>-1.6000000238419</ele>
        <time>2021-09-23T09:30:34.000Z</time>
      </trkpt>
      <trkpt lat="47.27225" lon="-2.45694">
        <ele>-1.6000000238419</ele>
        <time>2021-09-23T09:30:35.000Z</time>
      </trkpt>
      <trkpt lat="47.2724" lon="-2.4568">
        <ele>-1.6000000238419</ele>
        <time>2021-09-23T09:30:38.000Z</time>
      </trkpt>
      <trkpt lat="47.27245" lon="-2.45677">
        <ele>-1.6000000238419</ele>
        <time>2021-09-23T09:30:39.000Z</time>
      </trkpt>
      <trkpt lat="47.27269" lon="-2.45662">
        <ele>-1.6000000238419</ele>
        <time>2021-09-23T09:30:44.000Z</time>
      </trkpt>
      <trkpt lat="47.27301" lon="-2.45642">
        <ele>-1.6000000238419</ele>
        <time>2021-09-23T09:30:50.000Z</time>
      </trkpt>
      <trkpt lat="47.27317" lon="-2.45632">
        <ele>-1.6000000238419</ele>
        <time>2021-09-23T09:30:53.000Z</time>
      </trkpt>
      <trkpt lat="47.27321" lon="-2.45626">
        <ele>-1.6000000238419</ele>
        <time>2021-09-23T09:30:54.000Z</time>
      </trkpt>
      <trkpt lat="47.27324" lon="-2.45612">
        <ele>-2</ele>
        <time>2021-09-23T09:30:56.000Z</time>
      </trkpt>
      <trkpt lat="47.27326" lon="-2.45604">
        <ele>-2.4000000953674</ele>
        <time>2021-09-23T09:30:57.000Z</time>
      </trkpt>
      <trkpt lat="47.27329" lon="-2.45598">
        <ele>-3</ele>
        <time>2021-09-23T09:30:58.000Z</time>
      </trkpt>
      <trkpt lat="47.27333" lon="-2.45593">
        <ele>-3.4000000953674</ele>
        <time>2021-09-23T09:30:59.000Z</time>
      </trkpt>
      <trkpt lat="47.27338" lon="-2.45589">
        <ele>-3.7999999523163</ele>
        <time>2021-09-23T09:31:00.000Z</time>
      </trkpt>
      <trkpt lat="47.27344" lon="-2.45585">
        <ele>-3.7999999523163</ele>
        <time>2021-09-23T09:31:01.000Z</time>
      </trkpt>
      <trkpt lat="47.27368" lon="-2.45572">
        <ele>-3.7999999523163</ele>
        <time>2021-09-23T09:31:05.000Z</time>
      </trkpt>
      <trkpt lat="47.27374" lon="-2.4557">
        <ele>-3.7999999523163</ele>
        <time>2021-09-23T09:31:06.000Z</time>
      </trkpt>
      <trkpt lat="47.27392" lon="-2.45566">
        <ele>-3.7999999523163</ele>
        <time>2021-09-23T09:31:09.000Z</time>
      </trkpt>
      <trkpt lat="47.27428" lon="-2.45548">
        <ele>-3.7999999523163</ele>
        <time>2021-09-23T09:31:15.000Z</time>
      </trkpt>
      <trkpt lat="47.27437" lon="-2.45526">
        <ele>-3.7999999523163</ele>
        <time>2021-09-23T09:31:18.000Z</time>
      </trkpt>
      <trkpt lat="47.27442" lon="-2.45508">
        <ele>-3.7999999523163</ele>
        <time>2021-09-23T09:31:21.000Z</time>
      </trkpt>
      <trkpt lat="47.27452" lon="-2.45504">
        <ele>-3.7999999523163</ele>
        <time>2021-09-23T09:31:23.000Z</time>
      </trkpt>
      <trkpt lat="47.27456" lon="-2.45501">
        <ele>-3.7999999523163</ele>
        <time>2021-09-23T09:31:24.000Z</time>
      </trkpt>
      <trkpt lat="47.27487" lon="-2.4548">
        <ele>-3.7999999523163</ele>
        <time>2021-09-23T09:31:30.000Z</time>
      </trkpt>
      <trkpt lat="47.27491" lon="-2.45476">
        <ele>-3.7999999523163</ele>
        <time>2021-09-23T09:31:31.000Z</time>
      </trkpt>
      <trkpt lat="47.27495" lon="-2.45457">
        <ele>-3.7999999523163</ele>
        <time>2021-09-23T09:31:34.000Z</time>
      </trkpt>
      <trkpt lat="47.27492" lon="-2.45441">
        <ele>-3.7999999523163</ele>
        <time>2021-09-23T09:31:36.000Z</time>
      </trkpt>
      <trkpt lat="47.2749" lon="-2.45424">
        <ele>-3.7999999523163</ele>
        <time>2021-09-23T09:31:38.000Z</time>
      </trkpt>
      <trkpt lat="47.27488" lon="-2.45408">
        <ele>-3.7999999523163</ele>
        <time>2021-09-23T09:31:40.000Z</time>
      </trkpt>
      <trkpt lat="47.27494" lon="-2.45398">
        <ele>-3.7999999523163</ele>
        <time>2021-09-23T09:31:42.000Z</time>
      </trkpt>
      <trkpt lat="47.27509" lon="-2.45396">
        <ele>-3.7999999523163</ele>
        <time>2021-09-23T09:31:45.000Z</time>
      </trkpt>
      <trkpt lat="47.27515" lon="-2.45394">
        <ele>-3.7999999523163</ele>
        <time>2021-09-23T09:31:46.000Z</time>
      </trkpt>
      <trkpt lat="47.27525" lon="-2.4539">
        <ele>-3.7999999523163</ele>
        <time>2021-09-23T09:31:48.000Z</time>
      </trkpt>
      <trkpt lat="47.27542" lon="-2.4538">
        <ele>-3.7999999523163</ele>
        <time>2021-09-23T09:31:51.000Z</time>
      </trkpt>
      <trkpt lat="47.27566" lon="-2.4537">
        <ele>-3.7999999523163</ele>
        <time>2021-09-23T09:31:55.000Z</time>
      </trkpt>
      <trkpt lat="47.27584" lon="-2.45365">
        <ele>-3.7999999523163</ele>
        <time>2021-09-23T09:31:58.000Z</time>
      </trkpt>
      <trkpt lat="47.27606" lon="-2.45361">
        <ele>-3.7999999523163</ele>
        <time>2021-09-23T09:32:02.000Z</time>
      </trkpt>
      <trkpt lat="47.27616" lon="-2.45354">
        <ele>-3.7999999523163</ele>
        <time>2021-09-23T09:32:04.000Z</time>
      </trkpt>
      <trkpt lat="47.27619" lon="-2.45334">
        <ele>-3.7999999523163</ele>
        <time>2021-09-23T09:32:07.000Z</time>
      </trkpt>
      <trkpt lat="47.27617" lon="-2.45315">
        <ele>-3.7999999523163</ele>
        <time>2021-09-23T09:32:09.000Z</time>
      </trkpt>
      <trkpt lat="47.27613" lon="-2.45284">
        <ele>-3.7999999523163</ele>
        <time>2021-09-23T09:32:12.000Z</time>
      </trkpt>
      <trkpt lat="47.27607" lon="-2.45228">
        <ele>-4.1999998092651</ele>
        <time>2021-09-23T09:32:17.000Z</time>
      </trkpt>
      <trkpt lat="47.27606" lon="-2.45217">
        <ele>-4.5999999046326</ele>
        <time>2021-09-23T09:32:18.000Z</time>
      </trkpt>
      <trkpt lat="47.27604" lon="-2.45206">
        <ele>-5</ele>
        <time>2021-09-23T09:32:19.000Z</time>
      </trkpt>
      <trkpt lat="47.27602" lon="-2.45195">
        <ele>-5.4000000953674</ele>
        <time>2021-09-23T09:32:20.000Z</time>
      </trkpt>
      <trkpt lat="47.27601" lon="-2.45184">
        <ele>-5.8000001907349</ele>
        <time>2021-09-23T09:32:21.000Z</time>
      </trkpt>
      <trkpt lat="47.27597" lon="-2.4515">
        <ele>-5.8000001907349</ele>
        <time>2021-09-23T09:32:24.000Z</time>
      </trkpt>
      <trkpt lat="47.27582" lon="-2.45086">
        <ele>-5.8000001907349</ele>
        <time>2021-09-23T09:32:30.000Z</time>
      </trkpt>
      <trkpt lat="47.2756" lon="-2.45043">
        <ele>-5.8000001907349</ele>
        <time>2021-09-23T09:32:35.000Z</time>
      </trkpt>
      <trkpt lat="47.27536" lon="-2.4498">
        <ele>-5.8000001907349</ele>
        <time>2021-09-23T09:32:42.000Z</time>
      </trkpt>
      <trkpt lat="47.27516" lon="-2.44921">
        <ele>-5.8000001907349</ele>
        <time>2021-09-23T09:32:49.000Z</time>
      </trkpt>
      <trkpt lat="47.27505" lon="-2.44867">
        <ele>-5.8000001907349</ele>
        <time>2021-09-23T09:32:55.000Z</time>
      </trkpt>
      <trkpt lat="47.27504" lon="-2.44859">
        <ele>-5.8000001907349</ele>
        <time>2021-09-23T09:32:56.000Z</time>
      </trkpt>
      <trkpt lat="47.27507" lon="-2.44844">
        <ele>-5.8000001907349</ele>
        <time>2021-09-23T09:32:58.000Z</time>
      </trkpt>
      <trkpt lat="47.27519" lon="-2.44825">
        <ele>-5.8000001907349</ele>
        <time>2021-09-23T09:33:01.000Z</time>
      </trkpt>
      <trkpt lat="47.2753" lon="-2.44815">
        <ele>-5.8000001907349</ele>
        <time>2021-09-23T09:33:03.000Z</time>
      </trkpt>
      <trkpt lat="47.27534" lon="-2.44808">
        <ele>-5.8000001907349</ele>
        <time>2021-09-23T09:33:04.000Z</time>
      </trkpt>
      <trkpt lat="47.27535" lon="-2.448">
        <ele>-5.8000001907349</ele>
        <time>2021-09-23T09:33:05.000Z</time>
      </trkpt>
      <trkpt lat="47.27531" lon="-2.44773">
        <ele>-5.8000001907349</ele>
        <time>2021-09-23T09:33:08.000Z</time>
      </trkpt>
      <trkpt lat="47.27515" lon="-2.44711">
        <ele>-5.8000001907349</ele>
        <time>2021-09-23T09:33:14.000Z</time>
      </trkpt>
      <trkpt lat="47.27508" lon="-2.44691">
        <ele>-5.8000001907349</ele>
        <time>2021-09-23T09:33:16.000Z</time>
      </trkpt>
      <trkpt lat="47.27498" lon="-2.44675">
        <ele>-6.4000000953674</ele>
        <time>2021-09-23T09:33:18.000Z</time>
      </trkpt>
      <trkpt lat="47.27493" lon="-2.44667">
        <ele>-6.8000001907349</ele>
        <time>2021-09-23T09:33:19.000Z</time>
      </trkpt>
      <trkpt lat="47.27487" lon="-2.44659">
        <ele>-7.1999998092651</ele>
        <time>2021-09-23T09:33:20.000Z</time>
      </trkpt>
      <trkpt lat="47.27482" lon="-2.44651">
        <ele>-7.5999999046326</ele>
        <time>2021-09-23T09:33:21.000Z</time>
      </trkpt>
      <trkpt lat="47.27477" lon="-2.44642">
        <ele>-8</ele>
        <time>2021-09-23T09:33:22.000Z</time>
      </trkpt>
      <trkpt lat="47.2747" lon="-2.44624">
        <ele>-8</ele>
        <time>2021-09-23T09:33:24.000Z</time>
      </trkpt>
      <trkpt lat="47.27453" lon="-2.44593">
        <ele>-8</ele>
        <time>2021-09-23T09:33:28.000Z</time>
      </trkpt>
      <trkpt lat="47.27451" lon="-2.44584">
        <ele>-8</ele>
        <time>2021-09-23T09:33:29.000Z</time>
      </trkpt>
      <trkpt lat="47.2745" lon="-2.44556">
        <ele>-8</ele>
        <time>2021-09-23T09:33:32.000Z</time>
      </trkpt>
      <trkpt lat="47.27449" lon="-2.44546">
        <ele>-8</ele>
        <time>2021-09-23T09:33:33.000Z</time>
      </trkpt>
      <trkpt lat="47.27446" lon="-2.44518">
        <ele>-8</ele>
        <time>2021-09-23T09:33:36.000Z</time>
      </trkpt>
      <trkpt lat="47.27443" lon="-2.4451">
        <ele>-8</ele>
        <time>2021-09-23T09:33:37.000Z</time>
      </trkpt>
      <trkpt lat="47.27437" lon="-2.44492">
        <ele>-8</ele>
        <time>2021-09-23T09:33:39.000Z</time>
      </trkpt>
      <trkpt lat="47.27435" lon="-2.44472">
        <ele>-8</ele>
        <time>2021-09-23T09:33:41.000Z</time>
      </trkpt>
      <trkpt lat="47.27435" lon="-2.44426">
        <ele>-8</ele>
        <time>2021-09-23T09:33:46.000Z</time>
      </trkpt>
      <trkpt lat="47.27436" lon="-2.44418">
        <ele>-8</ele>
        <time>2021-09-23T09:33:47.000Z</time>
      </trkpt>
      <trkpt lat="47.27449" lon="-2.44401">
        <ele>-8</ele>
        <time>2021-09-23T09:33:51.000Z</time>
      </trkpt>
      <trkpt lat="47.27473" lon="-2.44397">
        <ele>-8</ele>
        <time>2021-09-23T09:33:55.000Z</time>
      </trkpt>
      <trkpt lat="47.27509" lon="-2.44386">
        <ele>-8</ele>
        <time>2021-09-23T09:34:01.000Z</time>
      </trkpt>
      <trkpt lat="47.27522" lon="-2.44368">
        <ele>-8</ele>
        <time>2021-09-23T09:34:04.000Z</time>
      </trkpt>
      <trkpt lat="47.27526" lon="-2.44362">
        <ele>-8</ele>
        <time>2021-09-23T09:34:05.000Z</time>
      </trkpt>
      <trkpt lat="47.27528" lon="-2.44354">
        <ele>-8</ele>
        <time>2021-09-23T09:34:06.000Z</time>
      </trkpt>
      <trkpt lat="47.2753" lon="-2.44338">
        <ele>-8</ele>
        <time>2021-09-23T09:34:08.000Z</time>
      </trkpt>
      <trkpt lat="47.27537" lon="-2.44284">
        <ele>-8</ele>
        <time>2021-09-23T09:34:14.000Z</time>
      </trkpt>
      <trkpt lat="47.27541" lon="-2.44266">
        <ele>-8</ele>
        <time>2021-09-23T09:34:16.000Z</time>
      </trkpt>
      <trkpt lat="47.27549" lon="-2.44241">
        <ele>-8</ele>
        <time>2021-09-23T09:34:19.000Z</time>
      </trkpt>
      <trkpt lat="47.27552" lon="-2.44234">
        <ele>-8</ele>
        <time>2021-09-23T09:34:20.000Z</time>
      </trkpt>
      <trkpt lat="47.27566" lon="-2.44208">
        <ele>-8</ele>
        <time>2021-09-23T09:34:24.000Z</time>
      </trkpt>
      <trkpt lat="47.27587" lon="-2.44175">
        <ele>-8</ele>
        <time>2021-09-23T09:34:31.000Z</time>
      </trkpt>
      <trkpt lat="47.27607" lon="-2.44139">
        <ele>-8</ele>
        <time>2021-09-23T09:34:38.000Z</time>
      </trkpt>
      <trkpt lat="47.27633" lon="-2.44096">
        <ele>-8</ele>
        <time>2021-09-23T09:34:46.000Z</time>
      </trkpt>
      <trkpt lat="47.27649" lon="-2.44068">
        <ele>-8</ele>
        <time>2021-09-23T09:34:53.000Z</time>
      </trkpt>
      <trkpt lat="47.27652" lon="-2.44062">
        <ele>-8</ele>
        <time>2021-09-23T09:34:57.000Z</time>
      </trkpt>
      <trkpt lat="47.27661" lon="-2.44051">
        <ele>-8</ele>
        <time>2021-09-23T09:35:01.000Z</time>
      </trkpt>
      <trkpt lat="47.27686" lon="-2.44042">
        <ele>-8</ele>
        <time>2021-09-23T09:35:07.000Z</time>
      </trkpt>
      <trkpt lat="47.27702" lon="-2.44037">
        <ele>-8</ele>
        <time>2021-09-23T09:35:12.000Z</time>
      </trkpt>
      <trkpt lat="47.27712" lon="-2.44034">
        <ele>-8</ele>
        <time>2021-09-23T09:35:15.000Z</time>
      </trkpt>
      <trkpt lat="47.27718" lon="-2.44024">
        <ele>-8</ele>
        <time>2021-09-23T09:35:17.000Z</time>
      </trkpt>
      <trkpt lat="47.27723" lon="-2.44011">
        <ele>-8</ele>
        <time>2021-09-23T09:35:19.000Z</time>
      </trkpt>
      <trkpt lat="47.2773" lon="-2.43991">
        <ele>-8</ele>
        <time>2021-09-23T09:35:22.000Z</time>
      </trkpt>
      <trkpt lat="47.27743" lon="-2.43941">
        <ele>-8</ele>
        <time>2021-09-23T09:35:29.000Z</time>
      </trkpt>
      <trkpt lat="47.27757" lon="-2.43891">
        <ele>-8</ele>
        <time>2021-09-23T09:35:36.000Z</time>
      </trkpt>
      <trkpt lat="47.27764" lon="-2.43859">
        <ele>-8</ele>
        <time>2021-09-23T09:35:42.000Z</time>
      </trkpt>
      <trkpt lat="47.27763" lon="-2.4384">
        <ele>-8</ele>
        <time>2021-09-23T09:35:47.000Z</time>
      </trkpt>
      <trkpt lat="47.27762" lon="-2.43826">
        <ele>-8</ele>
        <time>2021-09-23T09:35:49.000Z</time>
      </trkpt>
      <trkpt lat="47.27765" lon="-2.43812">
        <ele>-8</ele>
        <time>2021-09-23T09:35:51.000Z</time>
      </trkpt>
      <trkpt lat="47.2778" lon="-2.43801">
        <ele>-8</ele>
        <time>2021-09-23T09:35:55.000Z</time>
      </trkpt>
      <trkpt lat="47.27794" lon="-2.43806">
        <ele>-8</ele>
        <time>2021-09-23T09:35:58.000Z</time>
      </trkpt>
      <trkpt lat="47.278" lon="-2.43808">
        <ele>-8</ele>
        <time>2021-09-23T09:35:59.000Z</time>
      </trkpt>
      <trkpt lat="47.27805" lon="-2.43807">
        <ele>-8</ele>
        <time>2021-09-23T09:36:00.000Z</time>
      </trkpt>
      <trkpt lat="47.27821" lon="-2.43801">
        <ele>-8</ele>
        <time>2021-09-23T09:36:03.000Z</time>
      </trkpt>
      <trkpt lat="47.27852" lon="-2.43781">
        <ele>-8</ele>
        <time>2021-09-23T09:36:09.000Z</time>
      </trkpt>
      <trkpt lat="47.27864" lon="-2.43768">
        <ele>-8</ele>
        <time>2021-09-23T09:36:13.000Z</time>
      </trkpt>
      <trkpt lat="47.27869" lon="-2.43758">
        <ele>-8</ele>
        <time>2021-09-23T09:36:17.000Z</time>
      </trkpt>
      <trkpt lat="47.27888" lon="-2.43741">
        <ele>-8</ele>
        <time>2021-09-23T09:36:22.000Z</time>
      </trkpt>
      <trkpt lat="47.27913" lon="-2.43711">
        <ele>-8</ele>
        <time>2021-09-23T09:36:26.000Z</time>
      </trkpt>
      <trkpt lat="47.27953" lon="-2.43656">
        <ele>-8</ele>
        <time>2021-09-23T09:36:34.000Z</time>
      </trkpt>
      <trkpt lat="47.27991" lon="-2.43602">
        <ele>-8</ele>
        <time>2021-09-23T09:36:42.000Z</time>
      </trkpt>
      <trkpt lat="47.28029" lon="-2.43548">
        <ele>-8</ele>
        <time>2021-09-23T09:36:50.000Z</time>
      </trkpt>
      <trkpt lat="47.28063" lon="-2.43498">
        <ele>-8</ele>
        <time>2021-09-23T09:36:58.000Z</time>
      </trkpt>
      <trkpt lat="47.28091" lon="-2.43455">
        <ele>-8</ele>
        <time>2021-09-23T09:37:05.000Z</time>
      </trkpt>
      <trkpt lat="47.28123" lon="-2.43409">
        <ele>-8</ele>
        <time>2021-09-23T09:37:12.000Z</time>
      </trkpt>
      <trkpt lat="47.28152" lon="-2.43369">
        <ele>-8</ele>
        <time>2021-09-23T09:37:19.000Z</time>
      </trkpt>
      <trkpt lat="47.28173" lon="-2.43336">
        <ele>-8</ele>
        <time>2021-09-23T09:37:26.000Z</time>
      </trkpt>
      <trkpt lat="47.28179" lon="-2.43329">
        <ele>-8</ele>
        <time>2021-09-23T09:37:30.000Z</time>
      </trkpt>
      <trkpt lat="47.2818" lon="-2.43329">
        <ele>-8</ele>
        <time>2021-09-23T09:37:31.000Z</time>
      </trkpt>
      <trkpt lat="47.28185" lon="-2.43335">
        <ele>-8</ele>
        <time>2021-09-23T09:37:35.000Z</time>
      </trkpt>
      <trkpt lat="47.28195" lon="-2.43335">
        <ele>-8</ele>
        <time>2021-09-23T09:37:39.000Z</time>
      </trkpt>
      <trkpt lat="47.28198" lon="-2.43333">
        <ele>-8</ele>
        <time>2021-09-23T09:37:40.000Z</time>
      </trkpt>
      <trkpt lat="47.28202" lon="-2.43334">
        <ele>-8</ele>
        <time>2021-09-23T09:37:41.000Z</time>
      </trkpt>
      <trkpt lat="47.28208" lon="-2.43334">
        <ele>-8</ele>
        <time>2021-09-23T09:37:43.000Z</time>
      </trkpt>
      <trkpt lat="47.28213" lon="-2.43336">
        <ele>-8</ele>
        <time>2021-09-23T09:37:45.000Z</time>
      </trkpt>
      <trkpt lat="47.28222" lon="-2.43337">
        <ele>-8</ele>
        <time>2021-09-23T09:37:48.000Z</time>
      </trkpt>
      <trkpt lat="47.28226" lon="-2.4334">
        <ele>-8</ele>
        <time>2021-09-23T09:37:49.000Z</time>
      </trkpt>
      <trkpt lat="47.28228" lon="-2.43345">
        <ele>-8.3999996185303</ele>
        <time>2021-09-23T09:37:50.000Z</time>
      </trkpt>
      <trkpt lat="47.28231" lon="-2.4335">
        <ele>-8.8000001907349</ele>
        <time>2021-09-23T09:37:51.000Z</time>
      </trkpt>
      <trkpt lat="47.28234" lon="-2.43355">
        <ele>-9.1999998092651</ele>
        <time>2021-09-23T09:37:52.000Z</time>
      </trkpt>
      <trkpt lat="47.28238" lon="-2.43359">
        <ele>-9.6000003814697</ele>
        <time>2021-09-23T09:37:53.000Z</time>
      </trkpt>
      <trkpt lat="47.28241" lon="-2.43363">
        <ele>-10</ele>
        <time>2021-09-23T09:37:54.000Z</time>
      </trkpt>
      <trkpt lat="47.28248" lon="-2.4337">
        <ele>-10</ele>
        <time>2021-09-23T09:37:56.000Z</time>
      </trkpt>
      <trkpt lat="47.28263" lon="-2.43377">
        <ele>-10</ele>
        <time>2021-09-23T09:38:00.000Z</time>
      </trkpt>
      <trkpt lat="47.28266" lon="-2.43372">
        <ele>-10</ele>
        <time>2021-09-23T09:38:01.000Z</time>
      </trkpt>
      <trkpt lat="47.28268" lon="-2.43351">
        <ele>-9.6000003814697</ele>
        <time>2021-09-23T09:38:04.000Z</time>
      </trkpt>
      <trkpt lat="47.28269" lon="-2.43343">
        <ele>-9.1999998092651</ele>
        <time>2021-09-23T09:38:05.000Z</time>
      </trkpt>
      <trkpt lat="47.2827" lon="-2.43335">
        <ele>-8.8000001907349</ele>
        <time>2021-09-23T09:38:06.000Z</time>
      </trkpt>
      <trkpt lat="47.28272" lon="-2.43327">
        <ele>-8</ele>
        <time>2021-09-23T09:38:07.000Z</time>
      </trkpt>
      <trkpt lat="47.28276" lon="-2.43297">
        <ele>-8</ele>
        <time>2021-09-23T09:38:11.000Z</time>
      </trkpt>
      <trkpt lat="47.28281" lon="-2.43281">
        <ele>-8</ele>
        <time>2021-09-23T09:38:15.000Z</time>
      </trkpt>
      <trkpt lat="47.28295" lon="-2.43271">
        <ele>-8</ele>
        <time>2021-09-23T09:38:19.000Z</time>
      </trkpt>
      <trkpt lat="47.28299" lon="-2.43267">
        <ele>-8</ele>
        <time>2021-09-23T09:38:20.000Z</time>
      </trkpt>
      <trkpt lat="47.28309" lon="-2.43255">
        <ele>-8</ele>
        <time>2021-09-23T09:38:23.000Z</time>
      </trkpt>
      <trkpt lat="47.28329" lon="-2.43228">
        <ele>-8</ele>
        <time>2021-09-23T09:38:29.000Z</time>
      </trkpt>
      <trkpt lat="47.28336" lon="-2.43217">
        <ele>-8</ele>
        <time>2021-09-23T09:38:31.000Z</time>
      </trkpt>
      <trkpt lat="47.28352" lon="-2.432">
        <ele>-8</ele>
        <time>2021-09-23T09:38:35.000Z</time>
      </trkpt>
      <trkpt lat="47.28387" lon="-2.43163">
        <ele>-8</ele>
        <time>2021-09-23T09:38:44.000Z</time>
      </trkpt>
      <trkpt lat="47.2841" lon="-2.43133">
        <ele>-8</ele>
        <time>2021-09-23T09:38:50.000Z</time>
      </trkpt>
      <trkpt lat="47.28422" lon="-2.43112">
        <ele>-8</ele>
        <time>2021-09-23T09:38:54.000Z</time>
      </trkpt>
      <trkpt lat="47.28429" lon="-2.43103">
        <ele>-8</ele>
        <time>2021-09-23T09:38:56.000Z</time>
      </trkpt>
      <trkpt lat="47.28454" lon="-2.43071">
        <ele>-8</ele>
        <time>2021-09-23T09:39:03.000Z</time>
      </trkpt>
      <trkpt lat="47.2846" lon="-2.43062">
        <ele>-8</ele>
        <time>2021-09-23T09:39:05.000Z</time>
      </trkpt>
      <trkpt lat="47.28471" lon="-2.43041">
        <ele>-8</ele>
        <time>2021-09-23T09:39:09.000Z</time>
      </trkpt>
      <trkpt lat="47.28474" lon="-2.43036">
        <ele>-8</ele>
        <time>2021-09-23T09:39:10.000Z</time>
      </trkpt>
      <trkpt lat="47.28487" lon="-2.43026">
        <ele>-8</ele>
        <time>2021-09-23T09:39:13.000Z</time>
      </trkpt>
      <trkpt lat="47.28506" lon="-2.43026">
        <ele>-8</ele>
        <time>2021-09-23T09:39:17.000Z</time>
      </trkpt>
      <trkpt lat="47.28514" lon="-2.4303">
        <ele>-8</ele>
        <time>2021-09-23T09:39:19.000Z</time>
      </trkpt>
      <trkpt lat="47.28533" lon="-2.43038">
        <ele>-8</ele>
        <time>2021-09-23T09:39:23.000Z</time>
      </trkpt>
      <trkpt lat="47.28537" lon="-2.43041">
        <ele>-8</ele>
        <time>2021-09-23T09:39:24.000Z</time>
      </trkpt>
      <trkpt lat="47.28546" lon="-2.43053">
        <ele>-8</ele>
        <time>2021-09-23T09:39:27.000Z</time>
      </trkpt>
      <trkpt lat="47.28549" lon="-2.43058">
        <ele>-8</ele>
        <time>2021-09-23T09:39:28.000Z</time>
      </trkpt>
      <trkpt lat="47.28569" lon="-2.43089">
        <ele>-8</ele>
        <time>2021-09-23T09:39:34.000Z</time>
      </trkpt>
      <trkpt lat="47.28587" lon="-2.43125">
        <ele>-8</ele>
        <time>2021-09-23T09:39:40.000Z</time>
      </trkpt>
      <trkpt lat="47.28596" lon="-2.43175">
        <ele>-8</ele>
        <time>2021-09-23T09:39:47.000Z</time>
      </trkpt>
      <trkpt lat="47.28597" lon="-2.43188">
        <ele>-8</ele>
        <time>2021-09-23T09:39:49.000Z</time>
      </trkpt>
      <trkpt lat="47.28597" lon="-2.4321">
        <ele>-8</ele>
        <time>2021-09-23T09:39:52.000Z</time>
      </trkpt>
      <trkpt lat="47.28596" lon="-2.43231">
        <ele>-8</ele>
        <time>2021-09-23T09:39:55.000Z</time>
      </trkpt>
      <trkpt lat="47.28598" lon="-2.43246">
        <ele>-8</ele>
        <time>2021-09-23T09:39:57.000Z</time>
      </trkpt>
      <trkpt lat="47.28609" lon="-2.4326">
        <ele>-8</ele>
        <time>2021-09-23T09:40:00.000Z</time>
      </trkpt>
      <trkpt lat="47.28618" lon="-2.43257">
        <ele>-8</ele>
        <time>2021-09-23T09:40:02.000Z</time>
      </trkpt>
      <trkpt lat="47.28623" lon="-2.43256">
        <ele>-8</ele>
        <time>2021-09-23T09:40:03.000Z</time>
      </trkpt>
      <trkpt lat="47.28633" lon="-2.43254">
        <ele>-8</ele>
        <time>2021-09-23T09:40:05.000Z</time>
      </trkpt>
      <trkpt lat="47.2865" lon="-2.43245">
        <ele>-8</ele>
        <time>2021-09-23T09:40:09.000Z</time>
      </trkpt>
      <trkpt lat="47.28656" lon="-2.43233">
        <ele>-8</ele>
        <time>2021-09-23T09:40:12.000Z</time>
      </trkpt>
      <trkpt lat="47.2865" lon="-2.43224">
        <ele>-8</ele>
        <time>2021-09-23T09:40:15.000Z</time>
      </trkpt>
      <trkpt lat="47.28647" lon="-2.43219">
        <ele>-8</ele>
        <time>2021-09-23T09:40:16.000Z</time>
      </trkpt>
      <trkpt lat="47.28638" lon="-2.43204">
        <ele>-8</ele>
        <time>2021-09-23T09:40:19.000Z</time>
      </trkpt>
      <trkpt lat="47.28636" lon="-2.43197">
        <ele>-8</ele>
        <time>2021-09-23T09:40:20.000Z</time>
      </trkpt>
      <trkpt lat="47.2863" lon="-2.43167">
        <ele>-8</ele>
        <time>2021-09-23T09:40:24.000Z</time>
      </trkpt>
      <trkpt lat="47.28629" lon="-2.43159">
        <ele>-8</ele>
        <time>2021-09-23T09:40:25.000Z</time>
      </trkpt>
      <trkpt lat="47.28628" lon="-2.43126">
        <ele>-8</ele>
        <time>2021-09-23T09:40:29.000Z</time>
      </trkpt>
      <trkpt lat="47.28631" lon="-2.43111">
        <ele>-8</ele>
        <time>2021-09-23T09:40:31.000Z</time>
      </trkpt>
      <trkpt lat="47.28637" lon="-2.43083">
        <ele>-8</ele>
        <time>2021-09-23T09:40:35.000Z</time>
      </trkpt>
      <trkpt lat="47.28639" lon="-2.43076">
        <ele>-8</ele>
        <time>2021-09-23T09:40:36.000Z</time>
      </trkpt>
      <trkpt lat="47.28644" lon="-2.43045">
        <ele>-8</ele>
        <time>2021-09-23T09:40:41.000Z</time>
      </trkpt>
      <trkpt lat="47.28649" lon="-2.43026">
        <ele>-7.5999999046326</ele>
        <time>2021-09-23T09:40:44.000Z</time>
      </trkpt>
      <trkpt lat="47.28649" lon="-2.43019">
        <ele>-7.1999998092651</ele>
        <time>2021-09-23T09:40:45.000Z</time>
      </trkpt>
      <trkpt lat="47.28651" lon="-2.43013">
        <ele>-6.8000001907349</ele>
        <time>2021-09-23T09:40:46.000Z</time>
      </trkpt>
      <trkpt lat="47.28653" lon="-2.43006">
        <ele>-6.4000000953674</ele>
        <time>2021-09-23T09:40:47.000Z</time>
      </trkpt>
      <trkpt lat="47.28654" lon="-2.43">
        <ele>-6</ele>
        <time>2021-09-23T09:40:48.000Z</time>
      </trkpt>
      <trkpt lat="47.2866" lon="-2.4296">
        <ele>-6</ele>
        <time>2021-09-23T09:40:54.000Z</time>
      </trkpt>
      <trkpt lat="47.28662" lon="-2.42947">
        <ele>-6</ele>
        <time>2021-09-23T09:40:56.000Z</time>
      </trkpt>
      <trkpt lat="47.28666" lon="-2.4292">
        <ele>-6</ele>
        <time>2021-09-23T09:41:00.000Z</time>
      </trkpt>
      <trkpt lat="47.28671" lon="-2.42869">
        <ele>-6</ele>
        <time>2021-09-23T09:41:07.000Z</time>
      </trkpt>
      <trkpt lat="47.28675" lon="-2.42847">
        <ele>-6</ele>
        <time>2021-09-23T09:41:10.000Z</time>
      </trkpt>
      <trkpt lat="47.2868" lon="-2.42824">
        <ele>-6</ele>
        <time>2021-09-23T09:41:13.000Z</time>
      </trkpt>
      <trkpt lat="47.28683" lon="-2.42817">
        <ele>-6</ele>
        <time>2021-09-23T09:41:14.000Z</time>
      </trkpt>
      <trkpt lat="47.28693" lon="-2.428">
        <ele>-6</ele>
        <time>2021-09-23T09:41:17.000Z</time>
      </trkpt>
      <trkpt lat="47.28699" lon="-2.42787">
        <ele>-6</ele>
        <time>2021-09-23T09:41:19.000Z</time>
      </trkpt>
      <trkpt lat="47.28711" lon="-2.42762">
        <ele>-6</ele>
        <time>2021-09-23T09:41:23.000Z</time>
      </trkpt>
      <trkpt lat="47.28714" lon="-2.42755">
        <ele>-6</ele>
        <time>2021-09-23T09:41:24.000Z</time>
      </trkpt>
      <trkpt lat="47.28717" lon="-2.42733">
        <ele>-6</ele>
        <time>2021-09-23T09:41:27.000Z</time>
      </trkpt>
      <trkpt lat="47.2872" lon="-2.42689">
        <ele>-6</ele>
        <time>2021-09-23T09:41:33.000Z</time>
      </trkpt>
      <trkpt lat="47.28718" lon="-2.42668">
        <ele>-6</ele>
        <time>2021-09-23T09:41:36.000Z</time>
      </trkpt>
      <trkpt lat="47.28711" lon="-2.4266">
        <ele>-6</ele>
        <time>2021-09-23T09:41:38.000Z</time>
      </trkpt>
      <trkpt lat="47.2869" lon="-2.42654">
        <ele>-6</ele>
        <time>2021-09-23T09:41:42.000Z</time>
      </trkpt>
      <trkpt lat="47.28679" lon="-2.4265">
        <ele>-6</ele>
        <time>2021-09-23T09:41:44.000Z</time>
      </trkpt>
      <trkpt lat="47.28673" lon="-2.4265">
        <ele>-6</ele>
        <time>2021-09-23T09:41:45.000Z</time>
      </trkpt>
      <trkpt lat="47.28662" lon="-2.42649">
        <ele>-6</ele>
        <time>2021-09-23T09:41:47.000Z</time>
      </trkpt>
      <trkpt lat="47.28633" lon="-2.4264">
        <ele>-6</ele>
        <time>2021-09-23T09:41:52.000Z</time>
      </trkpt>
      <trkpt lat="47.28628" lon="-2.42636">
        <ele>-6</ele>
        <time>2021-09-23T09:41:53.000Z</time>
      </trkpt>
      <trkpt lat="47.28594" lon="-2.42609">
        <ele>-6</ele>
        <time>2021-09-23T09:41:59.000Z</time>
      </trkpt>
      <trkpt lat="47.28585" lon="-2.42598">
        <ele>-6</ele>
        <time>2021-09-23T09:42:01.000Z</time>
      </trkpt>
      <trkpt lat="47.28576" lon="-2.42586">
        <ele>-6</ele>
        <time>2021-09-23T09:42:03.000Z</time>
      </trkpt>
      <trkpt lat="47.28572" lon="-2.42578">
        <ele>-6</ele>
        <time>2021-09-23T09:42:04.000Z</time>
      </trkpt>
      <trkpt lat="47.28563" lon="-2.42545">
        <ele>-6</ele>
        <time>2021-09-23T09:42:08.000Z</time>
      </trkpt>
      <trkpt lat="47.28566" lon="-2.42512">
        <ele>-6</ele>
        <time>2021-09-23T09:42:12.000Z</time>
      </trkpt>
      <trkpt lat="47.28578" lon="-2.42484">
        <ele>-6</ele>
        <time>2021-09-23T09:42:16.000Z</time>
      </trkpt>
      <trkpt lat="47.28582" lon="-2.42478">
        <ele>-6</ele>
        <time>2021-09-23T09:42:17.000Z</time>
      </trkpt>
      <trkpt lat="47.28599" lon="-2.42456">
        <ele>-6</ele>
        <time>2021-09-23T09:42:21.000Z</time>
      </trkpt>
      <trkpt lat="47.28639" lon="-2.42419">
        <ele>-6</ele>
        <time>2021-09-23T09:42:29.000Z</time>
      </trkpt>
      <trkpt lat="47.28656" lon="-2.42399">
        <ele>-6</ele>
        <time>2021-09-23T09:42:33.000Z</time>
      </trkpt>
      <trkpt lat="47.28668" lon="-2.42382">
        <ele>-6</ele>
        <time>2021-09-23T09:42:36.000Z</time>
      </trkpt>
      <trkpt lat="47.2867" lon="-2.42373">
        <ele>-6</ele>
        <time>2021-09-23T09:42:37.000Z</time>
      </trkpt>
      <trkpt lat="47.28671" lon="-2.42365">
        <ele>-6</ele>
        <time>2021-09-23T09:42:38.000Z</time>
      </trkpt>
      <trkpt lat="47.28671" lon="-2.42348">
        <ele>-6</ele>
        <time>2021-09-23T09:42:40.000Z</time>
      </trkpt>
      <trkpt lat="47.28676" lon="-2.42314">
        <ele>-6</ele>
        <time>2021-09-23T09:42:44.000Z</time>
      </trkpt>
      <trkpt lat="47.28688" lon="-2.42247">
        <ele>-6</ele>
        <time>2021-09-23T09:42:52.000Z</time>
      </trkpt>
      <trkpt lat="47.28692" lon="-2.42232">
        <ele>-6</ele>
        <time>2021-09-23T09:42:54.000Z</time>
      </trkpt>
      <trkpt lat="47.28706" lon="-2.42198">
        <ele>-6</ele>
        <time>2021-09-23T09:42:59.000Z</time>
      </trkpt>
      <trkpt lat="47.2871" lon="-2.42194">
        <ele>-6</ele>
        <time>2021-09-23T09:43:00.000Z</time>
      </trkpt>
      <trkpt lat="47.28717" lon="-2.42184">
        <ele>-6</ele>
        <time>2021-09-23T09:43:02.000Z</time>
      </trkpt>
      <trkpt lat="47.28721" lon="-2.4218">
        <ele>-6</ele>
        <time>2021-09-23T09:43:03.000Z</time>
      </trkpt>
      <trkpt lat="47.28739" lon="-2.42162">
        <ele>-6</ele>
        <time>2021-09-23T09:43:07.000Z</time>
      </trkpt>
      <trkpt lat="47.28744" lon="-2.42158">
        <ele>-6</ele>
        <time>2021-09-23T09:43:08.000Z</time>
      </trkpt>
      <trkpt lat="47.28766" lon="-2.42143">
        <ele>-6</ele>
        <time>2021-09-23T09:43:13.000Z</time>
      </trkpt>
      <trkpt lat="47.28795" lon="-2.42122">
        <ele>-6</ele>
        <time>2021-09-23T09:43:19.000Z</time>
      </trkpt>
      <trkpt lat="47.28802" lon="-2.42111">
        <ele>-6</ele>
        <time>2021-09-23T09:43:21.000Z</time>
      </trkpt>
      <trkpt lat="47.28808" lon="-2.42088">
        <ele>-6</ele>
        <time>2021-09-23T09:43:24.000Z</time>
      </trkpt>
      <trkpt lat="47.2881" lon="-2.42071">
        <ele>-6</ele>
        <time>2021-09-23T09:43:26.000Z</time>
      </trkpt>
      <trkpt lat="47.2881" lon="-2.42054">
        <ele>-6</ele>
        <time>2021-09-23T09:43:28.000Z</time>
      </trkpt>
      <trkpt lat="47.28808" lon="-2.42045">
        <ele>-6</ele>
        <time>2021-09-23T09:43:29.000Z</time>
      </trkpt>
      <trkpt lat="47.28801" lon="-2.42013">
        <ele>-6</ele>
        <time>2021-09-23T09:43:33.000Z</time>
      </trkpt>
      <trkpt lat="47.28793" lon="-2.41972">
        <ele>-6</ele>
        <time>2021-09-23T09:43:38.000Z</time>
      </trkpt>
      <trkpt lat="47.28792" lon="-2.41956">
        <ele>-6</ele>
        <time>2021-09-23T09:43:40.000Z</time>
      </trkpt>
      <trkpt lat="47.2879" lon="-2.41924">
        <ele>-6</ele>
        <time>2021-09-23T09:43:44.000Z</time>
      </trkpt>
      <trkpt lat="47.28787" lon="-2.41907">
        <ele>-6</ele>
        <time>2021-09-23T09:43:46.000Z</time>
      </trkpt>
      <trkpt lat="47.28772" lon="-2.41884">
        <ele>-6</ele>
        <time>2021-09-23T09:43:50.000Z</time>
      </trkpt>
      <trkpt lat="47.28767" lon="-2.4188">
        <ele>-6</ele>
        <time>2021-09-23T09:43:51.000Z</time>
      </trkpt>
      <trkpt lat="47.28749" lon="-2.41873">
        <ele>-6</ele>
        <time>2021-09-23T09:43:54.000Z</time>
      </trkpt>
      <trkpt lat="47.28743" lon="-2.4187">
        <ele>-6</ele>
        <time>2021-09-23T09:43:55.000Z</time>
      </trkpt>
      <trkpt lat="47.2871" lon="-2.4185">
        <ele>-6</ele>
        <time>2021-09-23T09:44:01.000Z</time>
      </trkpt>
      <trkpt lat="47.28678" lon="-2.41825">
        <ele>-6</ele>
        <time>2021-09-23T09:44:07.000Z</time>
      </trkpt>
      <trkpt lat="47.28642" lon="-2.41794">
        <ele>-6</ele>
        <time>2021-09-23T09:44:14.000Z</time>
      </trkpt>
      <trkpt lat="47.28601" lon="-2.41753">
        <ele>-6</ele>
        <time>2021-09-23T09:44:23.000Z</time>
      </trkpt>
      <trkpt lat="47.28577" lon="-2.41733">
        <ele>-6</ele>
        <time>2021-09-23T09:44:28.000Z</time>
      </trkpt>
      <trkpt lat="47.28571" lon="-2.41731">
        <ele>-6</ele>
        <time>2021-09-23T09:44:29.000Z</time>
      </trkpt>
      <trkpt lat="47.2855" lon="-2.41727">
        <ele>-6</ele>
        <time>2021-09-23T09:44:33.000Z</time>
      </trkpt>
      <trkpt lat="47.28545" lon="-2.41728">
        <ele>-6</ele>
        <time>2021-09-23T09:44:34.000Z</time>
      </trkpt>
      <trkpt lat="47.28526" lon="-2.41743">
        <ele>-6</ele>
        <time>2021-09-23T09:44:38.000Z</time>
      </trkpt>
      <trkpt lat="47.28519" lon="-2.41766">
        <ele>-6</ele>
        <time>2021-09-23T09:44:41.000Z</time>
      </trkpt>
      <trkpt lat="47.28518" lon="-2.41774">
        <ele>-6</ele>
        <time>2021-09-23T09:44:42.000Z</time>
      </trkpt>
      <trkpt lat="47.28509" lon="-2.4183">
        <ele>-6</ele>
        <time>2021-09-23T09:44:49.000Z</time>
      </trkpt>
      <trkpt lat="47.285" lon="-2.4189">
        <ele>-6.4000000953674</ele>
        <time>2021-09-23T09:44:56.000Z</time>
      </trkpt>
      <trkpt lat="47.28498" lon="-2.41898">
        <ele>-6.8000001907349</ele>
        <time>2021-09-23T09:44:57.000Z</time>
      </trkpt>
      <trkpt lat="47.28497" lon="-2.41906">
        <ele>-7.1999998092651</ele>
        <time>2021-09-23T09:44:58.000Z</time>
      </trkpt>
      <trkpt lat="47.28496" lon="-2.41915">
        <ele>-7.5999999046326</ele>
        <time>2021-09-23T09:44:59.000Z</time>
      </trkpt>
      <trkpt lat="47.28495" lon="-2.41922">
        <ele>-8</ele>
        <time>2021-09-23T09:45:00.000Z</time>
      </trkpt>
      <trkpt lat="47.28496" lon="-2.41931">
        <ele>-8</ele>
        <time>2021-09-23T09:45:02.000Z</time>
      </trkpt>
      <trkpt lat="47.28501" lon="-2.41936">
        <ele>-8</ele>
        <time>2021-09-23T09:45:05.000Z</time>
      </trkpt>
      <trkpt lat="47.28496" lon="-2.41941">
        <ele>-8</ele>
        <time>2021-09-23T09:45:08.000Z</time>
      </trkpt>
      <trkpt lat="47.28493" lon="-2.41945">
        <ele>-8</ele>
        <time>2021-09-23T09:45:09.000Z</time>
      </trkpt>
      <trkpt lat="47.28491" lon="-2.41956">
        <ele>-8</ele>
        <time>2021-09-23T09:45:11.000Z</time>
      </trkpt>
      <trkpt lat="47.2849" lon="-2.41962">
        <ele>-8.3999996185303</ele>
        <time>2021-09-23T09:45:12.000Z</time>
      </trkpt>
      <trkpt lat="47.28488" lon="-2.41969">
        <ele>-9</ele>
        <time>2021-09-23T09:45:13.000Z</time>
      </trkpt>
      <trkpt lat="47.28486" lon="-2.41976">
        <ele>-9.3999996185303</ele>
        <time>2021-09-23T09:45:14.000Z</time>
      </trkpt>
      <trkpt lat="47.28485" lon="-2.41984">
        <ele>-9.8000001907349</ele>
        <time>2021-09-23T09:45:15.000Z</time>
      </trkpt>
      <trkpt lat="47.28483" lon="-2.41991">
        <ele>-10.199999809265</ele>
        <time>2021-09-23T09:45:16.000Z</time>
      </trkpt>
      <trkpt lat="47.2848" lon="-2.42005">
        <ele>-10.199999809265</ele>
        <time>2021-09-23T09:45:18.000Z</time>
      </trkpt>
      <trkpt lat="47.28475" lon="-2.42042">
        <ele>-10.199999809265</ele>
        <time>2021-09-23T09:45:23.000Z</time>
      </trkpt>
      <trkpt lat="47.28474" lon="-2.42057">
        <ele>-10.199999809265</ele>
        <time>2021-09-23T09:45:25.000Z</time>
      </trkpt>
      <trkpt lat="47.2847" lon="-2.42078">
        <ele>-10.199999809265</ele>
        <time>2021-09-23T09:45:28.000Z</time>
      </trkpt>
      <trkpt lat="47.28462" lon="-2.42134">
        <ele>-10.199999809265</ele>
        <time>2021-09-23T09:45:36.000Z</time>
      </trkpt>
      <trkpt lat="47.28461" lon="-2.42148">
        <ele>-10.199999809265</ele>
        <time>2021-09-23T09:45:38.000Z</time>
      </trkpt>
      <trkpt lat="47.28461" lon="-2.42161">
        <ele>-10.199999809265</ele>
        <time>2021-09-23T09:45:40.000Z</time>
      </trkpt>
      <trkpt lat="47.28454" lon="-2.42185">
        <ele>-10.199999809265</ele>
        <time>2021-09-23T09:45:44.000Z</time>
      </trkpt>
      <trkpt lat="47.28449" lon="-2.42203">
        <ele>-10.199999809265</ele>
        <time>2021-09-23T09:45:47.000Z</time>
      </trkpt>
      <trkpt lat="47.28448" lon="-2.42209">
        <ele>-10.199999809265</ele>
        <time>2021-09-23T09:45:48.000Z</time>
      </trkpt>
      <trkpt lat="47.28449" lon="-2.42215">
        <ele>-10.199999809265</ele>
        <time>2021-09-23T09:45:49.000Z</time>
      </trkpt>
      <trkpt lat="47.2845" lon="-2.42241">
        <ele>-10.199999809265</ele>
        <time>2021-09-23T09:45:53.000Z</time>
      </trkpt>
      <trkpt lat="47.28447" lon="-2.42254">
        <ele>-10.199999809265</ele>
        <time>2021-09-23T09:45:55.000Z</time>
      </trkpt>
      <trkpt lat="47.28445" lon="-2.4226">
        <ele>-10.199999809265</ele>
        <time>2021-09-23T09:45:56.000Z</time>
      </trkpt>
      <trkpt lat="47.28438" lon="-2.42276">
        <ele>-10.199999809265</ele>
        <time>2021-09-23T09:45:59.000Z</time>
      </trkpt>
      <trkpt lat="47.28427" lon="-2.4228">
        <ele>-10.199999809265</ele>
        <time>2021-09-23T09:46:02.000Z</time>
      </trkpt>
      <trkpt lat="47.28424" lon="-2.42281">
        <ele>-10.199999809265</ele>
        <time>2021-09-23T09:46:03.000Z</time>
      </trkpt>
      <trkpt lat="47.28419" lon="-2.42291">
        <ele>-10.199999809265</ele>
        <time>2021-09-23T09:46:05.000Z</time>
      </trkpt>
      <trkpt lat="47.28416" lon="-2.42309">
        <ele>-10.199999809265</ele>
        <time>2021-09-23T09:46:08.000Z</time>
      </trkpt>
      <trkpt lat="47.28413" lon="-2.42331">
        <ele>-10.199999809265</ele>
        <time>2021-09-23T09:46:11.000Z</time>
      </trkpt>
      <trkpt lat="47.28406" lon="-2.42387">
        <ele>-10.199999809265</ele>
        <time>2021-09-23T09:46:18.000Z</time>
      </trkpt>
      <trkpt lat="47.28397" lon="-2.42443">
        <ele>-10.199999809265</ele>
        <time>2021-09-23T09:46:25.000Z</time>
      </trkpt>
      <trkpt lat="47.28387" lon="-2.42507">
        <ele>-10.199999809265</ele>
        <time>2021-09-23T09:46:33.000Z</time>
      </trkpt>
      <trkpt lat="47.2838" lon="-2.42539">
        <ele>-10.199999809265</ele>
        <time>2021-09-23T09:46:37.000Z</time>
      </trkpt>
      <trkpt lat="47.28377" lon="-2.42545">
        <ele>-10.199999809265</ele>
        <time>2021-09-23T09:46:38.000Z</time>
      </trkpt>
      <trkpt lat="47.28362" lon="-2.42555">
        <ele>-10.199999809265</ele>
        <time>2021-09-23T09:46:41.000Z</time>
      </trkpt>
      <trkpt lat="47.28356" lon="-2.42557">
        <ele>-9.8000001907349</ele>
        <time>2021-09-23T09:46:42.000Z</time>
      </trkpt>
      <trkpt lat="47.28351" lon="-2.42558">
        <ele>-9.3999996185303</ele>
        <time>2021-09-23T09:46:43.000Z</time>
      </trkpt>
      <trkpt lat="47.28346" lon="-2.42559">
        <ele>-9</ele>
        <time>2021-09-23T09:46:44.000Z</time>
      </trkpt>
      <trkpt lat="47.28341" lon="-2.42561">
        <ele>-8.6000003814697</ele>
        <time>2021-09-23T09:46:45.000Z</time>
      </trkpt>
      <trkpt lat="47.28337" lon="-2.42564">
        <ele>-8</ele>
        <time>2021-09-23T09:46:46.000Z</time>
      </trkpt>
      <trkpt lat="47.28322" lon="-2.42566">
        <ele>-8</ele>
        <time>2021-09-23T09:46:49.000Z</time>
      </trkpt>
      <trkpt lat="47.28308" lon="-2.4257">
        <ele>-8</ele>
        <time>2021-09-23T09:46:52.000Z</time>
      </trkpt>
      <trkpt lat="47.28298" lon="-2.42574">
        <ele>-8</ele>
        <time>2021-09-23T09:46:54.000Z</time>
      </trkpt>
      <trkpt lat="47.28279" lon="-2.42587">
        <ele>-8</ele>
        <time>2021-09-23T09:46:58.000Z</time>
      </trkpt>
      <trkpt lat="47.28266" lon="-2.42601">
        <ele>-8</ele>
        <time>2021-09-23T09:47:01.000Z</time>
      </trkpt>
      <trkpt lat="47.28234" lon="-2.42633">
        <ele>-8</ele>
        <time>2021-09-23T09:47:08.000Z</time>
      </trkpt>
      <trkpt lat="47.28205" lon="-2.42667">
        <ele>-8</ele>
        <time>2021-09-23T09:47:15.000Z</time>
      </trkpt>
      <trkpt lat="47.28196" lon="-2.42692">
        <ele>-8</ele>
        <time>2021-09-23T09:47:19.000Z</time>
      </trkpt>
      <trkpt lat="47.28194" lon="-2.42698">
        <ele>-8</ele>
        <time>2021-09-23T09:47:20.000Z</time>
      </trkpt>
      <trkpt lat="47.28187" lon="-2.42705">
        <ele>-8</ele>
        <time>2021-09-23T09:47:23.000Z</time>
      </trkpt>
      <trkpt lat="47.28177" lon="-2.4269">
        <ele>-8</ele>
        <time>2021-09-23T09:47:27.000Z</time>
      </trkpt>
      <trkpt lat="47.28166" lon="-2.42671">
        <ele>-7.5999999046326</ele>
        <time>2021-09-23T09:47:31.000Z</time>
      </trkpt>
      <trkpt lat="47.28162" lon="-2.42667">
        <ele>-7.1999998092651</ele>
        <time>2021-09-23T09:47:32.000Z</time>
      </trkpt>
      <trkpt lat="47.28159" lon="-2.42662">
        <ele>-6.8000001907349</ele>
        <time>2021-09-23T09:47:33.000Z</time>
      </trkpt>
      <trkpt lat="47.28156" lon="-2.42658">
        <ele>-6.4000000953674</ele>
        <time>2021-09-23T09:47:34.000Z</time>
      </trkpt>
      <trkpt lat="47.28153" lon="-2.42653">
        <ele>-5.8000001907349</ele>
        <time>2021-09-23T09:47:35.000Z</time>
      </trkpt>
      <trkpt lat="47.28138" lon="-2.42626">
        <ele>-5.8000001907349</ele>
        <time>2021-09-23T09:47:40.000Z</time>
      </trkpt>
      <trkpt lat="47.28112" lon="-2.42577">
        <ele>-5.8000001907349</ele>
        <time>2021-09-23T09:47:48.000Z</time>
      </trkpt>
      <trkpt lat="47.28098" lon="-2.4255">
        <ele>-5.8000001907349</ele>
        <time>2021-09-23T09:47:53.000Z</time>
      </trkpt>
      <trkpt lat="47.28104" lon="-2.42542">
        <ele>-5.8000001907349</ele>
        <time>2021-09-23T09:47:56.000Z</time>
      </trkpt>
      <trkpt lat="47.28113" lon="-2.4254">
        <ele>-5.8000001907349</ele>
        <time>2021-09-23T09:47:58.000Z</time>
      </trkpt>
      <trkpt lat="47.28123" lon="-2.42538">
        <ele>-5.8000001907349</ele>
        <time>2021-09-23T09:48:00.000Z</time>
      </trkpt>
      <trkpt lat="47.2816" lon="-2.42524">
        <ele>-5.8000001907349</ele>
        <time>2021-09-23T09:48:07.000Z</time>
      </trkpt>
      <trkpt lat="47.28192" lon="-2.42512">
        <ele>-5.8000001907349</ele>
        <time>2021-09-23T09:48:13.000Z</time>
      </trkpt>
      <trkpt lat="47.28197" lon="-2.42509">
        <ele>-5.8000001907349</ele>
        <time>2021-09-23T09:48:14.000Z</time>
      </trkpt>
      <trkpt lat="47.28209" lon="-2.42495">
        <ele>-5.8000001907349</ele>
        <time>2021-09-23T09:48:17.000Z</time>
      </trkpt>
      <trkpt lat="47.28217" lon="-2.42484">
        <ele>-5.8000001907349</ele>
        <time>2021-09-23T09:48:19.000Z</time>
      </trkpt>
      <trkpt lat="47.28235" lon="-2.42446">
        <ele>-5.8000001907349</ele>
        <time>2021-09-23T09:48:25.000Z</time>
      </trkpt>
      <trkpt lat="47.28249" lon="-2.42405">
        <ele>-5.8000001907349</ele>
        <time>2021-09-23T09:48:31.000Z</time>
      </trkpt>
      <trkpt lat="47.28262" lon="-2.42351">
        <ele>-5.8000001907349</ele>
        <time>2021-09-23T09:48:38.000Z</time>
      </trkpt>
      <trkpt lat="47.28271" lon="-2.42296">
        <ele>-5.8000001907349</ele>
        <time>2021-09-23T09:48:45.000Z</time>
      </trkpt>
      <trkpt lat="47.28275" lon="-2.42273">
        <ele>-5.8000001907349</ele>
        <time>2021-09-23T09:48:48.000Z</time>
      </trkpt>
      <trkpt lat="47.28276" lon="-2.42249">
        <ele>-5.8000001907349</ele>
        <time>2021-09-23T09:48:51.000Z</time>
      </trkpt>
      <trkpt lat="47.28277" lon="-2.42233">
        <ele>-5.8000001907349</ele>
        <time>2021-09-23T09:48:53.000Z</time>
      </trkpt>
      <trkpt lat="47.28282" lon="-2.42203">
        <ele>-5.8000001907349</ele>
        <time>2021-09-23T09:48:57.000Z</time>
      </trkpt>
      <trkpt lat="47.2829" lon="-2.42157">
        <ele>-5.8000001907349</ele>
        <time>2021-09-23T09:49:03.000Z</time>
      </trkpt>
      <trkpt lat="47.28299" lon="-2.42093">
        <ele>-5.8000001907349</ele>
        <time>2021-09-23T09:49:11.000Z</time>
      </trkpt>
      <trkpt lat="47.28308" lon="-2.4203">
        <ele>-5.8000001907349</ele>
        <time>2021-09-23T09:49:19.000Z</time>
      </trkpt>
      <trkpt lat="47.28318" lon="-2.41985">
        <ele>-5.8000001907349</ele>
        <time>2021-09-23T09:49:25.000Z</time>
      </trkpt>
      <trkpt lat="47.28333" lon="-2.41928">
        <ele>-5.8000001907349</ele>
        <time>2021-09-23T09:49:33.000Z</time>
      </trkpt>
      <trkpt lat="47.28343" lon="-2.41884">
        <ele>-5.8000001907349</ele>
        <time>2021-09-23T09:49:39.000Z</time>
      </trkpt>
      <trkpt lat="47.28356" lon="-2.41831">
        <ele>-5.8000001907349</ele>
        <time>2021-09-23T09:49:46.000Z</time>
      </trkpt>
      <trkpt lat="47.28375" lon="-2.41755">
        <ele>-5.8000001907349</ele>
        <time>2021-09-23T09:49:56.000Z</time>
      </trkpt>
      <trkpt lat="47.28387" lon="-2.41702">
        <ele>-5.8000001907349</ele>
        <time>2021-09-23T09:50:03.000Z</time>
      </trkpt>
      <trkpt lat="47.28391" lon="-2.41687">
        <ele>-5.8000001907349</ele>
        <time>2021-09-23T09:50:05.000Z</time>
      </trkpt>
      <trkpt lat="47.28396" lon="-2.41665">
        <ele>-5.8000001907349</ele>
        <time>2021-09-23T09:50:08.000Z</time>
      </trkpt>
      <trkpt lat="47.28403" lon="-2.41611">
        <ele>-5.8000001907349</ele>
        <time>2021-09-23T09:50:15.000Z</time>
      </trkpt>
      <trkpt lat="47.28409" lon="-2.41557">
        <ele>-5.8000001907349</ele>
        <time>2021-09-23T09:50:22.000Z</time>
      </trkpt>
      <trkpt lat="47.28415" lon="-2.41502">
        <ele>-5.8000001907349</ele>
        <time>2021-09-23T09:50:29.000Z</time>
      </trkpt>
      <trkpt lat="47.28419" lon="-2.41448">
        <ele>-5.8000001907349</ele>
        <time>2021-09-23T09:50:36.000Z</time>
      </trkpt>
      <trkpt lat="47.28423" lon="-2.41425">
        <ele>-5.8000001907349</ele>
        <time>2021-09-23T09:50:39.000Z</time>
      </trkpt>
      <trkpt lat="47.28428" lon="-2.41403">
        <ele>-5.8000001907349</ele>
        <time>2021-09-23T09:50:42.000Z</time>
      </trkpt>
      <trkpt lat="47.28444" lon="-2.41345">
        <ele>-5.8000001907349</ele>
        <time>2021-09-23T09:50:50.000Z</time>
      </trkpt>
      <trkpt lat="47.28448" lon="-2.41325">
        <ele>-5.8000001907349</ele>
        <time>2021-09-23T09:50:53.000Z</time>
      </trkpt>
      <trkpt lat="47.28452" lon="-2.41305">
        <ele>-5.8000001907349</ele>
        <time>2021-09-23T09:50:56.000Z</time>
      </trkpt>
      <trkpt lat="47.28455" lon="-2.41286">
        <ele>-5.8000001907349</ele>
        <time>2021-09-23T09:50:59.000Z</time>
      </trkpt>
      <trkpt lat="47.28454" lon="-2.41268">
        <ele>-5.8000001907349</ele>
        <time>2021-09-23T09:51:02.000Z</time>
      </trkpt>
      <trkpt lat="47.28459" lon="-2.41255">
        <ele>-5.8000001907349</ele>
        <time>2021-09-23T09:51:05.000Z</time>
      </trkpt>
      <trkpt lat="47.28473" lon="-2.41254">
        <ele>-5.8000001907349</ele>
        <time>2021-09-23T09:51:09.000Z</time>
      </trkpt>
      <trkpt lat="47.28481" lon="-2.41245">
        <ele>-5.8000001907349</ele>
        <time>2021-09-23T09:51:12.000Z</time>
      </trkpt>
      <trkpt lat="47.28477" lon="-2.41222">
        <ele>-5.8000001907349</ele>
        <time>2021-09-23T09:51:16.000Z</time>
      </trkpt>
      <trkpt lat="47.28469" lon="-2.41206">
        <ele>-5.8000001907349</ele>
        <time>2021-09-23T09:51:20.000Z</time>
      </trkpt>
      <trkpt lat="47.28458" lon="-2.41209">
        <ele>-5.8000001907349</ele>
        <time>2021-09-23T09:51:23.000Z</time>
      </trkpt>
      <trkpt lat="47.28424" lon="-2.41228">
        <ele>-5.8000001907349</ele>
        <time>2021-09-23T09:51:31.000Z</time>
      </trkpt>
      <trkpt lat="47.28412" lon="-2.41237">
        <ele>-6.4000000953674</ele>
        <time>2021-09-23T09:51:34.000Z</time>
      </trkpt>
      <trkpt lat="47.28407" lon="-2.41238">
        <ele>-6.8000001907349</ele>
        <time>2021-09-23T09:51:35.000Z</time>
      </trkpt>
      <trkpt lat="47.28403" lon="-2.41238">
        <ele>-7.1999998092651</ele>
        <time>2021-09-23T09:51:36.000Z</time>
      </trkpt>
      <trkpt lat="47.28399" lon="-2.41237">
        <ele>-7.5999999046326</ele>
        <time>2021-09-23T09:51:37.000Z</time>
      </trkpt>
      <trkpt lat="47.28395" lon="-2.41236">
        <ele>-8</ele>
        <time>2021-09-23T09:51:38.000Z</time>
      </trkpt>
      <trkpt lat="47.28391" lon="-2.41235">
        <ele>-8</ele>
        <time>2021-09-23T09:51:39.000Z</time>
      </trkpt>
      <trkpt lat="47.28378" lon="-2.41232">
        <ele>-8</ele>
        <time>2021-09-23T09:51:42.000Z</time>
      </trkpt>
      <trkpt lat="47.28366" lon="-2.41225">
        <ele>-8</ele>
        <time>2021-09-23T09:51:45.000Z</time>
      </trkpt>
      <trkpt lat="47.28343" lon="-2.41214">
        <ele>-8</ele>
        <time>2021-09-23T09:51:51.000Z</time>
      </trkpt>
      <trkpt lat="47.28327" lon="-2.41206">
        <ele>-8</ele>
        <time>2021-09-23T09:51:55.000Z</time>
      </trkpt>
      <trkpt lat="47.28323" lon="-2.41204">
        <ele>-8</ele>
        <time>2021-09-23T09:51:56.000Z</time>
      </trkpt>
      <trkpt lat="47.28303" lon="-2.41197">
        <ele>-8</ele>
        <time>2021-09-23T09:52:00.000Z</time>
      </trkpt>
      <trkpt lat="47.28298" lon="-2.41194">
        <ele>-8</ele>
        <time>2021-09-23T09:52:01.000Z</time>
      </trkpt>
      <trkpt lat="47.28265" lon="-2.41178">
        <ele>-8</ele>
        <time>2021-09-23T09:52:07.000Z</time>
      </trkpt>
      <trkpt lat="47.28228" lon="-2.41158">
        <ele>-8</ele>
        <time>2021-09-23T09:52:14.000Z</time>
      </trkpt>
      <trkpt lat="47.28213" lon="-2.41152">
        <ele>-8</ele>
        <time>2021-09-23T09:52:17.000Z</time>
      </trkpt>
      <trkpt lat="47.28207" lon="-2.41141">
        <ele>-8</ele>
        <time>2021-09-23T09:52:19.000Z</time>
      </trkpt>
      <trkpt lat="47.28211" lon="-2.41128">
        <ele>-8</ele>
        <time>2021-09-23T09:52:21.000Z</time>
      </trkpt>
      <trkpt lat="47.28219" lon="-2.41117">
        <ele>-8</ele>
        <time>2021-09-23T09:52:23.000Z</time>
      </trkpt>
      <trkpt lat="47.28222" lon="-2.41111">
        <ele>-8</ele>
        <time>2021-09-23T09:52:24.000Z</time>
      </trkpt>
      <trkpt lat="47.28228" lon="-2.41097">
        <ele>-8</ele>
        <time>2021-09-23T09:52:26.000Z</time>
      </trkpt>
      <trkpt lat="47.28241" lon="-2.4105">
        <ele>-8</ele>
        <time>2021-09-23T09:52:32.000Z</time>
      </trkpt>
      <trkpt lat="47.28244" lon="-2.41017">
        <ele>-8</ele>
        <time>2021-09-23T09:52:36.000Z</time>
      </trkpt>
      <trkpt lat="47.28243" lon="-2.41009">
        <ele>-8</ele>
        <time>2021-09-23T09:52:37.000Z</time>
      </trkpt>
      <trkpt lat="47.28241" lon="-2.40985">
        <ele>-7.5999999046326</ele>
        <time>2021-09-23T09:52:40.000Z</time>
      </trkpt>
      <trkpt lat="47.28241" lon="-2.40977">
        <ele>-7.1999998092651</ele>
        <time>2021-09-23T09:52:41.000Z</time>
      </trkpt>
      <trkpt lat="47.28241" lon="-2.40968">
        <ele>-6.8000001907349</ele>
        <time>2021-09-23T09:52:42.000Z</time>
      </trkpt>
      <trkpt lat="47.28242" lon="-2.4096">
        <ele>-6.4000000953674</ele>
        <time>2021-09-23T09:52:43.000Z</time>
      </trkpt>
      <trkpt lat="47.28243" lon="-2.40952">
        <ele>-6</ele>
        <time>2021-09-23T09:52:44.000Z</time>
      </trkpt>
      <trkpt lat="47.28254" lon="-2.40915">
        <ele>-6</ele>
        <time>2021-09-23T09:52:49.000Z</time>
      </trkpt>
      <trkpt lat="47.28263" lon="-2.40894">
        <ele>-6</ele>
        <time>2021-09-23T09:52:52.000Z</time>
      </trkpt>
      <trkpt lat="47.28263" lon="-2.40887">
        <ele>-6</ele>
        <time>2021-09-23T09:52:53.000Z</time>
      </trkpt>
      <trkpt lat="47.28254" lon="-2.40872">
        <ele>-6</ele>
        <time>2021-09-23T09:52:56.000Z</time>
      </trkpt>
      <trkpt lat="47.28246" lon="-2.40865">
        <ele>-6</ele>
        <time>2021-09-23T09:52:58.000Z</time>
      </trkpt>
      <trkpt lat="47.28223" lon="-2.40846">
        <ele>-6</ele>
        <time>2021-09-23T09:53:03.000Z</time>
      </trkpt>
      <trkpt lat="47.28193" lon="-2.40823">
        <ele>-6</ele>
        <time>2021-09-23T09:53:09.000Z</time>
      </trkpt>
      <trkpt lat="47.28164" lon="-2.40798">
        <ele>-6</ele>
        <time>2021-09-23T09:53:15.000Z</time>
      </trkpt>
      <trkpt lat="47.28132" lon="-2.40775">
        <ele>-6</ele>
        <time>2021-09-23T09:53:22.000Z</time>
      </trkpt>
      <trkpt lat="47.2813" lon="-2.40758">
        <ele>-6</ele>
        <time>2021-09-23T09:53:25.000Z</time>
      </trkpt>
      <trkpt lat="47.2813" lon="-2.40739">
        <ele>-6</ele>
        <time>2021-09-23T09:53:29.000Z</time>
      </trkpt>
      <trkpt lat="47.28122" lon="-2.40736">
        <ele>-6</ele>
        <time>2021-09-23T09:53:33.000Z</time>
      </trkpt>
      <trkpt lat="47.28106" lon="-2.40729">
        <ele>-6</ele>
        <time>2021-09-23T09:53:38.000Z</time>
      </trkpt>
      <trkpt lat="47.28085" lon="-2.40715">
        <ele>-6</ele>
        <time>2021-09-23T09:53:44.000Z</time>
      </trkpt>
      <trkpt lat="47.28075" lon="-2.40707">
        <ele>-6</ele>
        <time>2021-09-23T09:53:49.000Z</time>
      </trkpt>
      <trkpt lat="47.28071" lon="-2.40703">
        <ele>-6</ele>
        <time>2021-09-23T09:53:54.000Z</time>
      </trkpt>
      <trkpt lat="47.28066" lon="-2.40695">
        <ele>-6</ele>
        <time>2021-09-23T09:53:59.000Z</time>
      </trkpt>
      <trkpt lat="47.28057" lon="-2.40671">
        <ele>-6</ele>
        <time>2021-09-23T09:54:04.000Z</time>
      </trkpt>
      <trkpt lat="47.28054" lon="-2.40644">
        <ele>-6</ele>
        <time>2021-09-23T09:54:09.000Z</time>
      </trkpt>
      <trkpt lat="47.2805" lon="-2.40613">
        <ele>-6</ele>
        <time>2021-09-23T09:54:15.000Z</time>
      </trkpt>
      <trkpt lat="47.28055" lon="-2.40578">
        <ele>-6</ele>
        <time>2021-09-23T09:54:23.000Z</time>
      </trkpt>
      <trkpt lat="47.28061" lon="-2.40548">
        <ele>-6</ele>
        <time>2021-09-23T09:54:30.000Z</time>
      </trkpt>
      <trkpt lat="47.28065" lon="-2.4053">
        <ele>-6</ele>
        <time>2021-09-23T09:54:35.000Z</time>
      </trkpt>
      <trkpt lat="47.2807" lon="-2.40504">
        <ele>-6</ele>
        <time>2021-09-23T09:54:42.000Z</time>
      </trkpt>
      <trkpt lat="47.28076" lon="-2.40479">
        <ele>-6</ele>
        <time>2021-09-23T09:54:49.000Z</time>
      </trkpt>
      <trkpt lat="47.28088" lon="-2.4046">
        <ele>-6</ele>
        <time>2021-09-23T09:54:55.000Z</time>
      </trkpt>
      <trkpt lat="47.28101" lon="-2.40437">
        <ele>-6</ele>
        <time>2021-09-23T09:55:02.000Z</time>
      </trkpt>
      <trkpt lat="47.28109" lon="-2.40406">
        <ele>-6</ele>
        <time>2021-09-23T09:55:08.000Z</time>
      </trkpt>
      <trkpt lat="47.2811" lon="-2.404">
        <ele>-6</ele>
        <time>2021-09-23T09:55:09.000Z</time>
      </trkpt>
      <trkpt lat="47.28114" lon="-2.40364">
        <ele>-6</ele>
        <time>2021-09-23T09:55:15.000Z</time>
      </trkpt>
      <trkpt lat="47.28117" lon="-2.4034">
        <ele>-6</ele>
        <time>2021-09-23T09:55:19.000Z</time>
      </trkpt>
      <trkpt lat="47.28119" lon="-2.40321">
        <ele>-6</ele>
        <time>2021-09-23T09:55:22.000Z</time>
      </trkpt>
      <trkpt lat="47.28125" lon="-2.40276">
        <ele>-6</ele>
        <time>2021-09-23T09:55:30.000Z</time>
      </trkpt>
      <trkpt lat="47.28131" lon="-2.40222">
        <ele>-6</ele>
        <time>2021-09-23T09:55:38.000Z</time>
      </trkpt>
      <trkpt lat="47.28136" lon="-2.40164">
        <ele>-6</ele>
        <time>2021-09-23T09:55:46.000Z</time>
      </trkpt>
      <trkpt lat="47.28141" lon="-2.40114">
        <ele>-6</ele>
        <time>2021-09-23T09:55:53.000Z</time>
      </trkpt>
      <trkpt lat="47.28146" lon="-2.40054">
        <ele>-6</ele>
        <time>2021-09-23T09:56:02.000Z</time>
      </trkpt>
      <trkpt lat="47.2815" lon="-2.40025">
        <ele>-6</ele>
        <time>2021-09-23T09:56:08.000Z</time>
      </trkpt>
      <trkpt lat="47.28152" lon="-2.39997">
        <ele>-6</ele>
        <time>2021-09-23T09:56:13.000Z</time>
      </trkpt>
      <trkpt lat="47.28156" lon="-2.39957">
        <ele>-6</ele>
        <time>2021-09-23T09:56:19.000Z</time>
      </trkpt>
      <trkpt lat="47.28159" lon="-2.399">
        <ele>-6</ele>
        <time>2021-09-23T09:56:26.000Z</time>
      </trkpt>
      <trkpt lat="47.28164" lon="-2.3983">
        <ele>-6</ele>
        <time>2021-09-23T09:56:35.000Z</time>
      </trkpt>
      <trkpt lat="47.28165" lon="-2.39807">
        <ele>-6</ele>
        <time>2021-09-23T09:56:38.000Z</time>
      </trkpt>
      <trkpt lat="47.28167" lon="-2.39775">
        <ele>-6</ele>
        <time>2021-09-23T09:56:42.000Z</time>
      </trkpt>
      <trkpt lat="47.28174" lon="-2.39703">
        <ele>-6</ele>
        <time>2021-09-23T09:56:51.000Z</time>
      </trkpt>
      <trkpt lat="47.28177" lon="-2.39648">
        <ele>-6</ele>
        <time>2021-09-23T09:56:58.000Z</time>
      </trkpt>
      <trkpt lat="47.28178" lon="-2.39587">
        <ele>-6</ele>
        <time>2021-09-23T09:57:06.000Z</time>
      </trkpt>
      <trkpt lat="47.28179" lon="-2.3957">
        <ele>-5.5999999046326</ele>
        <time>2021-09-23T09:57:08.000Z</time>
      </trkpt>
      <trkpt lat="47.28179" lon="-2.39562">
        <ele>-5.1999998092651</ele>
        <time>2021-09-23T09:57:09.000Z</time>
      </trkpt>
      <trkpt lat="47.28179" lon="-2.39555">
        <ele>-4.8000001907349</ele>
        <time>2021-09-23T09:57:10.000Z</time>
      </trkpt>
      <trkpt lat="47.28179" lon="-2.39547">
        <ele>-4.4000000953674</ele>
        <time>2021-09-23T09:57:11.000Z</time>
      </trkpt>
      <trkpt lat="47.2818" lon="-2.3954">
        <ele>-4</ele>
        <time>2021-09-23T09:57:12.000Z</time>
      </trkpt>
      <trkpt lat="47.2818" lon="-2.39517">
        <ele>-4</ele>
        <time>2021-09-23T09:57:15.000Z</time>
      </trkpt>
      <trkpt lat="47.2818" lon="-2.39454">
        <ele>-4</ele>
        <time>2021-09-23T09:57:24.000Z</time>
      </trkpt>
      <trkpt lat="47.28178" lon="-2.39397">
        <ele>-4</ele>
        <time>2021-09-23T09:57:31.000Z</time>
      </trkpt>
      <trkpt lat="47.28179" lon="-2.39315">
        <ele>-4</ele>
        <time>2021-09-23T09:57:41.000Z</time>
      </trkpt>
      <trkpt lat="47.28176" lon="-2.39244">
        <ele>-4</ele>
        <time>2021-09-23T09:57:50.000Z</time>
      </trkpt>
      <trkpt lat="47.28174" lon="-2.39174">
        <ele>-4</ele>
        <time>2021-09-23T09:57:58.000Z</time>
      </trkpt>
      <trkpt lat="47.28173" lon="-2.39125">
        <ele>-4</ele>
        <time>2021-09-23T09:58:04.000Z</time>
      </trkpt>
      <trkpt lat="47.28169" lon="-2.39066">
        <ele>-4</ele>
        <time>2021-09-23T09:58:11.000Z</time>
      </trkpt>
      <trkpt lat="47.2816" lon="-2.38988">
        <ele>-4</ele>
        <time>2021-09-23T09:58:20.000Z</time>
      </trkpt>
      <trkpt lat="47.28155" lon="-2.38962">
        <ele>-4</ele>
        <time>2021-09-23T09:58:23.000Z</time>
      </trkpt>
      <trkpt lat="47.28149" lon="-2.38937">
        <ele>-4</ele>
        <time>2021-09-23T09:58:26.000Z</time>
      </trkpt>
      <trkpt lat="47.28135" lon="-2.38881">
        <ele>-4</ele>
        <time>2021-09-23T09:58:32.000Z</time>
      </trkpt>
      <trkpt lat="47.28128" lon="-2.38815">
        <ele>-4</ele>
        <time>2021-09-23T09:58:39.000Z</time>
      </trkpt>
      <trkpt lat="47.28121" lon="-2.38737">
        <ele>-4</ele>
        <time>2021-09-23T09:58:48.000Z</time>
      </trkpt>
      <trkpt lat="47.28115" lon="-2.38673">
        <ele>-4</ele>
        <time>2021-09-23T09:58:56.000Z</time>
      </trkpt>
      <trkpt lat="47.28113" lon="-2.38647">
        <ele>-4</ele>
        <time>2021-09-23T09:59:01.000Z</time>
      </trkpt>
      <trkpt lat="47.28112" lon="-2.38632">
        <ele>-4</ele>
        <time>2021-09-23T09:59:06.000Z</time>
      </trkpt>
      <trkpt lat="47.28112" lon="-2.38625">
        <ele>-4</ele>
        <time>2021-09-23T09:59:09.000Z</time>
      </trkpt>
      <trkpt lat="47.28111" lon="-2.38616">
        <ele>-4</ele>
        <time>2021-09-23T09:59:13.000Z</time>
      </trkpt>
      <trkpt lat="47.2811" lon="-2.38594">
        <ele>-4</ele>
        <time>2021-09-23T09:59:17.000Z</time>
      </trkpt>
      <trkpt lat="47.28104" lon="-2.38536">
        <ele>-4</ele>
        <time>2021-09-23T09:59:25.000Z</time>
      </trkpt>
      <trkpt lat="47.28094" lon="-2.38467">
        <ele>-4</ele>
        <time>2021-09-23T09:59:33.000Z</time>
      </trkpt>
      <trkpt lat="47.28079" lon="-2.38386">
        <ele>-4</ele>
        <time>2021-09-23T09:59:42.000Z</time>
      </trkpt>
      <trkpt lat="47.28067" lon="-2.38336">
        <ele>-4</ele>
        <time>2021-09-23T09:59:48.000Z</time>
      </trkpt>
      <trkpt lat="47.28054" lon="-2.38273">
        <ele>-4</ele>
        <time>2021-09-23T09:59:56.000Z</time>
      </trkpt>
      <trkpt lat="47.28045" lon="-2.38223">
        <ele>-4</ele>
        <time>2021-09-23T10:00:03.000Z</time>
      </trkpt>
      <trkpt lat="47.28035" lon="-2.38168">
        <ele>-4</ele>
        <time>2021-09-23T10:00:11.000Z</time>
      </trkpt>
      <trkpt lat="47.28025" lon="-2.38112">
        <ele>-4</ele>
        <time>2021-09-23T10:00:19.000Z</time>
      </trkpt>
      <trkpt lat="47.28016" lon="-2.38064">
        <ele>-4</ele>
        <time>2021-09-23T10:00:25.000Z</time>
      </trkpt>
      <trkpt lat="47.28003" lon="-2.37997">
        <ele>-4</ele>
        <time>2021-09-23T10:00:33.000Z</time>
      </trkpt>
      <trkpt lat="47.27993" lon="-2.37943">
        <ele>-4</ele>
        <time>2021-09-23T10:00:40.000Z</time>
      </trkpt>
      <trkpt lat="47.27992" lon="-2.37936">
        <ele>-3.4000000953674</ele>
        <time>2021-09-23T10:00:41.000Z</time>
      </trkpt>
      <trkpt lat="47.2799" lon="-2.37929">
        <ele>-3</ele>
        <time>2021-09-23T10:00:42.000Z</time>
      </trkpt>
      <trkpt lat="47.27989" lon="-2.37922">
        <ele>-2.5999999046326</ele>
        <time>2021-09-23T10:00:43.000Z</time>
      </trkpt>
      <trkpt lat="47.27987" lon="-2.37915">
        <ele>-2.2000000476837</ele>
        <time>2021-09-23T10:00:44.000Z</time>
      </trkpt>
      <trkpt lat="47.27986" lon="-2.37908">
        <ele>-1.7999999523163</ele>
        <time>2021-09-23T10:00:45.000Z</time>
      </trkpt>
      <trkpt lat="47.27984" lon="-2.37893">
        <ele>-1.7999999523163</ele>
        <time>2021-09-23T10:00:47.000Z</time>
      </trkpt>
      <trkpt lat="47.27976" lon="-2.37846">
        <ele>-1.7999999523163</ele>
        <time>2021-09-23T10:00:54.000Z</time>
      </trkpt>
      <trkpt lat="47.27975" lon="-2.37839">
        <ele>-1.7999999523163</ele>
        <time>2021-09-23T10:00:55.000Z</time>
      </trkpt>
      <trkpt lat="47.27973" lon="-2.37824">
        <ele>-1.7999999523163</ele>
        <time>2021-09-23T10:00:57.000Z</time>
      </trkpt>
      <trkpt lat="47.27969" lon="-2.37811">
        <ele>-1.7999999523163</ele>
        <time>2021-09-23T10:00:59.000Z</time>
      </trkpt>
      <trkpt lat="47.27968" lon="-2.37804">
        <ele>-1.7999999523163</ele>
        <time>2021-09-23T10:01:00.000Z</time>
      </trkpt>
      <trkpt lat="47.27967" lon="-2.37792">
        <ele>-1.7999999523163</ele>
        <time>2021-09-23T10:01:03.000Z</time>
      </trkpt>
      <trkpt lat="47.27967" lon="-2.37783">
        <ele>-1.7999999523163</ele>
        <time>2021-09-23T10:01:06.000Z</time>
      </trkpt>
      <trkpt lat="47.27962" lon="-2.37769">
        <ele>-1.7999999523163</ele>
        <time>2021-09-23T10:01:09.000Z</time>
      </trkpt>
      <trkpt lat="47.2795" lon="-2.37726">
        <ele>-1.7999999523163</ele>
        <time>2021-09-23T10:01:16.000Z</time>
      </trkpt>
      <trkpt lat="47.27932" lon="-2.37656">
        <ele>-1.7999999523163</ele>
        <time>2021-09-23T10:01:25.000Z</time>
      </trkpt>
      <trkpt lat="47.27915" lon="-2.37583">
        <ele>-1.7999999523163</ele>
        <time>2021-09-23T10:01:34.000Z</time>
      </trkpt>
      <trkpt lat="47.27901" lon="-2.37525">
        <ele>-1.7999999523163</ele>
        <time>2021-09-23T10:01:41.000Z</time>
      </trkpt>
      <trkpt lat="47.27888" lon="-2.37469">
        <ele>-1.7999999523163</ele>
        <time>2021-09-23T10:01:48.000Z</time>
      </trkpt>
      <trkpt lat="47.27876" lon="-2.37419">
        <ele>-1.7999999523163</ele>
        <time>2021-09-23T10:01:54.000Z</time>
      </trkpt>
      <trkpt lat="47.27857" lon="-2.37348">
        <ele>-1.7999999523163</ele>
        <time>2021-09-23T10:02:03.000Z</time>
      </trkpt>
      <trkpt lat="47.27842" lon="-2.37291">
        <ele>-1.7999999523163</ele>
        <time>2021-09-23T10:02:10.000Z</time>
      </trkpt>
      <trkpt lat="47.27828" lon="-2.37238">
        <ele>-1.7999999523163</ele>
        <time>2021-09-23T10:02:17.000Z</time>
      </trkpt>
      <trkpt lat="47.27826" lon="-2.37226">
        <ele>-1.7999999523163</ele>
        <time>2021-09-23T10:02:19.000Z</time>
      </trkpt>
      <trkpt lat="47.27822" lon="-2.37208">
        <ele>-1.7999999523163</ele>
        <time>2021-09-23T10:02:22.000Z</time>
      </trkpt>
      <trkpt lat="47.27816" lon="-2.37189">
        <ele>-1.7999999523163</ele>
        <time>2021-09-23T10:02:25.000Z</time>
      </trkpt>
      <trkpt lat="47.27814" lon="-2.37174">
        <ele>-1.7999999523163</ele>
        <time>2021-09-23T10:02:27.000Z</time>
      </trkpt>
      <trkpt lat="47.27812" lon="-2.37166">
        <ele>-1.7999999523163</ele>
        <time>2021-09-23T10:02:28.000Z</time>
      </trkpt>
      <trkpt lat="47.27804" lon="-2.37145">
        <ele>-1.7999999523163</ele>
        <time>2021-09-23T10:02:31.000Z</time>
      </trkpt>
      <trkpt lat="47.27802" lon="-2.37136">
        <ele>-1.7999999523163</ele>
        <time>2021-09-23T10:02:32.000Z</time>
      </trkpt>
      <trkpt lat="47.27792" lon="-2.37095">
        <ele>-1.7999999523163</ele>
        <time>2021-09-23T10:02:37.000Z</time>
      </trkpt>
      <trkpt lat="47.27771" lon="-2.37019">
        <ele>-1.7999999523163</ele>
        <time>2021-09-23T10:02:47.000Z</time>
      </trkpt>
      <trkpt lat="47.27752" lon="-2.36951">
        <ele>-1.7999999523163</ele>
        <time>2021-09-23T10:02:55.000Z</time>
      </trkpt>
      <trkpt lat="47.27732" lon="-2.36884">
        <ele>-1.7999999523163</ele>
        <time>2021-09-23T10:03:03.000Z</time>
      </trkpt>
      <trkpt lat="47.27717" lon="-2.36829">
        <ele>-1.7999999523163</ele>
        <time>2021-09-23T10:03:10.000Z</time>
      </trkpt>
      <trkpt lat="47.27699" lon="-2.36774">
        <ele>-1.7999999523163</ele>
        <time>2021-09-23T10:03:17.000Z</time>
      </trkpt>
      <trkpt lat="47.27681" lon="-2.36722">
        <ele>-1.7999999523163</ele>
        <time>2021-09-23T10:03:24.000Z</time>
      </trkpt>
      <trkpt lat="47.2766" lon="-2.3666">
        <ele>-1.7999999523163</ele>
        <time>2021-09-23T10:03:32.000Z</time>
      </trkpt>
      <trkpt lat="47.27637" lon="-2.36589">
        <ele>-1.7999999523163</ele>
        <time>2021-09-23T10:03:41.000Z</time>
      </trkpt>
      <trkpt lat="47.27612" lon="-2.36518">
        <ele>-1.7999999523163</ele>
        <time>2021-09-23T10:03:50.000Z</time>
      </trkpt>
      <trkpt lat="47.27589" lon="-2.36455">
        <ele>-1.7999999523163</ele>
        <time>2021-09-23T10:03:58.000Z</time>
      </trkpt>
      <trkpt lat="47.27568" lon="-2.36401">
        <ele>-1.7999999523163</ele>
        <time>2021-09-23T10:04:05.000Z</time>
      </trkpt>
      <trkpt lat="47.27545" lon="-2.36339">
        <ele>-1.7999999523163</ele>
        <time>2021-09-23T10:04:13.000Z</time>
      </trkpt>
      <trkpt lat="47.27525" lon="-2.36285">
        <ele>-1.7999999523163</ele>
        <time>2021-09-23T10:04:20.000Z</time>
      </trkpt>
      <trkpt lat="47.27503" lon="-2.36225">
        <ele>-1.7999999523163</ele>
        <time>2021-09-23T10:04:28.000Z</time>
      </trkpt>
      <trkpt lat="47.27479" lon="-2.3616">
        <ele>-1.7999999523163</ele>
        <time>2021-09-23T10:04:37.000Z</time>
      </trkpt>
      <trkpt lat="47.2746" lon="-2.361">
        <ele>-1.7999999523163</ele>
        <time>2021-09-23T10:04:45.000Z</time>
      </trkpt>
      <trkpt lat="47.27448" lon="-2.36079">
        <ele>-1.7999999523163</ele>
        <time>2021-09-23T10:04:48.000Z</time>
      </trkpt>
      <trkpt lat="47.27445" lon="-2.36071">
        <ele>-1.7999999523163</ele>
        <time>2021-09-23T10:04:49.000Z</time>
      </trkpt>
      <trkpt lat="47.27427" lon="-2.3603">
        <ele>-1.7999999523163</ele>
        <time>2021-09-23T10:04:54.000Z</time>
      </trkpt>
      <trkpt lat="47.27398" lon="-2.35963">
        <ele>-1.7999999523163</ele>
        <time>2021-09-23T10:05:03.000Z</time>
      </trkpt>
      <trkpt lat="47.27373" lon="-2.35898">
        <ele>-1.7999999523163</ele>
        <time>2021-09-23T10:05:12.000Z</time>
      </trkpt>
      <trkpt lat="47.27349" lon="-2.35837">
        <ele>-1.7999999523163</ele>
        <time>2021-09-23T10:05:20.000Z</time>
      </trkpt>
      <trkpt lat="47.27332" lon="-2.3579">
        <ele>-1.7999999523163</ele>
        <time>2021-09-23T10:05:26.000Z</time>
      </trkpt>
      <trkpt lat="47.27327" lon="-2.35773">
        <ele>-1.7999999523163</ele>
        <time>2021-09-23T10:05:28.000Z</time>
      </trkpt>
      <trkpt lat="47.27323" lon="-2.35759">
        <ele>-1.7999999523163</ele>
        <time>2021-09-23T10:05:30.000Z</time>
      </trkpt>
      <trkpt lat="47.2732" lon="-2.35752">
        <ele>-1.7999999523163</ele>
        <time>2021-09-23T10:05:31.000Z</time>
      </trkpt>
      <trkpt lat="47.2731" lon="-2.35738">
        <ele>-2.2000000476837</ele>
        <time>2021-09-23T10:05:34.000Z</time>
      </trkpt>
      <trkpt lat="47.27308" lon="-2.35734">
        <ele>-2.5999999046326</ele>
        <time>2021-09-23T10:05:35.000Z</time>
      </trkpt>
      <trkpt lat="47.27306" lon="-2.35729">
        <ele>-3</ele>
        <time>2021-09-23T10:05:36.000Z</time>
      </trkpt>
      <trkpt lat="47.27304" lon="-2.35723">
        <ele>-3.4000000953674</ele>
        <time>2021-09-23T10:05:37.000Z</time>
      </trkpt>
      <trkpt lat="47.27301" lon="-2.35717">
        <ele>-3.7999999523163</ele>
        <time>2021-09-23T10:05:38.000Z</time>
      </trkpt>
      <trkpt lat="47.27296" lon="-2.35704">
        <ele>-3.7999999523163</ele>
        <time>2021-09-23T10:05:40.000Z</time>
      </trkpt>
      <trkpt lat="47.27276" lon="-2.35659">
        <ele>-3.7999999523163</ele>
        <time>2021-09-23T10:05:46.000Z</time>
      </trkpt>
      <trkpt lat="47.27273" lon="-2.35652">
        <ele>-3.7999999523163</ele>
        <time>2021-09-23T10:05:47.000Z</time>
      </trkpt>
      <trkpt lat="47.27256" lon="-2.35615">
        <ele>-3.7999999523163</ele>
        <time>2021-09-23T10:05:52.000Z</time>
      </trkpt>
      <trkpt lat="47.27229" lon="-2.35555">
        <ele>-3.7999999523163</ele>
        <time>2021-09-23T10:06:00.000Z</time>
      </trkpt>
      <trkpt lat="47.27207" lon="-2.35509">
        <ele>-3.7999999523163</ele>
        <time>2021-09-23T10:06:06.000Z</time>
      </trkpt>
      <trkpt lat="47.27179" lon="-2.35453">
        <ele>-3.7999999523163</ele>
        <time>2021-09-23T10:06:13.000Z</time>
      </trkpt>
      <trkpt lat="47.27146" lon="-2.35389">
        <ele>-3.7999999523163</ele>
        <time>2021-09-23T10:06:21.000Z</time>
      </trkpt>
      <trkpt lat="47.27119" lon="-2.35342">
        <ele>-3.7999999523163</ele>
        <time>2021-09-23T10:06:27.000Z</time>
      </trkpt>
      <trkpt lat="47.27114" lon="-2.35335">
        <ele>-3.7999999523163</ele>
        <time>2021-09-23T10:06:28.000Z</time>
      </trkpt>
      <trkpt lat="47.27076" lon="-2.35275">
        <ele>-3.7999999523163</ele>
        <time>2021-09-23T10:06:36.000Z</time>
      </trkpt>
      <trkpt lat="47.27038" lon="-2.35217">
        <ele>-3.7999999523163</ele>
        <time>2021-09-23T10:06:44.000Z</time>
      </trkpt>
      <trkpt lat="47.27033" lon="-2.3521">
        <ele>-3.7999999523163</ele>
        <time>2021-09-23T10:06:45.000Z</time>
      </trkpt>
      <trkpt lat="47.27007" lon="-2.35166">
        <ele>-3.7999999523163</ele>
        <time>2021-09-23T10:06:51.000Z</time>
      </trkpt>
      <trkpt lat="47.26974" lon="-2.35115">
        <ele>-3.7999999523163</ele>
        <time>2021-09-23T10:06:58.000Z</time>
      </trkpt>
      <trkpt lat="47.26937" lon="-2.35059">
        <ele>-3.7999999523163</ele>
        <time>2021-09-23T10:07:06.000Z</time>
      </trkpt>
      <trkpt lat="47.26903" lon="-2.35009">
        <ele>-3.7999999523163</ele>
        <time>2021-09-23T10:07:13.000Z</time>
      </trkpt>
      <trkpt lat="47.26865" lon="-2.34953">
        <ele>-3.7999999523163</ele>
        <time>2021-09-23T10:07:21.000Z</time>
      </trkpt>
      <trkpt lat="47.2686" lon="-2.34946">
        <ele>-3.7999999523163</ele>
        <time>2021-09-23T10:07:22.000Z</time>
      </trkpt>
      <trkpt lat="47.26828" lon="-2.34898">
        <ele>-3.7999999523163</ele>
        <time>2021-09-23T10:07:29.000Z</time>
      </trkpt>
      <trkpt lat="47.26786" lon="-2.34836">
        <ele>-3.7999999523163</ele>
        <time>2021-09-23T10:07:38.000Z</time>
      </trkpt>
      <trkpt lat="47.26767" lon="-2.34812">
        <ele>-3.7999999523163</ele>
        <time>2021-09-23T10:07:42.000Z</time>
      </trkpt>
      <trkpt lat="47.26758" lon="-2.34801">
        <ele>-3.7999999523163</ele>
        <time>2021-09-23T10:07:44.000Z</time>
      </trkpt>
      <trkpt lat="47.26735" lon="-2.3477">
        <ele>-3.7999999523163</ele>
        <time>2021-09-23T10:07:49.000Z</time>
      </trkpt>
      <trkpt lat="47.26694" lon="-2.34719">
        <ele>-3.7999999523163</ele>
        <time>2021-09-23T10:07:57.000Z</time>
      </trkpt>
      <trkpt lat="47.26657" lon="-2.34673">
        <ele>-3.7999999523163</ele>
        <time>2021-09-23T10:08:04.000Z</time>
      </trkpt>
      <trkpt lat="47.26626" lon="-2.34636">
        <ele>-3.7999999523163</ele>
        <time>2021-09-23T10:08:10.000Z</time>
      </trkpt>
      <trkpt lat="47.26586" lon="-2.34585">
        <ele>-3.7999999523163</ele>
        <time>2021-09-23T10:08:18.000Z</time>
      </trkpt>
      <trkpt lat="47.26548" lon="-2.34545">
        <ele>-3.7999999523163</ele>
        <time>2021-09-23T10:08:25.000Z</time>
      </trkpt>
      <trkpt lat="47.26508" lon="-2.34511">
        <ele>-3.7999999523163</ele>
        <time>2021-09-23T10:08:32.000Z</time>
      </trkpt>
      <trkpt lat="47.26458" lon="-2.34475">
        <ele>-3.7999999523163</ele>
        <time>2021-09-23T10:08:40.000Z</time>
      </trkpt>
      <trkpt lat="47.26411" lon="-2.34442">
        <ele>-3.7999999523163</ele>
        <time>2021-09-23T10:08:48.000Z</time>
      </trkpt>
      <trkpt lat="47.26371" lon="-2.34408">
        <ele>-3.7999999523163</ele>
        <time>2021-09-23T10:08:55.000Z</time>
      </trkpt>
      <trkpt lat="47.26332" lon="-2.34377">
        <ele>-3.7999999523163</ele>
        <time>2021-09-23T10:09:02.000Z</time>
      </trkpt>
      <trkpt lat="47.26326" lon="-2.34375">
        <ele>-3.7999999523163</ele>
        <time>2021-09-23T10:09:03.000Z</time>
      </trkpt>
      <trkpt lat="47.26313" lon="-2.34357">
        <ele>-3.7999999523163</ele>
        <time>2021-09-23T10:09:06.000Z</time>
      </trkpt>
      <trkpt lat="47.26298" lon="-2.34341">
        <ele>-3.7999999523163</ele>
        <time>2021-09-23T10:09:09.000Z</time>
      </trkpt>
      <trkpt lat="47.26287" lon="-2.3433">
        <ele>-3.7999999523163</ele>
        <time>2021-09-23T10:09:11.000Z</time>
      </trkpt>
      <trkpt lat="47.26251" lon="-2.3429">
        <ele>-3.7999999523163</ele>
        <time>2021-09-23T10:09:18.000Z</time>
      </trkpt>
      <trkpt lat="47.26215" lon="-2.34253">
        <ele>-3.7999999523163</ele>
        <time>2021-09-23T10:09:25.000Z</time>
      </trkpt>
      <trkpt lat="47.26172" lon="-2.34209">
        <ele>-3.7999999523163</ele>
        <time>2021-09-23T10:09:33.000Z</time>
      </trkpt>
      <trkpt lat="47.26145" lon="-2.34185">
        <ele>-3.7999999523163</ele>
        <time>2021-09-23T10:09:38.000Z</time>
      </trkpt>
      <trkpt lat="47.26132" lon="-2.34179">
        <ele>-3.7999999523163</ele>
        <time>2021-09-23T10:09:40.000Z</time>
      </trkpt>
      <trkpt lat="47.26111" lon="-2.3416">
        <ele>-3.7999999523163</ele>
        <time>2021-09-23T10:09:44.000Z</time>
      </trkpt>
      <trkpt lat="47.26099" lon="-2.34153">
        <ele>-3.7999999523163</ele>
        <time>2021-09-23T10:09:46.000Z</time>
      </trkpt>
      <trkpt lat="47.26074" lon="-2.3414">
        <ele>-3.7999999523163</ele>
        <time>2021-09-23T10:09:50.000Z</time>
      </trkpt>
      <trkpt lat="47.26019" lon="-2.34112">
        <ele>-3.7999999523163</ele>
        <time>2021-09-23T10:09:59.000Z</time>
      </trkpt>
      <trkpt lat="47.26013" lon="-2.34109">
        <ele>-3.7999999523163</ele>
        <time>2021-09-23T10:10:00.000Z</time>
      </trkpt>
      <trkpt lat="47.25978" lon="-2.34091">
        <ele>-3.7999999523163</ele>
        <time>2021-09-23T10:10:07.000Z</time>
      </trkpt>
      <trkpt lat="47.25944" lon="-2.34079">
        <ele>-3.7999999523163</ele>
        <time>2021-09-23T10:10:14.000Z</time>
      </trkpt>
      <trkpt lat="47.25929" lon="-2.34073">
        <ele>-4.4000000953674</ele>
        <time>2021-09-23T10:10:18.000Z</time>
      </trkpt>
      <trkpt lat="47.25926" lon="-2.34073">
        <ele>-4.8000001907349</ele>
        <time>2021-09-23T10:10:19.000Z</time>
      </trkpt>
      <trkpt lat="47.25922" lon="-2.34072">
        <ele>-5.1999998092651</ele>
        <time>2021-09-23T10:10:20.000Z</time>
      </trkpt>
      <trkpt lat="47.25918" lon="-2.34073">
        <ele>-5.5999999046326</ele>
        <time>2021-09-23T10:10:21.000Z</time>
      </trkpt>
      <trkpt lat="47.25914" lon="-2.34073">
        <ele>-6</ele>
        <time>2021-09-23T10:10:22.000Z</time>
      </trkpt>
      <trkpt lat="47.2591" lon="-2.34072">
        <ele>-6</ele>
        <time>2021-09-23T10:10:23.000Z</time>
      </trkpt>
      <trkpt lat="47.25905" lon="-2.34069">
        <ele>-6</ele>
        <time>2021-09-23T10:10:24.000Z</time>
      </trkpt>
      <trkpt lat="47.25896" lon="-2.34046">
        <ele>-6</ele>
        <time>2021-09-23T10:10:28.000Z</time>
      </trkpt>
      <trkpt lat="47.25899" lon="-2.34026">
        <ele>-6</ele>
        <time>2021-09-23T10:10:31.000Z</time>
      </trkpt>
      <trkpt lat="47.25908" lon="-2.33998">
        <ele>-6</ele>
        <time>2021-09-23T10:10:35.000Z</time>
      </trkpt>
      <trkpt lat="47.2591" lon="-2.33991">
        <ele>-6</ele>
        <time>2021-09-23T10:10:36.000Z</time>
      </trkpt>
      <trkpt lat="47.25916" lon="-2.3397">
        <ele>-6</ele>
        <time>2021-09-23T10:10:39.000Z</time>
      </trkpt>
      <trkpt lat="47.25926" lon="-2.33945">
        <ele>-6</ele>
        <time>2021-09-23T10:10:43.000Z</time>
      </trkpt>
      <trkpt lat="47.25929" lon="-2.33939">
        <ele>-6</ele>
        <time>2021-09-23T10:10:46.000Z</time>
      </trkpt>
      <trkpt lat="47.25938" lon="-2.33926">
        <ele>-6</ele>
        <time>2021-09-23T10:10:51.000Z</time>
      </trkpt>
      <trkpt lat="47.25944" lon="-2.33902">
        <ele>-6</ele>
        <time>2021-09-23T10:10:57.000Z</time>
      </trkpt>
      <trkpt lat="47.25951" lon="-2.33888">
        <ele>-6</ele>
        <time>2021-09-23T10:11:01.000Z</time>
      </trkpt>
      <trkpt lat="47.25958" lon="-2.33871">
        <ele>-6</ele>
        <time>2021-09-23T10:11:06.000Z</time>
      </trkpt>
      <trkpt lat="47.25964" lon="-2.33841">
        <ele>-6</ele>
        <time>2021-09-23T10:11:12.000Z</time>
      </trkpt>
      <trkpt lat="47.25978" lon="-2.33796">
        <ele>-6</ele>
        <time>2021-09-23T10:11:19.000Z</time>
      </trkpt>
      <trkpt lat="47.25996" lon="-2.33746">
        <ele>-6</ele>
        <time>2021-09-23T10:11:27.000Z</time>
      </trkpt>
      <trkpt lat="47.26012" lon="-2.33702">
        <ele>-6</ele>
        <time>2021-09-23T10:11:34.000Z</time>
      </trkpt>
      <trkpt lat="47.26022" lon="-2.33672">
        <ele>-6</ele>
        <time>2021-09-23T10:11:39.000Z</time>
      </trkpt>
      <trkpt lat="47.26025" lon="-2.33668">
        <ele>-6</ele>
        <time>2021-09-23T10:11:40.000Z</time>
      </trkpt>
      <trkpt lat="47.26032" lon="-2.33664">
        <ele>-6.5999999046326</ele>
        <time>2021-09-23T10:11:42.000Z</time>
      </trkpt>
      <trkpt lat="47.26037" lon="-2.33665">
        <ele>-7</ele>
        <time>2021-09-23T10:11:43.000Z</time>
      </trkpt>
      <trkpt lat="47.26041" lon="-2.33664">
        <ele>-7.4000000953674</ele>
        <time>2021-09-23T10:11:44.000Z</time>
      </trkpt>
      <trkpt lat="47.26045" lon="-2.33663">
        <ele>-7.8000001907349</ele>
        <time>2021-09-23T10:11:45.000Z</time>
      </trkpt>
      <trkpt lat="47.2605" lon="-2.33664">
        <ele>-8.1999998092651</ele>
        <time>2021-09-23T10:11:46.000Z</time>
      </trkpt>
      <trkpt lat="47.26054" lon="-2.33664">
        <ele>-8.1999998092651</ele>
        <time>2021-09-23T10:11:47.000Z</time>
      </trkpt>
      <trkpt lat="47.26057" lon="-2.3366">
        <ele>-8.1999998092651</ele>
        <time>2021-09-23T10:11:48.000Z</time>
      </trkpt>
      <trkpt lat="47.26059" lon="-2.33656">
        <ele>-8.1999998092651</ele>
        <time>2021-09-23T10:11:49.000Z</time>
      </trkpt>
      <trkpt lat="47.26065" lon="-2.3364">
        <ele>-8.1999998092651</ele>
        <time>2021-09-23T10:11:52.000Z</time>
      </trkpt>
      <trkpt lat="47.26068" lon="-2.33629">
        <ele>-8.1999998092651</ele>
        <time>2021-09-23T10:11:54.000Z</time>
      </trkpt>
      <trkpt lat="47.26071" lon="-2.33617">
        <ele>-7.8000001907349</ele>
        <time>2021-09-23T10:11:56.000Z</time>
      </trkpt>
      <trkpt lat="47.26073" lon="-2.33612">
        <ele>-7.4000000953674</ele>
        <time>2021-09-23T10:11:57.000Z</time>
      </trkpt>
      <trkpt lat="47.26074" lon="-2.33606">
        <ele>-7</ele>
        <time>2021-09-23T10:11:58.000Z</time>
      </trkpt>
      <trkpt lat="47.26077" lon="-2.336">
        <ele>-6.5999999046326</ele>
        <time>2021-09-23T10:11:59.000Z</time>
      </trkpt>
      <trkpt lat="47.26079" lon="-2.33593">
        <ele>-6.1999998092651</ele>
        <time>2021-09-23T10:12:00.000Z</time>
      </trkpt>
      <trkpt lat="47.26094" lon="-2.33549">
        <ele>-6.1999998092651</ele>
        <time>2021-09-23T10:12:07.000Z</time>
      </trkpt>
      <trkpt lat="47.26111" lon="-2.33501">
        <ele>-6.1999998092651</ele>
        <time>2021-09-23T10:12:15.000Z</time>
      </trkpt>
      <trkpt lat="47.26122" lon="-2.33466">
        <ele>-6.1999998092651</ele>
        <time>2021-09-23T10:12:22.000Z</time>
      </trkpt>
      <trkpt lat="47.26127" lon="-2.33452">
        <ele>-6.1999998092651</ele>
        <time>2021-09-23T10:12:26.000Z</time>
      </trkpt>
      <trkpt lat="47.26132" lon="-2.33433">
        <ele>-6.1999998092651</ele>
        <time>2021-09-23T10:12:31.000Z</time>
      </trkpt>
      <trkpt lat="47.26127" lon="-2.33417">
        <ele>-6.1999998092651</ele>
        <time>2021-09-23T10:12:35.000Z</time>
      </trkpt>
      <trkpt lat="47.26113" lon="-2.33406">
        <ele>-6.1999998092651</ele>
        <time>2021-09-23T10:12:39.000Z</time>
      </trkpt>
      <trkpt lat="47.26095" lon="-2.3338">
        <ele>-6.1999998092651</ele>
        <time>2021-09-23T10:12:44.000Z</time>
      </trkpt>
      <trkpt lat="47.26091" lon="-2.33377">
        <ele>-6.1999998092651</ele>
        <time>2021-09-23T10:12:45.000Z</time>
      </trkpt>
      <trkpt lat="47.26078" lon="-2.33363">
        <ele>-6.1999998092651</ele>
        <time>2021-09-23T10:12:48.000Z</time>
      </trkpt>
      <trkpt lat="47.26069" lon="-2.33341">
        <ele>-6.1999998092651</ele>
        <time>2021-09-23T10:12:51.000Z</time>
      </trkpt>
      <trkpt lat="47.26066" lon="-2.33333">
        <ele>-6.1999998092651</ele>
        <time>2021-09-23T10:12:52.000Z</time>
      </trkpt>
      <trkpt lat="47.26047" lon="-2.33276">
        <ele>-6.1999998092651</ele>
        <time>2021-09-23T10:13:00.000Z</time>
      </trkpt>
      <trkpt lat="47.26028" lon="-2.33221">
        <ele>-6.1999998092651</ele>
        <time>2021-09-23T10:13:07.000Z</time>
      </trkpt>
      <trkpt lat="47.26009" lon="-2.33167">
        <ele>-6.1999998092651</ele>
        <time>2021-09-23T10:13:14.000Z</time>
      </trkpt>
      <trkpt lat="47.25989" lon="-2.33104">
        <ele>-6.1999998092651</ele>
        <time>2021-09-23T10:13:22.000Z</time>
      </trkpt>
      <trkpt lat="47.25985" lon="-2.33088">
        <ele>-6.1999998092651</ele>
        <time>2021-09-23T10:13:24.000Z</time>
      </trkpt>
      <trkpt lat="47.25975" lon="-2.33065">
        <ele>-6.1999998092651</ele>
        <time>2021-09-23T10:13:27.000Z</time>
      </trkpt>
      <trkpt lat="47.25971" lon="-2.33057">
        <ele>-6.1999998092651</ele>
        <time>2021-09-23T10:13:28.000Z</time>
      </trkpt>
      <trkpt lat="47.25967" lon="-2.33048">
        <ele>-6.1999998092651</ele>
        <time>2021-09-23T10:13:29.000Z</time>
      </trkpt>
      <trkpt lat="47.25959" lon="-2.33021">
        <ele>-6.1999998092651</ele>
        <time>2021-09-23T10:13:32.000Z</time>
      </trkpt>
      <trkpt lat="47.25941" lon="-2.32962">
        <ele>-6.1999998092651</ele>
        <time>2021-09-23T10:13:39.000Z</time>
      </trkpt>
      <trkpt lat="47.25911" lon="-2.32885">
        <ele>-6.1999998092651</ele>
        <time>2021-09-23T10:13:48.000Z</time>
      </trkpt>
      <trkpt lat="47.25889" lon="-2.32823">
        <ele>-6.1999998092651</ele>
        <time>2021-09-23T10:13:55.000Z</time>
      </trkpt>
      <trkpt lat="47.2587" lon="-2.32768">
        <ele>-6.1999998092651</ele>
        <time>2021-09-23T10:14:01.000Z</time>
      </trkpt>
      <trkpt lat="47.25861" lon="-2.32728">
        <ele>-6.1999998092651</ele>
        <time>2021-09-23T10:14:06.000Z</time>
      </trkpt>
      <trkpt lat="47.25857" lon="-2.32707">
        <ele>-6.1999998092651</ele>
        <time>2021-09-23T10:14:09.000Z</time>
      </trkpt>
      <trkpt lat="47.25849" lon="-2.32687">
        <ele>-6.1999998092651</ele>
        <time>2021-09-23T10:14:12.000Z</time>
      </trkpt>
      <trkpt lat="47.25845" lon="-2.32671">
        <ele>-6.1999998092651</ele>
        <time>2021-09-23T10:14:14.000Z</time>
      </trkpt>
      <trkpt lat="47.25835" lon="-2.32638">
        <ele>-6.1999998092651</ele>
        <time>2021-09-23T10:14:18.000Z</time>
      </trkpt>
      <trkpt lat="47.25817" lon="-2.32562">
        <ele>-6.1999998092651</ele>
        <time>2021-09-23T10:14:27.000Z</time>
      </trkpt>
      <trkpt lat="47.25801" lon="-2.32497">
        <ele>-6.1999998092651</ele>
        <time>2021-09-23T10:14:35.000Z</time>
      </trkpt>
      <trkpt lat="47.25799" lon="-2.32475">
        <ele>-6.1999998092651</ele>
        <time>2021-09-23T10:14:38.000Z</time>
      </trkpt>
      <trkpt lat="47.258" lon="-2.32469">
        <ele>-6.1999998092651</ele>
        <time>2021-09-23T10:14:39.000Z</time>
      </trkpt>
      <trkpt lat="47.2581" lon="-2.32459">
        <ele>-6.1999998092651</ele>
        <time>2021-09-23T10:14:42.000Z</time>
      </trkpt>
      <trkpt lat="47.25813" lon="-2.32458">
        <ele>-6.1999998092651</ele>
        <time>2021-09-23T10:14:43.000Z</time>
      </trkpt>
      <trkpt lat="47.25821" lon="-2.32462">
        <ele>-6.1999998092651</ele>
        <time>2021-09-23T10:14:45.000Z</time>
      </trkpt>
      <trkpt lat="47.25839" lon="-2.32471">
        <ele>-6.1999998092651</ele>
        <time>2021-09-23T10:14:49.000Z</time>
      </trkpt>
      <trkpt lat="47.2585" lon="-2.32474">
        <ele>-6.1999998092651</ele>
        <time>2021-09-23T10:14:51.000Z</time>
      </trkpt>
      <trkpt lat="47.2586" lon="-2.32475">
        <ele>-6.1999998092651</ele>
        <time>2021-09-23T10:14:53.000Z</time>
      </trkpt>
      <trkpt lat="47.25875" lon="-2.32471">
        <ele>-6.1999998092651</ele>
        <time>2021-09-23T10:14:56.000Z</time>
      </trkpt>
      <trkpt lat="47.25896" lon="-2.32463">
        <ele>-6.1999998092651</ele>
        <time>2021-09-23T10:15:00.000Z</time>
      </trkpt>
      <trkpt lat="47.25901" lon="-2.32457">
        <ele>-6.1999998092651</ele>
        <time>2021-09-23T10:15:01.000Z</time>
      </trkpt>
      <trkpt lat="47.25922" lon="-2.32427">
        <ele>-6.1999998092651</ele>
        <time>2021-09-23T10:15:06.000Z</time>
      </trkpt>
      <trkpt lat="47.2595" lon="-2.32395">
        <ele>-6.1999998092651</ele>
        <time>2021-09-23T10:15:12.000Z</time>
      </trkpt>
      <trkpt lat="47.25956" lon="-2.32389">
        <ele>-6.1999998092651</ele>
        <time>2021-09-23T10:15:13.000Z</time>
      </trkpt>
      <trkpt lat="47.25985" lon="-2.32352">
        <ele>-6.1999998092651</ele>
        <time>2021-09-23T10:15:19.000Z</time>
      </trkpt>
      <trkpt lat="47.26016" lon="-2.32311">
        <ele>-6.1999998092651</ele>
        <time>2021-09-23T10:15:26.000Z</time>
      </trkpt>
      <trkpt lat="47.26047" lon="-2.32274">
        <ele>-6.1999998092651</ele>
        <time>2021-09-23T10:15:33.000Z</time>
      </trkpt>
      <trkpt lat="47.26079" lon="-2.32237">
        <ele>-6.1999998092651</ele>
        <time>2021-09-23T10:15:40.000Z</time>
      </trkpt>
      <trkpt lat="47.26102" lon="-2.322">
        <ele>-6.1999998092651</ele>
        <time>2021-09-23T10:15:46.000Z</time>
      </trkpt>
      <trkpt lat="47.26123" lon="-2.3215">
        <ele>-6.1999998092651</ele>
        <time>2021-09-23T10:15:53.000Z</time>
      </trkpt>
      <trkpt lat="47.26136" lon="-2.32105">
        <ele>-6.1999998092651</ele>
        <time>2021-09-23T10:15:59.000Z</time>
      </trkpt>
      <trkpt lat="47.26153" lon="-2.32049">
        <ele>-6.1999998092651</ele>
        <time>2021-09-23T10:16:07.000Z</time>
      </trkpt>
      <trkpt lat="47.26162" lon="-2.32026">
        <ele>-6.1999998092651</ele>
        <time>2021-09-23T10:16:11.000Z</time>
      </trkpt>
      <trkpt lat="47.26166" lon="-2.32022">
        <ele>-6.1999998092651</ele>
        <time>2021-09-23T10:16:12.000Z</time>
      </trkpt>
      <trkpt lat="47.26178" lon="-2.32022">
        <ele>-6.1999998092651</ele>
        <time>2021-09-23T10:16:15.000Z</time>
      </trkpt>
      <trkpt lat="47.26183" lon="-2.32024">
        <ele>-6.1999998092651</ele>
        <time>2021-09-23T10:16:16.000Z</time>
      </trkpt>
      <trkpt lat="47.26193" lon="-2.32027">
        <ele>-6.1999998092651</ele>
        <time>2021-09-23T10:16:20.000Z</time>
      </trkpt>
      <trkpt lat="47.26195" lon="-2.32025">
        <ele>-6.1999998092651</ele>
        <time>2021-09-23T10:16:21.000Z</time>
      </trkpt>
      <trkpt lat="47.26199" lon="-2.32017">
        <ele>-6.1999998092651</ele>
        <time>2021-09-23T10:16:23.000Z</time>
      </trkpt>
      <trkpt lat="47.26206" lon="-2.32004">
        <ele>-6.8000001907349</ele>
        <time>2021-09-23T10:16:27.000Z</time>
      </trkpt>
      <trkpt lat="47.26209" lon="-2.32">
        <ele>-7.1999998092651</ele>
        <time>2021-09-23T10:16:28.000Z</time>
      </trkpt>
      <trkpt lat="47.26212" lon="-2.31997">
        <ele>-8</ele>
        <time>2021-09-23T10:16:29.000Z</time>
      </trkpt>
      <trkpt lat="47.26215" lon="-2.31993">
        <ele>-8.3999996185303</ele>
        <time>2021-09-23T10:16:30.000Z</time>
      </trkpt>
      <trkpt lat="47.26222" lon="-2.31985">
        <ele>-8.3999996185303</ele>
        <time>2021-09-23T10:16:32.000Z</time>
      </trkpt>
      <trkpt lat="47.26226" lon="-2.31982">
        <ele>-8.3999996185303</ele>
        <time>2021-09-23T10:16:33.000Z</time>
      </trkpt>
      <trkpt lat="47.26238" lon="-2.31977">
        <ele>-8.3999996185303</ele>
        <time>2021-09-23T10:16:36.000Z</time>
      </trkpt>
      <trkpt lat="47.26241" lon="-2.31971">
        <ele>-8.3999996185303</ele>
        <time>2021-09-23T10:16:37.000Z</time>
      </trkpt>
      <trkpt lat="47.26255" lon="-2.31944">
        <ele>-8.3999996185303</ele>
        <time>2021-09-23T10:16:42.000Z</time>
      </trkpt>
      <trkpt lat="47.26265" lon="-2.31928">
        <ele>-8.3999996185303</ele>
        <time>2021-09-23T10:16:46.000Z</time>
      </trkpt>
      <trkpt lat="47.26276" lon="-2.31912">
        <ele>-8.3999996185303</ele>
        <time>2021-09-23T10:16:49.000Z</time>
      </trkpt>
      <trkpt lat="47.26287" lon="-2.31903">
        <ele>-8.3999996185303</ele>
        <time>2021-09-23T10:16:51.000Z</time>
      </trkpt>
      <trkpt lat="47.26299" lon="-2.31884">
        <ele>-8.3999996185303</ele>
        <time>2021-09-23T10:16:55.000Z</time>
      </trkpt>
      <trkpt lat="47.26298" lon="-2.31875">
        <ele>-8.3999996185303</ele>
        <time>2021-09-23T10:16:56.000Z</time>
      </trkpt>
      <trkpt lat="47.263" lon="-2.31828">
        <ele>-8.3999996185303</ele>
        <time>2021-09-23T10:17:02.000Z</time>
      </trkpt>
      <trkpt lat="47.26301" lon="-2.31775">
        <ele>-8.3999996185303</ele>
        <time>2021-09-23T10:17:09.000Z</time>
      </trkpt>
      <trkpt lat="47.26298" lon="-2.31727">
        <ele>-8.3999996185303</ele>
        <time>2021-09-23T10:17:16.000Z</time>
      </trkpt>
      <trkpt lat="47.26304" lon="-2.3172">
        <ele>-8.3999996185303</ele>
        <time>2021-09-23T10:17:18.000Z</time>
      </trkpt>
      <trkpt lat="47.26309" lon="-2.31717">
        <ele>-8.3999996185303</ele>
        <time>2021-09-23T10:17:19.000Z</time>
      </trkpt>
      <trkpt lat="47.26313" lon="-2.31716">
        <ele>-8</ele>
        <time>2021-09-23T10:17:20.000Z</time>
      </trkpt>
      <trkpt lat="47.26318" lon="-2.31714">
        <ele>-7.5999999046326</ele>
        <time>2021-09-23T10:17:21.000Z</time>
      </trkpt>
      <trkpt lat="47.26322" lon="-2.31712">
        <ele>-7.1999998092651</ele>
        <time>2021-09-23T10:17:22.000Z</time>
      </trkpt>
      <trkpt lat="47.26326" lon="-2.31709">
        <ele>-6.8000001907349</ele>
        <time>2021-09-23T10:17:23.000Z</time>
      </trkpt>
      <trkpt lat="47.26328" lon="-2.31704">
        <ele>-6.4000000953674</ele>
        <time>2021-09-23T10:17:24.000Z</time>
      </trkpt>
      <trkpt lat="47.26329" lon="-2.31699">
        <ele>-6.4000000953674</ele>
        <time>2021-09-23T10:17:25.000Z</time>
      </trkpt>
      <trkpt lat="47.2634" lon="-2.3169">
        <ele>-6.4000000953674</ele>
        <time>2021-09-23T10:17:28.000Z</time>
      </trkpt>
      <trkpt lat="47.26344" lon="-2.31688">
        <ele>-6.4000000953674</ele>
        <time>2021-09-23T10:17:29.000Z</time>
      </trkpt>
      <trkpt lat="47.26352" lon="-2.31683">
        <ele>-6</ele>
        <time>2021-09-23T10:17:31.000Z</time>
      </trkpt>
      <trkpt lat="47.26356" lon="-2.31681">
        <ele>-5.5999999046326</ele>
        <time>2021-09-23T10:17:32.000Z</time>
      </trkpt>
      <trkpt lat="47.2636" lon="-2.3168">
        <ele>-5.1999998092651</ele>
        <time>2021-09-23T10:17:33.000Z</time>
      </trkpt>
      <trkpt lat="47.26364" lon="-2.31678">
        <ele>-4.5999999046326</ele>
        <time>2021-09-23T10:17:34.000Z</time>
      </trkpt>
      <trkpt lat="47.26368" lon="-2.31677">
        <ele>-4.1999998092651</ele>
        <time>2021-09-23T10:17:35.000Z</time>
      </trkpt>
      <trkpt lat="47.26382" lon="-2.31668">
        <ele>-4.1999998092651</ele>
        <time>2021-09-23T10:17:39.000Z</time>
      </trkpt>
      <trkpt lat="47.26402" lon="-2.31658">
        <ele>-4.1999998092651</ele>
        <time>2021-09-23T10:17:45.000Z</time>
      </trkpt>
      <trkpt lat="47.26407" lon="-2.31649">
        <ele>-4.1999998092651</ele>
        <time>2021-09-23T10:17:47.000Z</time>
      </trkpt>
      <trkpt lat="47.26405" lon="-2.31644">
        <ele>-4.1999998092651</ele>
        <time>2021-09-23T10:17:48.000Z</time>
      </trkpt>
      <trkpt lat="47.26404" lon="-2.31633">
        <ele>-3.7999999523163</ele>
        <time>2021-09-23T10:17:50.000Z</time>
      </trkpt>
      <trkpt lat="47.26404" lon="-2.31628">
        <ele>-3.4000000953674</ele>
        <time>2021-09-23T10:17:51.000Z</time>
      </trkpt>
      <trkpt lat="47.26404" lon="-2.31622">
        <ele>-3</ele>
        <time>2021-09-23T10:17:52.000Z</time>
      </trkpt>
      <trkpt lat="47.26404" lon="-2.31617">
        <ele>-2.5999999046326</ele>
        <time>2021-09-23T10:17:53.000Z</time>
      </trkpt>
      <trkpt lat="47.26405" lon="-2.31612">
        <ele>-2.2000000476837</ele>
        <time>2021-09-23T10:17:54.000Z</time>
      </trkpt>
      <trkpt lat="47.26405" lon="-2.31574">
        <ele>-2.2000000476837</ele>
        <time>2021-09-23T10:18:01.000Z</time>
      </trkpt>
      <trkpt lat="47.26408" lon="-2.31554">
        <ele>-2.2000000476837</ele>
        <time>2021-09-23T10:18:06.000Z</time>
      </trkpt>
      <trkpt lat="47.26412" lon="-2.31554">
        <ele>-2.2000000476837</ele>
        <time>2021-09-23T10:18:07.000Z</time>
      </trkpt>
      <trkpt lat="47.26417" lon="-2.31554">
        <ele>-2.2000000476837</ele>
        <time>2021-09-23T10:18:11.000Z</time>
      </trkpt>
      <trkpt lat="47.26417" lon="-2.31554">
        <ele>-2.2000000476837</ele>
        <time>2021-09-23T10:18:12.000Z</time>
      </trkpt>
    </trkseg>
  </trk>
</gpx>